<?xml version='1.0' encoding='UTF-8'?><gpx version="1.1" creator="JPX - https://github.com/jenetics/jpx" xmlns="http://www.topografix.com/GPX/1/1"><trk><trkseg><trkpt lat="43.782978104141726" lon="10.921425969427347"><ele>57.99999999999999</ele><time>2026-03-22T08:34:20.999Z</time></trkpt><trkpt lat="43.78305558841738" lon="10.921442643527296"><ele>58.0</ele><time>2026-03-22T08:34:24.999Z</time></trkpt><trkpt lat="43.78307940767743" lon="10.921540426234964"><ele>58.0</ele><time>2026-03-22T08:34:29Z</time></trkpt><trkpt lat="43.78311192453405" lon="10.921616621812559"><ele>58.0</ele><time>2026-03-22T08:34:32Z</time></trkpt><trkpt lat="43.78313420092482" lon="10.921721987496237"><ele>57.99999999999999</ele><time>2026-03-22T08:34:36Z</time></trkpt><trkpt lat="43.78316915933251" lon="10.921819623007293"><ele>58.0</ele><time>2026-03-22T08:34:40Z</time></trkpt><trkpt lat="43.78321594601259" lon="10.921902628009573"><ele>58.571428571428584</ele><time>2026-03-22T08:34:44Z</time></trkpt><trkpt lat="43.78325171688393" lon="10.921989743079799"><ele>59.142857142857146</ele><time>2026-03-22T08:34:48Z</time></trkpt><trkpt lat="43.78330029703365" lon="10.922055642863048"><ele>59.71428571428572</ele><time>2026-03-22T08:34:52Z</time></trkpt><trkpt lat="43.7833415471964" lon="10.922149591849646"><ele>60.28571428571429</ele><time>2026-03-22T08:34:56Z</time></trkpt><trkpt lat="43.78337032431744" lon="10.922242454309568"><ele>60.85714285714286</ele><time>2026-03-22T08:35:00Z</time></trkpt><trkpt lat="43.78340230342005" lon="10.92232808908863"><ele>61.42857142857143</ele><time>2026-03-22T08:35:04Z</time></trkpt><trkpt lat="43.78342422956204" lon="10.92241650134883"><ele>62.0</ele><time>2026-03-22T08:35:07Z</time></trkpt><trkpt lat="43.78345681499908" lon="10.922492130579204"><ele>62.0</ele><time>2026-03-22T08:35:10Z</time></trkpt><trkpt lat="43.78347876361873" lon="10.922578171336914"><ele>62.00000000000001</ele><time>2026-03-22T08:35:13Z</time></trkpt><trkpt lat="43.78350881071613" lon="10.922655544287023"><ele>62.0</ele><time>2026-03-22T08:35:15.999Z</time></trkpt><trkpt lat="43.783537202737634" lon="10.922757065633077"><ele>62.0</ele><time>2026-03-22T08:35:19.999Z</time></trkpt><trkpt lat="43.783576894899" lon="10.922826591319057"><ele>62.00000000000001</ele><time>2026-03-22T08:35:22.999Z</time></trkpt><trkpt lat="43.783618033096054" lon="10.922912133697896"><ele>62.0</ele><time>2026-03-22T08:35:26.999Z</time></trkpt><trkpt lat="43.78365535928014" lon="10.922987053627905"><ele>62.0</ele><time>2026-03-22T08:35:29.999Z</time></trkpt><trkpt lat="43.78370877089219" lon="10.923073933770425"><ele>62.00000000000001</ele><time>2026-03-22T08:35:33.999Z</time></trkpt><trkpt lat="43.783745632134334" lon="10.923145358915807"><ele>62.0</ele><time>2026-03-22T08:35:36.999Z</time></trkpt><trkpt lat="43.78378490907504" lon="10.923233532376258"><ele>62.0</ele><time>2026-03-22T08:35:40.999Z</time></trkpt><trkpt lat="43.78382909429626" lon="10.923326910778602"><ele>62.0</ele><time>2026-03-22T08:35:44.999Z</time></trkpt><trkpt lat="43.78386421503893" lon="10.923425185137232"><ele>62.00000000000001</ele><time>2026-03-22T08:35:48.999Z</time></trkpt><trkpt lat="43.78390408912535" lon="10.923524953010663"><ele>62.0</ele><time>2026-03-22T08:35:52.999Z</time></trkpt><trkpt lat="43.78393761755787" lon="10.923630733898365"><ele>63.16666666666667</ele><time>2026-03-22T08:35:56.999Z</time></trkpt><trkpt lat="43.78398471692587" lon="10.92372700370675"><ele>64.33333333333334</ele><time>2026-03-22T08:36:00.999Z</time></trkpt><trkpt lat="43.78402910837635" lon="10.923824093042784"><ele>65.5</ele><time>2026-03-22T08:36:04.999Z</time></trkpt><trkpt lat="43.784070248462896" lon="10.92390756961515"><ele>66.66666666666667</ele><time>2026-03-22T08:36:09Z</time></trkpt><trkpt lat="43.7840991708116" lon="10.92400284388808"><ele>67.83333333333333</ele><time>2026-03-22T08:36:13Z</time></trkpt><trkpt lat="43.78413018837156" lon="10.924099684035014"><ele>69.0</ele><time>2026-03-22T08:36:17Z</time></trkpt><trkpt lat="43.7841662226595" lon="10.924197755074855"><ele>69.28571428571429</ele><time>2026-03-22T08:36:21Z</time></trkpt><trkpt lat="43.784213650453424" lon="10.924268726286204"><ele>69.57142857142858</ele><time>2026-03-22T08:36:25Z</time></trkpt><trkpt lat="43.78423327564334" lon="10.924369796341558"><ele>69.85714285714286</ele><time>2026-03-22T08:36:29Z</time></trkpt><trkpt lat="43.78426927261714" lon="10.924453019718305"><ele>70.14285714285714</ele><time>2026-03-22T08:36:33Z</time></trkpt><trkpt lat="43.78430113157695" lon="10.924532878508657"><ele>70.42857142857142</ele><time>2026-03-22T08:36:36Z</time></trkpt><trkpt lat="43.784352550808386" lon="10.92459084832981"><ele>70.71428571428571</ele><time>2026-03-22T08:36:39Z</time></trkpt><trkpt lat="43.784392133790554" lon="10.924669124909107"><ele>71.0</ele><time>2026-03-22T08:36:42Z</time></trkpt><trkpt lat="43.78443538071063" lon="10.924747326377583"><ele>71.16666666666667</ele><time>2026-03-22T08:36:45Z</time></trkpt><trkpt lat="43.784491951483105" lon="10.924808666308314"><ele>71.33333333333334</ele><time>2026-03-22T08:36:48Z</time></trkpt><trkpt lat="43.784550503324134" lon="10.924865424154255"><ele>71.5</ele><time>2026-03-22T08:36:51Z</time></trkpt><trkpt lat="43.78462610420598" lon="10.92489253844815"><ele>71.66666666666667</ele><time>2026-03-22T08:36:54Z</time></trkpt><trkpt lat="43.78469321429519" lon="10.924964035484228"><ele>71.83333333333333</ele><time>2026-03-22T08:36:58Z</time></trkpt><trkpt lat="43.78474971522528" lon="10.925028077404216"><ele>72.0</ele><time>2026-03-22T08:37:01Z</time></trkpt><trkpt lat="43.784796822694545" lon="10.92510231794269"><ele>71.57142857142858</ele><time>2026-03-22T08:37:04Z</time></trkpt><trkpt lat="43.784843051613294" lon="10.925167045684432"><ele>71.14285714285714</ele><time>2026-03-22T08:37:07Z</time></trkpt><trkpt lat="43.78490074108435" lon="10.925220552999566"><ele>70.71428571428572</ele><time>2026-03-22T08:37:10Z</time></trkpt><trkpt lat="43.784963287334186" lon="10.925287721844647"><ele>70.28571428571429</ele><time>2026-03-22T08:37:14Z</time></trkpt><trkpt lat="43.785026776612376" lon="10.925361295758103"><ele>69.85714285714286</ele><time>2026-03-22T08:37:18Z</time></trkpt><trkpt lat="43.78508087200623" lon="10.925432644603571"><ele>69.42857142857143</ele><time>2026-03-22T08:37:22Z</time></trkpt><trkpt lat="43.78515016298006" lon="10.925475545451471"><ele>69.0</ele><time>2026-03-22T08:37:25.999Z</time></trkpt><trkpt lat="43.78522620721" lon="10.92551749827143"><ele>69.71428571428572</ele><time>2026-03-22T08:37:28.999Z</time></trkpt><trkpt lat="43.78530191392871" lon="10.925547797278185"><ele>70.42857142857143</ele><time>2026-03-22T08:37:31.999Z</time></trkpt><trkpt lat="43.78536491459089" lon="10.925598906991398"><ele>71.14285714285714</ele><time>2026-03-22T08:37:34.999Z</time></trkpt><trkpt lat="43.78541181606418" lon="10.925682312239243"><ele>71.85714285714286</ele><time>2026-03-22T08:37:37.999Z</time></trkpt><trkpt lat="43.78545172635601" lon="10.925765600142082"><ele>72.57142857142857</ele><time>2026-03-22T08:37:40.999Z</time></trkpt><trkpt lat="43.78549989488043" lon="10.92583089373149"><ele>73.28571428571429</ele><time>2026-03-22T08:37:43.999Z</time></trkpt><trkpt lat="43.78555521432312" lon="10.925909754108078"><ele>74.0</ele><time>2026-03-22T08:37:47.999Z</time></trkpt><trkpt lat="43.78560493442533" lon="10.925989359980294"><ele>74.0</ele><time>2026-03-22T08:37:51.999Z</time></trkpt><trkpt lat="43.785641215029486" lon="10.92609199320613"><ele>74.0</ele><time>2026-03-22T08:37:55.999Z</time></trkpt><trkpt lat="43.78569674369711" lon="10.926178359978564"><ele>74.0</ele><time>2026-03-22T08:37:59.999Z</time></trkpt><trkpt lat="43.785718253947664" lon="10.926294642150213"><ele>74.0</ele><time>2026-03-22T08:38:03.999Z</time></trkpt><trkpt lat="43.78575461444517" lon="10.926367739397566"><ele>74.0</ele><time>2026-03-22T08:38:06.999Z</time></trkpt><trkpt lat="43.78579863267354" lon="10.926471722884717"><ele>74.0</ele><time>2026-03-22T08:38:10.999Z</time></trkpt><trkpt lat="43.78585249006457" lon="10.92652925417364"><ele>74.0</ele><time>2026-03-22T08:38:14.001Z</time></trkpt><trkpt lat="43.785908592001" lon="10.926593582266465"><ele>74.0</ele><time>2026-03-22T08:38:17.001Z</time></trkpt><trkpt lat="43.78596397331384" lon="10.926660594909025"><ele>74.0</ele><time>2026-03-22T08:38:20Z</time></trkpt><trkpt lat="43.786030320221506" lon="10.92671593450733"><ele>74.0</ele><time>2026-03-22T08:38:23Z</time></trkpt><trkpt lat="43.78608146017721" lon="10.92678648965422"><ele>74.0</ele><time>2026-03-22T08:38:26Z</time></trkpt><trkpt lat="43.78613210765461" lon="10.926843956188462"><ele>74.0</ele><time>2026-03-22T08:38:29Z</time></trkpt><trkpt lat="43.78619388893222" lon="10.92688083451348"><ele>74.0</ele><time>2026-03-22T08:38:32Z</time></trkpt><trkpt lat="43.78624745960665" lon="10.92693193079856"><ele>74.42857142857143</ele><time>2026-03-22T08:38:35Z</time></trkpt><trkpt lat="43.78629632860411" lon="10.926994020930774"><ele>74.85714285714286</ele><time>2026-03-22T08:38:38Z</time></trkpt><trkpt lat="43.786369302782276" lon="10.927053675239"><ele>75.28571428571428</ele><time>2026-03-22T08:38:42Z</time></trkpt><trkpt lat="43.7864241182326" lon="10.927107431958385"><ele>75.71428571428572</ele><time>2026-03-22T08:38:45Z</time></trkpt><trkpt lat="43.786477976616084" lon="10.927163123027643"><ele>76.14285714285714</ele><time>2026-03-22T08:38:48Z</time></trkpt><trkpt lat="43.78653309276735" lon="10.927207644875994"><ele>76.57142857142857</ele><time>2026-03-22T08:38:51Z</time></trkpt><trkpt lat="43.786594221550885" lon="10.927240740425141"><ele>77.0</ele><time>2026-03-22T08:38:54Z</time></trkpt><trkpt lat="43.78665311440689" lon="10.927285900276607"><ele>77.0</ele><time>2026-03-22T08:38:57Z</time></trkpt><trkpt lat="43.78671872418277" lon="10.927311715587825"><ele>77.0</ele><time>2026-03-22T08:39:00Z</time></trkpt><trkpt lat="43.78677907287988" lon="10.927350837785664"><ele>77.0</ele><time>2026-03-22T08:39:03Z</time></trkpt><trkpt lat="43.78684040545965" lon="10.927387873501992"><ele>77.0</ele><time>2026-03-22T08:39:06Z</time></trkpt><trkpt lat="43.78689983382782" lon="10.92743075009893"><ele>77.0</ele><time>2026-03-22T08:39:09Z</time></trkpt><trkpt lat="43.78696239101759" lon="10.92747502741374"><ele>77.0</ele><time>2026-03-22T08:39:12Z</time></trkpt><trkpt lat="43.78702523889245" lon="10.92751607857021"><ele>77.0</ele><time>2026-03-22T08:39:15Z</time></trkpt><trkpt lat="43.78709066421991" lon="10.927550120252052"><ele>76.28571428571429</ele><time>2026-03-22T08:39:18Z</time></trkpt><trkpt lat="43.78712635052631" lon="10.927629937525442"><ele>75.57142857142857</ele><time>2026-03-22T08:39:21Z</time></trkpt><trkpt lat="43.78719230334298" lon="10.927694443462102"><ele>74.85714285714286</ele><time>2026-03-22T08:39:24Z</time></trkpt><trkpt lat="43.78725530275908" lon="10.927726764508131"><ele>74.14285714285714</ele><time>2026-03-22T08:39:27Z</time></trkpt><trkpt lat="43.787319839155316" lon="10.927768596331692"><ele>73.42857142857143</ele><time>2026-03-22T08:39:29.999Z</time></trkpt><trkpt lat="43.78738492945362" lon="10.927800561270757"><ele>72.71428571428572</ele><time>2026-03-22T08:39:32.999Z</time></trkpt><trkpt lat="43.78744729227462" lon="10.92784657485588"><ele>72.0</ele><time>2026-03-22T08:39:35.999Z</time></trkpt><trkpt lat="43.78751913888391" lon="10.92786852128653"><ele>72.00000000000001</ele><time>2026-03-22T08:39:38.999Z</time></trkpt><trkpt lat="43.78758076768042" lon="10.927919826455788"><ele>72.0</ele><time>2026-03-22T08:39:41.999Z</time></trkpt><trkpt lat="43.78765063130553" lon="10.927960112675757"><ele>72.0</ele><time>2026-03-22T08:39:44.999Z</time></trkpt><trkpt lat="43.78772182934074" lon="10.927990361364058"><ele>72.0</ele><time>2026-03-22T08:39:47.999Z</time></trkpt><trkpt lat="43.78779375442534" lon="10.928023946571544"><ele>72.0</ele><time>2026-03-22T08:39:50.999Z</time></trkpt><trkpt lat="43.78785770929249" lon="10.928052593826143"><ele>72.00000000000001</ele><time>2026-03-22T08:39:53.999Z</time></trkpt><trkpt lat="43.78792318044539" lon="10.92808190214734"><ele>72.0</ele><time>2026-03-22T08:39:56.999Z</time></trkpt><trkpt lat="43.78798572992224" lon="10.928132405016958"><ele>73.42857142857143</ele><time>2026-03-22T08:39:59.999Z</time></trkpt><trkpt lat="43.78804892067271" lon="10.92820281441221"><ele>74.85714285714286</ele><time>2026-03-22T08:40:02.999Z</time></trkpt><trkpt lat="43.78810789612605" lon="10.92824689231596"><ele>76.28571428571428</ele><time>2026-03-22T08:40:05.999Z</time></trkpt><trkpt lat="43.78817326131092" lon="10.928282342629293"><ele>77.71428571428572</ele><time>2026-03-22T08:40:08.999Z</time></trkpt><trkpt lat="43.788237531664386" lon="10.928296732249311"><ele>79.14285714285714</ele><time>2026-03-22T08:40:11.999Z</time></trkpt><trkpt lat="43.78830049113173" lon="10.928332180662604"><ele>80.57142857142857</ele><time>2026-03-22T08:40:14.999Z</time></trkpt><trkpt lat="43.78836841773801" lon="10.928350001792394"><ele>82.0</ele><time>2026-03-22T08:40:17.999Z</time></trkpt><trkpt lat="43.788430357931134" lon="10.928373144716542"><ele>82.28571428571428</ele><time>2026-03-22T08:40:21Z</time></trkpt><trkpt lat="43.78849321652569" lon="10.928400924059474"><ele>82.57142857142857</ele><time>2026-03-22T08:40:24Z</time></trkpt><trkpt lat="43.78855944972839" lon="10.928399561813618"><ele>82.85714285714286</ele><time>2026-03-22T08:40:27Z</time></trkpt><trkpt lat="43.78862579844825" lon="10.928409297034289"><ele>83.14285714285714</ele><time>2026-03-22T08:40:30Z</time></trkpt><trkpt lat="43.78869192902955" lon="10.928424071621434"><ele>83.42857142857143</ele><time>2026-03-22T08:40:33Z</time></trkpt><trkpt lat="43.788755816173484" lon="10.928431268137937"><ele>83.71428571428571</ele><time>2026-03-22T08:40:36Z</time></trkpt><trkpt lat="43.788821711676356" lon="10.928444944827577"><ele>84.0</ele><time>2026-03-22T08:40:39Z</time></trkpt><trkpt lat="43.788875409333485" lon="10.928496573932817"><ele>84.0</ele><time>2026-03-22T08:40:42Z</time></trkpt><trkpt lat="43.78894197958202" lon="10.928555421619597"><ele>84.0</ele><time>2026-03-22T08:40:46Z</time></trkpt><trkpt lat="43.78901379283676" lon="10.928612764182738"><ele>84.0</ele><time>2026-03-22T08:40:50Z</time></trkpt><trkpt lat="43.789072608185" lon="10.928651007267309"><ele>84.0</ele><time>2026-03-22T08:40:53Z</time></trkpt><trkpt lat="43.789136411269375" lon="10.928694466456907"><ele>84.0</ele><time>2026-03-22T08:40:56Z</time></trkpt><trkpt lat="43.78918943736817" lon="10.928768555844407"><ele>84.0</ele><time>2026-03-22T08:40:59Z</time></trkpt><trkpt lat="43.78924459418797" lon="10.92882026754814"><ele>84.0</ele><time>2026-03-22T08:41:02Z</time></trkpt><trkpt lat="43.78930084262043" lon="10.928866380349769"><ele>85.14285714285714</ele><time>2026-03-22T08:41:05Z</time></trkpt><trkpt lat="43.78937494876842" lon="10.928907323326994"><ele>86.28571428571428</ele><time>2026-03-22T08:41:09Z</time></trkpt><trkpt lat="43.789455300410424" lon="10.928939555819806"><ele>87.42857142857143</ele><time>2026-03-22T08:41:13Z</time></trkpt><trkpt lat="43.789523654411" lon="10.92894175971885"><ele>88.57142857142857</ele><time>2026-03-22T08:41:16Z</time></trkpt><trkpt lat="43.789589366303844" lon="10.928964463848423"><ele>89.71428571428571</ele><time>2026-03-22T08:41:19Z</time></trkpt><trkpt lat="43.789654546877934" lon="10.928975583903334"><ele>90.85714285714286</ele><time>2026-03-22T08:41:22Z</time></trkpt><trkpt lat="43.789720573885035" lon="10.928976784067858"><ele>92.0</ele><time>2026-03-22T08:41:25Z</time></trkpt><trkpt lat="43.78979691984134" lon="10.92899507953533"><ele>92.0</ele><time>2026-03-22T08:41:29Z</time></trkpt><trkpt lat="43.78988202005202" lon="10.929013840025526"><ele>92.0</ele><time>2026-03-22T08:41:32.999Z</time></trkpt><trkpt lat="43.789949522008875" lon="10.92903291229448"><ele>92.0</ele><time>2026-03-22T08:41:35.999Z</time></trkpt><trkpt lat="43.79002608136812" lon="10.929047291312358"><ele>92.0</ele><time>2026-03-22T08:41:39.999Z</time></trkpt><trkpt lat="43.79010500368169" lon="10.92904876088301"><ele>92.0</ele><time>2026-03-22T08:41:42.999Z</time></trkpt><trkpt lat="43.79016960602633" lon="10.929093950985957"><ele>92.0</ele><time>2026-03-22T08:41:45.999Z</time></trkpt><trkpt lat="43.79022707188305" lon="10.929158013028655"><ele>92.71428571428572</ele><time>2026-03-22T08:41:48.999Z</time></trkpt><trkpt lat="43.790291801858686" lon="10.929178886716205"><ele>93.42857142857142</ele><time>2026-03-22T08:41:51.999Z</time></trkpt><trkpt lat="43.790362545608275" lon="10.929192888940747"><ele>94.14285714285714</ele><time>2026-03-22T08:41:54.999Z</time></trkpt><trkpt lat="43.79042687232224" lon="10.929211911349272"><ele>94.85714285714286</ele><time>2026-03-22T08:41:57.999Z</time></trkpt><trkpt lat="43.79049588651944" lon="10.929244331484961"><ele>95.57142857142858</ele><time>2026-03-22T08:42:00.999Z</time></trkpt><trkpt lat="43.79056115429761" lon="10.929275163651285"><ele>96.28571428571428</ele><time>2026-03-22T08:42:03.999Z</time></trkpt><trkpt lat="43.79063270484364" lon="10.929293115668326"><ele>97.0</ele><time>2026-03-22T08:42:06.999Z</time></trkpt><trkpt lat="43.790708658460225" lon="10.929295616916711"><ele>97.00000000000001</ele><time>2026-03-22T08:42:09.999Z</time></trkpt><trkpt lat="43.79077547340823" lon="10.929274623033761"><ele>97.0</ele><time>2026-03-22T08:42:12.999Z</time></trkpt><trkpt lat="43.79085134872958" lon="10.929268662130623"><ele>97.0</ele><time>2026-03-22T08:42:15.999Z</time></trkpt><trkpt lat="43.79092961602001" lon="10.929224449225698"><ele>97.0</ele><time>2026-03-22T08:42:18.999Z</time></trkpt><trkpt lat="43.791004745688774" lon="10.929215204809408"><ele>97.00000000000001</ele><time>2026-03-22T08:42:21.999Z</time></trkpt><trkpt lat="43.79108266282396" lon="10.929241818614512"><ele>97.0</ele><time>2026-03-22T08:42:25Z</time></trkpt><trkpt lat="43.791150369441574" lon="10.92923021252787"><ele>97.50000000000001</ele><time>2026-03-22T08:42:28Z</time></trkpt><trkpt lat="43.791229526488195" lon="10.929211397332795"><ele>98.0</ele><time>2026-03-22T08:42:31Z</time></trkpt><trkpt lat="43.79130736402441" lon="10.929187009754989"><ele>98.5</ele><time>2026-03-22T08:42:34Z</time></trkpt><trkpt lat="43.79138134537178" lon="10.929165279625087"><ele>99.0</ele><time>2026-03-22T08:42:37Z</time></trkpt><trkpt lat="43.79145400701203" lon="10.929145145275296"><ele>99.50000000000001</ele><time>2026-03-22T08:42:40Z</time></trkpt><trkpt lat="43.791526542154834" lon="10.929137111328904"><ele>100.0</ele><time>2026-03-22T08:42:43Z</time></trkpt><trkpt lat="43.791602300236356" lon="10.929114947390085"><ele>100.00000000000001</ele><time>2026-03-22T08:42:46Z</time></trkpt><trkpt lat="43.79168403531754" lon="10.929101335532499"><ele>100.0</ele><time>2026-03-22T08:42:50Z</time></trkpt><trkpt lat="43.79175999354638" lon="10.929092970886199"><ele>100.0</ele><time>2026-03-22T08:42:53Z</time></trkpt><trkpt lat="43.79183200644751" lon="10.929071176938322"><ele>100.0</ele><time>2026-03-22T08:42:56Z</time></trkpt><trkpt lat="43.79190548533794" lon="10.929044231647593"><ele>100.0</ele><time>2026-03-22T08:42:59Z</time></trkpt><trkpt lat="43.79197581069257" lon="10.929050958751503"><ele>100.00000000000001</ele><time>2026-03-22T08:43:02Z</time></trkpt><trkpt lat="43.792044869495896" lon="10.929033494965475"><ele>100.0</ele><time>2026-03-22T08:43:05Z</time></trkpt><trkpt lat="43.792119438607614" lon="10.929017489764174"><ele>100.00000000000001</ele><time>2026-03-22T08:43:08Z</time></trkpt><trkpt lat="43.792187810443224" lon="10.92898112892313"><ele>100.0</ele><time>2026-03-22T08:43:11Z</time></trkpt><trkpt lat="43.792248516707076" lon="10.928929605938924"><ele>100.0</ele><time>2026-03-22T08:43:14Z</time></trkpt><trkpt lat="43.79230021594265" lon="10.928853772976277"><ele>100.0</ele><time>2026-03-22T08:43:17Z</time></trkpt><trkpt lat="43.79234694138925" lon="10.928773333718889"><ele>100.0</ele><time>2026-03-22T08:43:20Z</time></trkpt><trkpt lat="43.79240861529073" lon="10.928730406670287"><ele>100.00000000000001</ele><time>2026-03-22T08:43:23Z</time></trkpt><trkpt lat="43.792469559011444" lon="10.928676641919997"><ele>100.0</ele><time>2026-03-22T08:43:26Z</time></trkpt><trkpt lat="43.792543490141384" lon="10.928621901239806"><ele>100.00000000000001</ele><time>2026-03-22T08:43:29.999Z</time></trkpt><trkpt lat="43.7926138884464" lon="10.928563714795215"><ele>100.0</ele><time>2026-03-22T08:43:33.999Z</time></trkpt><trkpt lat="43.79268131500388" lon="10.92850538987747"><ele>100.0</ele><time>2026-03-22T08:43:37.999Z</time></trkpt><trkpt lat="43.792748799810184" lon="10.928457055170492"><ele>100.0</ele><time>2026-03-22T08:43:41.999Z</time></trkpt><trkpt lat="43.79282305992819" lon="10.928457066248589"><ele>100.00000000000001</ele><time>2026-03-22T08:43:45.999Z</time></trkpt><trkpt lat="43.79289558325675" lon="10.928463529522123"><ele>100.0</ele><time>2026-03-22T08:43:49.999Z</time></trkpt><trkpt lat="43.79296783087941" lon="10.928474402522532"><ele>100.57142857142858</ele><time>2026-03-22T08:43:53.999Z</time></trkpt><trkpt lat="43.793042019276534" lon="10.928484088396484"><ele>101.14285714285714</ele><time>2026-03-22T08:43:57.999Z</time></trkpt><trkpt lat="43.79311460878511" lon="10.928507407391468"><ele>101.71428571428572</ele><time>2026-03-22T08:44:01.999Z</time></trkpt><trkpt lat="43.79318730169147" lon="10.928508337027143"><ele>102.28571428571429</ele><time>2026-03-22T08:44:05.999Z</time></trkpt><trkpt lat="43.79326404734749" lon="10.928474517867677"><ele>102.85714285714286</ele><time>2026-03-22T08:44:09.999Z</time></trkpt><trkpt lat="43.793331906793384" lon="10.928478925668504"><ele>103.42857142857143</ele><time>2026-03-22T08:44:13.999Z</time></trkpt><trkpt lat="43.793402824286005" lon="10.92845859034826"><ele>104.0</ele><time>2026-03-22T08:44:17.999Z</time></trkpt><trkpt lat="43.793475645113" lon="10.928450962675257"><ele>104.85714285714285</ele><time>2026-03-22T08:44:21.999Z</time></trkpt><trkpt lat="43.79355086679164" lon="10.928449816276972"><ele>105.71428571428572</ele><time>2026-03-22T08:44:25.999Z</time></trkpt><trkpt lat="43.79362518291876" lon="10.92845286148351"><ele>106.57142857142857</ele><time>2026-03-22T08:44:30Z</time></trkpt><trkpt lat="43.79369761942493" lon="10.928440564187845"><ele>107.42857142857142</ele><time>2026-03-22T08:44:34Z</time></trkpt><trkpt lat="43.79377085617471" lon="10.928425511069596"><ele>108.28571428571428</ele><time>2026-03-22T08:44:38Z</time></trkpt><trkpt lat="43.793837820041894" lon="10.928406656060226"><ele>109.14285714285714</ele><time>2026-03-22T08:44:42Z</time></trkpt><trkpt lat="43.79391018957894" lon="10.928392233038236"><ele>110.0</ele><time>2026-03-22T08:44:46Z</time></trkpt><trkpt lat="43.793985928098984" lon="10.928386298362442"><ele>110.57142857142856</ele><time>2026-03-22T08:44:50Z</time></trkpt><trkpt lat="43.79405933221721" lon="10.92836727559"><ele>111.14285714285714</ele><time>2026-03-22T08:44:54Z</time></trkpt><trkpt lat="43.794136283072135" lon="10.928361618578274"><ele>111.71428571428571</ele><time>2026-03-22T08:44:58Z</time></trkpt><trkpt lat="43.79420815825927" lon="10.928372895235295"><ele>112.28571428571428</ele><time>2026-03-22T08:45:02Z</time></trkpt><trkpt lat="43.79427990414077" lon="10.928359931080976"><ele>112.85714285714285</ele><time>2026-03-22T08:45:06Z</time></trkpt><trkpt lat="43.79435344879141" lon="10.928363601321584"><ele>113.42857142857142</ele><time>2026-03-22T08:45:10Z</time></trkpt><trkpt lat="43.79441421860793" lon="10.92839863435026"><ele>114.0</ele><time>2026-03-22T08:45:14Z</time></trkpt><trkpt lat="43.79447433751424" lon="10.92844664173771"><ele>115.33333333333333</ele><time>2026-03-22T08:45:18Z</time></trkpt><trkpt lat="43.79452309070866" lon="10.92850949100287"><ele>116.66666666666666</ele><time>2026-03-22T08:45:21Z</time></trkpt><trkpt lat="43.79458589709936" lon="10.928573459218413"><ele>118.0</ele><time>2026-03-22T08:45:25Z</time></trkpt><trkpt lat="43.7946546270571" lon="10.928621875828213"><ele>119.33333333333333</ele><time>2026-03-22T08:45:29Z</time></trkpt><trkpt lat="43.79472707487926" lon="10.928670165445224"><ele>120.66666666666666</ele><time>2026-03-22T08:45:32.999Z</time></trkpt><trkpt lat="43.794779486409375" lon="10.92872892067375"><ele>122.0</ele><time>2026-03-22T08:45:35.999Z</time></trkpt><trkpt lat="43.79484524798018" lon="10.92879367557324"><ele>121.99999999999999</ele><time>2026-03-22T08:45:39.999Z</time></trkpt><trkpt lat="43.79489978858287" lon="10.928840265864547"><ele>122.0</ele><time>2026-03-22T08:45:42.999Z</time></trkpt><trkpt lat="43.79496798319057" lon="10.928890544457598"><ele>121.99999999999999</ele><time>2026-03-22T08:45:46.999Z</time></trkpt><trkpt lat="43.795021032542934" lon="10.928938554573003"><ele>121.99999999999999</ele><time>2026-03-22T08:45:49.999Z</time></trkpt><trkpt lat="43.79506766365161" lon="10.928997554237798"><ele>122.0</ele><time>2026-03-22T08:45:52.999Z</time></trkpt><trkpt lat="43.79513126487325" lon="10.929059544366618"><ele>121.99999999999999</ele><time>2026-03-22T08:45:56.999Z</time></trkpt><trkpt lat="43.79519556898498" lon="10.92912801615913"><ele>121.99999999999999</ele><time>2026-03-22T08:46:00.999Z</time></trkpt><trkpt lat="43.795275698302575" lon="10.92914068561128"><ele>122.85714285714283</ele><time>2026-03-22T08:46:04.999Z</time></trkpt><trkpt lat="43.79535881286051" lon="10.929118646961513"><ele>123.71428571428571</ele><time>2026-03-22T08:46:08.999Z</time></trkpt><trkpt lat="43.795424063187326" lon="10.929105950585184"><ele>124.57142857142856</ele><time>2026-03-22T08:46:11.999Z</time></trkpt><trkpt lat="43.79549001297869" lon="10.92906211830841"><ele>125.42857142857142</ele><time>2026-03-22T08:46:14.999Z</time></trkpt><trkpt lat="43.79554940137142" lon="10.928995685400972"><ele>126.28571428571428</ele><time>2026-03-22T08:46:17.999Z</time></trkpt><trkpt lat="43.7956186074639" lon="10.928957231802212"><ele>127.14285714285714</ele><time>2026-03-22T08:46:20.999Z</time></trkpt><trkpt lat="43.79568505410722" lon="10.928910328328923"><ele>128.0</ele><time>2026-03-22T08:46:23.999Z</time></trkpt><trkpt lat="43.7957466613102" lon="10.92886274839419"><ele>128.0</ele><time>2026-03-22T08:46:26.999Z</time></trkpt><trkpt lat="43.795811467730296" lon="10.928827079331851"><ele>127.99999999999999</ele><time>2026-03-22T08:46:29.999Z</time></trkpt><trkpt lat="43.795871427826576" lon="10.92878210233906"><ele>128.0</ele><time>2026-03-22T08:46:32.999Z</time></trkpt><trkpt lat="43.79593502157086" lon="10.928738094691163"><ele>128.0</ele><time>2026-03-22T08:46:36Z</time></trkpt><trkpt lat="43.795993453180955" lon="10.9286798411127"><ele>127.99999999999999</ele><time>2026-03-22T08:46:39Z</time></trkpt><trkpt lat="43.796049341506105" lon="10.928626406132953"><ele>128.0</ele><time>2026-03-22T08:46:42Z</time></trkpt><trkpt lat="43.79610397022759" lon="10.928566266169234"><ele>128.0</ele><time>2026-03-22T08:46:45Z</time></trkpt><trkpt lat="43.79617404810505" lon="10.928510244102418"><ele>127.49999999999999</ele><time>2026-03-22T08:46:49Z</time></trkpt><trkpt lat="43.79624396995307" lon="10.928451093930654"><ele>127.0</ele><time>2026-03-22T08:46:53Z</time></trkpt><trkpt lat="43.79631796733374" lon="10.928413635949946"><ele>126.5</ele><time>2026-03-22T08:46:57Z</time></trkpt><trkpt lat="43.79638475779502" lon="10.928400268094478"><ele>126.0</ele><time>2026-03-22T08:47:00Z</time></trkpt><trkpt lat="43.79645091474249" lon="10.928383039934785"><ele>125.49999999999999</ele><time>2026-03-22T08:47:03Z</time></trkpt><trkpt lat="43.79653647481085" lon="10.9283700376961"><ele>125.0</ele><time>2026-03-22T08:47:07Z</time></trkpt><trkpt lat="43.796616504189494" lon="10.928377945947826"><ele>125.0</ele><time>2026-03-22T08:47:11Z</time></trkpt><trkpt lat="43.79668011677419" lon="10.928377416465413"><ele>125.0</ele><time>2026-03-22T08:47:14Z</time></trkpt><trkpt lat="43.796765163430415" lon="10.928382966360575"><ele>125.0</ele><time>2026-03-22T08:47:18Z</time></trkpt><trkpt lat="43.79683091166422" lon="10.928395038028873"><ele>125.0</ele><time>2026-03-22T08:47:21Z</time></trkpt><trkpt lat="43.796912960121915" lon="10.928415030239965"><ele>125.0</ele><time>2026-03-22T08:47:25Z</time></trkpt><trkpt lat="43.79697036886246" lon="10.928458100529996"><ele>125.0</ele><time>2026-03-22T08:47:28Z</time></trkpt><trkpt lat="43.797025669882686" lon="10.928515711385543"><ele>125.0</ele><time>2026-03-22T08:47:31Z</time></trkpt><trkpt lat="43.797082553819386" lon="10.928555900447458"><ele>127.28571428571428</ele><time>2026-03-22T08:47:33.999Z</time></trkpt><trkpt lat="43.79714403378752" lon="10.928599565542692"><ele>129.57142857142858</ele><time>2026-03-22T08:47:36.999Z</time></trkpt><trkpt lat="43.797191008110886" lon="10.92867116941103"><ele>131.85714285714286</ele><time>2026-03-22T08:47:39.999Z</time></trkpt><trkpt lat="43.79723966318687" lon="10.928735342493392"><ele>134.14285714285714</ele><time>2026-03-22T08:47:42.999Z</time></trkpt><trkpt lat="43.79729231307847" lon="10.928784206188107"><ele>136.42857142857142</ele><time>2026-03-22T08:47:45.999Z</time></trkpt><trkpt lat="43.79736147604069" lon="10.928792926483746"><ele>138.71428571428572</ele><time>2026-03-22T08:47:48.999Z</time></trkpt><trkpt lat="43.7974344477675" lon="10.928756424418625"><ele>141.0</ele><time>2026-03-22T08:47:51.999Z</time></trkpt><trkpt lat="43.7974974798598" lon="10.928690919694045"><ele>141.0</ele><time>2026-03-22T08:47:54.999Z</time></trkpt><trkpt lat="43.79753913231483" lon="10.928606818983123"><ele>141.0</ele><time>2026-03-22T08:47:57.999Z</time></trkpt><trkpt lat="43.79758484938346" lon="10.928541326079202"><ele>141.0</ele><time>2026-03-22T08:48:00.999Z</time></trkpt><trkpt lat="43.797640814839795" lon="10.928482381698831"><ele>141.0</ele><time>2026-03-22T08:48:03.999Z</time></trkpt><trkpt lat="43.79770193649219" lon="10.928440049971568"><ele>141.0</ele><time>2026-03-22T08:48:06.999Z</time></trkpt><trkpt lat="43.79775877654537" lon="10.928387835573625"><ele>141.0</ele><time>2026-03-22T08:48:09.999Z</time></trkpt><trkpt lat="43.79783067573212" lon="10.928381688951735"><ele>141.0</ele><time>2026-03-22T08:48:12.999Z</time></trkpt><trkpt lat="43.79789239749546" lon="10.928405133767393"><ele>139.42857142857144</ele><time>2026-03-22T08:48:15.999Z</time></trkpt><trkpt lat="43.79795812094119" lon="10.928447016645706"><ele>137.85714285714286</ele><time>2026-03-22T08:48:18.999Z</time></trkpt><trkpt lat="43.79803080771822" lon="10.928513204104803"><ele>136.28571428571428</ele><time>2026-03-22T08:48:22.999Z</time></trkpt><trkpt lat="43.798079041116" lon="10.928578285872161"><ele>134.71428571428572</ele><time>2026-03-22T08:48:25.999Z</time></trkpt><trkpt lat="43.798130778185424" lon="10.928648044708325"><ele>133.14285714285714</ele><time>2026-03-22T08:48:28.999Z</time></trkpt><trkpt lat="43.79817866761208" lon="10.928707090606506"><ele>131.57142857142858</ele><time>2026-03-22T08:48:31.999Z</time></trkpt><trkpt lat="43.79822340948916" lon="10.928772990483044"><ele>130.0</ele><time>2026-03-22T08:48:34.999Z</time></trkpt><trkpt lat="43.798252940647615" lon="10.928866916753803"><ele>130.00000000000003</ele><time>2026-03-22T08:48:37.999Z</time></trkpt><trkpt lat="43.79829036324783" lon="10.92894625671197"><ele>130.0</ele><time>2026-03-22T08:48:40.999Z</time></trkpt><trkpt lat="43.798334239570714" lon="10.92901184369599"><ele>130.0</ele><time>2026-03-22T08:48:44Z</time></trkpt><trkpt lat="43.79838960753571" lon="10.929073796339162"><ele>130.0</ele><time>2026-03-22T08:48:47Z</time></trkpt><trkpt lat="43.79842874161733" lon="10.929151254707156"><ele>130.0</ele><time>2026-03-22T08:48:50Z</time></trkpt><trkpt lat="43.79846459096579" lon="10.929236904643687"><ele>130.00000000000003</ele><time>2026-03-22T08:48:53Z</time></trkpt><trkpt lat="43.7984929479338" lon="10.929335584591648"><ele>130.0</ele><time>2026-03-22T08:48:56Z</time></trkpt><trkpt lat="43.79852769904018" lon="10.929420450101231"><ele>129.85714285714286</ele><time>2026-03-22T08:48:59Z</time></trkpt><trkpt lat="43.798563393205654" lon="10.92951640107291"><ele>129.71428571428572</ele><time>2026-03-22T08:49:02Z</time></trkpt><trkpt lat="43.79861622809918" lon="10.92958140866327"><ele>129.57142857142856</ele><time>2026-03-22T08:49:05Z</time></trkpt><trkpt lat="43.79864843974492" lon="10.929666674214001"><ele>129.42857142857144</ele><time>2026-03-22T08:49:08Z</time></trkpt><trkpt lat="43.79868675134795" lon="10.929742461169608"><ele>129.28571428571428</ele><time>2026-03-22T08:49:11Z</time></trkpt><trkpt lat="43.798712112156444" lon="10.929836617792349"><ele>129.14285714285714</ele><time>2026-03-22T08:49:14Z</time></trkpt><trkpt lat="43.798733423624945" lon="10.929922409992946"><ele>129.0</ele><time>2026-03-22T08:49:17Z</time></trkpt><trkpt lat="43.79875830208545" lon="10.93001701536475"><ele>130.28571428571428</ele><time>2026-03-22T08:49:20Z</time></trkpt><trkpt lat="43.798774883804285" lon="10.930108320197833"><ele>131.57142857142856</ele><time>2026-03-22T08:49:23Z</time></trkpt><trkpt lat="43.798786385113516" lon="10.930202327116417"><ele>132.85714285714286</ele><time>2026-03-22T08:49:26Z</time></trkpt><trkpt lat="43.79880496195229" lon="10.930290647670432"><ele>134.14285714285714</ele><time>2026-03-22T08:49:29Z</time></trkpt><trkpt lat="43.79881833867539" lon="10.93037812736825"><ele>135.42857142857144</ele><time>2026-03-22T08:49:32Z</time></trkpt><trkpt lat="43.798830025783225" lon="10.930476325027538"><ele>136.71428571428572</ele><time>2026-03-22T08:49:35Z</time></trkpt><trkpt lat="43.79886482424422" lon="10.930555722313722"><ele>138.0</ele><time>2026-03-22T08:49:38Z</time></trkpt><trkpt lat="43.79888328347224" lon="10.930653262049942"><ele>138.0</ele><time>2026-03-22T08:49:41.999Z</time></trkpt><trkpt lat="43.798892257082024" lon="10.930742989023463"><ele>138.0</ele><time>2026-03-22T08:49:45.999Z</time></trkpt><trkpt lat="43.79891603250969" lon="10.930825297634712"><ele>138.0</ele><time>2026-03-22T08:49:47.999Z</time></trkpt><trkpt lat="43.79895492196436" lon="10.93090408359507"><ele>138.0</ele><time>2026-03-22T08:49:49.999Z</time></trkpt><trkpt lat="43.79896847941438" lon="10.931007727361434"><ele>138.0</ele><time>2026-03-22T08:49:52.999Z</time></trkpt><trkpt lat="43.79899822728086" lon="10.93111090643472"><ele>138.0</ele><time>2026-03-22T08:49:55.999Z</time></trkpt><trkpt lat="43.7990292312402" lon="10.93122006020984"><ele>138.0</ele><time>2026-03-22T08:49:58.999Z</time></trkpt><trkpt lat="43.7990568242361" lon="10.931325229042407"><ele>140.16666666666666</ele><time>2026-03-22T08:50:01.999Z</time></trkpt><trkpt lat="43.79908239845771" lon="10.93143333592547"><ele>142.33333333333334</ele><time>2026-03-22T08:50:04.999Z</time></trkpt><trkpt lat="43.799112648134695" lon="10.93153006483775"><ele>144.5</ele><time>2026-03-22T08:50:07.999Z</time></trkpt><trkpt lat="43.7991688410105" lon="10.931601619282121"><ele>146.66666666666669</ele><time>2026-03-22T08:50:10.999Z</time></trkpt><trkpt lat="43.79920746521774" lon="10.931681302820026"><ele>148.83333333333334</ele><time>2026-03-22T08:50:13.999Z</time></trkpt><trkpt lat="43.79925539583218" lon="10.93176700660086"><ele>151.0</ele><time>2026-03-22T08:50:16.999Z</time></trkpt><trkpt lat="43.799295837782196" lon="10.931849569257619"><ele>149.83333333333334</ele><time>2026-03-22T08:50:19.999Z</time></trkpt><trkpt lat="43.79934912908694" lon="10.931946712132701"><ele>148.66666666666669</ele><time>2026-03-22T08:50:23.999Z</time></trkpt><trkpt lat="43.7994159468224" lon="10.932021941644924"><ele>147.5</ele><time>2026-03-22T08:50:26.999Z</time></trkpt><trkpt lat="43.799488868202104" lon="10.932085560806314"><ele>146.33333333333334</ele><time>2026-03-22T08:50:29.999Z</time></trkpt><trkpt lat="43.79955435355332" lon="10.932151049647405"><ele>145.16666666666666</ele><time>2026-03-22T08:50:32.999Z</time></trkpt><trkpt lat="43.79959642185091" lon="10.932227047600827"><ele>144.0</ele><time>2026-03-22T08:50:35.999Z</time></trkpt><trkpt lat="43.79962959032177" lon="10.932307750304675"><ele>144.00000000000003</ele><time>2026-03-22T08:50:38.999Z</time></trkpt><trkpt lat="43.79969415244262" lon="10.932356734554094"><ele>144.0</ele><time>2026-03-22T08:50:41.999Z</time></trkpt><trkpt lat="43.79973871347951" lon="10.932427634727555"><ele>144.0</ele><time>2026-03-22T08:50:44.999Z</time></trkpt><trkpt lat="43.79979245673709" lon="10.932492099685629"><ele>144.0</ele><time>2026-03-22T08:50:48Z</time></trkpt><trkpt lat="43.799822807038396" lon="10.932586916596865"><ele>144.0</ele><time>2026-03-22T08:50:52Z</time></trkpt><trkpt lat="43.799839089102775" lon="10.932682961868995"><ele>144.00000000000003</ele><time>2026-03-22T08:50:56Z</time></trkpt><trkpt lat="43.79982026075887" lon="10.932787038262884"><ele>144.0</ele><time>2026-03-22T08:51:00Z</time></trkpt><trkpt lat="43.79984504806566" lon="10.93288487964879"><ele>145.16666666666666</ele><time>2026-03-22T08:51:04Z</time></trkpt><trkpt lat="43.79986443899251" lon="10.932972276743431"><ele>146.33333333333334</ele><time>2026-03-22T08:51:07Z</time></trkpt><trkpt lat="43.799859203766594" lon="10.933071995692536"><ele>147.5</ele><time>2026-03-22T08:51:10Z</time></trkpt><trkpt lat="43.79988553755437" lon="10.933168078173003"><ele>148.66666666666669</ele><time>2026-03-22T08:51:13Z</time></trkpt><trkpt lat="43.799908058024585" lon="10.933265305725591"><ele>149.83333333333334</ele><time>2026-03-22T08:51:16Z</time></trkpt><trkpt lat="43.79996628981464" lon="10.933352690849528"><ele>151.0</ele><time>2026-03-22T08:51:19Z</time></trkpt><trkpt lat="43.80004192226573" lon="10.933426356172202"><ele>151.16666666666669</ele><time>2026-03-22T08:51:22Z</time></trkpt><trkpt lat="43.8001272281839" lon="10.933454943631924"><ele>151.33333333333334</ele><time>2026-03-22T08:51:25Z</time></trkpt><trkpt lat="43.80018840902179" lon="10.9334332990365"><ele>151.5</ele><time>2026-03-22T08:51:27Z</time></trkpt><trkpt lat="43.80025791640896" lon="10.933389678082444"><ele>151.66666666666666</ele><time>2026-03-22T08:51:30Z</time></trkpt><trkpt lat="43.80031578206413" lon="10.933331695520609"><ele>151.83333333333331</ele><time>2026-03-22T08:51:33Z</time></trkpt><trkpt lat="43.800369582230175" lon="10.93325807806559"><ele>152.0</ele><time>2026-03-22T08:51:36Z</time></trkpt><trkpt lat="43.80041399745801" lon="10.933159934984815"><ele>152.7142857142857</ele><time>2026-03-22T08:51:39Z</time></trkpt><trkpt lat="43.80044105911951" lon="10.933073304115782"><ele>153.42857142857144</ele><time>2026-03-22T08:51:41.999Z</time></trkpt><trkpt lat="43.80046492149958" lon="10.932984954801421"><ele>154.14285714285714</ele><time>2026-03-22T08:51:44.999Z</time></trkpt><trkpt lat="43.80047335497959" lon="10.93289538053511"><ele>154.85714285714283</ele><time>2026-03-22T08:51:47.999Z</time></trkpt><trkpt lat="43.80047573538039" lon="10.932805498150783"><ele>155.57142857142856</ele><time>2026-03-22T08:51:50.999Z</time></trkpt><trkpt lat="43.80046183676589" lon="10.932694066629823"><ele>156.28571428571428</ele><time>2026-03-22T08:51:54.999Z</time></trkpt><trkpt lat="43.80047776338105" lon="10.932589207104044"><ele>157.0</ele><time>2026-03-22T08:51:58.999Z</time></trkpt><trkpt lat="43.800484780476395" lon="10.93247935251712"><ele>157.28571428571428</ele><time>2026-03-22T08:52:01.999Z</time></trkpt><trkpt lat="43.80050817149877" lon="10.932395897363728"><ele>157.57142857142856</ele><time>2026-03-22T08:52:05.999Z</time></trkpt><trkpt lat="43.800534749873194" lon="10.93231284703122"><ele>157.85714285714283</ele><time>2026-03-22T08:52:08.999Z</time></trkpt><trkpt lat="43.800527898393355" lon="10.932201828215902"><ele>158.14285714285714</ele><time>2026-03-22T08:52:12.999Z</time></trkpt><trkpt lat="43.800553536677675" lon="10.932119505985186"><ele>158.42857142857144</ele><time>2026-03-22T08:52:15.999Z</time></trkpt><trkpt lat="43.800528348669275" lon="10.932028218456205"><ele>158.7142857142857</ele><time>2026-03-22T08:52:18.999Z</time></trkpt><trkpt lat="43.80052628810933" lon="10.931929977290993"><ele>159.0</ele><time>2026-03-22T08:52:21.999Z</time></trkpt><trkpt lat="43.80050494498666" lon="10.931841315314545"><ele>159.0</ele><time>2026-03-22T08:52:24.999Z</time></trkpt><trkpt lat="43.80047942278713" lon="10.931730113672604"><ele>159.0</ele><time>2026-03-22T08:52:28.999Z</time></trkpt><trkpt lat="43.80043983053467" lon="10.931639266290055"><ele>159.0</ele><time>2026-03-22T08:52:31.999Z</time></trkpt><trkpt lat="43.80041553994425" lon="10.93154899717941"><ele>159.0</ele><time>2026-03-22T08:52:34.999Z</time></trkpt><trkpt lat="43.800385987889754" lon="10.931467430473427"><ele>159.0</ele><time>2026-03-22T08:52:37.999Z</time></trkpt><trkpt lat="43.800338032095055" lon="10.931394239359614"><ele>159.0</ele><time>2026-03-22T08:52:40.999Z</time></trkpt><trkpt lat="43.80030137524743" lon="10.931300608937725"><ele>159.0</ele><time>2026-03-22T08:52:43.999Z</time></trkpt><trkpt lat="43.80025221763272" lon="10.931242449677988"><ele>159.14285714285714</ele><time>2026-03-22T08:52:46.999Z</time></trkpt><trkpt lat="43.80020555169171" lon="10.931157988433728"><ele>159.2857142857143</ele><time>2026-03-22T08:52:49.999Z</time></trkpt><trkpt lat="43.80015362676317" lon="10.931103044553266"><ele>159.42857142857144</ele><time>2026-03-22T08:52:52.999Z</time></trkpt><trkpt lat="43.80010676960576" lon="10.931044777241224"><ele>159.57142857142856</ele><time>2026-03-22T08:52:56Z</time></trkpt><trkpt lat="43.80008522889589" lon="10.930961502970627"><ele>159.71428571428572</ele><time>2026-03-22T08:52:59Z</time></trkpt><trkpt lat="43.80007268478298" lon="10.930864447727346"><ele>159.85714285714286</ele><time>2026-03-22T08:53:02Z</time></trkpt><trkpt lat="43.80004906263961" lon="10.930782115845824"><ele>160.0</ele><time>2026-03-22T08:53:05Z</time></trkpt><trkpt lat="43.80002683268974" lon="10.930698072671227"><ele>157.5</ele><time>2026-03-22T08:53:08Z</time></trkpt><trkpt lat="43.80000902816868" lon="10.930594278417983"><ele>155.0</ele><time>2026-03-22T08:53:12Z</time></trkpt><trkpt lat="43.79998856074279" lon="10.930494277393285"><ele>152.5</ele><time>2026-03-22T08:53:16Z</time></trkpt><trkpt lat="43.79997260079671" lon="10.930379298859913"><ele>150.0</ele><time>2026-03-22T08:53:20Z</time></trkpt><trkpt lat="43.7999545873239" lon="10.930276180668278"><ele>147.5</ele><time>2026-03-22T08:53:24Z</time></trkpt><trkpt lat="43.799943913350205" lon="10.930170930845119"><ele>145.0</ele><time>2026-03-22T08:53:28Z</time></trkpt><trkpt lat="43.79996835897825" lon="10.930060402153646"><ele>144.85714285714286</ele><time>2026-03-22T08:53:32Z</time></trkpt><trkpt lat="43.80000145435369" lon="10.929971177782967"><ele>144.71428571428572</ele><time>2026-03-22T08:53:36Z</time></trkpt><trkpt lat="43.8000659161008" lon="10.929911847733718"><ele>144.57142857142858</ele><time>2026-03-22T08:53:40Z</time></trkpt><trkpt lat="43.80013400361736" lon="10.929897795657366"><ele>144.42857142857144</ele><time>2026-03-22T08:53:43Z</time></trkpt><trkpt lat="43.80021239312353" lon="10.929918480852056"><ele>144.28571428571428</ele><time>2026-03-22T08:53:47Z</time></trkpt><trkpt lat="43.800278460914726" lon="10.929969926685448"><ele>144.14285714285717</ele><time>2026-03-22T08:53:50.999Z</time></trkpt><trkpt lat="43.80033750555156" lon="10.93002097234601"><ele>144.0</ele><time>2026-03-22T08:53:53.999Z</time></trkpt><trkpt lat="43.800417104239465" lon="10.930052677393213"><ele>145.71428571428572</ele><time>2026-03-22T08:53:57.999Z</time></trkpt><trkpt lat="43.8004648727048" lon="10.930121185326934"><ele>147.42857142857144</ele><time>2026-03-22T08:54:00.999Z</time></trkpt><trkpt lat="43.800531114019506" lon="10.930199357972517"><ele>149.14285714285717</ele><time>2026-03-22T08:54:04.999Z</time></trkpt><trkpt lat="43.80057808513068" lon="10.930280029086413"><ele>150.85714285714286</ele><time>2026-03-22T08:54:07.999Z</time></trkpt><trkpt lat="43.800611079224694" lon="10.930355537401626"><ele>152.57142857142856</ele><time>2026-03-22T08:54:10.999Z</time></trkpt><trkpt lat="43.80065248687479" lon="10.93044705766361"><ele>154.2857142857143</ele><time>2026-03-22T08:54:13.999Z</time></trkpt><trkpt lat="43.80067849094019" lon="10.930544687591798"><ele>156.0</ele><time>2026-03-22T08:54:16.999Z</time></trkpt><trkpt lat="43.800715602378" lon="10.930633711737258"><ele>156.0</ele><time>2026-03-22T08:54:19.999Z</time></trkpt><trkpt lat="43.80075158225294" lon="10.930718209914485"><ele>156.0</ele><time>2026-03-22T08:54:22.999Z</time></trkpt><trkpt lat="43.80080757806695" lon="10.930781406695633"><ele>156.0</ele><time>2026-03-22T08:54:25.999Z</time></trkpt><trkpt lat="43.80086457712512" lon="10.93086266317663"><ele>156.0</ele><time>2026-03-22T08:54:29.999Z</time></trkpt><trkpt lat="43.80091625918949" lon="10.930920800032323"><ele>156.0</ele><time>2026-03-22T08:54:32.999Z</time></trkpt><trkpt lat="43.80098573842525" lon="10.930945110361392"><ele>156.0</ele><time>2026-03-22T08:54:35.999Z</time></trkpt><trkpt lat="43.80105467127601" lon="10.930975177644095"><ele>156.0</ele><time>2026-03-22T08:54:38.999Z</time></trkpt><trkpt lat="43.8011326689039" lon="10.930998305336928"><ele>156.85714285714286</ele><time>2026-03-22T08:54:41.999Z</time></trkpt><trkpt lat="43.80120245834075" lon="10.931022273016502"><ele>157.7142857142857</ele><time>2026-03-22T08:54:44.999Z</time></trkpt><trkpt lat="43.80128327550331" lon="10.93099162343771"><ele>158.57142857142856</ele><time>2026-03-22T08:54:47.999Z</time></trkpt><trkpt lat="43.80134797792452" lon="10.930952968032638"><ele>159.42857142857144</ele><time>2026-03-22T08:54:49.999Z</time></trkpt><trkpt lat="43.80138783864467" lon="10.93086926947205"><ele>160.28571428571428</ele><time>2026-03-22T08:54:52.999Z</time></trkpt><trkpt lat="43.80141435123628" lon="10.930784445580576"><ele>161.14285714285714</ele><time>2026-03-22T08:54:55.999Z</time></trkpt><trkpt lat="43.80144075167231" lon="10.930685395767961"><ele>162.0</ele><time>2026-03-22T08:54:58.999Z</time></trkpt><trkpt lat="43.8014555514091" lon="10.930600267655471"><ele>162.0</ele><time>2026-03-22T08:55:02Z</time></trkpt><trkpt lat="43.80146903183988" lon="10.930498726940316"><ele>162.0</ele><time>2026-03-22T08:55:05Z</time></trkpt><trkpt lat="43.801463935905154" lon="10.93038416613294"><ele>162.0</ele><time>2026-03-22T08:55:08Z</time></trkpt><trkpt lat="43.80147747778775" lon="10.930276156386162"><ele>162.0</ele><time>2026-03-22T08:55:11Z</time></trkpt><trkpt lat="43.80147379540288" lon="10.930186456407002"><ele>162.0</ele><time>2026-03-22T08:55:14Z</time></trkpt><trkpt lat="43.80147469551847" lon="10.930091025594292"><ele>162.0</ele><time>2026-03-22T08:55:17Z</time></trkpt><trkpt lat="43.801468049081656" lon="10.930001815564077"><ele>162.0</ele><time>2026-03-22T08:55:20Z</time></trkpt><trkpt lat="43.80147888857339" lon="10.92991276212869"><ele>161.85714285714286</ele><time>2026-03-22T08:55:23Z</time></trkpt><trkpt lat="43.80147347992569" lon="10.929797261770318"><ele>161.71428571428572</ele><time>2026-03-22T08:55:27Z</time></trkpt><trkpt lat="43.80148130067346" lon="10.929706346651379"><ele>161.57142857142856</ele><time>2026-03-22T08:55:30Z</time></trkpt><trkpt lat="43.80149233212599" lon="10.929616797730459"><ele>161.42857142857144</ele><time>2026-03-22T08:55:33Z</time></trkpt><trkpt lat="43.80149362113404" lon="10.929523429071091"><ele>161.28571428571428</ele><time>2026-03-22T08:55:36Z</time></trkpt><trkpt lat="43.80150001264534" lon="10.929419794571546"><ele>161.14285714285714</ele><time>2026-03-22T08:55:40Z</time></trkpt><trkpt lat="43.801488723229845" lon="10.929312289386418"><ele>161.0</ele><time>2026-03-22T08:55:44Z</time></trkpt><trkpt lat="43.80146783109298" lon="10.92919854755154"><ele>162.0</ele><time>2026-03-22T08:55:48Z</time></trkpt><trkpt lat="43.80144201262893" lon="10.929093653367325"><ele>163.0</ele><time>2026-03-22T08:55:52Z</time></trkpt><trkpt lat="43.801443965208435" lon="10.928978943570822"><ele>164.0</ele><time>2026-03-22T08:55:55.999Z</time></trkpt><trkpt lat="43.80143724035894" lon="10.928870504368948"><ele>165.0</ele><time>2026-03-22T08:55:59.999Z</time></trkpt><trkpt lat="43.80142782554125" lon="10.928779281001205"><ele>166.0</ele><time>2026-03-22T08:56:02.999Z</time></trkpt><trkpt lat="43.80141875129073" lon="10.928667081067527"><ele>167.0</ele><time>2026-03-22T08:56:06.999Z</time></trkpt><trkpt lat="43.80141217641176" lon="10.928556980244508"><ele>167.0</ele><time>2026-03-22T08:56:10.999Z</time></trkpt><trkpt lat="43.80144611777245" lon="10.92847809321883"><ele>167.0</ele><time>2026-03-22T08:56:14.999Z</time></trkpt><trkpt lat="43.80148955516626" lon="10.928393680540696"><ele>167.0</ele><time>2026-03-22T08:56:18.999Z</time></trkpt><trkpt lat="43.8015424828855" lon="10.928324516003652"><ele>167.0</ele><time>2026-03-22T08:56:23.999Z</time></trkpt><trkpt lat="43.80161840977868" lon="10.928278438661954"><ele>167.0</ele><time>2026-03-22T08:56:27.999Z</time></trkpt><trkpt lat="43.8017037012244" lon="10.928247958254273"><ele>167.0</ele><time>2026-03-22T08:56:31.999Z</time></trkpt><trkpt lat="43.80177834796535" lon="10.928223025724261"><ele>167.33333333333331</ele><time>2026-03-22T08:56:35.999Z</time></trkpt><trkpt lat="43.8018472472896" lon="10.928207344200406"><ele>167.66666666666666</ele><time>2026-03-22T08:56:39.999Z</time></trkpt><trkpt lat="43.8019325786531" lon="10.928206293444113"><ele>168.0</ele><time>2026-03-22T08:56:44.999Z</time></trkpt><trkpt lat="43.80200311319009" lon="10.928186863735217"><ele>168.33333333333334</ele><time>2026-03-22T08:56:48.999Z</time></trkpt><trkpt lat="43.8020806786592" lon="10.928187864843753"><ele>168.66666666666669</ele><time>2026-03-22T08:56:52.999Z</time></trkpt><trkpt lat="43.8021477424864" lon="10.928206010561352"><ele>169.0</ele><time>2026-03-22T08:56:56.999Z</time></trkpt><trkpt lat="43.80222678783328" lon="10.928209857066832"><ele>169.0</ele><time>2026-03-22T08:57:00.999Z</time></trkpt><trkpt lat="43.80230476065664" lon="10.928260653312364"><ele>169.0</ele><time>2026-03-22T08:57:04.999Z</time></trkpt><trkpt lat="43.80238273144162" lon="10.928289537705412"><ele>169.0</ele><time>2026-03-22T08:57:09Z</time></trkpt><trkpt lat="43.802455155466994" lon="10.928327728227057"><ele>169.0</ele><time>2026-03-22T08:57:13Z</time></trkpt><trkpt lat="43.80251423686518" lon="10.928359753978834"><ele>169.0</ele><time>2026-03-22T08:57:16Z</time></trkpt><trkpt lat="43.8025894809392" lon="10.928380863053606"><ele>169.0</ele><time>2026-03-22T08:57:20Z</time></trkpt><trkpt lat="43.802650728564394" lon="10.928409252027569"><ele>169.0</ele><time>2026-03-22T08:57:23Z</time></trkpt><trkpt lat="43.8027310569338" lon="10.928438648923573"><ele>170.42857142857144</ele><time>2026-03-22T08:57:27Z</time></trkpt><trkpt lat="43.80280857854899" lon="10.928481082660701"><ele>171.85714285714286</ele><time>2026-03-22T08:57:31Z</time></trkpt><trkpt lat="43.80288124415431" lon="10.92851726930435"><ele>173.28571428571428</ele><time>2026-03-22T08:57:35Z</time></trkpt><trkpt lat="43.80295551010978" lon="10.928552804516093"><ele>174.71428571428572</ele><time>2026-03-22T08:57:39Z</time></trkpt><trkpt lat="43.803028955952904" lon="10.928587334277553"><ele>176.14285714285714</ele><time>2026-03-22T08:57:43Z</time></trkpt><trkpt lat="43.80309268574739" lon="10.928614481242988"><ele>177.57142857142858</ele><time>2026-03-22T08:57:47Z</time></trkpt><trkpt lat="43.80315468966327" lon="10.928630924928516"><ele>179.0</ele><time>2026-03-22T08:57:50Z</time></trkpt><trkpt lat="43.80323381517375" lon="10.928651637516701"><ele>179.00000000000003</ele><time>2026-03-22T08:57:54Z</time></trkpt><trkpt lat="43.8033083928216" lon="10.928682354292983"><ele>179.0</ele><time>2026-03-22T08:57:58Z</time></trkpt><trkpt lat="43.80336661930514" lon="10.928715865186785"><ele>179.0</ele><time>2026-03-22T08:58:01Z</time></trkpt><trkpt lat="43.80342643474255" lon="10.92875705548437"><ele>179.0</ele><time>2026-03-22T08:58:04Z</time></trkpt><trkpt lat="43.803494229903244" lon="10.928806295142591"><ele>179.0</ele><time>2026-03-22T08:58:08Z</time></trkpt><trkpt lat="43.80354330520533" lon="10.928886090296837"><ele>179.00000000000003</ele><time>2026-03-22T08:58:11.999Z</time></trkpt><trkpt lat="43.803582141893145" lon="10.92895532601401"><ele>179.0</ele><time>2026-03-22T08:58:14.999Z</time></trkpt><trkpt lat="43.8036266612819" lon="10.929040834858931"><ele>178.2857142857143</ele><time>2026-03-22T08:58:18.999Z</time></trkpt><trkpt lat="43.803650048303346" lon="10.929133030146543"><ele>177.57142857142858</ele><time>2026-03-22T08:58:22.999Z</time></trkpt><trkpt lat="43.803672350339056" lon="10.929225132266318"><ele>176.85714285714286</ele><time>2026-03-22T08:58:26.999Z</time></trkpt><trkpt lat="43.80369140505756" lon="10.929323829340666"><ele>176.14285714285717</ele><time>2026-03-22T08:58:30.999Z</time></trkpt><trkpt lat="43.803706474974675" lon="10.929429211321763"><ele>175.42857142857144</ele><time>2026-03-22T08:58:34.999Z</time></trkpt><trkpt lat="43.803697084418125" lon="10.929526825308153"><ele>174.71428571428572</ele><time>2026-03-22T08:58:38.999Z</time></trkpt><trkpt lat="43.803701058534436" lon="10.929615168636749"><ele>174.0</ele><time>2026-03-22T08:58:41.999Z</time></trkpt><trkpt lat="43.80373201515779" lon="10.929714397080078"><ele>174.0</ele><time>2026-03-22T08:58:45.999Z</time></trkpt><trkpt lat="43.80378182028795" lon="10.929811253742866"><ele>174.0</ele><time>2026-03-22T08:58:49.999Z</time></trkpt><trkpt lat="43.803824222971464" lon="10.929893748175495"><ele>174.0</ele><time>2026-03-22T08:58:52.999Z</time></trkpt><trkpt lat="43.803845584141484" lon="10.929983040861813"><ele>174.0</ele><time>2026-03-22T08:58:55.999Z</time></trkpt><trkpt lat="43.80389084318962" lon="10.93008210273014"><ele>174.0</ele><time>2026-03-22T08:58:59.999Z</time></trkpt><trkpt lat="43.803930103579305" lon="10.930154300579176"><ele>174.0</ele><time>2026-03-22T08:59:02.999Z</time></trkpt><trkpt lat="43.80397562333008" lon="10.930219327213194"><ele>174.0</ele><time>2026-03-22T08:59:05.999Z</time></trkpt><trkpt lat="43.80402373165225" lon="10.93027929649153"><ele>175.0</ele><time>2026-03-22T08:59:08.999Z</time></trkpt><trkpt lat="43.804069623061466" lon="10.930369827759156"><ele>176.0</ele><time>2026-03-22T08:59:13Z</time></trkpt><trkpt lat="43.804113015384424" lon="10.930441006545784"><ele>177.0</ele><time>2026-03-22T08:59:16Z</time></trkpt><trkpt lat="43.80417163499718" lon="10.930500279231177"><ele>178.0</ele><time>2026-03-22T08:59:19Z</time></trkpt><trkpt lat="43.804236197912594" lon="10.930534435651621"><ele>179.0</ele><time>2026-03-22T08:59:22Z</time></trkpt><trkpt lat="43.80428210267925" lon="10.930594355426338"><ele>180.0</ele><time>2026-03-22T08:59:25Z</time></trkpt><trkpt lat="43.8043387140248" lon="10.930651335738338"><ele>181.0</ele><time>2026-03-22T08:59:28Z</time></trkpt><trkpt lat="43.80439506526285" lon="10.930735247484225"><ele>181.0</ele><time>2026-03-22T08:59:32Z</time></trkpt><trkpt lat="43.804448910430935" lon="10.930784344599507"><ele>181.0</ele><time>2026-03-22T08:59:35Z</time></trkpt><trkpt lat="43.804522744789146" lon="10.930831821494586"><ele>181.0</ele><time>2026-03-22T08:59:39Z</time></trkpt><trkpt lat="43.80459751968519" lon="10.930860843412425"><ele>181.0</ele><time>2026-03-22T08:59:43Z</time></trkpt><trkpt lat="43.80467905444055" lon="10.930898822055552"><ele>181.0</ele><time>2026-03-22T08:59:47Z</time></trkpt><trkpt lat="43.80473668911052" lon="10.930951854293053"><ele>181.0</ele><time>2026-03-22T08:59:50Z</time></trkpt><trkpt lat="43.8048095758399" lon="10.930980762657027"><ele>184.0</ele><time>2026-03-22T08:59:54Z</time></trkpt><trkpt lat="43.80486429213814" lon="10.931026593611616"><ele>187.0</ele><time>2026-03-22T08:59:57Z</time></trkpt><trkpt lat="43.80494095962723" lon="10.931067599532058"><ele>190.0</ele><time>2026-03-22T09:00:01Z</time></trkpt><trkpt lat="43.805017480789125" lon="10.931120436165164"><ele>193.0</ele><time>2026-03-22T09:00:05Z</time></trkpt><trkpt lat="43.805079681993696" lon="10.931151682196006"><ele>196.0</ele><time>2026-03-22T09:00:08Z</time></trkpt><trkpt lat="43.80515326130286" lon="10.931148403402718"><ele>199.0</ele><time>2026-03-22T09:00:10.999Z</time></trkpt><trkpt lat="43.80521733708887" lon="10.931118832857367"><ele>202.0</ele><time>2026-03-22T09:00:13.999Z</time></trkpt><trkpt lat="43.80529407653955" lon="10.93111015460775"><ele>202.0</ele><time>2026-03-22T09:00:16.999Z</time></trkpt><trkpt lat="43.80536061338659" lon="10.931105352410388"><ele>202.0</ele><time>2026-03-22T09:00:19.999Z</time></trkpt><trkpt lat="43.80542680495688" lon="10.93108650829462"><ele>202.0</ele><time>2026-03-22T09:00:22.999Z</time></trkpt><trkpt lat="43.80550800782506" lon="10.931088567596177"><ele>202.0</ele><time>2026-03-22T09:00:26.999Z</time></trkpt><trkpt lat="43.80557705519637" lon="10.931095055905205"><ele>202.0</ele><time>2026-03-22T09:00:30.999Z</time></trkpt><trkpt lat="43.80563356108948" lon="10.931137519850823"><ele>202.0</ele><time>2026-03-22T09:00:33.999Z</time></trkpt><trkpt lat="43.80572168031398" lon="10.931144979994695"><ele>202.0</ele><time>2026-03-22T09:00:37.999Z</time></trkpt><trkpt lat="43.80578630468325" lon="10.931168812096798"><ele>202.0</ele><time>2026-03-22T09:00:40.999Z</time></trkpt><trkpt lat="43.805859954940665" lon="10.93121347373625"><ele>202.0</ele><time>2026-03-22T09:00:44.999Z</time></trkpt><trkpt lat="43.80592002695405" lon="10.931271351398433"><ele>202.0</ele><time>2026-03-22T09:00:48.999Z</time></trkpt><trkpt lat="43.805970323473424" lon="10.931352475336693"><ele>202.0</ele><time>2026-03-22T09:00:52.999Z</time></trkpt><trkpt lat="43.80601127982431" lon="10.931419705717119"><ele>202.0</ele><time>2026-03-22T09:00:55.999Z</time></trkpt><trkpt lat="43.80604220553521" lon="10.931511405163759"><ele>202.0</ele><time>2026-03-22T09:00:58.999Z</time></trkpt><trkpt lat="43.806039762638726" lon="10.931599515712419"><ele>202.0</ele><time>2026-03-22T09:01:01.999Z</time></trkpt><trkpt lat="43.80607200870198" lon="10.931686275805333"><ele>202.83333333333331</ele><time>2026-03-22T09:01:04.999Z</time></trkpt><trkpt lat="43.80609364132833" lon="10.93178697486089"><ele>203.66666666666666</ele><time>2026-03-22T09:01:08.999Z</time></trkpt><trkpt lat="43.80614063898991" lon="10.931880971490134"><ele>204.5</ele><time>2026-03-22T09:01:12.999Z</time></trkpt><trkpt lat="43.806196454001764" lon="10.931924797780336"><ele>205.33333333333331</ele><time>2026-03-22T09:01:15.999Z</time></trkpt><trkpt lat="43.80626688106889" lon="10.931972647216371"><ele>206.16666666666666</ele><time>2026-03-22T09:01:20Z</time></trkpt><trkpt lat="43.80634333473555" lon="10.93200423696532"><ele>207.0</ele><time>2026-03-22T09:01:23Z</time></trkpt><trkpt lat="43.80640254604825" lon="10.932060593857809"><ele>207.0</ele><time>2026-03-22T09:01:26Z</time></trkpt><trkpt lat="43.80647338270274" lon="10.932101822306223"><ele>207.0</ele><time>2026-03-22T09:01:29Z</time></trkpt><trkpt lat="43.80653509652506" lon="10.93212565458264"><ele>207.0</ele><time>2026-03-22T09:01:31Z</time></trkpt><trkpt lat="43.8066023888282" lon="10.932183116913125"><ele>207.0</ele><time>2026-03-22T09:01:34Z</time></trkpt><trkpt lat="43.80668788655856" lon="10.932175892040208"><ele>207.0</ele><time>2026-03-22T09:01:37Z</time></trkpt><trkpt lat="43.80676418047726" lon="10.932096934480505"><ele>207.0</ele><time>2026-03-22T09:01:40Z</time></trkpt><trkpt lat="43.806827640027905" lon="10.932048918388393"><ele>206.16666666666666</ele><time>2026-03-22T09:01:42Z</time></trkpt><trkpt lat="43.8068874409821" lon="10.931967457674947"><ele>205.33333333333331</ele><time>2026-03-22T09:01:45Z</time></trkpt><trkpt lat="43.80692518743556" lon="10.931867965950278"><ele>204.5</ele><time>2026-03-22T09:01:48Z</time></trkpt><trkpt lat="43.80694501131686" lon="10.9317597789535"><ele>203.66666666666666</ele><time>2026-03-22T09:01:51Z</time></trkpt><trkpt lat="43.80693615859195" lon="10.931656301361134"><ele>202.83333333333331</ele><time>2026-03-22T09:01:54Z</time></trkpt><trkpt lat="43.80690245746575" lon="10.931569600588542"><ele>202.0</ele><time>2026-03-22T09:01:57Z</time></trkpt><trkpt lat="43.80688361454446" lon="10.931481878456442"><ele>200.57142857142856</ele><time>2026-03-22T09:02:00Z</time></trkpt><trkpt lat="43.806872170372095" lon="10.93138357479268"><ele>199.14285714285714</ele><time>2026-03-22T09:02:04Z</time></trkpt><trkpt lat="43.806855170543145" lon="10.931292591906352"><ele>197.71428571428572</ele><time>2026-03-22T09:02:07Z</time></trkpt><trkpt lat="43.80684555808201" lon="10.931197853514929"><ele>196.28571428571428</ele><time>2026-03-22T09:02:10Z</time></trkpt><trkpt lat="43.80682039200044" lon="10.931103922010468"><ele>194.85714285714286</ele><time>2026-03-22T09:02:13Z</time></trkpt><trkpt lat="43.80683351580257" lon="10.931007313456407"><ele>193.42857142857142</ele><time>2026-03-22T09:02:16Z</time></trkpt><trkpt lat="43.8068154614972" lon="10.93091278571761"><ele>192.0</ele><time>2026-03-22T09:02:18.999Z</time></trkpt><trkpt lat="43.80679640168946" lon="10.930821751752193"><ele>191.99999999999997</ele><time>2026-03-22T09:02:21.999Z</time></trkpt><trkpt lat="43.80678083473932" lon="10.930731488918864"><ele>192.0</ele><time>2026-03-22T09:02:24.999Z</time></trkpt><trkpt lat="43.80676326615601" lon="10.930639504318538"><ele>192.0</ele><time>2026-03-22T09:02:27.999Z</time></trkpt><trkpt lat="43.80673798740445" lon="10.930531892054391"><ele>192.0</ele><time>2026-03-22T09:02:31.999Z</time></trkpt><trkpt lat="43.80672467600585" lon="10.930437529844122"><ele>192.0</ele><time>2026-03-22T09:02:35.999Z</time></trkpt><trkpt lat="43.806700513857926" lon="10.930356246886996"><ele>191.99999999999997</ele><time>2026-03-22T09:02:38.999Z</time></trkpt><trkpt lat="43.80668312980103" lon="10.93025467091037"><ele>192.0</ele><time>2026-03-22T09:02:42.999Z</time></trkpt><trkpt lat="43.806642268731004" lon="10.930162044663236"><ele>191.99999999999997</ele><time>2026-03-22T09:02:46.999Z</time></trkpt><trkpt lat="43.806600486542514" lon="10.930086485112179"><ele>192.0</ele><time>2026-03-22T09:02:49.999Z</time></trkpt><trkpt lat="43.80655127143516" lon="10.930003781832674"><ele>192.0</ele><time>2026-03-22T09:02:52.999Z</time></trkpt><trkpt lat="43.80648787187107" lon="10.929927645203824"><ele>192.0</ele><time>2026-03-22T09:02:56.999Z</time></trkpt><trkpt lat="43.80643919417523" lon="10.92986781593062"><ele>192.0</ele><time>2026-03-22T09:02:59.999Z</time></trkpt><trkpt lat="43.80639469520072" lon="10.929776244682577"><ele>191.99999999999997</ele><time>2026-03-22T09:03:03.999Z</time></trkpt><trkpt lat="43.80634331280887" lon="10.92970786535529"><ele>192.0</ele><time>2026-03-22T09:03:06.999Z</time></trkpt><trkpt lat="43.806304731007316" lon="10.929630520716215"><ele>194.28571428571428</ele><time>2026-03-22T09:03:09.999Z</time></trkpt><trkpt lat="43.80625901102792" lon="10.929552515124014"><ele>196.57142857142856</ele><time>2026-03-22T09:03:12.999Z</time></trkpt><trkpt lat="43.80621121596044" lon="10.929483379677531"><ele>198.85714285714283</ele><time>2026-03-22T09:03:15.999Z</time></trkpt><trkpt lat="43.806158220121546" lon="10.929420582345656"><ele>201.14285714285714</ele><time>2026-03-22T09:03:18.999Z</time></trkpt><trkpt lat="43.806117916156374" lon="10.929318712053888"><ele>203.42857142857144</ele><time>2026-03-22T09:03:22.999Z</time></trkpt><trkpt lat="43.80607154321161" lon="10.929249808125077"><ele>205.7142857142857</ele><time>2026-03-22T09:03:26Z</time></trkpt><trkpt lat="43.80602646473529" lon="10.929185513584155"><ele>208.0</ele><time>2026-03-22T09:03:29Z</time></trkpt><trkpt lat="43.80600356803029" lon="10.92908246572182"><ele>208.33333333333331</ele><time>2026-03-22T09:03:33Z</time></trkpt><trkpt lat="43.80597877605103" lon="10.928992927185996"><ele>208.66666666666666</ele><time>2026-03-22T09:03:37Z</time></trkpt><trkpt lat="43.80597769887961" lon="10.92888488386852"><ele>209.0</ele><time>2026-03-22T09:03:41Z</time></trkpt><trkpt lat="43.80600099524992" lon="10.928798139798477"><ele>209.33333333333331</ele><time>2026-03-22T09:03:45Z</time></trkpt><trkpt lat="43.806045371449855" lon="10.928711833943073"><ele>209.66666666666666</ele><time>2026-03-22T09:03:49Z</time></trkpt><trkpt lat="43.80608018374912" lon="10.928604791518204"><ele>210.0</ele><time>2026-03-22T09:03:53Z</time></trkpt><trkpt lat="43.80612087146946" lon="10.92851821719459"><ele>210.0</ele><time>2026-03-22T09:03:57Z</time></trkpt><trkpt lat="43.80616396383052" lon="10.928450748834157"><ele>210.0</ele><time>2026-03-22T09:04:00Z</time></trkpt><trkpt lat="43.806208476343684" lon="10.928364729785208"><ele>210.0</ele><time>2026-03-22T09:04:04Z</time></trkpt><trkpt lat="43.806249286117335" lon="10.928281627213458"><ele>210.0</ele><time>2026-03-22T09:04:08Z</time></trkpt><trkpt lat="43.80630369987193" lon="10.928222703380735"><ele>210.0</ele><time>2026-03-22T09:04:12Z</time></trkpt><trkpt lat="43.806358001809095" lon="10.928175261758323"><ele>210.0</ele><time>2026-03-22T09:04:15.999Z</time></trkpt><trkpt lat="43.80643078082841" lon="10.92818598285889"><ele>210.0</ele><time>2026-03-22T09:04:20.999Z</time></trkpt><trkpt lat="43.80648255648794" lon="10.928249934182267"><ele>210.0</ele><time>2026-03-22T09:04:24.999Z</time></trkpt><trkpt lat="43.806512817107865" lon="10.928329505432018"><ele>210.0</ele><time>2026-03-22T09:04:28.999Z</time></trkpt><trkpt lat="43.806534769854615" lon="10.928417126282842"><ele>210.0</ele><time>2026-03-22T09:04:32.999Z</time></trkpt><trkpt lat="43.806563026049886" lon="10.928509431170909"><ele>210.0</ele><time>2026-03-22T09:04:36.999Z</time></trkpt><trkpt lat="43.80657918273553" lon="10.928607594365172"><ele>210.0</ele><time>2026-03-22T09:04:40.999Z</time></trkpt><trkpt lat="43.80660202773471" lon="10.928698647996073"><ele>210.0</ele><time>2026-03-22T09:04:44.999Z</time></trkpt><trkpt lat="43.80663027194238" lon="10.928795559499228"><ele>210.0</ele><time>2026-03-22T09:04:48.999Z</time></trkpt><trkpt lat="43.80665642379839" lon="10.928896995575968"><ele>210.0</ele><time>2026-03-22T09:04:52.999Z</time></trkpt><trkpt lat="43.80668828887694" lon="10.92898875700874"><ele>210.0</ele><time>2026-03-22T09:04:56.999Z</time></trkpt><trkpt lat="43.806713390275284" lon="10.929079288255679"><ele>210.0</ele><time>2026-03-22T09:05:00.999Z</time></trkpt><trkpt lat="43.80674316811942" lon="10.929164445379117"><ele>210.0</ele><time>2026-03-22T09:05:04.999Z</time></trkpt><trkpt lat="43.80676776703204" lon="10.929265384618123"><ele>210.0</ele><time>2026-03-22T09:05:08.999Z</time></trkpt><trkpt lat="43.80680287269467" lon="10.929352242873435"><ele>210.0</ele><time>2026-03-22T09:05:12.999Z</time></trkpt><trkpt lat="43.8068522025086" lon="10.929431982562367"><ele>210.0</ele><time>2026-03-22T09:05:16.999Z</time></trkpt><trkpt lat="43.806889941242815" lon="10.929517000491026"><ele>211.33333333333334</ele><time>2026-03-22T09:05:20.999Z</time></trkpt><trkpt lat="43.806933290467946" lon="10.929601107035126"><ele>212.66666666666669</ele><time>2026-03-22T09:05:24.999Z</time></trkpt><trkpt lat="43.80698059510349" lon="10.92966688379953"><ele>214.0</ele><time>2026-03-22T09:05:27.999Z</time></trkpt><trkpt lat="43.80702925043504" lon="10.929755999945343"><ele>215.33333333333334</ele><time>2026-03-22T09:05:32Z</time></trkpt><trkpt lat="43.80706977143597" lon="10.929825600088236"><ele>216.66666666666669</ele><time>2026-03-22T09:05:35Z</time></trkpt><trkpt lat="43.80712194681378" lon="10.929916468167276"><ele>218.0</ele><time>2026-03-22T09:05:39Z</time></trkpt><trkpt lat="43.807189204846644" lon="10.929981691747239"><ele>218.0</ele><time>2026-03-22T09:05:43Z</time></trkpt><trkpt lat="43.80724670717488" lon="10.930041173751691"><ele>218.0</ele><time>2026-03-22T09:05:47Z</time></trkpt><trkpt lat="43.807305869709865" lon="10.93010103790552"><ele>218.0</ele><time>2026-03-22T09:05:51Z</time></trkpt><trkpt lat="43.80736661561666" lon="10.930150481200751"><ele>218.0</ele><time>2026-03-22T09:05:55Z</time></trkpt><trkpt lat="43.80743468222747" lon="10.930149698779454"><ele>218.0</ele><time>2026-03-22T09:05:59Z</time></trkpt><trkpt lat="43.807503841014125" lon="10.93018263707296"><ele>218.0</ele><time>2026-03-22T09:06:03Z</time></trkpt><trkpt lat="43.80757862185946" lon="10.930177202284728"><ele>218.0</ele><time>2026-03-22T09:06:07Z</time></trkpt><trkpt lat="43.807651227174986" lon="10.930182169131811"><ele>219.85714285714286</ele><time>2026-03-22T09:06:12Z</time></trkpt><trkpt lat="43.80771472113416" lon="10.93019671041029"><ele>221.71428571428572</ele><time>2026-03-22T09:06:17Z</time></trkpt><trkpt lat="43.80777961587593" lon="10.930216911566928"><ele>223.57142857142856</ele><time>2026-03-22T09:06:20Z</time></trkpt><trkpt lat="43.807848323495044" lon="10.930261659356807"><ele>225.42857142857144</ele><time>2026-03-22T09:06:22.999Z</time></trkpt><trkpt lat="43.80791035814788" lon="10.930314130408359"><ele>227.28571428571428</ele><time>2026-03-22T09:06:26.999Z</time></trkpt><trkpt lat="43.807977351660014" lon="10.930362500209027"><ele>229.14285714285714</ele><time>2026-03-22T09:06:29.999Z</time></trkpt><trkpt lat="43.80802042724064" lon="10.93043237837501"><ele>231.0</ele><time>2026-03-22T09:06:32.999Z</time></trkpt><trkpt lat="43.80807963341592" lon="10.930509839502243"><ele>231.0</ele><time>2026-03-22T09:06:36.999Z</time></trkpt><trkpt lat="43.80815056129998" lon="10.93055867547866"><ele>231.0</ele><time>2026-03-22T09:06:40.999Z</time></trkpt><trkpt lat="43.80821219655875" lon="10.930583860032373"><ele>231.0</ele><time>2026-03-22T09:06:43.999Z</time></trkpt><trkpt lat="43.8082987721257" lon="10.930599867009152"><ele>231.0</ele><time>2026-03-22T09:06:47.999Z</time></trkpt><trkpt lat="43.808378720091056" lon="10.93060571196756"><ele>231.0</ele><time>2026-03-22T09:06:51.999Z</time></trkpt><trkpt lat="43.808465759113986" lon="10.930595723846425"><ele>231.0</ele><time>2026-03-22T09:06:55.999Z</time></trkpt><trkpt lat="43.808550219170684" lon="10.930594178842986"><ele>231.83333333333334</ele><time>2026-03-22T09:06:59.999Z</time></trkpt><trkpt lat="43.80862649801121" lon="10.930602044729326"><ele>232.66666666666669</ele><time>2026-03-22T09:07:03.999Z</time></trkpt><trkpt lat="43.80870870105218" lon="10.930621216698885"><ele>233.5</ele><time>2026-03-22T09:07:07.999Z</time></trkpt><trkpt lat="43.808789668834336" lon="10.930598529365863"><ele>234.33333333333334</ele><time>2026-03-22T09:07:11.999Z</time></trkpt><trkpt lat="43.808857084978484" lon="10.930544386350252"><ele>235.16666666666669</ele><time>2026-03-22T09:07:15.999Z</time></trkpt><trkpt lat="43.808904040266526" lon="10.930476108612112"><ele>236.0</ele><time>2026-03-22T09:07:18.999Z</time></trkpt><trkpt lat="43.80892722923691" lon="10.930383948458202"><ele>236.00000000000003</ele><time>2026-03-22T09:07:21.999Z</time></trkpt><trkpt lat="43.80892903925798" lon="10.93029024091366"><ele>236.0</ele><time>2026-03-22T09:07:24.999Z</time></trkpt><trkpt lat="43.80890677870697" lon="10.930180632209154"><ele>236.0</ele><time>2026-03-22T09:07:28.999Z</time></trkpt><trkpt lat="43.80887179610821" lon="10.930079115412502"><ele>236.0</ele><time>2026-03-22T09:07:32.999Z</time></trkpt><trkpt lat="43.80883367867499" lon="10.930004869110295"><ele>236.00000000000003</ele><time>2026-03-22T09:07:36Z</time></trkpt><trkpt lat="43.808784421765715" lon="10.929918439161773"><ele>236.0</ele><time>2026-03-22T09:07:40Z</time></trkpt><trkpt lat="43.80874985686345" lon="10.929807168133301"><ele>236.71428571428572</ele><time>2026-03-22T09:07:44Z</time></trkpt><trkpt lat="43.80870098423573" lon="10.929711763167973"><ele>237.42857142857144</ele><time>2026-03-22T09:07:48Z</time></trkpt><trkpt lat="43.80868262492611" lon="10.929626814684491"><ele>238.14285714285717</ele><time>2026-03-22T09:07:51Z</time></trkpt><trkpt lat="43.8086530682873" lon="10.929548000799894"><ele>238.85714285714286</ele><time>2026-03-22T09:07:54Z</time></trkpt><trkpt lat="43.80861229351217" lon="10.929458089472096"><ele>239.5714285714286</ele><time>2026-03-22T09:07:58Z</time></trkpt><trkpt lat="43.80858965385056" lon="10.929363979674159"><ele>240.2857142857143</ele><time>2026-03-22T09:08:02Z</time></trkpt><trkpt lat="43.80855197800465" lon="10.92926387330585"><ele>241.0</ele><time>2026-03-22T09:08:06Z</time></trkpt><trkpt lat="43.80850971399927" lon="10.929168560063157"><ele>241.42857142857144</ele><time>2026-03-22T09:08:10Z</time></trkpt><trkpt lat="43.808479655636106" lon="10.929091221872449"><ele>241.8571428571429</ele><time>2026-03-22T09:08:13Z</time></trkpt><trkpt lat="43.808433409154546" lon="10.929009187076653"><ele>242.28571428571428</ele><time>2026-03-22T09:08:17Z</time></trkpt><trkpt lat="43.80841617409535" lon="10.928907126214655"><ele>242.71428571428572</ele><time>2026-03-22T09:08:21Z</time></trkpt><trkpt lat="43.80839625732217" lon="10.928822821189252"><ele>243.14285714285714</ele><time>2026-03-22T09:08:24Z</time></trkpt><trkpt lat="43.80841349132212" lon="10.928723770456088"><ele>243.57142857142856</ele><time>2026-03-22T09:08:27.999Z</time></trkpt><trkpt lat="43.80843947362131" lon="10.928619684238006"><ele>243.99999999999997</ele><time>2026-03-22T09:08:32.999Z</time></trkpt><trkpt lat="43.808505346435496" lon="10.928578304488026"><ele>243.99999999999997</ele><time>2026-03-22T09:08:36.999Z</time></trkpt><trkpt lat="43.80856899708371" lon="10.928569106709718"><ele>244.0</ele><time>2026-03-22T09:08:39.999Z</time></trkpt><trkpt lat="43.808633130043724" lon="10.928581991015706"><ele>243.99999999999997</ele><time>2026-03-22T09:08:42.999Z</time></trkpt><trkpt lat="43.8087077418986" lon="10.928609646496744"><ele>243.99999999999997</ele><time>2026-03-22T09:08:46.999Z</time></trkpt><trkpt lat="43.80879060001597" lon="10.92863464397405"><ele>244.0</ele><time>2026-03-22T09:08:50.999Z</time></trkpt><trkpt lat="43.80884945208331" lon="10.928670775512034"><ele>243.99999999999997</ele><time>2026-03-22T09:08:53.999Z</time></trkpt><trkpt lat="43.80892392771221" lon="10.928692573786712"><ele>243.99999999999997</ele><time>2026-03-22T09:08:57.999Z</time></trkpt><trkpt lat="43.809004687105464" lon="10.928714938912707"><ele>243.99999999999997</ele><time>2026-03-22T09:09:01.999Z</time></trkpt><trkpt lat="43.80908353607555" lon="10.928730092133526"><ele>244.0</ele><time>2026-03-22T09:09:05.999Z</time></trkpt><trkpt lat="43.80916261122259" lon="10.9287229782988"><ele>244.0</ele><time>2026-03-22T09:09:09.999Z</time></trkpt><trkpt lat="43.809234775265715" lon="10.928722207771807"><ele>244.0</ele><time>2026-03-22T09:09:13.999Z</time></trkpt><trkpt lat="43.80931541242962" lon="10.92871718206675"><ele>243.99999999999997</ele><time>2026-03-22T09:09:17.999Z</time></trkpt><trkpt lat="43.80939284905194" lon="10.928692310937032"><ele>244.0</ele><time>2026-03-22T09:09:21.999Z</time></trkpt><trkpt lat="43.80947299217591" lon="10.928688075309763"><ele>245.57142857142856</ele><time>2026-03-22T09:09:25.999Z</time></trkpt><trkpt lat="43.809545506780516" lon="10.928680966356804"><ele>247.14285714285714</ele><time>2026-03-22T09:09:29.999Z</time></trkpt><trkpt lat="43.80961840143956" lon="10.928699162960926"><ele>248.71428571428572</ele><time>2026-03-22T09:09:33.999Z</time></trkpt><trkpt lat="43.8096810276961" lon="10.928718591815812"><ele>250.28571428571428</ele><time>2026-03-22T09:09:36.999Z</time></trkpt><trkpt lat="43.80975691526297" lon="10.928728271994045"><ele>251.8571428571429</ele><time>2026-03-22T09:09:40.999Z</time></trkpt><trkpt lat="43.809826019862165" lon="10.928735769343012"><ele>253.42857142857144</ele><time>2026-03-22T09:09:45Z</time></trkpt><trkpt lat="43.80989062053166" lon="10.92871450066387"><ele>255.0</ele><time>2026-03-22T09:09:48Z</time></trkpt><trkpt lat="43.809964885504925" lon="10.928670987054653"><ele>255.0</ele><time>2026-03-22T09:09:52Z</time></trkpt><trkpt lat="43.8100202380566" lon="10.928586648344757"><ele>255.0</ele><time>2026-03-22T09:09:55Z</time></trkpt><trkpt lat="43.810055417421964" lon="10.928486009576108"><ele>255.0</ele><time>2026-03-22T09:09:58Z</time></trkpt><trkpt lat="43.81005296284675" lon="10.92835489439641"><ele>255.0</ele><time>2026-03-22T09:10:02Z</time></trkpt><trkpt lat="43.81003802266601" lon="10.928263952608352"><ele>255.0</ele><time>2026-03-22T09:10:05Z</time></trkpt><trkpt lat="43.810005815468884" lon="10.92816437797707"><ele>255.0</ele><time>2026-03-22T09:10:08Z</time></trkpt><trkpt lat="43.810008938257276" lon="10.928039818029585"><ele>256.1666666666667</ele><time>2026-03-22T09:10:12Z</time></trkpt><trkpt lat="43.81002167872819" lon="10.927924317829241"><ele>257.3333333333333</ele><time>2026-03-22T09:10:16Z</time></trkpt><trkpt lat="43.81005636020406" lon="10.927819549414075"><ele>258.5</ele><time>2026-03-22T09:10:19Z</time></trkpt><trkpt lat="43.81009028721782" lon="10.927742228952045"><ele>259.66666666666663</ele><time>2026-03-22T09:10:22Z</time></trkpt><trkpt lat="43.81011491865111" lon="10.92765296248737"><ele>260.8333333333333</ele><time>2026-03-22T09:10:25Z</time></trkpt><trkpt lat="43.810155324980734" lon="10.92756602412947"><ele>262.0</ele><time>2026-03-22T09:10:28Z</time></trkpt><trkpt lat="43.81017857653861" lon="10.92746379437345"><ele>262.0</ele><time>2026-03-22T09:10:31Z</time></trkpt><trkpt lat="43.81019769132605" lon="10.92737975257892"><ele>262.0</ele><time>2026-03-22T09:10:34Z</time></trkpt><trkpt lat="43.81021844234237" lon="10.927293216865834"><ele>262.0</ele><time>2026-03-22T09:10:37Z</time></trkpt><trkpt lat="43.81024042858315" lon="10.927205697992285"><ele>262.0</ele><time>2026-03-22T09:10:39.999Z</time></trkpt><trkpt lat="43.8102757975721" lon="10.927124486262572"><ele>262.0</ele><time>2026-03-22T09:10:42.999Z</time></trkpt><trkpt lat="43.810312371208994" lon="10.927023725461076"><ele>262.0</ele><time>2026-03-22T09:10:46.999Z</time></trkpt><trkpt lat="43.81036106563151" lon="10.926954704721014"><ele>262.0</ele><time>2026-03-22T09:10:49.999Z</time></trkpt><trkpt lat="43.81040732175853" lon="10.926890917844624"><ele>262.0</ele><time>2026-03-22T09:10:52.999Z</time></trkpt><trkpt lat="43.81045212681432" lon="10.92678617459914"><ele>262.0</ele><time>2026-03-22T09:10:56.999Z</time></trkpt><trkpt lat="43.810504006956585" lon="10.926728710559429"><ele>262.0</ele><time>2026-03-22T09:10:59.999Z</time></trkpt><trkpt lat="43.810543919840676" lon="10.926647841139536"><ele>262.0</ele><time>2026-03-22T09:11:02.999Z</time></trkpt><trkpt lat="43.81059904077403" lon="10.926569339384216"><ele>262.0</ele><time>2026-03-22T09:11:06.999Z</time></trkpt><trkpt lat="43.81064347453856" lon="10.926503386723963"><ele>262.0</ele><time>2026-03-22T09:11:09.999Z</time></trkpt><trkpt lat="43.81068944736949" lon="10.926426004642087"><ele>262.0</ele><time>2026-03-22T09:11:12.999Z</time></trkpt><trkpt lat="43.810730091653426" lon="10.926357591747491"><ele>261.14285714285717</ele><time>2026-03-22T09:11:15.999Z</time></trkpt><trkpt lat="43.81077067636756" lon="10.926289279054702"><ele>260.28571428571433</ele><time>2026-03-22T09:11:18.999Z</time></trkpt><trkpt lat="43.81081214106909" lon="10.926221860003638"><ele>259.42857142857144</ele><time>2026-03-22T09:11:21.999Z</time></trkpt><trkpt lat="43.81086619698355" lon="10.926141749085822"><ele>258.57142857142856</ele><time>2026-03-22T09:11:25.999Z</time></trkpt><trkpt lat="43.81092040329414" lon="10.926066276710463"><ele>257.71428571428567</ele><time>2026-03-22T09:11:29.999Z</time></trkpt><trkpt lat="43.8109936182386" lon="10.92602456252413"><ele>256.85714285714283</ele><time>2026-03-22T09:11:33.999Z</time></trkpt><trkpt lat="43.81106339822886" lon="10.926052135612291"><ele>256.0</ele><time>2026-03-22T09:11:38.999Z</time></trkpt><trkpt lat="43.81112591500597" lon="10.926094997996923"><ele>256.0</ele><time>2026-03-22T09:11:42.999Z</time></trkpt><trkpt lat="43.81117170546079" lon="10.926179359956853"><ele>255.99999999999997</ele><time>2026-03-22T09:11:46.999Z</time></trkpt><trkpt lat="43.811210105997105" lon="10.926252751979387"><ele>256.0</ele><time>2026-03-22T09:11:50Z</time></trkpt><trkpt lat="43.81125328980975" lon="10.926324628387599"><ele>256.0</ele><time>2026-03-22T09:11:53Z</time></trkpt><trkpt lat="43.81131694347659" lon="10.926372145889967"><ele>255.99999999999997</ele><time>2026-03-22T09:11:56Z</time></trkpt><trkpt lat="43.81138745213551" lon="10.926404702981037"><ele>256.0</ele><time>2026-03-22T09:11:59Z</time></trkpt><trkpt lat="43.8114592374429" lon="10.926424672715115"><ele>256.0</ele><time>2026-03-22T09:12:02Z</time></trkpt><trkpt lat="43.811535453000566" lon="10.92640689995778"><ele>255.99999999999997</ele><time>2026-03-22T09:12:05Z</time></trkpt><trkpt lat="43.81161832393442" lon="10.926407671903743"><ele>256.0</ele><time>2026-03-22T09:12:08Z</time></trkpt><trkpt lat="43.81168880918761" lon="10.926374072017376"><ele>256.0</ele><time>2026-03-22T09:12:11Z</time></trkpt><trkpt lat="43.811742101747875" lon="10.926320903513487"><ele>256.0</ele><time>2026-03-22T09:12:13Z</time></trkpt><trkpt lat="43.81180914875528" lon="10.926260526882567"><ele>255.99999999999997</ele><time>2026-03-22T09:12:16Z</time></trkpt><trkpt lat="43.811864374185355" lon="10.926184364390457"><ele>256.0</ele><time>2026-03-22T09:12:19Z</time></trkpt><trkpt lat="43.81193044435155" lon="10.926138608780608"><ele>255.14285714285714</ele><time>2026-03-22T09:12:22Z</time></trkpt><trkpt lat="43.81200869305518" lon="10.926109623947898"><ele>254.28571428571428</ele><time>2026-03-22T09:12:26Z</time></trkpt><trkpt lat="43.81207368656867" lon="10.92613869966277"><ele>253.42857142857142</ele><time>2026-03-22T09:12:29Z</time></trkpt><trkpt lat="43.81214011925032" lon="10.926197482491363"><ele>252.57142857142856</ele><time>2026-03-22T09:12:32Z</time></trkpt><trkpt lat="43.81219692408783" lon="10.92626110907481"><ele>251.71428571428572</ele><time>2026-03-22T09:12:35Z</time></trkpt><trkpt lat="43.81224471872537" lon="10.926345776273852"><ele>250.85714285714283</ele><time>2026-03-22T09:12:38Z</time></trkpt><trkpt lat="43.81229240923518" lon="10.926417747144454"><ele>250.0</ele><time>2026-03-22T09:12:41Z</time></trkpt><trkpt lat="43.81233045258579" lon="10.926487514915435"><ele>250.0</ele><time>2026-03-22T09:12:44Z</time></trkpt><trkpt lat="43.81238806160231" lon="10.926562013601146"><ele>250.0</ele><time>2026-03-22T09:12:47Z</time></trkpt><trkpt lat="43.81244179264112" lon="10.926620105196509"><ele>250.0</ele><time>2026-03-22T09:12:50Z</time></trkpt><trkpt lat="43.81250507948885" lon="10.926688065034543"><ele>250.0</ele><time>2026-03-22T09:12:53Z</time></trkpt><trkpt lat="43.81255726104834" lon="10.926753745100704"><ele>250.0</ele><time>2026-03-22T09:12:55.999Z</time></trkpt><trkpt lat="43.812601234574885" lon="10.92681647078316"><ele>250.0</ele><time>2026-03-22T09:12:58.999Z</time></trkpt><trkpt lat="43.81264735714929" lon="10.926892957193882"><ele>250.0</ele><time>2026-03-22T09:13:01.999Z</time></trkpt><trkpt lat="43.81270686692832" lon="10.92696086358733"><ele>249.71428571428572</ele><time>2026-03-22T09:13:04.999Z</time></trkpt><trkpt lat="43.812759812106364" lon="10.927022828544617"><ele>249.42857142857144</ele><time>2026-03-22T09:13:07.999Z</time></trkpt><trkpt lat="43.81281332051243" lon="10.927082391627678"><ele>249.14285714285717</ele><time>2026-03-22T09:13:10.999Z</time></trkpt><trkpt lat="43.81286825164185" lon="10.92715060661035"><ele>248.85714285714286</ele><time>2026-03-22T09:13:13.999Z</time></trkpt><trkpt lat="43.812912727791904" lon="10.92722167510761"><ele>248.5714285714286</ele><time>2026-03-22T09:13:16.999Z</time></trkpt><trkpt lat="43.81295262234868" lon="10.927297157804674"><ele>248.2857142857143</ele><time>2026-03-22T09:13:19.999Z</time></trkpt><trkpt lat="43.81298977680219" lon="10.927381147227694"><ele>248.0</ele><time>2026-03-22T09:13:22.999Z</time></trkpt><trkpt lat="43.81303361457559" lon="10.927465768978205"><ele>248.0</ele><time>2026-03-22T09:13:25.999Z</time></trkpt><trkpt lat="43.81306920677056" lon="10.927544121631248"><ele>248.00000000000003</ele><time>2026-03-22T09:13:28.999Z</time></trkpt><trkpt lat="43.81311230212551" lon="10.927624334389211"><ele>248.0</ele><time>2026-03-22T09:13:32.999Z</time></trkpt><trkpt lat="43.813161300645966" lon="10.927700976299853"><ele>248.0</ele><time>2026-03-22T09:13:35.999Z</time></trkpt><trkpt lat="43.813213429434015" lon="10.927786761678153"><ele>248.00000000000003</ele><time>2026-03-22T09:13:38.999Z</time></trkpt><trkpt lat="43.81326288665606" lon="10.927869340866236"><ele>248.0</ele><time>2026-03-22T09:13:41.999Z</time></trkpt><trkpt lat="43.813299510413735" lon="10.927963710114671"><ele>248.0</ele><time>2026-03-22T09:13:44.999Z</time></trkpt><trkpt lat="43.813363086576594" lon="10.928030161405793"><ele>247.2857142857143</ele><time>2026-03-22T09:13:47.999Z</time></trkpt><trkpt lat="43.81340349193586" lon="10.928103862061393"><ele>246.5714285714286</ele><time>2026-03-22T09:13:50.999Z</time></trkpt><trkpt lat="43.813444713541976" lon="10.928183004798857"><ele>245.85714285714286</ele><time>2026-03-22T09:13:54Z</time></trkpt><trkpt lat="43.81349785650983" lon="10.928259535080466"><ele>245.14285714285717</ele><time>2026-03-22T09:13:57Z</time></trkpt><trkpt lat="43.81355059367219" lon="10.928320718160856"><ele>244.42857142857144</ele><time>2026-03-22T09:14:00Z</time></trkpt><trkpt lat="43.8135964501594" lon="10.928389027273697"><ele>243.71428571428572</ele><time>2026-03-22T09:14:03Z</time></trkpt><trkpt lat="43.81363256803974" lon="10.928499983132744"><ele>243.0</ele><time>2026-03-22T09:14:06Z</time></trkpt><trkpt lat="43.81369288801852" lon="10.928577996671152"><ele>246.57142857142856</ele><time>2026-03-22T09:14:09Z</time></trkpt><trkpt lat="43.81373834052667" lon="10.928644657610358"><ele>250.14285714285717</ele><time>2026-03-22T09:14:12Z</time></trkpt><trkpt lat="43.813791135583564" lon="10.928721636605589"><ele>253.71428571428572</ele><time>2026-03-22T09:14:15Z</time></trkpt><trkpt lat="43.813860965276646" lon="10.928753483729238"><ele>257.2857142857143</ele><time>2026-03-22T09:14:18Z</time></trkpt><trkpt lat="43.81393434305447" lon="10.92880396227206"><ele>260.85714285714283</ele><time>2026-03-22T09:14:21Z</time></trkpt><trkpt lat="43.81399466943605" lon="10.928835954220288"><ele>264.42857142857144</ele><time>2026-03-22T09:14:24Z</time></trkpt><trkpt lat="43.81404994491482" lon="10.928897546475433"><ele>268.0</ele><time>2026-03-22T09:14:27Z</time></trkpt><trkpt lat="43.81409809234632" lon="10.928974379244988"><ele>268.0</ele><time>2026-03-22T09:14:30Z</time></trkpt><trkpt lat="43.81415385411587" lon="10.92903201996358"><ele>268.0</ele><time>2026-03-22T09:14:33Z</time></trkpt><trkpt lat="43.81421484863805" lon="10.929099005245975"><ele>268.0</ele><time>2026-03-22T09:14:36Z</time></trkpt><trkpt lat="43.814294622459386" lon="10.929144579624547"><ele>268.0</ele><time>2026-03-22T09:14:40Z</time></trkpt><trkpt lat="43.814356593346965" lon="10.929174964454644"><ele>268.0</ele><time>2026-03-22T09:14:43Z</time></trkpt><trkpt lat="43.81442579075771" lon="10.92920633956924"><ele>268.0</ele><time>2026-03-22T09:14:46Z</time></trkpt><trkpt lat="43.814485142136014" lon="10.929255394087518"><ele>268.0</ele><time>2026-03-22T09:14:48.999Z</time></trkpt><trkpt lat="43.81454650576502" lon="10.929306118879778"><ele>269.8571428571429</ele><time>2026-03-22T09:14:51.999Z</time></trkpt><trkpt lat="43.814600885442545" lon="10.929360646251434"><ele>271.7142857142857</ele><time>2026-03-22T09:14:54.999Z</time></trkpt><trkpt lat="43.81464595992306" lon="10.929428326695145"><ele>273.57142857142856</ele><time>2026-03-22T09:14:57.999Z</time></trkpt><trkpt lat="43.81469616138869" lon="10.929509542486436"><ele>275.42857142857144</ele><time>2026-03-22T09:15:01.999Z</time></trkpt><trkpt lat="43.814759682060775" lon="10.92957760441335"><ele>277.2857142857143</ele><time>2026-03-22T09:15:05.999Z</time></trkpt><trkpt lat="43.81482396522332" lon="10.929577872796436"><ele>279.14285714285717</ele><time>2026-03-22T09:15:08.999Z</time></trkpt><trkpt lat="43.81489806639903" lon="10.929557628984496"><ele>281.0</ele><time>2026-03-22T09:15:11.999Z</time></trkpt><trkpt lat="43.81496212486493" lon="10.929515103817506"><ele>281.0</ele><time>2026-03-22T09:15:13.999Z</time></trkpt><trkpt lat="43.815020448127385" lon="10.92947593067476"><ele>281.0</ele><time>2026-03-22T09:15:15.999Z</time></trkpt><trkpt lat="43.81510750637016" lon="10.929495011109836"><ele>281.0</ele><time>2026-03-22T09:15:18.999Z</time></trkpt><trkpt lat="43.815185874867666" lon="10.929497431479222"><ele>281.0</ele><time>2026-03-22T09:15:21.999Z</time></trkpt><trkpt lat="43.81525499015949" lon="10.92955061480904"><ele>281.0</ele><time>2026-03-22T09:15:24.999Z</time></trkpt><trkpt lat="43.81534540677719" lon="10.929595987749504"><ele>281.0</ele><time>2026-03-22T09:15:27.999Z</time></trkpt><trkpt lat="43.8154233862723" lon="10.929647707340953"><ele>277.83333333333337</ele><time>2026-03-22T09:15:30.999Z</time></trkpt><trkpt lat="43.81549620712539" lon="10.929719786631757"><ele>274.6666666666667</ele><time>2026-03-22T09:15:33.999Z</time></trkpt><trkpt lat="43.81556619876012" lon="10.929761627413997"><ele>271.5</ele><time>2026-03-22T09:15:36.999Z</time></trkpt><trkpt lat="43.81562032763204" lon="10.929819525691743"><ele>268.3333333333333</ele><time>2026-03-22T09:15:39.999Z</time></trkpt><trkpt lat="43.815691823351315" lon="10.929868155558346"><ele>265.16666666666663</ele><time>2026-03-22T09:15:42.999Z</time></trkpt><trkpt lat="43.815752394741935" lon="10.929905624011376"><ele>262.0</ele><time>2026-03-22T09:15:45.999Z</time></trkpt><trkpt lat="43.815820310038426" lon="10.92996471388508"><ele>262.0</ele><time>2026-03-22T09:15:48.999Z</time></trkpt><trkpt lat="43.81586367045374" lon="10.93003762359115"><ele>262.0</ele><time>2026-03-22T09:15:51.999Z</time></trkpt><trkpt lat="43.81592330440809" lon="10.930089744469019"><ele>262.0</ele><time>2026-03-22T09:15:54.999Z</time></trkpt><trkpt lat="43.815982966431456" lon="10.93016078220129"><ele>262.0</ele><time>2026-03-22T09:15:57.999Z</time></trkpt><trkpt lat="43.816037573961964" lon="10.930205525938236"><ele>262.0</ele><time>2026-03-22T09:16:01Z</time></trkpt><trkpt lat="43.81610400272286" lon="10.930261546370705"><ele>262.0</ele><time>2026-03-22T09:16:04Z</time></trkpt><trkpt lat="43.816172123680175" lon="10.93029953150829"><ele>262.0</ele><time>2026-03-22T09:16:07Z</time></trkpt><trkpt lat="43.816235664274345" lon="10.930367414234286"><ele>264.14285714285717</ele><time>2026-03-22T09:16:10Z</time></trkpt><trkpt lat="43.81630920440902" lon="10.930377850506831"><ele>266.28571428571433</ele><time>2026-03-22T09:16:13Z</time></trkpt><trkpt lat="43.81637371173352" lon="10.93040183541724"><ele>268.42857142857144</ele><time>2026-03-22T09:16:16Z</time></trkpt><trkpt lat="43.81644246292673" lon="10.930461145513354"><ele>270.57142857142856</ele><time>2026-03-22T09:16:19Z</time></trkpt><trkpt lat="43.81651502430545" lon="10.930453782095663"><ele>272.71428571428567</ele><time>2026-03-22T09:16:22Z</time></trkpt><trkpt lat="43.81658063606814" lon="10.930376555225312"><ele>274.85714285714283</ele><time>2026-03-22T09:16:25Z</time></trkpt><trkpt lat="43.816615920998395" lon="10.930300790499158"><ele>277.0</ele><time>2026-03-22T09:16:27Z</time></trkpt><trkpt lat="43.816674363923205" lon="10.93019466485055"><ele>277.0</ele><time>2026-03-22T09:16:31Z</time></trkpt><trkpt lat="43.81667967976805" lon="10.93008627410024"><ele>277.0</ele><time>2026-03-22T09:16:34Z</time></trkpt><trkpt lat="43.81667126672232" lon="10.929991488169845"><ele>277.0</ele><time>2026-03-22T09:16:37Z</time></trkpt><trkpt lat="43.81662616938623" lon="10.92988707657858"><ele>277.0</ele><time>2026-03-22T09:16:41Z</time></trkpt><trkpt lat="43.81661861655558" lon="10.929799412352414"><ele>277.0</ele><time>2026-03-22T09:16:44Z</time></trkpt><trkpt lat="43.816557532744966" lon="10.929739917712844"><ele>277.0</ele><time>2026-03-22T09:16:47.999Z</time></trkpt><trkpt lat="43.816526310207166" lon="10.929663241134934"><ele>277.0</ele><time>2026-03-22T09:16:50.999Z</time></trkpt><trkpt lat="43.816487660305484" lon="10.929565989167962"><ele>277.0</ele><time>2026-03-22T09:16:54.999Z</time></trkpt><trkpt lat="43.81644507751692" lon="10.929475413025541"><ele>277.0</ele><time>2026-03-22T09:16:58.999Z</time></trkpt><trkpt lat="43.81641726715657" lon="10.929392771341554"><ele>277.0</ele><time>2026-03-22T09:17:01.999Z</time></trkpt><trkpt lat="43.816403042457026" lon="10.929297295601648"><ele>277.0</ele><time>2026-03-22T09:17:05.999Z</time></trkpt><trkpt lat="43.81636092000222" lon="10.929209524645318"><ele>277.0</ele><time>2026-03-22T09:17:09.999Z</time></trkpt><trkpt lat="43.81633324643673" lon="10.929105406390219"><ele>277.0</ele><time>2026-03-22T09:17:13.999Z</time></trkpt><trkpt lat="43.81629156719455" lon="10.928998004792714"><ele>277.0</ele><time>2026-03-22T09:17:17.999Z</time></trkpt><trkpt lat="43.81626448664695" lon="10.92891481388487"><ele>277.0</ele><time>2026-03-22T09:17:21.999Z</time></trkpt><trkpt lat="43.81622716153985" lon="10.9288136762161"><ele>277.0</ele><time>2026-03-22T09:17:25.999Z</time></trkpt><trkpt lat="43.81619168842992" lon="10.92873703131406"><ele>277.0</ele><time>2026-03-22T09:17:28.999Z</time></trkpt><trkpt lat="43.81615437259492" lon="10.928662580796535"><ele>277.0</ele><time>2026-03-22T09:17:32.999Z</time></trkpt><trkpt lat="43.816105411858544" lon="10.928569424505705"><ele>277.0</ele><time>2026-03-22T09:17:36.999Z</time></trkpt><trkpt lat="43.81606770125859" lon="10.928494701279824"><ele>277.0</ele><time>2026-03-22T09:17:39.999Z</time></trkpt><trkpt lat="43.816005483362204" lon="10.92842748384329"><ele>274.85714285714283</ele><time>2026-03-22T09:17:43.999Z</time></trkpt><trkpt lat="43.81594577756697" lon="10.928379867854275"><ele>272.71428571428567</ele><time>2026-03-22T09:17:46.999Z</time></trkpt><trkpt lat="43.81589989446426" lon="10.928309810875794"><ele>270.57142857142856</ele><time>2026-03-22T09:17:50.999Z</time></trkpt><trkpt lat="43.81585203001374" lon="10.928252417580296"><ele>268.42857142857144</ele><time>2026-03-22T09:17:53.999Z</time></trkpt><trkpt lat="43.81580183744056" lon="10.928162690979965"><ele>266.28571428571433</ele><time>2026-03-22T09:17:57.999Z</time></trkpt><trkpt lat="43.81576174743934" lon="10.928080315772315"><ele>264.14285714285717</ele><time>2026-03-22T09:18:01.999Z</time></trkpt><trkpt lat="43.81571793628026" lon="10.928014510523562"><ele>262.0</ele><time>2026-03-22T09:18:05Z</time></trkpt><trkpt lat="43.815683344221455" lon="10.927934939357229"><ele>262.0</ele><time>2026-03-22T09:18:09Z</time></trkpt><trkpt lat="43.815650753895746" lon="10.927838554783156"><ele>262.0</ele><time>2026-03-22T09:18:13Z</time></trkpt><trkpt lat="43.81560460289123" lon="10.927748897037823"><ele>262.0</ele><time>2026-03-22T09:18:17Z</time></trkpt><trkpt lat="43.81555922054924" lon="10.927679869134566"><ele>262.0</ele><time>2026-03-22T09:18:20Z</time></trkpt><trkpt lat="43.81552624221776" lon="10.927584012619363"><ele>262.0</ele><time>2026-03-22T09:18:24Z</time></trkpt><trkpt lat="43.81548129659947" lon="10.927491941115985"><ele>262.0</ele><time>2026-03-22T09:18:28Z</time></trkpt><trkpt lat="43.81547600207372" lon="10.927380316637347"><ele>263.0</ele><time>2026-03-22T09:18:32Z</time></trkpt><trkpt lat="43.815491894016304" lon="10.927290816054132"><ele>264.0</ele><time>2026-03-22T09:18:35Z</time></trkpt><trkpt lat="43.81550658176072" lon="10.927191570347421"><ele>265.0</ele><time>2026-03-22T09:18:39Z</time></trkpt><trkpt lat="43.81553927781652" lon="10.927087168818192"><ele>266.0</ele><time>2026-03-22T09:18:43Z</time></trkpt><trkpt lat="43.81556152754216" lon="10.927005273574323"><ele>267.0</ele><time>2026-03-22T09:18:46Z</time></trkpt><trkpt lat="43.81559679211972" lon="10.926908277139713"><ele>268.0</ele><time>2026-03-22T09:18:50Z</time></trkpt><trkpt lat="43.81563929593037" lon="10.926817811495559"><ele>269.0</ele><time>2026-03-22T09:18:54Z</time></trkpt><trkpt lat="43.815661389944395" lon="10.926710671530726"><ele>269.0</ele><time>2026-03-22T09:18:58Z</time></trkpt><trkpt lat="43.81570265582798" lon="10.926623058585733"><ele>269.0</ele><time>2026-03-22T09:19:01.999Z</time></trkpt><trkpt lat="43.81578390872892" lon="10.926598963098217"><ele>269.0</ele><time>2026-03-22T09:19:05.999Z</time></trkpt><trkpt lat="43.81585540478012" lon="10.926592761643048"><ele>269.0</ele><time>2026-03-22T09:19:09.999Z</time></trkpt><trkpt lat="43.81591588202029" lon="10.92662114962966"><ele>269.0</ele><time>2026-03-22T09:19:13.999Z</time></trkpt><trkpt lat="43.81598038180802" lon="10.926666332229185"><ele>269.0</ele><time>2026-03-22T09:19:17.999Z</time></trkpt><trkpt lat="43.81603595802897" lon="10.92671701114662"><ele>269.0</ele><time>2026-03-22T09:19:20.999Z</time></trkpt><trkpt lat="43.81609442627514" lon="10.926760880904862"><ele>269.2857142857143</ele><time>2026-03-22T09:19:23.999Z</time></trkpt><trkpt lat="43.816163745176425" lon="10.92681041692704"><ele>269.5714285714286</ele><time>2026-03-22T09:19:27.999Z</time></trkpt><trkpt lat="43.81623207272038" lon="10.926819191046139"><ele>269.8571428571429</ele><time>2026-03-22T09:19:31.999Z</time></trkpt><trkpt lat="43.81630285198067" lon="10.926775726556158"><ele>270.14285714285717</ele><time>2026-03-22T09:19:35.999Z</time></trkpt><trkpt lat="43.81636264418775" lon="10.926724252738545"><ele>270.42857142857144</ele><time>2026-03-22T09:19:38.999Z</time></trkpt><trkpt lat="43.81641268275916" lon="10.926668172626801"><ele>270.7142857142857</ele><time>2026-03-22T09:19:41.999Z</time></trkpt><trkpt lat="43.81647609707868" lon="10.926638238544548"><ele>271.0</ele><time>2026-03-22T09:19:44.999Z</time></trkpt><trkpt lat="43.81654048577477" lon="10.926616771876908"><ele>271.0</ele><time>2026-03-22T09:19:47.999Z</time></trkpt><trkpt lat="43.81661032258114" lon="10.926615116610623"><ele>271.0</ele><time>2026-03-22T09:19:50.999Z</time></trkpt><trkpt lat="43.81668196890842" lon="10.926634158760507"><ele>271.0</ele><time>2026-03-22T09:19:54.999Z</time></trkpt><trkpt lat="43.816750966565436" lon="10.92667131429311"><ele>271.0</ele><time>2026-03-22T09:19:57.999Z</time></trkpt><trkpt lat="43.81683228870484" lon="10.926684376137036"><ele>271.0</ele><time>2026-03-22T09:20:01.999Z</time></trkpt><trkpt lat="43.81689300233517" lon="10.926719327036917"><ele>271.0</ele><time>2026-03-22T09:20:04.999Z</time></trkpt><trkpt lat="43.816963749141905" lon="10.92677204615572"><ele>271.0</ele><time>2026-03-22T09:20:08.999Z</time></trkpt><trkpt lat="43.81702781284954" lon="10.926789957048422"><ele>274.2857142857143</ele><time>2026-03-22T09:20:12Z</time></trkpt><trkpt lat="43.81708760533388" lon="10.926830206667164"><ele>277.57142857142856</ele><time>2026-03-22T09:20:15Z</time></trkpt><trkpt lat="43.817165825990486" lon="10.926828190693302"><ele>280.8571428571429</ele><time>2026-03-22T09:20:19Z</time></trkpt><trkpt lat="43.817246125617324" lon="10.926871009538436"><ele>284.1428571428571</ele><time>2026-03-22T09:20:23Z</time></trkpt><trkpt lat="43.817314943627295" lon="10.926909167089644"><ele>287.42857142857144</ele><time>2026-03-22T09:20:26Z</time></trkpt><trkpt lat="43.817357131624966" lon="10.926983351022116"><ele>290.7142857142857</ele><time>2026-03-22T09:20:29Z</time></trkpt><trkpt lat="43.817405806710994" lon="10.927048959119865"><ele>294.0</ele><time>2026-03-22T09:20:32Z</time></trkpt><trkpt lat="43.81747245836736" lon="10.92711115756252"><ele>294.0</ele><time>2026-03-22T09:20:36Z</time></trkpt><trkpt lat="43.81752899028447" lon="10.927183158378263"><ele>294.0</ele><time>2026-03-22T09:20:40Z</time></trkpt><trkpt lat="43.81758831365207" lon="10.92725996575982"><ele>294.0</ele><time>2026-03-22T09:20:44Z</time></trkpt><trkpt lat="43.817649167017116" lon="10.927298032012466"><ele>294.0</ele><time>2026-03-22T09:20:47Z</time></trkpt><trkpt lat="43.81771781742976" lon="10.927323852021138"><ele>294.0</ele><time>2026-03-22T09:20:51Z</time></trkpt><trkpt lat="43.817796877590325" lon="10.927319606758095"><ele>294.0</ele><time>2026-03-22T09:20:55Z</time></trkpt><trkpt lat="43.81786805296492" lon="10.927338334154555"><ele>294.0</ele><time>2026-03-22T09:20:58Z</time></trkpt><trkpt lat="43.817932123714144" lon="10.927364742452784"><ele>294.1666666666667</ele><time>2026-03-22T09:21:01Z</time></trkpt><trkpt lat="43.81799953093812" lon="10.927350999077245"><ele>294.3333333333333</ele><time>2026-03-22T09:21:04Z</time></trkpt><trkpt lat="43.818080076209846" lon="10.927351460181109"><ele>294.5</ele><time>2026-03-22T09:21:08Z</time></trkpt><trkpt lat="43.81815101398862" lon="10.92737454578334"><ele>294.66666666666663</ele><time>2026-03-22T09:21:11Z</time></trkpt><trkpt lat="43.81822973325751" lon="10.927323759433158"><ele>294.8333333333333</ele><time>2026-03-22T09:21:15Z</time></trkpt><trkpt lat="43.818283673679844" lon="10.927222548736239"><ele>295.0</ele><time>2026-03-22T09:21:18Z</time></trkpt><trkpt lat="43.81830466545862" lon="10.927111653365296"><ele>295.00000000000006</ele><time>2026-03-22T09:21:20.999Z</time></trkpt><trkpt lat="43.81830318634797" lon="10.92701210388204"><ele>295.0</ele><time>2026-03-22T09:21:23.999Z</time></trkpt><trkpt lat="43.81828327786364" lon="10.92691270637733"><ele>295.0</ele><time>2026-03-22T09:21:26.999Z</time></trkpt><trkpt lat="43.81826419876178" lon="10.926816299771568"><ele>295.0</ele><time>2026-03-22T09:21:29.999Z</time></trkpt><trkpt lat="43.818240495485426" lon="10.926708488781903"><ele>295.0</ele><time>2026-03-22T09:21:32.999Z</time></trkpt><trkpt lat="43.81822693125442" lon="10.92661683701737"><ele>295.00000000000006</ele><time>2026-03-22T09:21:35.999Z</time></trkpt><trkpt lat="43.81821006740912" lon="10.92652023403431"><ele>295.0</ele><time>2026-03-22T09:21:38.999Z</time></trkpt><trkpt lat="43.818208085040276" lon="10.926419984657553"><ele>294.00000000000006</ele><time>2026-03-22T09:21:41.999Z</time></trkpt><trkpt lat="43.81818892379396" lon="10.926330689839322"><ele>293.0</ele><time>2026-03-22T09:21:44.999Z</time></trkpt><trkpt lat="43.81817402585892" lon="10.92622352359402"><ele>292.0</ele><time>2026-03-22T09:21:48.999Z</time></trkpt><trkpt lat="43.81817906935307" lon="10.926115076474261"><ele>291.0</ele><time>2026-03-22T09:21:52.999Z</time></trkpt><trkpt lat="43.81818015191238" lon="10.926018706926723"><ele>290.0</ele><time>2026-03-22T09:21:55.999Z</time></trkpt><trkpt lat="43.8181863171889" lon="10.925924467668592"><ele>289.00000000000006</ele><time>2026-03-22T09:21:58.999Z</time></trkpt><trkpt lat="43.818182002530726" lon="10.92581473187297"><ele>288.0</ele><time>2026-03-22T09:22:02.999Z</time></trkpt><trkpt lat="43.81819449916147" lon="10.92572647905968"><ele>288.8571428571429</ele><time>2026-03-22T09:22:05.999Z</time></trkpt><trkpt lat="43.8182335295315" lon="10.925652681276258"><ele>289.7142857142857</ele><time>2026-03-22T09:22:08.999Z</time></trkpt><trkpt lat="43.81829143622086" lon="10.925612184693541"><ele>290.57142857142856</ele><time>2026-03-22T09:22:11.999Z</time></trkpt><trkpt lat="43.81836089962437" lon="10.925604302190544"><ele>291.42857142857144</ele><time>2026-03-22T09:22:14.999Z</time></trkpt><trkpt lat="43.81843846340729" lon="10.925600669330066"><ele>292.2857142857143</ele><time>2026-03-22T09:22:19Z</time></trkpt><trkpt lat="43.818503607185974" lon="10.925607566180979"><ele>293.14285714285717</ele><time>2026-03-22T09:22:22Z</time></trkpt><trkpt lat="43.818568959278664" lon="10.925602760106383"><ele>294.0</ele><time>2026-03-22T09:22:25Z</time></trkpt><trkpt lat="43.81863569082408" lon="10.925601456558995"><ele>294.0</ele><time>2026-03-22T09:22:28Z</time></trkpt><trkpt lat="43.818716954670386" lon="10.925574890487573"><ele>294.0</ele><time>2026-03-22T09:22:32Z</time></trkpt><trkpt lat="43.818779890807946" lon="10.92552017708784"><ele>294.0</ele><time>2026-03-22T09:22:35Z</time></trkpt><trkpt lat="43.81884242199742" lon="10.925459634878255"><ele>294.0</ele><time>2026-03-22T09:22:38Z</time></trkpt><trkpt lat="43.81890506406409" lon="10.92538988812567"><ele>294.0</ele><time>2026-03-22T09:22:42Z</time></trkpt><trkpt lat="43.81897009126577" lon="10.925347128401434"><ele>294.0</ele><time>2026-03-22T09:22:45Z</time></trkpt><trkpt lat="43.81904662255955" lon="10.92530509965067"><ele>294.0</ele><time>2026-03-22T09:22:49Z</time></trkpt><trkpt lat="43.81913060129289" lon="10.925284627594465"><ele>294.0</ele><time>2026-03-22T09:22:53Z</time></trkpt><trkpt lat="43.819212989273005" lon="10.925286839859384"><ele>294.0</ele><time>2026-03-22T09:22:57Z</time></trkpt><trkpt lat="43.81927857829986" lon="10.925337414049219"><ele>294.0</ele><time>2026-03-22T09:23:01Z</time></trkpt><trkpt lat="43.8193228671429" lon="10.925404241801292"><ele>294.0</ele><time>2026-03-22T09:23:04Z</time></trkpt><trkpt lat="43.81937251436429" lon="10.925483401023302"><ele>294.0</ele><time>2026-03-22T09:23:07Z</time></trkpt><trkpt lat="43.819425196875464" lon="10.925569053819302"><ele>293.3333333333333</ele><time>2026-03-22T09:23:10Z</time></trkpt><trkpt lat="43.819473749465566" lon="10.925652726915523"><ele>292.6666666666667</ele><time>2026-03-22T09:23:14Z</time></trkpt><trkpt lat="43.81951586729142" lon="10.925727002239846"><ele>292.0</ele><time>2026-03-22T09:23:17Z</time></trkpt><trkpt lat="43.81957099565592" lon="10.92580154449738"><ele>291.33333333333337</ele><time>2026-03-22T09:23:20Z</time></trkpt><trkpt lat="43.81963694702606" lon="10.925857517320374"><ele>290.6666666666667</ele><time>2026-03-22T09:23:23Z</time></trkpt><trkpt lat="43.81968720935115" lon="10.925931557768005"><ele>290.0</ele><time>2026-03-22T09:23:25.999Z</time></trkpt><trkpt lat="43.819754183509836" lon="10.926015503911422"><ele>290.0</ele><time>2026-03-22T09:23:29.999Z</time></trkpt><trkpt lat="43.8198041890103" lon="10.926073011963854"><ele>290.0</ele><time>2026-03-22T09:23:32.999Z</time></trkpt><trkpt lat="43.81984940661027" lon="10.926150160486976"><ele>290.0</ele><time>2026-03-22T09:23:35.999Z</time></trkpt><trkpt lat="43.819888595273525" lon="10.926228141691517"><ele>290.0</ele><time>2026-03-22T09:23:38.999Z</time></trkpt><trkpt lat="43.81992008902179" lon="10.92632230156471"><ele>290.0</ele><time>2026-03-22T09:23:42.999Z</time></trkpt><trkpt lat="43.81995312380209" lon="10.926412785748868"><ele>290.0</ele><time>2026-03-22T09:23:46.999Z</time></trkpt><trkpt lat="43.819998768190516" lon="10.926501623894367"><ele>290.0</ele><time>2026-03-22T09:23:50.999Z</time></trkpt><trkpt lat="43.82003533727268" lon="10.926580524265713"><ele>290.0</ele><time>2026-03-22T09:23:53.999Z</time></trkpt><trkpt lat="43.8200688266413" lon="10.926676101799034"><ele>290.0</ele><time>2026-03-22T09:23:57.999Z</time></trkpt><trkpt lat="43.82011379087966" lon="10.926747858521276"><ele>290.0</ele><time>2026-03-22T09:24:00.999Z</time></trkpt><trkpt lat="43.8201521394103" lon="10.92681996764776"><ele>290.0</ele><time>2026-03-22T09:24:03.999Z</time></trkpt><trkpt lat="43.82018699790663" lon="10.92689578315988"><ele>290.0</ele><time>2026-03-22T09:24:06.999Z</time></trkpt><trkpt lat="43.820224994122555" lon="10.92696983110117"><ele>290.0</ele><time>2026-03-22T09:24:09.999Z</time></trkpt><trkpt lat="43.82027797574269" lon="10.927045554327789"><ele>290.0</ele><time>2026-03-22T09:24:12.999Z</time></trkpt><trkpt lat="43.82030426856554" lon="10.927132890972288"><ele>288.8571428571429</ele><time>2026-03-22T09:24:15.999Z</time></trkpt><trkpt lat="43.82032911029788" lon="10.927236829414785"><ele>287.7142857142857</ele><time>2026-03-22T09:24:19.999Z</time></trkpt><trkpt lat="43.820335799604294" lon="10.927329686379519"><ele>286.57142857142856</ele><time>2026-03-22T09:24:23Z</time></trkpt><trkpt lat="43.8203717245487" lon="10.927428884702362"><ele>285.42857142857144</ele><time>2026-03-22T09:24:27Z</time></trkpt><trkpt lat="43.82039900968015" lon="10.927514955884254"><ele>284.2857142857143</ele><time>2026-03-22T09:24:30Z</time></trkpt><trkpt lat="43.82042412791522" lon="10.927619657230945"><ele>283.14285714285717</ele><time>2026-03-22T09:24:34Z</time></trkpt><trkpt lat="43.82044977186918" lon="10.927713579893249"><ele>282.0</ele><time>2026-03-22T09:24:38Z</time></trkpt><trkpt lat="43.82047502626706" lon="10.927808417886718"><ele>284.7142857142857</ele><time>2026-03-22T09:24:41Z</time></trkpt><trkpt lat="43.820527885236466" lon="10.927865639117632"><ele>287.42857142857144</ele><time>2026-03-22T09:24:44Z</time></trkpt><trkpt lat="43.82056660821283" lon="10.92793445982528"><ele>290.1428571428571</ele><time>2026-03-22T09:24:47Z</time></trkpt><trkpt lat="43.820611012469556" lon="10.928027043897353"><ele>292.8571428571429</ele><time>2026-03-22T09:24:50Z</time></trkpt><trkpt lat="43.820655896383506" lon="10.92811486785344"><ele>295.57142857142856</ele><time>2026-03-22T09:24:53Z</time></trkpt><trkpt lat="43.82071758928061" lon="10.928195674302698"><ele>298.2857142857143</ele><time>2026-03-22T09:24:57Z</time></trkpt><trkpt lat="43.82076882834349" lon="10.928273001209732"><ele>301.0</ele><time>2026-03-22T09:25:00Z</time></trkpt><trkpt lat="43.820806624554095" lon="10.928344897496665"><ele>304.0</ele><time>2026-03-22T09:25:03Z</time></trkpt><trkpt lat="43.82085353306479" lon="10.928403407615702"><ele>307.0</ele><time>2026-03-22T09:25:06Z</time></trkpt><trkpt lat="43.820908034125075" lon="10.928464309255713"><ele>310.0</ele><time>2026-03-22T09:25:09Z</time></trkpt><trkpt lat="43.820957947662684" lon="10.928517574052858"><ele>313.0</ele><time>2026-03-22T09:25:12Z</time></trkpt><trkpt lat="43.8210270110086" lon="10.928560090385675"><ele>316.0</ele><time>2026-03-22T09:25:16Z</time></trkpt><trkpt lat="43.821098378210465" lon="10.928582740207705"><ele>319.0</ele><time>2026-03-22T09:25:19Z</time></trkpt><trkpt lat="43.82117798577294" lon="10.928530227248183"><ele>322.0</ele><time>2026-03-22T09:25:22Z</time></trkpt><trkpt lat="43.82122094776651" lon="10.92845084064834"><ele>319.7142857142857</ele><time>2026-03-22T09:25:25Z</time></trkpt><trkpt lat="43.821262694102785" lon="10.92836972288021"><ele>317.42857142857144</ele><time>2026-03-22T09:25:28Z</time></trkpt><trkpt lat="43.82127107920986" lon="10.92827340475226"><ele>315.1428571428571</ele><time>2026-03-22T09:25:30.999Z</time></trkpt><trkpt lat="43.82129517904247" lon="10.928183407449698"><ele>312.8571428571429</ele><time>2026-03-22T09:25:33.999Z</time></trkpt><trkpt lat="43.82129510387301" lon="10.928080674698416"><ele>310.57142857142856</ele><time>2026-03-22T09:25:36.999Z</time></trkpt><trkpt lat="43.82131327047384" lon="10.92797584314651"><ele>308.2857142857143</ele><time>2026-03-22T09:25:39.999Z</time></trkpt><trkpt lat="43.821336348019585" lon="10.927868254719483"><ele>306.0</ele><time>2026-03-22T09:25:43.999Z</time></trkpt><trkpt lat="43.82134963091834" lon="10.92776599927311"><ele>306.0</ele><time>2026-03-22T09:25:47.999Z</time></trkpt><trkpt lat="43.82137720118204" lon="10.927681201110085"><ele>306.0</ele><time>2026-03-22T09:25:50.999Z</time></trkpt><trkpt lat="43.8214437800174" lon="10.927622352530232"><ele>306.0</ele><time>2026-03-22T09:25:54.999Z</time></trkpt><trkpt lat="43.821515100849446" lon="10.92759468346733"><ele>306.0</ele><time>2026-03-22T09:25:58.999Z</time></trkpt><trkpt lat="43.82160258932792" lon="10.927578302808334"><ele>306.0</ele><time>2026-03-22T09:26:02.999Z</time></trkpt><trkpt lat="43.82167307562443" lon="10.927586569994572"><ele>306.0</ele><time>2026-03-22T09:26:05.999Z</time></trkpt><trkpt lat="43.8217381546228" lon="10.927580149190671"><ele>306.0</ele><time>2026-03-22T09:26:08.999Z</time></trkpt><trkpt lat="43.82182179999016" lon="10.927563040868725"><ele>306.8333333333333</ele><time>2026-03-22T09:26:12.999Z</time></trkpt><trkpt lat="43.82189883855943" lon="10.927539615984843"><ele>307.6666666666667</ele><time>2026-03-22T09:26:16.999Z</time></trkpt><trkpt lat="43.82196747518832" lon="10.927527811836333"><ele>308.5</ele><time>2026-03-22T09:26:19.999Z</time></trkpt><trkpt lat="43.822034138703394" lon="10.927481575473532"><ele>309.33333333333337</ele><time>2026-03-22T09:26:23.999Z</time></trkpt><trkpt lat="43.82206619165203" lon="10.927380976886425"><ele>310.1666666666667</ele><time>2026-03-22T09:26:26.999Z</time></trkpt><trkpt lat="43.822094657304575" lon="10.927266177396811"><ele>311.0</ele><time>2026-03-22T09:26:30Z</time></trkpt><trkpt lat="43.82211443756351" lon="10.92715469820548"><ele>311.0</ele><time>2026-03-22T09:26:33Z</time></trkpt><trkpt lat="43.822092755879176" lon="10.927054204283163"><ele>311.0</ele><time>2026-03-22T09:26:36Z</time></trkpt><trkpt lat="43.82206413802726" lon="10.926963928144541"><ele>311.0</ele><time>2026-03-22T09:26:38Z</time></trkpt><trkpt lat="43.82199816401293" lon="10.926886762535416"><ele>311.0</ele><time>2026-03-22T09:26:41Z</time></trkpt><trkpt lat="43.821932614393894" lon="10.926819189739266"><ele>311.0</ele><time>2026-03-22T09:26:44Z</time></trkpt><trkpt lat="43.82188902686012" lon="10.92673671493533"><ele>311.0</ele><time>2026-03-22T09:26:47Z</time></trkpt><trkpt lat="43.82183317224397" lon="10.926680170702108"><ele>306.6666666666667</ele><time>2026-03-22T09:26:50Z</time></trkpt><trkpt lat="43.82176359606845" lon="10.92662897437326"><ele>302.33333333333337</ele><time>2026-03-22T09:26:53Z</time></trkpt><trkpt lat="43.82169250154168" lon="10.926553001353971"><ele>298.0</ele><time>2026-03-22T09:26:56Z</time></trkpt><trkpt lat="43.82163661123762" lon="10.926467669520683"><ele>293.6666666666667</ele><time>2026-03-22T09:27:00Z</time></trkpt><trkpt lat="43.82160548886173" lon="10.92638053710655"><ele>289.3333333333333</ele><time>2026-03-22T09:27:03Z</time></trkpt><trkpt lat="43.821604504465064" lon="10.926286438384512"><ele>285.0</ele><time>2026-03-22T09:27:06Z</time></trkpt><trkpt lat="43.82158078383767" lon="10.926198854090131"><ele>285.0</ele><time>2026-03-22T09:27:09Z</time></trkpt><trkpt lat="43.82159820820188" lon="10.926091575422939"><ele>285.0</ele><time>2026-03-22T09:27:12Z</time></trkpt><trkpt lat="43.82159254329142" lon="10.925992867272997"><ele>285.0</ele><time>2026-03-22T09:27:15Z</time></trkpt><trkpt lat="43.82159450211538" lon="10.925901580132662"><ele>285.0</ele><time>2026-03-22T09:27:18Z</time></trkpt><trkpt lat="43.82159063844935" lon="10.925801853466528"><ele>285.0</ele><time>2026-03-22T09:27:21Z</time></trkpt><trkpt lat="43.82162146540259" lon="10.925712881579756"><ele>285.0</ele><time>2026-03-22T09:27:24Z</time></trkpt><trkpt lat="43.82164479832243" lon="10.925620884021093"><ele>285.0</ele><time>2026-03-22T09:27:27Z</time></trkpt><trkpt lat="43.821687705891605" lon="10.925526533327714"><ele>285.5</ele><time>2026-03-22T09:27:31Z</time></trkpt><trkpt lat="43.82174838109263" lon="10.92544489483457"><ele>286.0</ele><time>2026-03-22T09:27:34.999Z</time></trkpt><trkpt lat="43.82180567455788" lon="10.925365132364274"><ele>286.5</ele><time>2026-03-22T09:27:38.999Z</time></trkpt><trkpt lat="43.82186890859113" lon="10.925301197475088"><ele>287.0</ele><time>2026-03-22T09:27:42.999Z</time></trkpt><trkpt lat="43.82194079710084" lon="10.925273800943437"><ele>287.5</ele><time>2026-03-22T09:27:46.999Z</time></trkpt><trkpt lat="43.82202374154653" lon="10.92527998191414"><ele>288.0</ele><time>2026-03-22T09:27:50.999Z</time></trkpt><trkpt lat="43.82208990646262" lon="10.925266686994725"><ele>289.8571428571429</ele><time>2026-03-22T09:27:54.999Z</time></trkpt><trkpt lat="43.8221619112818" lon="10.925274021475577"><ele>291.7142857142857</ele><time>2026-03-22T09:27:57.999Z</time></trkpt><trkpt lat="43.82223928062512" lon="10.925272430996179"><ele>293.57142857142856</ele><time>2026-03-22T09:28:01.999Z</time></trkpt><trkpt lat="43.822318013889145" lon="10.925282807185656"><ele>295.42857142857144</ele><time>2026-03-22T09:28:05.999Z</time></trkpt><trkpt lat="43.8223837416923" lon="10.925281095562548"><ele>297.2857142857143</ele><time>2026-03-22T09:28:08.999Z</time></trkpt><trkpt lat="43.82245459110338" lon="10.925250898723922"><ele>299.14285714285717</ele><time>2026-03-22T09:28:11.999Z</time></trkpt><trkpt lat="43.82252712496079" lon="10.925289959827454"><ele>301.0</ele><time>2026-03-22T09:28:15.999Z</time></trkpt><trkpt lat="43.82257907331699" lon="10.925347628778528"><ele>301.0</ele><time>2026-03-22T09:28:18.999Z</time></trkpt><trkpt lat="43.822632881600214" lon="10.925394115661296"><ele>301.0</ele><time>2026-03-22T09:28:21.999Z</time></trkpt><trkpt lat="43.822681991000806" lon="10.925476393685702"><ele>301.0</ele><time>2026-03-22T09:28:24.999Z</time></trkpt><trkpt lat="43.82271457968764" lon="10.92555452185773"><ele>301.0</ele><time>2026-03-22T09:28:27.999Z</time></trkpt><trkpt lat="43.82275300019604" lon="10.925627648481546"><ele>301.0</ele><time>2026-03-22T09:28:31.999Z</time></trkpt><trkpt lat="43.82281055546022" lon="10.92569682685276"><ele>301.0</ele><time>2026-03-22T09:28:36Z</time></trkpt><trkpt lat="43.82284839191415" lon="10.925794897919337"><ele>301.0</ele><time>2026-03-22T09:28:40Z</time></trkpt><trkpt lat="43.82289287260439" lon="10.925866554214364"><ele>301.0</ele><time>2026-03-22T09:28:43Z</time></trkpt><trkpt lat="43.822937548935734" lon="10.925954492118306"><ele>301.0</ele><time>2026-03-22T09:28:47Z</time></trkpt><trkpt lat="43.82297446851575" lon="10.9260276960815"><ele>301.0</ele><time>2026-03-22T09:28:51Z</time></trkpt><trkpt lat="43.823027693696645" lon="10.92609868124847"><ele>301.0</ele><time>2026-03-22T09:28:54Z</time></trkpt><trkpt lat="43.82307654281859" lon="10.926157261014039"><ele>301.0</ele><time>2026-03-22T09:28:56Z</time></trkpt><trkpt lat="43.82312020597592" lon="10.926223876607652"><ele>301.0</ele><time>2026-03-22T09:28:58Z</time></trkpt><trkpt lat="43.823189164146456" lon="10.926303391813478"><ele>301.0</ele><time>2026-03-22T09:29:01Z</time></trkpt><trkpt lat="43.82325257332151" lon="10.926353742298684"><ele>301.0</ele><time>2026-03-22T09:29:04Z</time></trkpt><trkpt lat="43.82331528965176" lon="10.926409818268462"><ele>301.0</ele><time>2026-03-22T09:29:07Z</time></trkpt><trkpt lat="43.82337900273218" lon="10.926488276226687"><ele>301.0</ele><time>2026-03-22T09:29:10Z</time></trkpt><trkpt lat="43.8234228365535" lon="10.92655630513366"><ele>301.0</ele><time>2026-03-22T09:29:13Z</time></trkpt><trkpt lat="43.82347040429271" lon="10.926621509085523"><ele>301.0</ele><time>2026-03-22T09:29:16Z</time></trkpt><trkpt lat="43.823514532983815" lon="10.92669798611609"><ele>301.0</ele><time>2026-03-22T09:29:19Z</time></trkpt><trkpt lat="43.82356885395402" lon="10.926780764599075"><ele>301.0</ele><time>2026-03-22T09:29:22Z</time></trkpt><trkpt lat="43.823621051410264" lon="10.92685133248277"><ele>299.16666666666663</ele><time>2026-03-22T09:29:25.999Z</time></trkpt><trkpt lat="43.82367233605407" lon="10.926938310396853"><ele>297.3333333333333</ele><time>2026-03-22T09:29:28.999Z</time></trkpt><trkpt lat="43.82372553426787" lon="10.92703865530919"><ele>295.5</ele><time>2026-03-22T09:29:32.999Z</time></trkpt><trkpt lat="43.82375930713397" lon="10.927124564414765"><ele>293.6666666666667</ele><time>2026-03-22T09:29:35.999Z</time></trkpt><trkpt lat="43.82379541488977" lon="10.927217798614098"><ele>291.83333333333337</ele><time>2026-03-22T09:29:38.999Z</time></trkpt><trkpt lat="43.82381894530463" lon="10.92730395746733"><ele>290.0</ele><time>2026-03-22T09:29:41.999Z</time></trkpt><trkpt lat="43.823852645123665" lon="10.92738623493524"><ele>290.0</ele><time>2026-03-22T09:29:44.999Z</time></trkpt><trkpt lat="43.823853803476965" lon="10.927473617229866"><ele>290.0</ele><time>2026-03-22T09:29:47.999Z</time></trkpt><trkpt lat="43.82388948532244" lon="10.92755847891026"><ele>290.0</ele><time>2026-03-22T09:29:50.999Z</time></trkpt><trkpt lat="43.823927916431074" lon="10.927642816579228"><ele>290.0</ele><time>2026-03-22T09:29:53.999Z</time></trkpt><trkpt lat="43.8239640417297" lon="10.927714718248902"><ele>290.0</ele><time>2026-03-22T09:29:56.999Z</time></trkpt><trkpt lat="43.823993701890984" lon="10.927794834546251"><ele>290.0</ele><time>2026-03-22T09:29:59.999Z</time></trkpt><trkpt lat="43.82402791759406" lon="10.927879696003203"><ele>290.0</ele><time>2026-03-22T09:30:02.999Z</time></trkpt><trkpt lat="43.824073229242074" lon="10.927987419262935"><ele>290.14285714285717</ele><time>2026-03-22T09:30:05.999Z</time></trkpt><trkpt lat="43.82411897427364" lon="10.928054725316803"><ele>290.28571428571433</ele><time>2026-03-22T09:30:08.999Z</time></trkpt><trkpt lat="43.82419286950108" lon="10.928101442949812"><ele>290.42857142857144</ele><time>2026-03-22T09:30:11.999Z</time></trkpt><trkpt lat="43.82426128636826" lon="10.928077785771002"><ele>290.57142857142856</ele><time>2026-03-22T09:30:13.999Z</time></trkpt><trkpt lat="43.82433851902946" lon="10.92803661173713"><ele>290.71428571428567</ele><time>2026-03-22T09:30:16.999Z</time></trkpt><trkpt lat="43.82440669698323" lon="10.928005531578837"><ele>290.85714285714283</ele><time>2026-03-22T09:30:19.999Z</time></trkpt><trkpt lat="43.82447180564388" lon="10.927987691754907"><ele>291.0</ele><time>2026-03-22T09:30:22.999Z</time></trkpt><trkpt lat="43.824548720751025" lon="10.92799804063179"><ele>291.0</ele><time>2026-03-22T09:30:25.999Z</time></trkpt><trkpt lat="43.82462392540846" lon="10.928029333564792"><ele>291.0</ele><time>2026-03-22T09:30:28.999Z</time></trkpt><trkpt lat="43.82468492277701" lon="10.928095772547787"><ele>291.0</ele><time>2026-03-22T09:30:31.999Z</time></trkpt><trkpt lat="43.82475480426601" lon="10.928120708372983"><ele>291.0</ele><time>2026-03-22T09:30:34.999Z</time></trkpt><trkpt lat="43.82480988940389" lon="10.928203968784144"><ele>291.0</ele><time>2026-03-22T09:30:37.999Z</time></trkpt><trkpt lat="43.824867622049936" lon="10.928283329795896"><ele>291.0</ele><time>2026-03-22T09:30:41Z</time></trkpt><trkpt lat="43.82492765421096" lon="10.928342394881069"><ele>290.85714285714283</ele><time>2026-03-22T09:30:44Z</time></trkpt><trkpt lat="43.82497938872223" lon="10.928395571842861"><ele>290.71428571428567</ele><time>2026-03-22T09:30:47Z</time></trkpt><trkpt lat="43.82503527952455" lon="10.928461612589174"><ele>290.57142857142856</ele><time>2026-03-22T09:30:50Z</time></trkpt><trkpt lat="43.82508437034956" lon="10.92854518208957"><ele>290.42857142857144</ele><time>2026-03-22T09:30:54Z</time></trkpt><trkpt lat="43.825125387753815" lon="10.928615686981969"><ele>290.28571428571433</ele><time>2026-03-22T09:30:57Z</time></trkpt><trkpt lat="43.825179511874026" lon="10.928694056558088"><ele>290.14285714285717</ele><time>2026-03-22T09:31:00Z</time></trkpt><trkpt lat="43.82521901335673" lon="10.928777724132837"><ele>290.0</ele><time>2026-03-22T09:31:03Z</time></trkpt><trkpt lat="43.825269339628065" lon="10.92887365019784"><ele>290.0</ele><time>2026-03-22T09:31:07Z</time></trkpt><trkpt lat="43.82531869093805" lon="10.928966804560273"><ele>290.0</ele><time>2026-03-22T09:31:10Z</time></trkpt><trkpt lat="43.82536653092194" lon="10.929072957877082"><ele>290.0</ele><time>2026-03-22T09:31:13Z</time></trkpt><trkpt lat="43.82541133284748" lon="10.929155847030968"><ele>290.0</ele><time>2026-03-22T09:31:16Z</time></trkpt><trkpt lat="43.82544946788781" lon="10.92925075260203"><ele>290.0</ele><time>2026-03-22T09:31:19Z</time></trkpt><trkpt lat="43.8254890782101" lon="10.92933909575104"><ele>290.0</ele><time>2026-03-22T09:31:22Z</time></trkpt><trkpt lat="43.82552919703354" lon="10.929432413809932"><ele>291.33333333333337</ele><time>2026-03-22T09:31:25Z</time></trkpt><trkpt lat="43.825570457045245" lon="10.929528103435585"><ele>292.6666666666667</ele><time>2026-03-22T09:31:28Z</time></trkpt><trkpt lat="43.82561563065691" lon="10.929622740499525"><ele>294.0</ele><time>2026-03-22T09:31:31Z</time></trkpt><trkpt lat="43.82563807662608" lon="10.92971746522047"><ele>295.3333333333333</ele><time>2026-03-22T09:31:34Z</time></trkpt><trkpt lat="43.825679561731796" lon="10.929807910314942"><ele>296.66666666666663</ele><time>2026-03-22T09:31:37Z</time></trkpt><trkpt lat="43.82572639946238" lon="10.929876292109874"><ele>298.0</ele><time>2026-03-22T09:31:40Z</time></trkpt><trkpt lat="43.82578954882005" lon="10.92993689408111"><ele>298.0</ele><time>2026-03-22T09:31:43Z</time></trkpt><trkpt lat="43.82586101690772" lon="10.929973216569273"><ele>298.0</ele><time>2026-03-22T09:31:46Z</time></trkpt><trkpt lat="43.82593153872542" lon="10.929997124057254"><ele>298.0</ele><time>2026-03-22T09:31:49Z</time></trkpt><trkpt lat="43.82600482482903" lon="10.929980050473203"><ele>298.0</ele><time>2026-03-22T09:31:52Z</time></trkpt><trkpt lat="43.82605975682739" lon="10.929920119677107"><ele>298.0</ele><time>2026-03-22T09:31:54.999Z</time></trkpt><trkpt lat="43.82610474327719" lon="10.92983316737946"><ele>298.0</ele><time>2026-03-22T09:31:57.999Z</time></trkpt><trkpt lat="43.82613537730576" lon="10.929736018327995"><ele>298.0</ele><time>2026-03-22T09:32:00.999Z</time></trkpt><trkpt lat="43.826165083145405" lon="10.929637112975994"><ele>299.85714285714283</ele><time>2026-03-22T09:32:03.999Z</time></trkpt><trkpt lat="43.826171767715564" lon="10.929532027485456"><ele>301.71428571428567</ele><time>2026-03-22T09:32:06.999Z</time></trkpt><trkpt lat="43.82617865014338" lon="10.92941523210551"><ele>303.57142857142856</ele><time>2026-03-22T09:32:10.999Z</time></trkpt><trkpt lat="43.82617614368454" lon="10.929321340380765"><ele>305.42857142857144</ele><time>2026-03-22T09:32:13.999Z</time></trkpt><trkpt lat="43.82616425095314" lon="10.92923043769"><ele>307.28571428571433</ele><time>2026-03-22T09:32:16.999Z</time></trkpt><trkpt lat="43.82616190675036" lon="10.92914111334966"><ele>309.1428571428571</ele><time>2026-03-22T09:32:19.999Z</time></trkpt><trkpt lat="43.82613868269462" lon="10.92902832469941"><ele>311.0</ele><time>2026-03-22T09:32:23.999Z</time></trkpt><trkpt lat="43.82613767618317" lon="10.928923700226935"><ele>311.0</ele><time>2026-03-22T09:32:27.999Z</time></trkpt><trkpt lat="43.826118341139946" lon="10.928837366080126"><ele>311.0</ele><time>2026-03-22T09:32:30.999Z</time></trkpt><trkpt lat="43.82611642491001" lon="10.928726912743317"><ele>311.0</ele><time>2026-03-22T09:32:34.999Z</time></trkpt><trkpt lat="43.826125117900865" lon="10.928634326805813"><ele>311.0</ele><time>2026-03-22T09:32:37.999Z</time></trkpt><trkpt lat="43.82611704192199" lon="10.928530578108353"><ele>311.0</ele><time>2026-03-22T09:32:41.999Z</time></trkpt><trkpt lat="43.82610291234418" lon="10.928437652428892"><ele>311.0</ele><time>2026-03-22T09:32:44.999Z</time></trkpt><trkpt lat="43.82608784596005" lon="10.928329902296374"><ele>311.0</ele><time>2026-03-22T09:32:49Z</time></trkpt><trkpt lat="43.82607380379368" lon="10.928214692144529"><ele>309.85714285714283</ele><time>2026-03-22T09:32:53Z</time></trkpt><trkpt lat="43.8260819710111" lon="10.9281158193051"><ele>308.7142857142857</ele><time>2026-03-22T09:32:56Z</time></trkpt><trkpt lat="43.826105447859916" lon="10.928017055733232"><ele>307.57142857142856</ele><time>2026-03-22T09:33:00Z</time></trkpt><trkpt lat="43.82615236341304" lon="10.927935144023882"><ele>306.42857142857144</ele><time>2026-03-22T09:33:04Z</time></trkpt><trkpt lat="43.82622876393325" lon="10.92790360226583"><ele>305.2857142857143</ele><time>2026-03-22T09:33:07.999Z</time></trkpt><trkpt lat="43.82630041393734" lon="10.92787962404771"><ele>304.14285714285717</ele><time>2026-03-22T09:33:11.999Z</time></trkpt><trkpt lat="43.826364579443336" lon="10.927879846709532"><ele>303.0</ele><time>2026-03-22T09:33:15.999Z</time></trkpt><trkpt lat="43.82642777827667" lon="10.927905903333853"><ele>303.0</ele><time>2026-03-22T09:33:18.999Z</time></trkpt><trkpt lat="43.82650514569995" lon="10.927938483970726"><ele>303.0</ele><time>2026-03-22T09:33:22.998Z</time></trkpt><trkpt lat="43.82656549987814" lon="10.92798237954264"><ele>303.0</ele><time>2026-03-22T09:33:26.998Z</time></trkpt><trkpt lat="43.826629892004256" lon="10.927981966456937"><ele>303.0</ele><time>2026-03-22T09:33:29.998Z</time></trkpt><trkpt lat="43.82669435922319" lon="10.928015280807193"><ele>303.0</ele><time>2026-03-22T09:33:33.998Z</time></trkpt><trkpt lat="43.82675360414603" lon="10.92804660448518"><ele>303.0</ele><time>2026-03-22T09:33:36.998Z</time></trkpt><trkpt lat="43.8268152451547" lon="10.928074944118856"><ele>303.0</ele><time>2026-03-22T09:33:39.998Z</time></trkpt><trkpt lat="43.82687613604772" lon="10.928123269787115"><ele>302.2857142857143</ele><time>2026-03-22T09:33:42.998Z</time></trkpt><trkpt lat="43.826949189441635" lon="10.928168636636926"><ele>301.57142857142856</ele><time>2026-03-22T09:33:46.998Z</time></trkpt><trkpt lat="43.8270021931192" lon="10.928259821565124"><ele>300.85714285714283</ele><time>2026-03-22T09:33:50.998Z</time></trkpt><trkpt lat="43.82705575435979" lon="10.92831096760859"><ele>300.1428571428571</ele><time>2026-03-22T09:33:53.998Z</time></trkpt><trkpt lat="43.82711577146974" lon="10.928366527426093"><ele>299.4285714285714</ele><time>2026-03-22T09:33:56.998Z</time></trkpt><trkpt lat="43.82715884016128" lon="10.928435200811823"><ele>298.7142857142857</ele><time>2026-03-22T09:33:59.998Z</time></trkpt><trkpt lat="43.82721067101053" lon="10.928485142166439"><ele>298.0</ele><time>2026-03-22T09:34:02.998Z</time></trkpt><trkpt lat="43.827252569977254" lon="10.92856400325733"><ele>301.1428571428571</ele><time>2026-03-22T09:34:05.997Z</time></trkpt><trkpt lat="43.82730358269995" lon="10.928631081612359"><ele>304.2857142857143</ele><time>2026-03-22T09:34:08.997Z</time></trkpt><trkpt lat="43.82736670440666" lon="10.928697846131763"><ele>307.42857142857144</ele><time>2026-03-22T09:34:12.997Z</time></trkpt><trkpt lat="43.82743709250773" lon="10.928747424016183"><ele>310.57142857142856</ele><time>2026-03-22T09:34:16.997Z</time></trkpt><trkpt lat="43.82750702411927" lon="10.928802566183606"><ele>313.7142857142857</ele><time>2026-03-22T09:34:20.997Z</time></trkpt><trkpt lat="43.827568459355426" lon="10.928828519244782"><ele>316.85714285714283</ele><time>2026-03-22T09:34:23.997Z</time></trkpt><trkpt lat="43.82763668821974" lon="10.928833424946365"><ele>320.0</ele><time>2026-03-22T09:34:26.997Z</time></trkpt><trkpt lat="43.82770587789374" lon="10.928846713893545"><ele>320.0</ele><time>2026-03-22T09:34:29.997Z</time></trkpt><trkpt lat="43.827782021787904" lon="10.928822727328114"><ele>320.0</ele><time>2026-03-22T09:34:33.997Z</time></trkpt><trkpt lat="43.82786660279031" lon="10.928811291691291"><ele>320.0</ele><time>2026-03-22T09:34:37.997Z</time></trkpt><trkpt lat="43.8279485877447" lon="10.928782440647291"><ele>320.0</ele><time>2026-03-22T09:34:40.997Z</time></trkpt><trkpt lat="43.82800168762887" lon="10.928727553247576"><ele>320.0</ele><time>2026-03-22T09:34:43.997Z</time></trkpt><trkpt lat="43.828043337391655" lon="10.928646527200524"><ele>320.0</ele><time>2026-03-22T09:34:45.997Z</time></trkpt><trkpt lat="43.82804441335544" lon="10.928520402091102"><ele>320.0</ele><time>2026-03-22T09:34:48.997Z</time></trkpt><trkpt lat="43.828036715370885" lon="10.928433550891645"><ele>320.0</ele><time>2026-03-22T09:34:51.997Z</time></trkpt><trkpt lat="43.82798835938364" lon="10.928365409637351"><ele>320.0</ele><time>2026-03-22T09:34:54.998Z</time></trkpt><trkpt lat="43.827942386065" lon="10.928302527072052"><ele>320.0</ele><time>2026-03-22T09:34:57.999Z</time></trkpt><trkpt lat="43.8278833023719" lon="10.92822246870659"><ele>320.0</ele><time>2026-03-22T09:35:01.999Z</time></trkpt><trkpt lat="43.827830500900646" lon="10.928165962739275"><ele>320.0</ele><time>2026-03-22T09:35:04.999Z</time></trkpt><trkpt lat="43.827793944197204" lon="10.928088216437512"><ele>320.0</ele><time>2026-03-22T09:35:08.999Z</time></trkpt><trkpt lat="43.827752803535" lon="10.92799482434354"><ele>319.42857142857144</ele><time>2026-03-22T09:35:13Z</time></trkpt><trkpt lat="43.82773590092487" lon="10.927906656084161"><ele>318.8571428571429</ele><time>2026-03-22T09:35:17Z</time></trkpt><trkpt lat="43.82771264031049" lon="10.927823131001626"><ele>318.28571428571433</ele><time>2026-03-22T09:35:21Z</time></trkpt><trkpt lat="43.827706188847095" lon="10.927706638789031"><ele>317.7142857142857</ele><time>2026-03-22T09:35:25Z</time></trkpt><trkpt lat="43.82770369816404" lon="10.927602243939694"><ele>317.14285714285717</ele><time>2026-03-22T09:35:29Z</time></trkpt><trkpt lat="43.82773322442872" lon="10.927505351257194"><ele>316.5714285714286</ele><time>2026-03-22T09:35:33Z</time></trkpt><trkpt lat="43.82775935579475" lon="10.927408736940688"><ele>316.0</ele><time>2026-03-22T09:35:37Z</time></trkpt><trkpt lat="43.827792757222106" lon="10.92731401013863"><ele>317.5714285714286</ele><time>2026-03-22T09:35:41Z</time></trkpt><trkpt lat="43.827804760249265" lon="10.927194036538337"><ele>319.14285714285717</ele><time>2026-03-22T09:35:45Z</time></trkpt><trkpt lat="43.827794446663994" lon="10.927083054949486"><ele>320.7142857142857</ele><time>2026-03-22T09:35:49Z</time></trkpt><trkpt lat="43.82774556801949" lon="10.927018463915523"><ele>322.28571428571433</ele><time>2026-03-22T09:35:52Z</time></trkpt><trkpt lat="43.827688838481016" lon="10.926948211827947"><ele>323.8571428571429</ele><time>2026-03-22T09:35:55Z</time></trkpt><trkpt lat="43.8276293278131" lon="10.926898503103596"><ele>325.42857142857144</ele><time>2026-03-22T09:35:57.999Z</time></trkpt><trkpt lat="43.82758334061609" lon="10.926836012431577"><ele>327.0</ele><time>2026-03-22T09:36:00.999Z</time></trkpt><trkpt lat="43.82754167924253" lon="10.92676276770822"><ele>323.1666666666667</ele><time>2026-03-22T09:36:04.999Z</time></trkpt><trkpt lat="43.827514689392466" lon="10.926665477679109"><ele>319.3333333333333</ele><time>2026-03-22T09:36:08.999Z</time></trkpt><trkpt lat="43.8275238293579" lon="10.926555149716556"><ele>315.5</ele><time>2026-03-22T09:36:12.999Z</time></trkpt><trkpt lat="43.82754478369074" lon="10.926446013259591"><ele>311.66666666666663</ele><time>2026-03-22T09:36:16.999Z</time></trkpt><trkpt lat="43.82754583219559" lon="10.926354865922352"><ele>307.8333333333333</ele><time>2026-03-22T09:36:19.999Z</time></trkpt><trkpt lat="43.82753181159601" lon="10.926244618806578"><ele>304.0</ele><time>2026-03-22T09:36:23.999Z</time></trkpt><trkpt lat="43.827491542886115" lon="10.926145791314381"><ele>304.0</ele><time>2026-03-22T09:36:27.999Z</time></trkpt><trkpt lat="43.82745576590125" lon="10.92606967326302"><ele>304.0</ele><time>2026-03-22T09:36:30.999Z</time></trkpt><trkpt lat="43.827404933568424" lon="10.925988771331722"><ele>304.0</ele><time>2026-03-22T09:36:34.999Z</time></trkpt><trkpt lat="43.827345823388406" lon="10.925913722149103"><ele>304.0</ele><time>2026-03-22T09:36:38.999Z</time></trkpt><trkpt lat="43.827296664285896" lon="10.925858598838303"><ele>304.0</ele><time>2026-03-22T09:36:41.999Z</time></trkpt><trkpt lat="43.8272400865722" lon="10.925799076544385"><ele>304.0</ele><time>2026-03-22T09:36:45.999Z</time></trkpt><trkpt lat="43.82719296216269" lon="10.925714838707188"><ele>304.0</ele><time>2026-03-22T09:36:50.999Z</time></trkpt><trkpt lat="43.82718735483733" lon="10.925623695558027"><ele>305.2857142857143</ele><time>2026-03-22T09:36:54.999Z</time></trkpt><trkpt lat="43.8272102710955" lon="10.925525170172865"><ele>306.5714285714286</ele><time>2026-03-22T09:37:00Z</time></trkpt><trkpt lat="43.82726907971707" lon="10.925457375507355"><ele>307.8571428571429</ele><time>2026-03-22T09:37:06Z</time></trkpt><trkpt lat="43.82733500230716" lon="10.925388978155727"><ele>309.1428571428571</ele><time>2026-03-22T09:37:10Z</time></trkpt><trkpt lat="43.82738986604256" lon="10.925346042124476"><ele>310.42857142857144</ele><time>2026-03-22T09:37:13Z</time></trkpt><trkpt lat="43.82744586910767" lon="10.925302859070518"><ele>311.7142857142857</ele><time>2026-03-22T09:37:16Z</time></trkpt><trkpt lat="43.82749489403177" lon="10.925213522932543"><ele>313.0</ele><time>2026-03-22T09:37:20Z</time></trkpt><trkpt lat="43.82752201233202" lon="10.925128603317344"><ele>313.1428571428571</ele><time>2026-03-22T09:37:23Z</time></trkpt><trkpt lat="43.82753471778975" lon="10.925035214771487"><ele>313.2857142857143</ele><time>2026-03-22T09:37:26Z</time></trkpt><trkpt lat="43.8275553282622" lon="10.924949570430032"><ele>313.42857142857144</ele><time>2026-03-22T09:37:29Z</time></trkpt><trkpt lat="43.8275602554651" lon="10.92483817373383"><ele>313.57142857142856</ele><time>2026-03-22T09:37:33Z</time></trkpt><trkpt lat="43.82756366479517" lon="10.924723204418266"><ele>313.7142857142857</ele><time>2026-03-22T09:37:37Z</time></trkpt><trkpt lat="43.82754848590736" lon="10.924636780912191"><ele>313.85714285714283</ele><time>2026-03-22T09:37:40Z</time></trkpt><trkpt lat="43.8275371786529" lon="10.924535838176615"><ele>314.0</ele><time>2026-03-22T09:37:43Z</time></trkpt><trkpt lat="43.827512174116265" lon="10.924434213858525"><ele>313.99999999999994</ele><time>2026-03-22T09:37:46Z</time></trkpt><trkpt lat="43.82750094228955" lon="10.924342111798689"><ele>314.0</ele><time>2026-03-22T09:37:49Z</time></trkpt><trkpt lat="43.827477458629524" lon="10.924260202681856"><ele>314.0</ele><time>2026-03-22T09:37:52Z</time></trkpt><trkpt lat="43.82746263181818" lon="10.92415645020768"><ele>314.0</ele><time>2026-03-22T09:37:55.999Z</time></trkpt><trkpt lat="43.8274596452634" lon="10.92406696269867"><ele>314.0</ele><time>2026-03-22T09:37:58.999Z</time></trkpt><trkpt lat="43.82747428492075" lon="10.923980912043554"><ele>313.99999999999994</ele><time>2026-03-22T09:38:01.999Z</time></trkpt><trkpt lat="43.827529386467226" lon="10.923893191255006"><ele>314.0</ele><time>2026-03-22T09:38:05.999Z</time></trkpt><trkpt lat="43.8275939474773" lon="10.923853910823349"><ele>312.99999999999994</ele><time>2026-03-22T09:38:09.999Z</time></trkpt><trkpt lat="43.827659417393164" lon="10.923845764814741"><ele>312.0</ele><time>2026-03-22T09:38:12.999Z</time></trkpt><trkpt lat="43.82772478499275" lon="10.923872848789316"><ele>311.0</ele><time>2026-03-22T09:38:15.999Z</time></trkpt><trkpt lat="43.82778883259336" lon="10.923907909429861"><ele>310.0</ele><time>2026-03-22T09:38:18.999Z</time></trkpt><trkpt lat="43.82783774581778" lon="10.923963050825256"><ele>309.0</ele><time>2026-03-22T09:38:21.999Z</time></trkpt><trkpt lat="43.8278979658203" lon="10.924042928254787"><ele>307.99999999999994</ele><time>2026-03-22T09:38:25.999Z</time></trkpt><trkpt lat="43.82794720296218" lon="10.92411169389924"><ele>307.0</ele><time>2026-03-22T09:38:29.999Z</time></trkpt><trkpt lat="43.827997261995435" lon="10.924166082118035"><ele>310.2857142857143</ele><time>2026-03-22T09:38:32.999Z</time></trkpt><trkpt lat="43.8280528319116" lon="10.924235244232698"><ele>313.57142857142856</ele><time>2026-03-22T09:38:36.999Z</time></trkpt><trkpt lat="43.82810256261826" lon="10.924300083014971"><ele>316.8571428571429</ele><time>2026-03-22T09:38:40.999Z</time></trkpt><trkpt lat="43.828154753366434" lon="10.924374876316046"><ele>320.1428571428571</ele><time>2026-03-22T09:38:44.999Z</time></trkpt><trkpt lat="43.82822067665866" lon="10.924443422442135"><ele>323.42857142857144</ele><time>2026-03-22T09:38:48.999Z</time></trkpt><trkpt lat="43.82826927570461" lon="10.924507544814729"><ele>326.7142857142857</ele><time>2026-03-22T09:38:52.999Z</time></trkpt><trkpt lat="43.82833026175142" lon="10.924577165900166"><ele>330.0</ele><time>2026-03-22T09:38:56.999Z</time></trkpt><trkpt lat="43.82839410513728" lon="10.924638070904368"><ele>330.00000000000006</ele><time>2026-03-22T09:39:00.999Z</time></trkpt><trkpt lat="43.82845490008462" lon="10.92469742881779"><ele>330.0</ele><time>2026-03-22T09:39:05Z</time></trkpt><trkpt lat="43.82850942513482" lon="10.924761550875099"><ele>330.0</ele><time>2026-03-22T09:39:09Z</time></trkpt><trkpt lat="43.8285704479097" lon="10.9248300854702"><ele>330.0</ele><time>2026-03-22T09:39:13Z</time></trkpt><trkpt lat="43.82863204071958" lon="10.92489417469304"><ele>330.0</ele><time>2026-03-22T09:39:17Z</time></trkpt><trkpt lat="43.82869076004666" lon="10.924944043735525"><ele>330.00000000000006</ele><time>2026-03-22T09:39:21Z</time></trkpt><trkpt lat="43.82875295418408" lon="10.925011212538005"><ele>330.0</ele><time>2026-03-22T09:39:25Z</time></trkpt><trkpt lat="43.82881731703177" lon="10.92506539040544"><ele>332.14285714285717</ele><time>2026-03-22T09:39:29Z</time></trkpt><trkpt lat="43.828869793292995" lon="10.925120158809541"><ele>334.2857142857143</ele><time>2026-03-22T09:39:32Z</time></trkpt><trkpt lat="43.82894585499776" lon="10.925158116502633"><ele>336.42857142857144</ele><time>2026-03-22T09:39:36Z</time></trkpt><trkpt lat="43.82901123178774" lon="10.925211572956796"><ele>338.57142857142856</ele><time>2026-03-22T09:39:40Z</time></trkpt><trkpt lat="43.829057625679866" lon="10.925280131159543"><ele>340.7142857142857</ele><time>2026-03-22T09:39:44Z</time></trkpt><trkpt lat="43.82911982917329" lon="10.92533701934737"><ele>342.8571428571429</ele><time>2026-03-22T09:39:48Z</time></trkpt><trkpt lat="43.82918011075401" lon="10.925379075934066"><ele>345.0</ele><time>2026-03-22T09:39:51Z</time></trkpt><trkpt lat="43.82924962960884" lon="10.92543224794758"><ele>341.3333333333333</ele><time>2026-03-22T09:39:55Z</time></trkpt><trkpt lat="43.829321848511675" lon="10.92548792019497"><ele>337.6666666666667</ele><time>2026-03-22T09:39:59Z</time></trkpt><trkpt lat="43.82937566221767" lon="10.92555160821523"><ele>334.0</ele><time>2026-03-22T09:40:02.999Z</time></trkpt><trkpt lat="43.82944591846236" lon="10.925595591307996"><ele>330.33333333333337</ele><time>2026-03-22T09:40:06.999Z</time></trkpt><trkpt lat="43.82951771161639" lon="10.92564044482855"><ele>326.6666666666667</ele><time>2026-03-22T09:40:10.999Z</time></trkpt><trkpt lat="43.829583708833376" lon="10.925662281471041"><ele>323.0</ele><time>2026-03-22T09:40:14.999Z</time></trkpt><trkpt lat="43.829658725531836" lon="10.925670810446888"><ele>323.00000000000006</ele><time>2026-03-22T09:40:18.999Z</time></trkpt><trkpt lat="43.82972475992576" lon="10.925701937445586"><ele>323.0</ele><time>2026-03-22T09:40:22.999Z</time></trkpt><trkpt lat="43.8297938357711" lon="10.925745712383321"><ele>323.0</ele><time>2026-03-22T09:40:26.999Z</time></trkpt><trkpt lat="43.829852862991736" lon="10.925811708460323"><ele>323.0</ele><time>2026-03-22T09:40:30.999Z</time></trkpt><trkpt lat="43.829902393452066" lon="10.925887723504722"><ele>323.0</ele><time>2026-03-22T09:40:34.999Z</time></trkpt><trkpt lat="43.82994848207237" lon="10.925966046852098"><ele>323.00000000000006</ele><time>2026-03-22T09:40:38.999Z</time></trkpt><trkpt lat="43.82998035074941" lon="10.926054438684664"><ele>323.0</ele><time>2026-03-22T09:40:41.999Z</time></trkpt><trkpt lat="43.83001521135639" lon="10.926147644927903"><ele>323.7142857142857</ele><time>2026-03-22T09:40:45.999Z</time></trkpt><trkpt lat="43.83006894688956" lon="10.926232172149653"><ele>324.42857142857144</ele><time>2026-03-22T09:40:49.999Z</time></trkpt><trkpt lat="43.83010119683314" lon="10.926310927112846"><ele>325.1428571428571</ele><time>2026-03-22T09:40:52.999Z</time></trkpt><trkpt lat="43.8301464808113" lon="10.926377252393541"><ele>325.8571428571429</ele><time>2026-03-22T09:40:55.999Z</time></trkpt><trkpt lat="43.830197582315165" lon="10.926463867741061"><ele>326.57142857142856</ele><time>2026-03-22T09:40:59.999Z</time></trkpt><trkpt lat="43.83024350073082" lon="10.926528676116462"><ele>327.2857142857143</ele><time>2026-03-22T09:41:02.999Z</time></trkpt><trkpt lat="43.83032007463692" lon="10.926587745857782"><ele>328.0</ele><time>2026-03-22T09:41:06.999Z</time></trkpt><trkpt lat="43.83037729255354" lon="10.926635010636774"><ele>328.0</ele><time>2026-03-22T09:41:09.999Z</time></trkpt><trkpt lat="43.83043705351174" lon="10.926714433696949"><ele>328.0</ele><time>2026-03-22T09:41:14Z</time></trkpt><trkpt lat="43.83049805498922" lon="10.926778782699865"><ele>328.0</ele><time>2026-03-22T09:41:18Z</time></trkpt><trkpt lat="43.83055716901551" lon="10.926840587342783"><ele>328.0</ele><time>2026-03-22T09:41:22Z</time></trkpt><trkpt lat="43.8306171066761" lon="10.92690929249312"><ele>328.0</ele><time>2026-03-22T09:41:26Z</time></trkpt><trkpt lat="43.8306978376474" lon="10.926956564036042"><ele>328.0</ele><time>2026-03-22T09:41:30Z</time></trkpt><trkpt lat="43.830749222445256" lon="10.927012108609732"><ele>329.71428571428567</ele><time>2026-03-22T09:41:33Z</time></trkpt><trkpt lat="43.83081419297504" lon="10.927037167451052"><ele>331.42857142857144</ele><time>2026-03-22T09:41:36Z</time></trkpt><trkpt lat="43.83086967441651" lon="10.927089480422328"><ele>333.1428571428571</ele><time>2026-03-22T09:41:39Z</time></trkpt><trkpt lat="43.830931470378516" lon="10.927125865438281"><ele>334.85714285714283</ele><time>2026-03-22T09:41:42Z</time></trkpt><trkpt lat="43.83100228712122" lon="10.927169861132707"><ele>336.57142857142856</ele><time>2026-03-22T09:41:46Z</time></trkpt><trkpt lat="43.83108407341559" lon="10.927162185314947"><ele>338.2857142857143</ele><time>2026-03-22T09:41:50Z</time></trkpt><trkpt lat="43.83115190551162" lon="10.927179559382607"><ele>340.0</ele><time>2026-03-22T09:41:53Z</time></trkpt><trkpt lat="43.83122815591711" lon="10.927215663325814"><ele>340.0</ele><time>2026-03-22T09:41:57Z</time></trkpt><trkpt lat="43.831295642397755" lon="10.927247374461695"><ele>340.0</ele><time>2026-03-22T09:42:00Z</time></trkpt><trkpt lat="43.83136957494526" lon="10.92727312818374"><ele>340.0</ele><time>2026-03-22T09:42:04Z</time></trkpt><trkpt lat="43.831445630510075" lon="10.927299323984375"><ele>340.0</ele><time>2026-03-22T09:42:07.999Z</time></trkpt><trkpt lat="43.83152221452011" lon="10.927341105115762"><ele>340.0</ele><time>2026-03-22T09:42:11.999Z</time></trkpt><trkpt lat="43.83158452227308" lon="10.927401433649878"><ele>340.0</ele><time>2026-03-22T09:42:15.999Z</time></trkpt><trkpt lat="43.8316337525808" lon="10.927457273197922"><ele>340.0</ele><time>2026-03-22T09:42:18.999Z</time></trkpt><trkpt lat="43.83168823869558" lon="10.927537236840703"><ele>340.0</ele><time>2026-03-22T09:42:22.999Z</time></trkpt><trkpt lat="43.831733011558946" lon="10.927618346159656"><ele>340.0</ele><time>2026-03-22T09:42:26.999Z</time></trkpt><trkpt lat="43.83177786604759" lon="10.92770100554747"><ele>340.0</ele><time>2026-03-22T09:42:30.999Z</time></trkpt><trkpt lat="43.83182650239661" lon="10.927787013321224"><ele>340.0</ele><time>2026-03-22T09:42:34.999Z</time></trkpt><trkpt lat="43.83187006249817" lon="10.927860484033786"><ele>340.0</ele><time>2026-03-22T09:42:38.999Z</time></trkpt><trkpt lat="43.83190365261101" lon="10.927954174245984"><ele>340.0</ele><time>2026-03-22T09:42:42.999Z</time></trkpt><trkpt lat="43.83195408468433" lon="10.928029472644953"><ele>340.0</ele><time>2026-03-22T09:42:46.999Z</time></trkpt><trkpt lat="43.831990439970205" lon="10.928105763782082"><ele>340.0</ele><time>2026-03-22T09:42:49.999Z</time></trkpt><trkpt lat="43.832050496590576" lon="10.928187906752564"><ele>340.0</ele><time>2026-03-22T09:42:53.999Z</time></trkpt><trkpt lat="43.83208309905759" lon="10.928264284116178"><ele>340.0</ele><time>2026-03-22T09:42:56.999Z</time></trkpt><trkpt lat="43.83214609434216" lon="10.928339882961101"><ele>340.0</ele><time>2026-03-22T09:43:00.999Z</time></trkpt><trkpt lat="43.832200894002916" lon="10.928404156092046"><ele>340.0</ele><time>2026-03-22T09:43:03.999Z</time></trkpt><trkpt lat="43.832270788611055" lon="10.928433004460931"><ele>340.0</ele><time>2026-03-22T09:43:06.999Z</time></trkpt><trkpt lat="43.83234059520523" lon="10.92849414833117"><ele>340.8571428571429</ele><time>2026-03-22T09:43:10.999Z</time></trkpt><trkpt lat="43.832412133047534" lon="10.928567977022333"><ele>341.71428571428567</ele><time>2026-03-22T09:43:14.999Z</time></trkpt><trkpt lat="43.83246497956425" lon="10.928617869068106"><ele>342.57142857142856</ele><time>2026-03-22T09:43:18Z</time></trkpt><trkpt lat="43.83253535734291" lon="10.928656580409548"><ele>343.42857142857144</ele><time>2026-03-22T09:43:21Z</time></trkpt><trkpt lat="43.832591375251745" lon="10.928696800957603"><ele>344.28571428571433</ele><time>2026-03-22T09:43:24Z</time></trkpt><trkpt lat="43.83266635052569" lon="10.928756682480772"><ele>345.1428571428571</ele><time>2026-03-22T09:43:28Z</time></trkpt><trkpt lat="43.83272979627741" lon="10.928799055712455"><ele>346.0</ele><time>2026-03-22T09:43:31Z</time></trkpt><trkpt lat="43.832790181103526" lon="10.928834270988817"><ele>346.0</ele><time>2026-03-22T09:43:34Z</time></trkpt><trkpt lat="43.83285374028917" lon="10.928894293820713"><ele>346.0</ele><time>2026-03-22T09:43:38Z</time></trkpt><trkpt lat="43.83290614262086" lon="10.928962628464161"><ele>346.0</ele><time>2026-03-22T09:43:41Z</time></trkpt><trkpt lat="43.83294691937159" lon="10.929029232362083"><ele>346.0</ele><time>2026-03-22T09:43:44Z</time></trkpt><trkpt lat="43.83301242732939" lon="10.929088444032685"><ele>346.0</ele><time>2026-03-22T09:43:48Z</time></trkpt><trkpt lat="43.83305891603103" lon="10.929173628646"><ele>346.0</ele><time>2026-03-22T09:43:52Z</time></trkpt><trkpt lat="43.8331129299761" lon="10.929267164615865"><ele>347.7142857142857</ele><time>2026-03-22T09:43:55Z</time></trkpt><trkpt lat="43.83315231382156" lon="10.92933991039528"><ele>349.42857142857144</ele><time>2026-03-22T09:43:58Z</time></trkpt><trkpt lat="43.833190712928996" lon="10.929421070985073"><ele>351.14285714285717</ele><time>2026-03-22T09:44:01Z</time></trkpt><trkpt lat="43.83321639236114" lon="10.929510625308541"><ele>352.8571428571429</ele><time>2026-03-22T09:44:04Z</time></trkpt><trkpt lat="43.83324644609429" lon="10.929612156180086"><ele>354.57142857142856</ele><time>2026-03-22T09:44:08Z</time></trkpt><trkpt lat="43.83327252135621" lon="10.929698665508289"><ele>356.28571428571433</ele><time>2026-03-22T09:44:11Z</time></trkpt><trkpt lat="43.83328646319161" lon="10.92980375661582"><ele>358.0</ele><time>2026-03-22T09:44:14.999Z</time></trkpt><trkpt lat="43.8332794329444" lon="10.929890525708732"><ele>358.00000000000006</ele><time>2026-03-22T09:44:17.999Z</time></trkpt><trkpt lat="43.833284415434235" lon="10.929981417423456"><ele>358.0</ele><time>2026-03-22T09:44:20.999Z</time></trkpt><trkpt lat="43.8332994773599" lon="10.930084402945985"><ele>358.0</ele><time>2026-03-22T09:44:23.999Z</time></trkpt><trkpt lat="43.83331665701773" lon="10.930171913011666"><ele>358.0</ele><time>2026-03-22T09:44:26.999Z</time></trkpt><trkpt lat="43.833370183982694" lon="10.930233032726132"><ele>358.0</ele><time>2026-03-22T09:44:29.999Z</time></trkpt><trkpt lat="43.83343997359155" lon="10.930277193321412"><ele>358.00000000000006</ele><time>2026-03-22T09:44:32.999Z</time></trkpt><trkpt lat="43.8335201529175" lon="10.930265645349314"><ele>358.0</ele><time>2026-03-22T09:44:36.999Z</time></trkpt><trkpt lat="43.83359194830805" lon="10.930219893539453"><ele>359.42857142857144</ele><time>2026-03-22T09:44:40.999Z</time></trkpt><trkpt lat="43.83364056053666" lon="10.930137050475778"><ele>360.8571428571429</ele><time>2026-03-22T09:44:43.999Z</time></trkpt><trkpt lat="43.83367491894044" lon="10.930053226929413"><ele>362.28571428571433</ele><time>2026-03-22T09:44:46.999Z</time></trkpt><trkpt lat="43.83371289201994" lon="10.929971553788118"><ele>363.7142857142857</ele><time>2026-03-22T09:44:49.999Z</time></trkpt><trkpt lat="43.83375761444292" lon="10.929885471018718"><ele>365.1428571428571</ele><time>2026-03-22T09:44:53.999Z</time></trkpt><trkpt lat="43.83379741059376" lon="10.929792581497347"><ele>366.5714285714286</ele><time>2026-03-22T09:44:57.999Z</time></trkpt><trkpt lat="43.83384760106074" lon="10.929721189530094"><ele>368.0</ele><time>2026-03-22T09:45:01.999Z</time></trkpt><trkpt lat="43.83391785925291" lon="10.929678455199376"><ele>368.0</ele><time>2026-03-22T09:45:05.999Z</time></trkpt><trkpt lat="43.83399536497222" lon="10.929652648726575"><ele>368.0</ele><time>2026-03-22T09:45:10.999Z</time></trkpt><trkpt lat="43.834069779048484" lon="10.929652366200285"><ele>368.0</ele><time>2026-03-22T09:45:14.999Z</time></trkpt><trkpt lat="43.83415390378179" lon="10.929644006507615"><ele>368.0</ele><time>2026-03-22T09:45:18.999Z</time></trkpt><trkpt lat="43.8342277315497" lon="10.929599343953408"><ele>368.0</ele><time>2026-03-22T09:45:23Z</time></trkpt><trkpt lat="43.83428477380868" lon="10.929553159443284"><ele>368.0</ele><time>2026-03-22T09:45:26Z</time></trkpt><trkpt lat="43.83432916154017" lon="10.929477504509613"><ele>369.7142857142857</ele><time>2026-03-22T09:45:29Z</time></trkpt><trkpt lat="43.83435205322643" lon="10.929393661079134"><ele>371.4285714285714</ele><time>2026-03-22T09:45:32Z</time></trkpt><trkpt lat="43.83435955893161" lon="10.92930452611965"><ele>373.1428571428571</ele><time>2026-03-22T09:45:35Z</time></trkpt><trkpt lat="43.83436001657721" lon="10.929201159881364"><ele>374.8571428571429</ele><time>2026-03-22T09:45:38Z</time></trkpt><trkpt lat="43.834349999230895" lon="10.92909344349393"><ele>376.57142857142856</ele><time>2026-03-22T09:45:41Z</time></trkpt><trkpt lat="43.8343514203207" lon="10.929000480398354"><ele>378.2857142857143</ele><time>2026-03-22T09:45:44Z</time></trkpt><trkpt lat="43.83435941595607" lon="10.9289082638599"><ele>380.0</ele><time>2026-03-22T09:45:47Z</time></trkpt><trkpt lat="43.83437458405095" lon="10.928815363964466"><ele>380.0</ele><time>2026-03-22T09:45:50Z</time></trkpt><trkpt lat="43.834381274101254" lon="10.928715761127762"><ele>380.0</ele><time>2026-03-22T09:45:53Z</time></trkpt><trkpt lat="43.834370355042935" lon="10.92861751354119"><ele>380.0</ele><time>2026-03-22T09:45:56Z</time></trkpt><trkpt lat="43.834389262993135" lon="10.928529904774056"><ele>380.0</ele><time>2026-03-22T09:45:59Z</time></trkpt><trkpt lat="43.83439861257071" lon="10.928426725259449"><ele>380.0</ele><time>2026-03-22T09:46:02Z</time></trkpt><trkpt lat="43.834402457976864" lon="10.928335554843521"><ele>380.0</ele><time>2026-03-22T09:46:05Z</time></trkpt><trkpt lat="43.834390769487754" lon="10.928233053128398"><ele>380.0</ele><time>2026-03-22T09:46:08Z</time></trkpt><trkpt lat="43.83439046634902" lon="10.928133164741674"><ele>380.2857142857143</ele><time>2026-03-22T09:46:11Z</time></trkpt><trkpt lat="43.83439534374655" lon="10.928031250361279"><ele>380.57142857142856</ele><time>2026-03-22T09:46:14Z</time></trkpt><trkpt lat="43.834382135874215" lon="10.927934999381305"><ele>380.8571428571429</ele><time>2026-03-22T09:46:17Z</time></trkpt><trkpt lat="43.83439088296276" lon="10.927841437779167"><ele>381.1428571428571</ele><time>2026-03-22T09:46:20Z</time></trkpt><trkpt lat="43.834378552513634" lon="10.927748260407213"><ele>381.4285714285714</ele><time>2026-03-22T09:46:22.999Z</time></trkpt><trkpt lat="43.83437315131365" lon="10.92765480324358"><ele>381.7142857142857</ele><time>2026-03-22T09:46:25.999Z</time></trkpt><trkpt lat="43.83436401272751" lon="10.927550818234709"><ele>382.0</ele><time>2026-03-22T09:46:28.999Z</time></trkpt><trkpt lat="43.83433679153064" lon="10.927442302461264"><ele>376.0</ele><time>2026-03-22T09:46:31.999Z</time></trkpt><trkpt lat="43.83430008098232" lon="10.927334239171772"><ele>370.0</ele><time>2026-03-22T09:46:34.999Z</time></trkpt><trkpt lat="43.83424838985719" lon="10.927227657377099"><ele>364.0</ele><time>2026-03-22T09:46:37.999Z</time></trkpt><trkpt lat="43.83421801428813" lon="10.927136607014711"><ele>358.0</ele><time>2026-03-22T09:46:40.999Z</time></trkpt><trkpt lat="43.83416762058956" lon="10.927052622912402"><ele>352.0</ele><time>2026-03-22T09:46:43.999Z</time></trkpt><trkpt lat="43.83413957845022" lon="10.926960261331965"><ele>346.0</ele><time>2026-03-22T09:46:46.999Z</time></trkpt><trkpt lat="43.83411476837463" lon="10.926875456172594"><ele>346.0</ele><time>2026-03-22T09:46:49.999Z</time></trkpt><trkpt lat="43.834112028539295" lon="10.926775152545504"><ele>346.0</ele><time>2026-03-22T09:46:52.999Z</time></trkpt><trkpt lat="43.83413670989503" lon="10.926678351632074"><ele>346.0</ele><time>2026-03-22T09:46:55.999Z</time></trkpt><trkpt lat="43.834190028857435" lon="10.926598208739136"><ele>346.0</ele><time>2026-03-22T09:46:59.999Z</time></trkpt><trkpt lat="43.834252354254474" lon="10.926565576597339"><ele>346.0</ele><time>2026-03-22T09:47:02.999Z</time></trkpt><trkpt lat="43.834324780383014" lon="10.92654971648775"><ele>346.0</ele><time>2026-03-22T09:47:05.999Z</time></trkpt><trkpt lat="43.83439450419726" lon="10.926535124064383"><ele>346.0</ele><time>2026-03-22T09:47:08.999Z</time></trkpt><trkpt lat="43.83446396827439" lon="10.92651976990882"><ele>347.2857142857143</ele><time>2026-03-22T09:47:11.999Z</time></trkpt><trkpt lat="43.834532051695525" lon="10.92649824011878"><ele>348.5714285714286</ele><time>2026-03-22T09:47:14.999Z</time></trkpt><trkpt lat="43.834601314591474" lon="10.9265022120776"><ele>349.8571428571429</ele><time>2026-03-22T09:47:17.999Z</time></trkpt><trkpt lat="43.83467207112189" lon="10.926468514872502"><ele>351.1428571428571</ele><time>2026-03-22T09:47:21.999Z</time></trkpt><trkpt lat="43.83475192774008" lon="10.926460956580167"><ele>352.42857142857144</ele><time>2026-03-22T09:47:25.999Z</time></trkpt><trkpt lat="43.83482751824007" lon="10.926472634841362"><ele>353.7142857142857</ele><time>2026-03-22T09:47:29Z</time></trkpt><trkpt lat="43.83489370113588" lon="10.926502935246436"><ele>355.0</ele><time>2026-03-22T09:47:32Z</time></trkpt><trkpt lat="43.834959788229185" lon="10.926509832914931"><ele>355.0</ele><time>2026-03-22T09:47:35Z</time></trkpt><trkpt lat="43.83504344972755" lon="10.926528808520843"><ele>355.0</ele><time>2026-03-22T09:47:39Z</time></trkpt><trkpt lat="43.83511000668299" lon="10.926541648231092"><ele>355.0</ele><time>2026-03-22T09:47:42Z</time></trkpt><trkpt lat="43.83517235590596" lon="10.926563246518715"><ele>355.0</ele><time>2026-03-22T09:47:45Z</time></trkpt><trkpt lat="43.83525033181928" lon="10.926592077900462"><ele>355.0</ele><time>2026-03-22T09:47:49Z</time></trkpt><trkpt lat="43.835332748047115" lon="10.926629480211764"><ele>355.0</ele><time>2026-03-22T09:47:53Z</time></trkpt><trkpt lat="43.83540624532089" lon="10.926661848214627"><ele>353.7142857142857</ele><time>2026-03-22T09:47:57Z</time></trkpt><trkpt lat="43.835466124563865" lon="10.926697248301299"><ele>352.42857142857144</ele><time>2026-03-22T09:48:00Z</time></trkpt><trkpt lat="43.83553317273165" lon="10.92673031282649"><ele>351.1428571428571</ele><time>2026-03-22T09:48:04Z</time></trkpt><trkpt lat="43.83561047207821" lon="10.92676785251327"><ele>349.8571428571429</ele><time>2026-03-22T09:48:08Z</time></trkpt><trkpt lat="43.8356714473346" lon="10.926837934825265"><ele>348.5714285714286</ele><time>2026-03-22T09:48:12Z</time></trkpt><trkpt lat="43.83572711443099" lon="10.92690237444676"><ele>347.2857142857143</ele><time>2026-03-22T09:48:16Z</time></trkpt><trkpt lat="43.83577046336927" lon="10.92697292370613"><ele>346.0</ele><time>2026-03-22T09:48:19Z</time></trkpt><trkpt lat="43.835831083234126" lon="10.927034628222138"><ele>350.1428571428571</ele><time>2026-03-22T09:48:23Z</time></trkpt><trkpt lat="43.83587616282456" lon="10.927104810853562"><ele>354.28571428571433</ele><time>2026-03-22T09:48:26Z</time></trkpt><trkpt lat="43.835923255102806" lon="10.92716551328717"><ele>358.42857142857144</ele><time>2026-03-22T09:48:29Z</time></trkpt><trkpt lat="43.83597083985892" lon="10.927230514937607"><ele>362.57142857142856</ele><time>2026-03-22T09:48:32Z</time></trkpt><trkpt lat="43.83601291487214" lon="10.92730666816263"><ele>366.71428571428567</ele><time>2026-03-22T09:48:35Z</time></trkpt><trkpt lat="43.836085617091" lon="10.927344466916512"><ele>370.8571428571429</ele><time>2026-03-22T09:48:38.999Z</time></trkpt><trkpt lat="43.8361579167527" lon="10.927351549227915"><ele>375.0</ele><time>2026-03-22T09:48:41.999Z</time></trkpt><trkpt lat="43.83622068778062" lon="10.927308935214757"><ele>375.0</ele><time>2026-03-22T09:48:44.999Z</time></trkpt><trkpt lat="43.83626137807237" lon="10.927222562919589"><ele>375.0</ele><time>2026-03-22T09:48:47.999Z</time></trkpt><trkpt lat="43.83628731133033" lon="10.92712479650821"><ele>375.0</ele><time>2026-03-22T09:48:50.999Z</time></trkpt><trkpt lat="43.83633109348423" lon="10.927032785389041"><ele>375.0</ele><time>2026-03-22T09:48:53.999Z</time></trkpt><trkpt lat="43.83639671655939" lon="10.926962758034826"><ele>375.0</ele><time>2026-03-22T09:48:57.999Z</time></trkpt><trkpt lat="43.83646172015804" lon="10.92690692139475"><ele>375.0</ele><time>2026-03-22T09:49:00.999Z</time></trkpt><trkpt lat="43.836514902483366" lon="10.926847313452305"><ele>375.0</ele><time>2026-03-22T09:49:03.999Z</time></trkpt><trkpt lat="43.83656902869881" lon="10.926790812252076"><ele>375.0</ele><time>2026-03-22T09:49:06.999Z</time></trkpt><trkpt lat="43.836640753711606" lon="10.926734708616234"><ele>375.0</ele><time>2026-03-22T09:49:09.999Z</time></trkpt><trkpt lat="43.83670230622258" lon="10.926688977228954"><ele>375.0</ele><time>2026-03-22T09:49:12.999Z</time></trkpt><trkpt lat="43.83676899686737" lon="10.926619242184563"><ele>375.0</ele><time>2026-03-22T09:49:15.999Z</time></trkpt><trkpt lat="43.836824680475914" lon="10.926565416907225"><ele>375.0</ele><time>2026-03-22T09:49:18.999Z</time></trkpt><trkpt lat="43.83687743266758" lon="10.926512523176456"><ele>375.0</ele><time>2026-03-22T09:49:21.999Z</time></trkpt><trkpt lat="43.836943601324165" lon="10.926473814875221"><ele>375.0</ele><time>2026-03-22T09:49:25.999Z</time></trkpt><trkpt lat="43.837018793476545" lon="10.926439942196785"><ele>375.0</ele><time>2026-03-22T09:49:29.999Z</time></trkpt><trkpt lat="43.83707584555444" lon="10.926401354458147"><ele>375.0</ele><time>2026-03-22T09:49:32.999Z</time></trkpt><trkpt lat="43.83710625413309" lon="10.926320410099416"><ele>375.0</ele><time>2026-03-22T09:49:35Z</time></trkpt><trkpt lat="43.83711274090362" lon="10.926217759529031"><ele>375.0</ele><time>2026-03-22T09:49:37Z</time></trkpt><trkpt lat="43.83711229215273" lon="10.926094139073772"><ele>375.0</ele><time>2026-03-22T09:49:40Z</time></trkpt><trkpt lat="43.83707664043371" lon="10.926012682288968"><ele>375.0</ele><time>2026-03-22T09:49:42Z</time></trkpt><trkpt lat="43.837053885371525" lon="10.92590890850569"><ele>372.8333333333333</ele><time>2026-03-22T09:49:45Z</time></trkpt><trkpt lat="43.8370076298246" lon="10.925823840516555"><ele>370.6666666666667</ele><time>2026-03-22T09:49:48Z</time></trkpt><trkpt lat="43.83696466938222" lon="10.925730397859937"><ele>368.5</ele><time>2026-03-22T09:49:51Z</time></trkpt><trkpt lat="43.83694120481224" lon="10.92563753883586"><ele>366.33333333333337</ele><time>2026-03-22T09:49:54Z</time></trkpt><trkpt lat="43.83689386876844" lon="10.925538909029502"><ele>364.1666666666667</ele><time>2026-03-22T09:49:57Z</time></trkpt><trkpt lat="43.836843130506345" lon="10.925434843464764"><ele>362.0</ele><time>2026-03-22T09:50:01Z</time></trkpt><trkpt lat="43.836797025800585" lon="10.925336581479089"><ele>360.1428571428571</ele><time>2026-03-22T09:50:04Z</time></trkpt><trkpt lat="43.836775479415266" lon="10.925248391993703"><ele>358.2857142857143</ele><time>2026-03-22T09:50:07Z</time></trkpt><trkpt lat="43.83673918022347" lon="10.925159865700248"><ele>356.42857142857144</ele><time>2026-03-22T09:50:10Z</time></trkpt><trkpt lat="43.836715541790305" lon="10.92507205673552"><ele>354.57142857142856</ele><time>2026-03-22T09:50:13Z</time></trkpt><trkpt lat="43.836706396145225" lon="10.92497526641828"><ele>352.7142857142857</ele><time>2026-03-22T09:50:16Z</time></trkpt><trkpt lat="43.836703388025256" lon="10.924886006030562"><ele>350.85714285714283</ele><time>2026-03-22T09:50:19Z</time></trkpt><trkpt lat="43.83671162609105" lon="10.92477616755633"><ele>349.0</ele><time>2026-03-22T09:50:23Z</time></trkpt><trkpt lat="43.83671407856235" lon="10.924658846579762"><ele>348.99999999999994</ele><time>2026-03-22T09:50:27Z</time></trkpt><trkpt lat="43.83672716079486" lon="10.924571137340717"><ele>349.0</ele><time>2026-03-22T09:50:30Z</time></trkpt><trkpt lat="43.83674504359501" lon="10.924471729192271"><ele>349.0</ele><time>2026-03-22T09:50:33Z</time></trkpt><trkpt lat="43.83678353800222" lon="10.924377137350843"><ele>349.0</ele><time>2026-03-22T09:50:36Z</time></trkpt><trkpt lat="43.83680811644218" lon="10.924295276232003"><ele>349.0</ele><time>2026-03-22T09:50:38.999Z</time></trkpt><trkpt lat="43.83680142703007" lon="10.924201106984256"><ele>348.99999999999994</ele><time>2026-03-22T09:50:41.999Z</time></trkpt><trkpt lat="43.83680624057805" lon="10.924106496032772"><ele>349.0</ele><time>2026-03-22T09:50:44.999Z</time></trkpt><trkpt lat="43.83679511959814" lon="10.924015227413074"><ele>350.0</ele><time>2026-03-22T09:50:47.999Z</time></trkpt><trkpt lat="43.83675408718198" lon="10.92393579518421"><ele>351.0</ele><time>2026-03-22T09:50:50.999Z</time></trkpt><trkpt lat="43.83667610285906" lon="10.923878992745315"><ele>352.0</ele><time>2026-03-22T09:50:53.999Z</time></trkpt><trkpt lat="43.836619280318246" lon="10.92382570500667"><ele>353.0</ele><time>2026-03-22T09:50:56.999Z</time></trkpt><trkpt lat="43.83654705765654" lon="10.923801394844824"><ele>354.0</ele><time>2026-03-22T09:50:59.999Z</time></trkpt><trkpt lat="43.83645854792804" lon="10.923767252379717"><ele>355.0</ele><time>2026-03-22T09:51:02.999Z</time></trkpt><trkpt lat="43.836398802209686" lon="10.923720320219196"><ele>355.0</ele><time>2026-03-22T09:51:04.999Z</time></trkpt><trkpt lat="43.83633822562438" lon="10.923665050996195"><ele>355.0</ele><time>2026-03-22T09:51:07.999Z</time></trkpt><trkpt lat="43.83625590704916" lon="10.923622604169024"><ele>355.0</ele><time>2026-03-22T09:51:10.999Z</time></trkpt><trkpt lat="43.83618333420489" lon="10.923569894150845"><ele>355.0</ele><time>2026-03-22T09:51:13.999Z</time></trkpt><trkpt lat="43.836119869037034" lon="10.923537582876257"><ele>355.0</ele><time>2026-03-22T09:51:16.999Z</time></trkpt><trkpt lat="43.8360563632375" lon="10.923487016725014"><ele>355.0</ele><time>2026-03-22T09:51:19.999Z</time></trkpt><trkpt lat="43.8359737024513" lon="10.923452979800986"><ele>354.8333333333333</ele><time>2026-03-22T09:51:22.999Z</time></trkpt><trkpt lat="43.83590767810424" lon="10.923395596438091"><ele>354.66666666666663</ele><time>2026-03-22T09:51:25.999Z</time></trkpt><trkpt lat="43.83583340145627" lon="10.923350870426"><ele>354.5</ele><time>2026-03-22T09:51:28.999Z</time></trkpt><trkpt lat="43.83576375575796" lon="10.923327716499687"><ele>354.3333333333333</ele><time>2026-03-22T09:51:31.999Z</time></trkpt><trkpt lat="43.83569165637311" lon="10.923263383717675"><ele>354.1666666666667</ele><time>2026-03-22T09:51:35.999Z</time></trkpt><trkpt lat="43.83563193947474" lon="10.92319105055232"><ele>354.0</ele><time>2026-03-22T09:51:38.999Z</time></trkpt><trkpt lat="43.8355796090986" lon="10.923122475479643"><ele>354.0</ele><time>2026-03-22T09:51:42Z</time></trkpt><trkpt lat="43.835510307263846" lon="10.923039570242036"><ele>354.0</ele><time>2026-03-22T09:51:46Z</time></trkpt><trkpt lat="43.83549170426708" lon="10.922944924622167"><ele>354.0</ele><time>2026-03-22T09:51:49Z</time></trkpt><trkpt lat="43.83547923082835" lon="10.922849231300386"><ele>354.0</ele><time>2026-03-22T09:51:52Z</time></trkpt><trkpt lat="43.83547175147418" lon="10.922741882609861"><ele>354.0</ele><time>2026-03-22T09:51:55Z</time></trkpt><trkpt lat="43.8354608394806" lon="10.922638755838358"><ele>354.0</ele><time>2026-03-22T09:51:58Z</time></trkpt><trkpt lat="43.83544475891631" lon="10.922539033974092"><ele>355.0</ele><time>2026-03-22T09:52:01Z</time></trkpt><trkpt lat="43.835430785645244" lon="10.922447915869693"><ele>356.0</ele><time>2026-03-22T09:52:03Z</time></trkpt><trkpt lat="43.83541612483652" lon="10.922360913462128"><ele>357.0</ele><time>2026-03-22T09:52:06Z</time></trkpt><trkpt lat="43.8353893517391" lon="10.922254750839295"><ele>358.0</ele><time>2026-03-22T09:52:09Z</time></trkpt><trkpt lat="43.83535888691487" lon="10.922156406176303"><ele>359.0</ele><time>2026-03-22T09:52:12Z</time></trkpt><trkpt lat="43.83533294783598" lon="10.922070445242186"><ele>360.0</ele><time>2026-03-22T09:52:15Z</time></trkpt><trkpt lat="43.835292967920225" lon="10.921974235133565"><ele>361.0</ele><time>2026-03-22T09:52:18Z</time></trkpt><trkpt lat="43.83525318383991" lon="10.921883875386465"><ele>361.0</ele><time>2026-03-22T09:52:21Z</time></trkpt><trkpt lat="43.835199212808156" lon="10.92180709756998"><ele>361.0</ele><time>2026-03-22T09:52:24Z</time></trkpt><trkpt lat="43.83514403793297" lon="10.921722451203378"><ele>361.0</ele><time>2026-03-22T09:52:27Z</time></trkpt><trkpt lat="43.83511005043524" lon="10.921645553272363"><ele>361.0</ele><time>2026-03-22T09:52:30Z</time></trkpt><trkpt lat="43.83506442948496" lon="10.92156472941754"><ele>361.0</ele><time>2026-03-22T09:52:33Z</time></trkpt><trkpt lat="43.83503198149648" lon="10.921473061032797"><ele>361.0</ele><time>2026-03-22T09:52:36Z</time></trkpt><trkpt lat="43.834984566643605" lon="10.921386434974892"><ele>360.66666666666663</ele><time>2026-03-22T09:52:39Z</time></trkpt><trkpt lat="43.834947974090376" lon="10.921284836339684"><ele>360.3333333333333</ele><time>2026-03-22T09:52:42Z</time></trkpt><trkpt lat="43.834902113584704" lon="10.921192778894177"><ele>360.0</ele><time>2026-03-22T09:52:45Z</time></trkpt><trkpt lat="43.83487414757773" lon="10.921088683185975"><ele>359.6666666666667</ele><time>2026-03-22T09:52:47.999Z</time></trkpt><trkpt lat="43.8348265758698" lon="10.920995754895241"><ele>359.33333333333337</ele><time>2026-03-22T09:52:50.999Z</time></trkpt><trkpt lat="43.83479205480386" lon="10.920915598865164"><ele>359.0</ele><time>2026-03-22T09:52:53.999Z</time></trkpt><trkpt lat="43.83474133303902" lon="10.920837891932651"><ele>359.0</ele><time>2026-03-22T09:52:56.999Z</time></trkpt><trkpt lat="43.8346941401242" lon="10.920760853955038"><ele>359.0</ele><time>2026-03-22T09:52:59.999Z</time></trkpt><trkpt lat="43.83465217493269" lon="10.920654756946437"><ele>359.0</ele><time>2026-03-22T09:53:02.999Z</time></trkpt><trkpt lat="43.83461192417217" lon="10.920567201272748"><ele>359.0</ele><time>2026-03-22T09:53:05.999Z</time></trkpt><trkpt lat="43.83456477629803" lon="10.9204637006929"><ele>359.0</ele><time>2026-03-22T09:53:08.999Z</time></trkpt><trkpt lat="43.83452331850679" lon="10.920382854752408"><ele>359.0</ele><time>2026-03-22T09:53:11.999Z</time></trkpt><trkpt lat="43.83447785128874" lon="10.920298060520972"><ele>359.0</ele><time>2026-03-22T09:53:14.999Z</time></trkpt><trkpt lat="43.83444861246098" lon="10.920176825181818"><ele>359.0</ele><time>2026-03-22T09:53:18.999Z</time></trkpt><trkpt lat="43.83443938259263" lon="10.92008948586471"><ele>359.0</ele><time>2026-03-22T09:53:21.999Z</time></trkpt><trkpt lat="43.834432265225104" lon="10.919970454091468"><ele>359.0</ele><time>2026-03-22T09:53:24.999Z</time></trkpt><trkpt lat="43.8344461943786" lon="10.919882762443203"><ele>359.0</ele><time>2026-03-22T09:53:27.999Z</time></trkpt><trkpt lat="43.83445924056626" lon="10.91979076389315"><ele>359.0</ele><time>2026-03-22T09:53:30.999Z</time></trkpt><trkpt lat="43.83447947610644" lon="10.919682708203204"><ele>359.8571428571429</ele><time>2026-03-22T09:53:34.999Z</time></trkpt><trkpt lat="43.83450930692822" lon="10.91960302041339"><ele>360.7142857142857</ele><time>2026-03-22T09:53:37.999Z</time></trkpt><trkpt lat="43.834536025176654" lon="10.919507850708213"><ele>361.57142857142856</ele><time>2026-03-22T09:53:41.999Z</time></trkpt><trkpt lat="43.83457405541525" lon="10.919436205556083"><ele>362.42857142857144</ele><time>2026-03-22T09:53:44.999Z</time></trkpt><trkpt lat="43.83462040399035" lon="10.919368573458113"><ele>363.2857142857143</ele><time>2026-03-22T09:53:48Z</time></trkpt><trkpt lat="43.83467847723306" lon="10.919317838195685"><ele>364.14285714285717</ele><time>2026-03-22T09:53:51Z</time></trkpt><trkpt lat="43.83474281679737" lon="10.919274158482933"><ele>365.0</ele><time>2026-03-22T09:53:55Z</time></trkpt><trkpt lat="43.834812183234085" lon="10.919216264947664"><ele>363.28571428571433</ele><time>2026-03-22T09:53:59Z</time></trkpt><trkpt lat="43.83486244578931" lon="10.919150251999564"><ele>361.57142857142856</ele><time>2026-03-22T09:54:02Z</time></trkpt><trkpt lat="43.83492414322865" lon="10.919126226504488"><ele>359.8571428571429</ele><time>2026-03-22T09:54:05Z</time></trkpt><trkpt lat="43.83499349169086" lon="10.91908913680935"><ele>358.14285714285717</ele><time>2026-03-22T09:54:09Z</time></trkpt><trkpt lat="43.835066523972316" lon="10.919032529117274"><ele>356.42857142857144</ele><time>2026-03-22T09:54:13Z</time></trkpt><trkpt lat="43.83512608664237" lon="10.918987858765691"><ele>354.7142857142857</ele><time>2026-03-22T09:54:16Z</time></trkpt><trkpt lat="43.83519630016479" lon="10.918942075169678"><ele>353.0</ele><time>2026-03-22T09:54:20Z</time></trkpt><trkpt lat="43.83525497855315" lon="10.918896011911661"><ele>353.0</ele><time>2026-03-22T09:54:23Z</time></trkpt><trkpt lat="43.83530554020918" lon="10.91884021599403"><ele>353.0</ele><time>2026-03-22T09:54:26Z</time></trkpt><trkpt lat="43.8353787765786" lon="10.918797239153287"><ele>353.0</ele><time>2026-03-22T09:54:30Z</time></trkpt><trkpt lat="43.83544952944817" lon="10.918787774480938"><ele>353.0</ele><time>2026-03-22T09:54:35Z</time></trkpt><trkpt lat="43.835520173496185" lon="10.918818317198307"><ele>353.0</ele><time>2026-03-22T09:54:41Z</time></trkpt><trkpt lat="43.83561022817141" lon="10.918905708609023"><ele>353.0</ele><time>2026-03-22T09:54:44Z</time></trkpt><trkpt lat="43.83567441466217" lon="10.918933915270967"><ele>353.0</ele><time>2026-03-22T09:54:48Z</time></trkpt><trkpt lat="43.83575725740631" lon="10.918941392278219"><ele>353.0</ele><time>2026-03-22T09:54:50.999Z</time></trkpt><trkpt lat="43.8358205750962" lon="10.918988523338184"><ele>353.0</ele><time>2026-03-22T09:54:53.999Z</time></trkpt><trkpt lat="43.835876876679066" lon="10.91905150030325"><ele>353.0</ele><time>2026-03-22T09:54:56.999Z</time></trkpt><trkpt lat="43.835951876669114" lon="10.919079320027532"><ele>353.0</ele><time>2026-03-22T09:54:59.999Z</time></trkpt><trkpt lat="43.83604599877291" lon="10.919097809851419"><ele>353.0</ele><time>2026-03-22T09:55:03.999Z</time></trkpt><trkpt lat="43.836128174052064" lon="10.919108415846393"><ele>352.0</ele><time>2026-03-22T09:55:06.999Z</time></trkpt><trkpt lat="43.83619162917093" lon="10.919105097809814"><ele>351.0</ele><time>2026-03-22T09:55:09.999Z</time></trkpt><trkpt lat="43.836258592847656" lon="10.919090981188692"><ele>350.0</ele><time>2026-03-22T09:55:12.999Z</time></trkpt><trkpt lat="43.83634689687233" lon="10.919105550050034"><ele>349.0</ele><time>2026-03-22T09:55:16.999Z</time></trkpt><trkpt lat="43.83641509829938" lon="10.9191174041794"><ele>348.0</ele><time>2026-03-22T09:55:19.999Z</time></trkpt><trkpt lat="43.83649547234883" lon="10.919133232545619"><ele>347.0</ele><time>2026-03-22T09:55:23.999Z</time></trkpt><trkpt lat="43.83655872072462" lon="10.919169069335542"><ele>346.0</ele><time>2026-03-22T09:55:26.999Z</time></trkpt><trkpt lat="43.836629421528215" lon="10.919211391074096"><ele>351.16666666666663</ele><time>2026-03-22T09:55:29.999Z</time></trkpt><trkpt lat="43.83669805672451" lon="10.919257492659312"><ele>356.3333333333333</ele><time>2026-03-22T09:55:33.999Z</time></trkpt><trkpt lat="43.83677395100361" lon="10.91930463480617"><ele>361.5</ele><time>2026-03-22T09:55:37.999Z</time></trkpt><trkpt lat="43.83685430275173" lon="10.919344914947144"><ele>366.6666666666667</ele><time>2026-03-22T09:55:41.999Z</time></trkpt><trkpt lat="43.83693296649703" lon="10.91931741251531"><ele>371.83333333333337</ele><time>2026-03-22T09:55:45.999Z</time></trkpt><trkpt lat="43.837006680195564" lon="10.919277345317692"><ele>377.0</ele><time>2026-03-22T09:55:48.999Z</time></trkpt><trkpt lat="43.83707324118018" lon="10.91924038779081"><ele>376.99999999999994</ele><time>2026-03-22T09:55:52Z</time></trkpt><trkpt lat="43.837148638627845" lon="10.91921241114492"><ele>377.0</ele><time>2026-03-22T09:55:56Z</time></trkpt><trkpt lat="43.837232033084526" lon="10.91918587632784"><ele>377.0</ele><time>2026-03-22T09:56:00Z</time></trkpt><trkpt lat="43.837298739264654" lon="10.919173681489601"><ele>377.0</ele><time>2026-03-22T09:56:03Z</time></trkpt><trkpt lat="43.83737690724416" lon="10.919183433019931"><ele>377.0</ele><time>2026-03-22T09:56:06Z</time></trkpt><trkpt lat="43.83744023985073" lon="10.919207202861037"><ele>376.99999999999994</ele><time>2026-03-22T09:56:09Z</time></trkpt><trkpt lat="43.83750755970824" lon="10.919222306687693"><ele>377.0</ele><time>2026-03-22T09:56:12Z</time></trkpt><trkpt lat="43.83758449920272" lon="10.919242043364813"><ele>375.1666666666667</ele><time>2026-03-22T09:56:16Z</time></trkpt><trkpt lat="43.83765117739927" lon="10.919251603954512"><ele>373.33333333333337</ele><time>2026-03-22T09:56:19Z</time></trkpt><trkpt lat="43.837721545591734" lon="10.91926831785014"><ele>371.5</ele><time>2026-03-22T09:56:22Z</time></trkpt><trkpt lat="43.83778934382349" lon="10.919286029277709"><ele>369.6666666666667</ele><time>2026-03-22T09:56:25Z</time></trkpt><trkpt lat="43.83786504999687" lon="10.919319384422883"><ele>367.8333333333333</ele><time>2026-03-22T09:56:29Z</time></trkpt><trkpt lat="43.837934633008366" lon="10.919384455270103"><ele>366.0</ele><time>2026-03-22T09:56:33Z</time></trkpt><trkpt lat="43.8380226462279" lon="10.919392339935909"><ele>366.0</ele><time>2026-03-22T09:56:37Z</time></trkpt><trkpt lat="43.83809910439877" lon="10.919404501140871"><ele>366.0</ele><time>2026-03-22T09:56:40Z</time></trkpt><trkpt lat="43.83816599836543" lon="10.919458277873826"><ele>366.0</ele><time>2026-03-22T09:56:43Z</time></trkpt><trkpt lat="43.83823475002469" lon="10.919450176749521"><ele>366.0</ele><time>2026-03-22T09:56:46Z</time></trkpt><trkpt lat="43.838296423309515" lon="10.919472673228567"><ele>366.0</ele><time>2026-03-22T09:56:49Z</time></trkpt><trkpt lat="43.83837315591848" lon="10.919449948951646"><ele>366.0</ele><time>2026-03-22T09:56:52Z</time></trkpt><trkpt lat="43.83845747115816" lon="10.919461207457756"><ele>364.1666666666667</ele><time>2026-03-22T09:56:55.999Z</time></trkpt><trkpt lat="43.8385380529293" lon="10.919467988322946"><ele>362.3333333333333</ele><time>2026-03-22T09:56:58.999Z</time></trkpt><trkpt lat="43.838602756884136" lon="10.919488678698183"><ele>360.5</ele><time>2026-03-22T09:57:01.999Z</time></trkpt><trkpt lat="43.83867284116805" lon="10.919512404947888"><ele>358.66666666666663</ele><time>2026-03-22T09:57:04.999Z</time></trkpt><trkpt lat="43.838754416146585" lon="10.919531772122905"><ele>356.8333333333333</ele><time>2026-03-22T09:57:07.999Z</time></trkpt><trkpt lat="43.83883601102542" lon="10.919564360274272"><ele>355.0</ele><time>2026-03-22T09:57:10.999Z</time></trkpt><trkpt lat="43.8389019542918" lon="10.919590507411824"><ele>355.0</ele><time>2026-03-22T09:57:12.999Z</time></trkpt><trkpt lat="43.83898503510558" lon="10.919600999616025"><ele>355.0</ele><time>2026-03-22T09:57:15.999Z</time></trkpt><trkpt lat="43.83905692568101" lon="10.919665170761036"><ele>355.0</ele><time>2026-03-22T09:57:18.999Z</time></trkpt><trkpt lat="43.839134954739855" lon="10.919687710792754"><ele>355.0</ele><time>2026-03-22T09:57:21.999Z</time></trkpt><trkpt lat="43.83921244412809" lon="10.91969300073083"><ele>355.0</ele><time>2026-03-22T09:57:24.999Z</time></trkpt><trkpt lat="43.83928412382736" lon="10.91967363096959"><ele>355.0</ele><time>2026-03-22T09:57:27.999Z</time></trkpt><trkpt lat="43.839352342576966" lon="10.919674562387906"><ele>351.66666666666663</ele><time>2026-03-22T09:57:30.999Z</time></trkpt><trkpt lat="43.83942181276959" lon="10.91963827167173"><ele>348.3333333333333</ele><time>2026-03-22T09:57:33.999Z</time></trkpt><trkpt lat="43.83949437725942" lon="10.919597852038551"><ele>345.0</ele><time>2026-03-22T09:57:37.999Z</time></trkpt><trkpt lat="43.83956216714607" lon="10.919532216511707"><ele>341.6666666666667</ele><time>2026-03-22T09:57:40.999Z</time></trkpt><trkpt lat="43.83960254768331" lon="10.919463187295175"><ele>338.33333333333337</ele><time>2026-03-22T09:57:42.999Z</time></trkpt><trkpt lat="43.83963124132626" lon="10.9193546417639"><ele>335.0</ele><time>2026-03-22T09:57:45.999Z</time></trkpt><trkpt lat="43.83967176745807" lon="10.919272170176258"><ele>334.99999999999994</ele><time>2026-03-22T09:57:48.999Z</time></trkpt><trkpt lat="43.8397233101828" lon="10.919174747597463"><ele>335.0</ele><time>2026-03-22T09:57:51.999Z</time></trkpt><trkpt lat="43.839746841441084" lon="10.919078061251096"><ele>335.0</ele><time>2026-03-22T09:57:54.999Z</time></trkpt><trkpt lat="43.83971899662639" lon="10.918990905179463"><ele>335.0</ele><time>2026-03-22T09:58:01Z</time></trkpt><trkpt lat="43.83973832732245" lon="10.919079995395503"><ele>335.0</ele><time>2026-03-22T10:01:40.999Z</time></trkpt><trkpt lat="43.83973657194237" lon="10.919168506720968"><ele>334.99999999999994</ele><time>2026-03-22T10:01:44.999Z</time></trkpt><trkpt lat="43.83968951640763" lon="10.919252007909769"><ele>335.0</ele><time>2026-03-22T10:01:49.999Z</time></trkpt><trkpt lat="43.83963886952132" lon="10.919311564158093"><ele>334.99999999999994</ele><time>2026-03-22T10:01:53.999Z</time></trkpt><trkpt lat="43.83961817183209" lon="10.919411582105665"><ele>335.0</ele><time>2026-03-22T10:01:57.999Z</time></trkpt><trkpt lat="43.83961221676212" lon="10.91951066997357"><ele>335.0</ele><time>2026-03-22T10:02:01.999Z</time></trkpt><trkpt lat="43.83964400742221" lon="10.919610372176335"><ele>335.0</ele><time>2026-03-22T10:02:05.999Z</time></trkpt><trkpt lat="43.83968084244715" lon="10.919686846690956"><ele>335.0</ele><time>2026-03-22T10:02:10Z</time></trkpt><trkpt lat="43.83971849248661" lon="10.919782464571838"><ele>334.99999999999994</ele><time>2026-03-22T10:02:14Z</time></trkpt><trkpt lat="43.839764266692555" lon="10.919864181661303"><ele>335.0</ele><time>2026-03-22T10:02:17Z</time></trkpt><trkpt lat="43.83981275764772" lon="10.919950915238955"><ele>335.0</ele><time>2026-03-22T10:02:21Z</time></trkpt><trkpt lat="43.83985213018577" lon="10.920019731432793"><ele>335.0</ele><time>2026-03-22T10:02:24Z</time></trkpt><trkpt lat="43.83990775691969" lon="10.920112839763183"><ele>335.0</ele><time>2026-03-22T10:02:28Z</time></trkpt><trkpt lat="43.83996294018141" lon="10.92019062679732"><ele>335.0</ele><time>2026-03-22T10:02:32Z</time></trkpt><trkpt lat="43.839999560959704" lon="10.92026927745678"><ele>335.0</ele><time>2026-03-22T10:02:35Z</time></trkpt><trkpt lat="43.84004062972481" lon="10.920360212946935"><ele>335.0</ele><time>2026-03-22T10:02:39Z</time></trkpt><trkpt lat="43.84006710998948" lon="10.920458200268003"><ele>334.0</ele><time>2026-03-22T10:02:44Z</time></trkpt><trkpt lat="43.84011685637172" lon="10.920540542160495"><ele>333.0</ele><time>2026-03-22T10:02:49Z</time></trkpt><trkpt lat="43.8401548046606" lon="10.92061790245262"><ele>332.0</ele><time>2026-03-22T10:02:53Z</time></trkpt><trkpt lat="43.84022073780823" lon="10.920679379226414"><ele>331.0</ele><time>2026-03-22T10:02:58Z</time></trkpt><trkpt lat="43.840278487661685" lon="10.920757794061274"><ele>330.0</ele><time>2026-03-22T10:03:03Z</time></trkpt><trkpt lat="43.84033887553518" lon="10.920826130730603"><ele>329.0</ele><time>2026-03-22T10:03:07Z</time></trkpt><trkpt lat="43.84038807458038" lon="10.920905618885303"><ele>331.14285714285717</ele><time>2026-03-22T10:03:11.999Z</time></trkpt><trkpt lat="43.840454370221465" lon="10.92094941723307"><ele>333.2857142857143</ele><time>2026-03-22T10:03:16.999Z</time></trkpt><trkpt lat="43.840508661682456" lon="10.921017550642125"><ele>335.42857142857144</ele><time>2026-03-22T10:03:21.999Z</time></trkpt><trkpt lat="43.84055474497365" lon="10.921097485140551"><ele>337.57142857142856</ele><time>2026-03-22T10:03:28.999Z</time></trkpt><trkpt lat="43.840591384511455" lon="10.921169119956867"><ele>339.7142857142857</ele><time>2026-03-22T10:03:36.999Z</time></trkpt><trkpt lat="43.84060914015394" lon="10.921260667829412"><ele>341.8571428571429</ele><time>2026-03-22T10:03:43.999Z</time></trkpt><trkpt lat="43.84062026767333" lon="10.921358520430624"><ele>344.0</ele><time>2026-03-22T10:03:51.999Z</time></trkpt><trkpt lat="43.84061669233624" lon="10.921458537387405"><ele>344.00000000000006</ele><time>2026-03-22T10:03:59.999Z</time></trkpt><trkpt lat="43.84060227731396" lon="10.921549825797003"><ele>344.0</ele><time>2026-03-22T10:04:06.999Z</time></trkpt><trkpt lat="43.840597220689745" lon="10.921653445590517"><ele>344.0</ele><time>2026-03-22T10:04:14.999Z</time></trkpt><trkpt lat="43.840582948028505" lon="10.921738604256612"><ele>344.0</ele><time>2026-03-22T10:04:21Z</time></trkpt><trkpt lat="43.84056087568428" lon="10.921823054031291"><ele>344.0</ele><time>2026-03-22T10:04:27Z</time></trkpt><trkpt lat="43.84054299099409" lon="10.921909985047456"><ele>344.00000000000006</ele><time>2026-03-22T10:04:33Z</time></trkpt><trkpt lat="43.84049797069619" lon="10.921977131118734"><ele>344.0</ele><time>2026-03-22T10:04:38Z</time></trkpt><trkpt lat="43.84043362223534" lon="10.922011406123522"><ele>343.14285714285717</ele><time>2026-03-22T10:04:45Z</time></trkpt><trkpt lat="43.840370528819754" lon="10.92204563107629"><ele>342.2857142857143</ele><time>2026-03-22T10:04:52Z</time></trkpt><trkpt lat="43.84031172643499" lon="10.922098316867231"><ele>341.42857142857144</ele><time>2026-03-22T10:04:58Z</time></trkpt><trkpt lat="43.84026510823921" lon="10.922158488388638"><ele>340.57142857142856</ele><time>2026-03-22T10:05:04Z</time></trkpt><trkpt lat="43.840218751583315" lon="10.922223277527134"><ele>339.7142857142857</ele><time>2026-03-22T10:05:10Z</time></trkpt><trkpt lat="43.84016585767825" lon="10.922296512779726"><ele>338.8571428571429</ele><time>2026-03-22T10:05:17Z</time></trkpt><trkpt lat="43.84010985865094" lon="10.922348251675277"><ele>338.0</ele><time>2026-03-22T10:05:22Z</time></trkpt><trkpt lat="43.84003842444196" lon="10.922340739244497"><ele>343.42857142857144</ele><time>2026-03-22T10:05:27.999Z</time></trkpt><trkpt lat="43.84000725598492" lon="10.922256655291868"><ele>348.85714285714283</ele><time>2026-03-22T10:05:32.999Z</time></trkpt><trkpt lat="43.83996203452312" lon="10.922187703925179"><ele>354.2857142857143</ele><time>2026-03-22T10:05:47.999Z</time></trkpt><trkpt lat="43.83992643855426" lon="10.922106554692501"><ele>359.7142857142857</ele><time>2026-03-22T10:05:57.999Z</time></trkpt><trkpt lat="43.839885836967554" lon="10.922028774937559"><ele>365.1428571428571</ele><time>2026-03-22T10:06:07.999Z</time></trkpt><trkpt lat="43.839834211466005" lon="10.922103724970933"><ele>370.57142857142856</ele><time>2026-03-22T10:06:19.999Z</time></trkpt><trkpt lat="43.83984128155535" lon="10.922204158770246"><ele>376.0</ele><time>2026-03-22T10:06:25Z</time></trkpt><trkpt lat="43.83982955988693" lon="10.922311681862274"><ele>376.0</ele><time>2026-03-22T10:06:32Z</time></trkpt><trkpt lat="43.83982795767079" lon="10.922405223370397"><ele>376.0</ele><time>2026-03-22T10:06:37Z</time></trkpt><trkpt lat="43.83982851869008" lon="10.922515880717174"><ele>376.0</ele><time>2026-03-22T10:06:41Z</time></trkpt><trkpt lat="43.83984434669849" lon="10.922607588456017"><ele>376.0</ele><time>2026-03-22T10:06:45Z</time></trkpt><trkpt lat="43.839864105440654" lon="10.922708875135527"><ele>376.0</ele><time>2026-03-22T10:06:49Z</time></trkpt><trkpt lat="43.83988107293975" lon="10.922797306218236"><ele>376.0</ele><time>2026-03-22T10:06:53Z</time></trkpt><trkpt lat="43.83990312379095" lon="10.92288235836137"><ele>376.0</ele><time>2026-03-22T10:06:57Z</time></trkpt><trkpt lat="43.839925072925" lon="10.92298164410996"><ele>377.57142857142856</ele><time>2026-03-22T10:07:02Z</time></trkpt><trkpt lat="43.83994938809697" lon="10.92307551649879"><ele>379.1428571428571</ele><time>2026-03-22T10:07:07Z</time></trkpt><trkpt lat="43.839976133667435" lon="10.923164224548529"><ele>380.7142857142857</ele><time>2026-03-22T10:07:11Z</time></trkpt><trkpt lat="43.83998993057607" lon="10.923261744073834"><ele>382.2857142857143</ele><time>2026-03-22T10:07:16Z</time></trkpt><trkpt lat="43.83999183650255" lon="10.923362224524494"><ele>383.8571428571429</ele><time>2026-03-22T10:07:23Z</time></trkpt><trkpt lat="43.84000266921065" lon="10.923454384197141"><ele>385.42857142857144</ele><time>2026-03-22T10:07:26.999Z</time></trkpt><trkpt lat="43.84001488303014" lon="10.923546230175058"><ele>387.0</ele><time>2026-03-22T10:07:31.999Z</time></trkpt><trkpt lat="43.84003656945488" lon="10.92364851231957"><ele>384.57142857142856</ele><time>2026-03-22T10:07:36.999Z</time></trkpt><trkpt lat="43.840074812824525" lon="10.923726406485823"><ele>382.14285714285717</ele><time>2026-03-22T10:07:41.999Z</time></trkpt><trkpt lat="43.8401033182137" lon="10.923814417927193"><ele>379.71428571428567</ele><time>2026-03-22T10:07:45.999Z</time></trkpt><trkpt lat="43.84014949992099" lon="10.923887718472068"><ele>377.2857142857143</ele><time>2026-03-22T10:07:49.999Z</time></trkpt><trkpt lat="43.84018317920932" lon="10.923964719051993"><ele>374.85714285714283</ele><time>2026-03-22T10:07:53.999Z</time></trkpt><trkpt lat="43.84022422093758" lon="10.924036400416883"><ele>372.4285714285714</ele><time>2026-03-22T10:07:57.999Z</time></trkpt><trkpt lat="43.840252695173355" lon="10.924119318535938"><ele>370.0</ele><time>2026-03-22T10:08:03.999Z</time></trkpt><trkpt lat="43.84028850417574" lon="10.924197958107815"><ele>374.2857142857143</ele><time>2026-03-22T10:08:08.999Z</time></trkpt><trkpt lat="43.84032341531459" lon="10.924272793661732"><ele>378.57142857142856</ele><time>2026-03-22T10:08:14.999Z</time></trkpt><trkpt lat="43.84038024367558" lon="10.924339576128498"><ele>382.8571428571429</ele><time>2026-03-22T10:08:20.999Z</time></trkpt><trkpt lat="43.840429175750806" lon="10.924414383613355"><ele>387.1428571428571</ele><time>2026-03-22T10:08:26.999Z</time></trkpt><trkpt lat="43.840464129666834" lon="10.92450378238547"><ele>391.42857142857144</ele><time>2026-03-22T10:08:35Z</time></trkpt><trkpt lat="43.840524901532625" lon="10.924574912974794"><ele>395.7142857142857</ele><time>2026-03-22T10:08:40Z</time></trkpt><trkpt lat="43.84056079894395" lon="10.924660045737085"><ele>400.0</ele><time>2026-03-22T10:08:44Z</time></trkpt><trkpt lat="43.84060485784503" lon="10.924737493121427"><ele>400.00000000000006</ele><time>2026-03-22T10:08:49Z</time></trkpt><trkpt lat="43.8406520772121" lon="10.924803514142479"><ele>400.0</ele><time>2026-03-22T10:08:54Z</time></trkpt><trkpt lat="43.84071892721732" lon="10.92486527117969"><ele>400.0</ele><time>2026-03-22T10:08:59Z</time></trkpt><trkpt lat="43.84078130047619" lon="10.924904284225027"><ele>400.0</ele><time>2026-03-22T10:09:03Z</time></trkpt><trkpt lat="43.840848974594884" lon="10.924943527457732"><ele>400.0</ele><time>2026-03-22T10:09:07Z</time></trkpt><trkpt lat="43.84092317575455" lon="10.925001976159674"><ele>400.00000000000006</ele><time>2026-03-22T10:09:11Z</time></trkpt><trkpt lat="43.84096800430371" lon="10.925066656634261"><ele>400.0</ele><time>2026-03-22T10:09:13.999Z</time></trkpt><trkpt lat="43.84100717679326" lon="10.92515565121071"><ele>398.14285714285717</ele><time>2026-03-22T10:09:18.999Z</time></trkpt><trkpt lat="43.84103417690317" lon="10.925254448904742"><ele>396.2857142857143</ele><time>2026-03-22T10:09:26.999Z</time></trkpt><trkpt lat="43.84104371348262" lon="10.92534099485756"><ele>394.42857142857144</ele><time>2026-03-22T10:09:33.999Z</time></trkpt><trkpt lat="43.8410463538846" lon="10.925429735402364"><ele>392.57142857142856</ele><time>2026-03-22T10:09:38.999Z</time></trkpt><trkpt lat="43.841046579898965" lon="10.925518846542495"><ele>390.7142857142857</ele><time>2026-03-22T10:09:44.999Z</time></trkpt><trkpt lat="43.84106014046765" lon="10.925622347091094"><ele>388.8571428571429</ele><time>2026-03-22T10:09:50.999Z</time></trkpt><trkpt lat="43.841079015657044" lon="10.925709599102541"><ele>387.0</ele><time>2026-03-22T10:09:55.999Z</time></trkpt><trkpt lat="43.84110677980103" lon="10.925810908571957"><ele>387.0</ele><time>2026-03-22T10:10:03.999Z</time></trkpt><trkpt lat="43.8411302280178" lon="10.925892451600081"><ele>387.0</ele><time>2026-03-22T10:10:08.999Z</time></trkpt><trkpt lat="43.84115686780104" lon="10.925983017066809"><ele>387.0</ele><time>2026-03-22T10:10:13.999Z</time></trkpt><trkpt lat="43.841191488483105" lon="10.926066998972422"><ele>387.0</ele><time>2026-03-22T10:10:19.999Z</time></trkpt><trkpt lat="43.84120888400058" lon="10.926152606640729"><ele>387.0</ele><time>2026-03-22T10:10:25.999Z</time></trkpt><trkpt lat="43.84122374478495" lon="10.926246064788504"><ele>387.0</ele><time>2026-03-22T10:10:32.999Z</time></trkpt><trkpt lat="43.841252207748674" lon="10.926333623225432"><ele>387.0</ele><time>2026-03-22T10:10:38Z</time></trkpt><trkpt lat="43.84125362749435" lon="10.926431703795231"><ele>387.7142857142857</ele><time>2026-03-22T10:10:45Z</time></trkpt><trkpt lat="43.84120933336491" lon="10.926498692310018"><ele>388.42857142857144</ele><time>2026-03-22T10:10:52Z</time></trkpt><trkpt lat="43.84116349462633" lon="10.926563054620225"><ele>389.1428571428571</ele><time>2026-03-22T10:10:58Z</time></trkpt><trkpt lat="43.84108991559011" lon="10.926597979621175"><ele>389.8571428571429</ele><time>2026-03-22T10:11:06Z</time></trkpt><trkpt lat="43.84101660219947" lon="10.926610985067594"><ele>390.57142857142856</ele><time>2026-03-22T10:11:14Z</time></trkpt><trkpt lat="43.840951790281245" lon="10.926638133666346"><ele>391.2857142857143</ele><time>2026-03-22T10:11:20Z</time></trkpt><trkpt lat="43.84088293189171" lon="10.92669394822372"><ele>392.0</ele><time>2026-03-22T10:11:26Z</time></trkpt><trkpt lat="43.84080739684677" lon="10.926730148753697"><ele>394.7142857142857</ele><time>2026-03-22T10:11:32Z</time></trkpt><trkpt lat="43.840742728027685" lon="10.926769349625001"><ele>397.42857142857144</ele><time>2026-03-22T10:11:37Z</time></trkpt><trkpt lat="43.84067698028284" lon="10.926801185107944"><ele>400.1428571428571</ele><time>2026-03-22T10:11:42.999Z</time></trkpt><trkpt lat="43.84062773989962" lon="10.926859178855066"><ele>402.8571428571429</ele><time>2026-03-22T10:11:47.999Z</time></trkpt><trkpt lat="43.8405847254469" lon="10.92693500286057"><ele>405.57142857142856</ele><time>2026-03-22T10:11:51.999Z</time></trkpt><trkpt lat="43.84055493560903" lon="10.927025412001672"><ele>408.2857142857143</ele><time>2026-03-22T10:11:55.999Z</time></trkpt><trkpt lat="43.84055447150823" lon="10.927123700661763"><ele>411.0</ele><time>2026-03-22T10:12:00.999Z</time></trkpt><trkpt lat="43.84056814135252" lon="10.92722030310993"><ele>411.0</ele><time>2026-03-22T10:12:05.999Z</time></trkpt><trkpt lat="43.84056775583142" lon="10.92730859454087"><ele>411.0</ele><time>2026-03-22T10:12:10.999Z</time></trkpt><trkpt lat="43.840544370823466" lon="10.92739741715965"><ele>411.0</ele><time>2026-03-22T10:12:23.999Z</time></trkpt><trkpt lat="43.8404847371237" lon="10.927431025490376"><ele>411.0</ele><time>2026-03-22T10:12:28.999Z</time></trkpt><trkpt lat="43.84041675688814" lon="10.927452824358944"><ele>411.0</ele><time>2026-03-22T10:12:31.999Z</time></trkpt><trkpt lat="43.84035328248374" lon="10.927482278491407"><ele>411.0</ele><time>2026-03-22T10:12:36.999Z</time></trkpt><trkpt lat="43.84028850103271" lon="10.92749658504272"><ele>411.0</ele><time>2026-03-22T10:12:43Z</time></trkpt><trkpt lat="43.84021844557536" lon="10.927470723084207"><ele>411.0</ele><time>2026-03-22T10:12:49Z</time></trkpt><trkpt lat="43.8401452818483" lon="10.927493617418774"><ele>411.0</ele><time>2026-03-22T10:12:55Z</time></trkpt><trkpt lat="43.840077930402956" lon="10.92751703071586"><ele>411.0</ele><time>2026-03-22T10:13:01Z</time></trkpt><trkpt lat="43.840043051968486" lon="10.927591247883093"><ele>411.0</ele><time>2026-03-22T10:13:07Z</time></trkpt><trkpt lat="43.840003883383424" lon="10.927677893209973"><ele>411.0</ele><time>2026-03-22T10:13:13Z</time></trkpt><trkpt lat="43.839966481552295" lon="10.927766651296919"><ele>411.0</ele><time>2026-03-22T10:13:21Z</time></trkpt><trkpt lat="43.839921554414126" lon="10.92785467443069"><ele>411.0</ele><time>2026-03-22T10:13:27Z</time></trkpt><trkpt lat="43.839866558492844" lon="10.92790475750653"><ele>413.85714285714283</ele><time>2026-03-22T10:13:36Z</time></trkpt><trkpt lat="43.839800498640685" lon="10.927910683294723"><ele>416.71428571428567</ele><time>2026-03-22T10:13:47Z</time></trkpt><trkpt lat="43.83974018157752" lon="10.927962069306862"><ele>419.57142857142856</ele><time>2026-03-22T10:13:56Z</time></trkpt><trkpt lat="43.83967857336832" lon="10.927985573169128"><ele>422.42857142857144</ele><time>2026-03-22T10:14:03.999Z</time></trkpt><trkpt lat="43.83961324860325" lon="10.928010776862404"><ele>425.2857142857143</ele><time>2026-03-22T10:14:15.999Z</time></trkpt><trkpt lat="43.83955948103167" lon="10.928059711067071"><ele>428.14285714285717</ele><time>2026-03-22T10:14:25.999Z</time></trkpt><trkpt lat="43.8394960401055" lon="10.928119515915238"><ele>431.0</ele><time>2026-03-22T10:14:40.999Z</time></trkpt><trkpt lat="43.83943725084945" lon="10.928166196540323"><ele>431.0</ele><time>2026-03-22T10:14:49Z</time></trkpt><trkpt lat="43.83937853498969" lon="10.928215969904933"><ele>431.0</ele><time>2026-03-22T10:15:00Z</time></trkpt><trkpt lat="43.839314257110566" lon="10.928241376415267"><ele>431.0</ele><time>2026-03-22T10:15:08Z</time></trkpt><trkpt lat="43.8392450146085" lon="10.928260136301624"><ele>431.0</ele><time>2026-03-22T10:15:15Z</time></trkpt><trkpt lat="43.83917935627529" lon="10.928282478436945"><ele>431.0</ele><time>2026-03-22T10:15:22Z</time></trkpt><trkpt lat="43.839117991964216" lon="10.928311074847317"><ele>431.0</ele><time>2026-03-22T10:15:27Z</time></trkpt><trkpt lat="43.83904888146819" lon="10.928321326772211"><ele>431.0</ele><time>2026-03-22T10:15:34Z</time></trkpt><trkpt lat="43.838978210094425" lon="10.928312743126986"><ele>433.66666666666663</ele><time>2026-03-22T10:15:40Z</time></trkpt><trkpt lat="43.83889959313193" lon="10.928324119754388"><ele>436.3333333333333</ele><time>2026-03-22T10:15:46Z</time></trkpt><trkpt lat="43.83882524286652" lon="10.928339099855071"><ele>439.0</ele><time>2026-03-22T10:15:51Z</time></trkpt><trkpt lat="43.838753049487785" lon="10.928346852936988"><ele>441.66666666666663</ele><time>2026-03-22T10:15:56Z</time></trkpt><trkpt lat="43.83867617865287" lon="10.92834108538178"><ele>444.3333333333333</ele><time>2026-03-22T10:16:00Z</time></trkpt><trkpt lat="43.83860439680501" lon="10.928347957571104"><ele>447.0</ele><time>2026-03-22T10:16:04.999Z</time></trkpt><trkpt lat="43.838527732337795" lon="10.928359251062874"><ele>446.71428571428567</ele><time>2026-03-22T10:16:10.999Z</time></trkpt><trkpt lat="43.83846617294454" lon="10.928388299962831"><ele>446.42857142857144</ele><time>2026-03-22T10:16:15.999Z</time></trkpt><trkpt lat="43.838394354780164" lon="10.928389571002809"><ele>446.1428571428571</ele><time>2026-03-22T10:16:20.999Z</time></trkpt><trkpt lat="43.83832054878562" lon="10.92838582466714"><ele>445.85714285714283</ele><time>2026-03-22T10:16:26.999Z</time></trkpt><trkpt lat="43.838245438004" lon="10.928391220019737"><ele>445.57142857142856</ele><time>2026-03-22T10:16:32.999Z</time></trkpt><trkpt lat="43.83818107917575" lon="10.928398252924868"><ele>445.2857142857143</ele><time>2026-03-22T10:16:36.999Z</time></trkpt><trkpt lat="43.83811196737028" lon="10.928413320946348"><ele>445.0</ele><time>2026-03-22T10:16:40.999Z</time></trkpt><trkpt lat="43.83803944411681" lon="10.928458315644592"><ele>448.57142857142856</ele><time>2026-03-22T10:16:44.999Z</time></trkpt><trkpt lat="43.83796943004806" lon="10.928498576805389"><ele>452.1428571428571</ele><time>2026-03-22T10:16:48.999Z</time></trkpt><trkpt lat="43.837919763775595" lon="10.928564245770701"><ele>455.71428571428567</ele><time>2026-03-22T10:16:53Z</time></trkpt><trkpt lat="43.8378721011682" lon="10.928638845827733"><ele>459.2857142857143</ele><time>2026-03-22T10:16:57Z</time></trkpt><trkpt lat="43.83783259067816" lon="10.928709749305535"><ele>462.8571428571428</ele><time>2026-03-22T10:17:00Z</time></trkpt><trkpt lat="43.837791163086926" lon="10.928801477485097"><ele>466.4285714285714</ele><time>2026-03-22T10:17:04Z</time></trkpt><trkpt lat="43.83777379692683" lon="10.928894799459522"><ele>470.0</ele><time>2026-03-22T10:17:08Z</time></trkpt><trkpt lat="43.837751724776176" lon="10.928993458496903"><ele>470.0</ele><time>2026-03-22T10:17:12Z</time></trkpt><trkpt lat="43.83770882897749" lon="10.929073336166121"><ele>469.99999999999994</ele><time>2026-03-22T10:17:16Z</time></trkpt><trkpt lat="43.83766694014658" lon="10.929139262974704"><ele>470.0</ele><time>2026-03-22T10:17:19Z</time></trkpt><trkpt lat="43.837608115678805" lon="10.929190224516843"><ele>470.0</ele><time>2026-03-22T10:17:23Z</time></trkpt><trkpt lat="43.83755971713468" lon="10.929247209619678"><ele>469.99999999999994</ele><time>2026-03-22T10:17:26Z</time></trkpt><trkpt lat="43.837538096873175" lon="10.929335151958375"><ele>470.0</ele><time>2026-03-22T10:17:29Z</time></trkpt><trkpt lat="43.83753306968298" lon="10.929432359249072"><ele>470.0</ele><time>2026-03-22T10:17:32Z</time></trkpt><trkpt lat="43.83753711841057" lon="10.929537045096014"><ele>471.2857142857143</ele><time>2026-03-22T10:17:36Z</time></trkpt><trkpt lat="43.83755549036007" lon="10.929638384508253"><ele>472.57142857142856</ele><time>2026-03-22T10:17:42Z</time></trkpt><trkpt lat="43.837573577339185" lon="10.929727084212011"><ele>473.85714285714283</ele><time>2026-03-22T10:17:47Z</time></trkpt><trkpt lat="43.837586338159454" lon="10.929813255224008"><ele>475.1428571428571</ele><time>2026-03-22T10:17:55Z</time></trkpt><trkpt lat="43.83758305940144" lon="10.929904045492508"><ele>476.42857142857144</ele><time>2026-03-22T10:18:06Z</time></trkpt><trkpt lat="43.83754455850677" lon="10.93000000255765"><ele>477.71428571428567</ele><time>2026-03-22T10:18:10.999Z</time></trkpt><trkpt lat="43.83750389849735" lon="10.930069000494745"><ele>479.0</ele><time>2026-03-22T10:18:15.999Z</time></trkpt><trkpt lat="43.83745940957281" lon="10.930139772042937"><ele>478.99999999999994</ele><time>2026-03-22T10:18:19.999Z</time></trkpt><trkpt lat="43.837426763728295" lon="10.930233456102716"><ele>479.0</ele><time>2026-03-22T10:18:24.999Z</time></trkpt><trkpt lat="43.8373679706903" lon="10.930275111160782"><ele>479.0</ele><time>2026-03-22T10:18:28.999Z</time></trkpt><trkpt lat="43.83728076991445" lon="10.93030294352181"><ele>479.0</ele><time>2026-03-22T10:18:32.999Z</time></trkpt><trkpt lat="43.83720566934866" lon="10.930280572393265"><ele>478.99999999999994</ele><time>2026-03-22T10:18:36.999Z</time></trkpt><trkpt lat="43.837122412450405" lon="10.930245437271566"><ele>479.0</ele><time>2026-03-22T10:18:41.999Z</time></trkpt><trkpt lat="43.83704590227454" lon="10.930189280866937"><ele>479.0</ele><time>2026-03-22T10:18:45.999Z</time></trkpt><trkpt lat="43.836980754977105" lon="10.930133547463486"><ele>479.0</ele><time>2026-03-22T10:18:50.999Z</time></trkpt><trkpt lat="43.836911696373825" lon="10.930110207253938"><ele>479.0</ele><time>2026-03-22T10:18:55.999Z</time></trkpt><trkpt lat="43.83683632806442" lon="10.930111823265449"><ele>479.0</ele><time>2026-03-22T10:19:02Z</time></trkpt><trkpt lat="43.83676909703078" lon="10.93012666615199"><ele>479.0</ele><time>2026-03-22T10:19:09Z</time></trkpt><trkpt lat="43.83668881776918" lon="10.930153017873836"><ele>479.0</ele><time>2026-03-22T10:19:16Z</time></trkpt><trkpt lat="43.83662546237609" lon="10.930181470348291"><ele>479.0</ele><time>2026-03-22T10:19:23Z</time></trkpt><trkpt lat="43.83655532165957" lon="10.930225208677586"><ele>476.71428571428567</ele><time>2026-03-22T10:19:27Z</time></trkpt><trkpt lat="43.836506351963386" lon="10.930304547257675"><ele>474.42857142857144</ele><time>2026-03-22T10:19:31Z</time></trkpt><trkpt lat="43.83645171343279" lon="10.930381645677182"><ele>472.1428571428571</ele><time>2026-03-22T10:19:36Z</time></trkpt><trkpt lat="43.83640306012259" lon="10.930450311580476"><ele>469.85714285714283</ele><time>2026-03-22T10:19:40Z</time></trkpt><trkpt lat="43.83635031863958" lon="10.930507590782257"><ele>467.57142857142856</ele><time>2026-03-22T10:19:43Z</time></trkpt><trkpt lat="43.836296688286964" lon="10.93058857135275"><ele>465.2857142857143</ele><time>2026-03-22T10:19:47Z</time></trkpt><trkpt lat="43.83624871319068" lon="10.930669105457817"><ele>463.0</ele><time>2026-03-22T10:19:52Z</time></trkpt><trkpt lat="43.83619077460428" lon="10.930744823027435"><ele>463.0</ele><time>2026-03-22T10:19:56Z</time></trkpt><trkpt lat="43.836157658687846" lon="10.930824003214234"><ele>462.99999999999994</ele><time>2026-03-22T10:20:00Z</time></trkpt><trkpt lat="43.83611340716412" lon="10.930891974683824"><ele>463.0</ele><time>2026-03-22T10:20:05Z</time></trkpt><trkpt lat="43.83608624749019" lon="10.930982327779843"><ele>463.0</ele><time>2026-03-22T10:20:11Z</time></trkpt><trkpt lat="43.83604257619512" lon="10.931068648550175"><ele>462.99999999999994</ele><time>2026-03-22T10:20:15.999Z</time></trkpt><trkpt lat="43.83600694904226" lon="10.931151429538053"><ele>463.0</ele><time>2026-03-22T10:20:20.999Z</time></trkpt><trkpt lat="43.835990582559106" lon="10.931236077031835"><ele>463.0</ele><time>2026-03-22T10:20:25.999Z</time></trkpt><trkpt lat="43.835965389917725" lon="10.931328980898705"><ele>461.57142857142856</ele><time>2026-03-22T10:20:31.999Z</time></trkpt><trkpt lat="43.83595641081116" lon="10.931419925628644"><ele>460.1428571428571</ele><time>2026-03-22T10:20:36.999Z</time></trkpt><trkpt lat="43.835932506954514" lon="10.9315075239065"><ele>458.71428571428567</ele><time>2026-03-22T10:20:41.999Z</time></trkpt><trkpt lat="43.83592229880509" lon="10.931602633321841"><ele>457.2857142857142</ele><time>2026-03-22T10:20:46.999Z</time></trkpt><trkpt lat="43.83591116835585" lon="10.93170281004288"><ele>455.85714285714283</ele><time>2026-03-22T10:20:51.999Z</time></trkpt><trkpt lat="43.83591234735859" lon="10.931791616270887"><ele>454.42857142857133</ele><time>2026-03-22T10:20:55.999Z</time></trkpt><trkpt lat="43.8359126025528" lon="10.93189413240198"><ele>452.99999999999994</ele><time>2026-03-22T10:21:00.999Z</time></trkpt><trkpt lat="43.835925921367505" lon="10.932000249742291"><ele>452.99999999999994</ele><time>2026-03-22T10:21:06Z</time></trkpt><trkpt lat="43.83592812434508" lon="10.93210820992091"><ele>453.0</ele><time>2026-03-22T10:21:11Z</time></trkpt><trkpt lat="43.835933281341205" lon="10.932209513434163"><ele>452.99999999999994</ele><time>2026-03-22T10:21:16Z</time></trkpt><trkpt lat="43.83594321526821" lon="10.932313662881567"><ele>452.99999999999994</ele><time>2026-03-22T10:21:21Z</time></trkpt><trkpt lat="43.83595425063541" lon="10.932400196764208"><ele>453.0</ele><time>2026-03-22T10:21:25Z</time></trkpt><trkpt lat="43.83596664158808" lon="10.932493155071903"><ele>452.99999999999994</ele><time>2026-03-22T10:21:30Z</time></trkpt><trkpt lat="43.835943837812366" lon="10.932598131950376"><ele>452.99999999999994</ele><time>2026-03-22T10:21:35Z</time></trkpt><trkpt lat="43.83589856592618" lon="10.932661948573962"><ele>455.42857142857133</ele><time>2026-03-22T10:21:40Z</time></trkpt><trkpt lat="43.83584643136169" lon="10.932719460097628"><ele>457.85714285714283</ele><time>2026-03-22T10:21:45Z</time></trkpt><trkpt lat="43.83580011236717" lon="10.932785662525793"><ele>460.2857142857142</ele><time>2026-03-22T10:21:50Z</time></trkpt><trkpt lat="43.8357546403571" lon="10.93286695924947"><ele>462.71428571428567</ele><time>2026-03-22T10:21:55Z</time></trkpt><trkpt lat="43.83570575347356" lon="10.932941340112546"><ele>465.1428571428571</ele><time>2026-03-22T10:21:59Z</time></trkpt><trkpt lat="43.83564385316063" lon="10.933019931735027"><ele>467.57142857142856</ele><time>2026-03-22T10:22:04Z</time></trkpt><trkpt lat="43.83558709343055" lon="10.933076367015456"><ele>470.0</ele><time>2026-03-22T10:22:08Z</time></trkpt><trkpt lat="43.835516474439636" lon="10.933130479322966"><ele>470.0</ele><time>2026-03-22T10:22:12Z</time></trkpt><trkpt lat="43.83545191991189" lon="10.9331482362237"><ele>469.99999999999994</ele><time>2026-03-22T10:22:15.999Z</time></trkpt><trkpt lat="43.8353713207237" lon="10.933149075795919"><ele>470.0</ele><time>2026-03-22T10:22:19.999Z</time></trkpt><trkpt lat="43.83530566206465" lon="10.933149759738779"><ele>470.0</ele><time>2026-03-22T10:22:22.999Z</time></trkpt><trkpt lat="43.835236502800825" lon="10.933169103103175"><ele>469.99999999999994</ele><time>2026-03-22T10:22:26.999Z</time></trkpt><trkpt lat="43.83515871772956" lon="10.933203233335929"><ele>470.0</ele><time>2026-03-22T10:22:30.999Z</time></trkpt><trkpt lat="43.83509762452107" lon="10.933235619853729"><ele>470.0</ele><time>2026-03-22T10:22:33.999Z</time></trkpt><trkpt lat="43.835027969669" lon="10.933230900527777"><ele>467.4285714285714</ele><time>2026-03-22T10:22:36.999Z</time></trkpt><trkpt lat="43.83496170909054" lon="10.933239509680513"><ele>464.8571428571428</ele><time>2026-03-22T10:22:39.999Z</time></trkpt><trkpt lat="43.83488756767538" lon="10.933233278108059"><ele>462.2857142857143</ele><time>2026-03-22T10:22:42.999Z</time></trkpt><trkpt lat="43.83480545789508" lon="10.93321128313623"><ele>459.71428571428567</ele><time>2026-03-22T10:22:46.999Z</time></trkpt><trkpt lat="43.83474010064057" lon="10.933193810669332"><ele>457.1428571428571</ele><time>2026-03-22T10:22:49.999Z</time></trkpt><trkpt lat="43.8346674556866" lon="10.933153403392073"><ele>454.57142857142856</ele><time>2026-03-22T10:22:54.999Z</time></trkpt><trkpt lat="43.83460437622775" lon="10.933157001896728"><ele>452.0</ele><time>2026-03-22T10:22:57.999Z</time></trkpt><trkpt lat="43.834526526809555" lon="10.933157628657504"><ele>452.0</ele><time>2026-03-22T10:23:01.999Z</time></trkpt><trkpt lat="43.83447377576515" lon="10.93321690559269"><ele>452.0</ele><time>2026-03-22T10:23:03.999Z</time></trkpt><trkpt lat="43.834402046400896" lon="10.933207216024456"><ele>452.0</ele><time>2026-03-22T10:23:05.999Z</time></trkpt><trkpt lat="43.83434456057222" lon="10.933129751095134"><ele>452.0</ele><time>2026-03-22T10:23:08.999Z</time></trkpt><trkpt lat="43.834299816136514" lon="10.933056650598298"><ele>452.0</ele><time>2026-03-22T10:23:13Z</time></trkpt><trkpt lat="43.83424403748156" lon="10.932986834176228"><ele>452.0</ele><time>2026-03-22T10:23:17Z</time></trkpt><trkpt lat="43.83418620502424" lon="10.932919155400816"><ele>452.0</ele><time>2026-03-22T10:23:21Z</time></trkpt><trkpt lat="43.83412744500427" lon="10.932866385167054"><ele>451.8571428571429</ele><time>2026-03-22T10:23:24Z</time></trkpt><trkpt lat="43.83406035266109" lon="10.932824875456669"><ele>451.71428571428567</ele><time>2026-03-22T10:23:27Z</time></trkpt><trkpt lat="43.83398733279998" lon="10.932811719146647"><ele>451.57142857142856</ele><time>2026-03-22T10:23:31Z</time></trkpt><trkpt lat="43.8339212414921" lon="10.932849327492033"><ele>451.42857142857144</ele><time>2026-03-22T10:23:35Z</time></trkpt><trkpt lat="43.833860562460245" lon="10.932883854650276"><ele>451.28571428571433</ele><time>2026-03-22T10:23:38Z</time></trkpt><trkpt lat="43.83378988357964" lon="10.93295260071714"><ele>451.1428571428571</ele><time>2026-03-22T10:23:42Z</time></trkpt><trkpt lat="43.83374484445696" lon="10.933022789758335"><ele>451.0</ele><time>2026-03-22T10:23:45Z</time></trkpt><trkpt lat="43.833690501080646" lon="10.933094049292654"><ele>451.0</ele><time>2026-03-22T10:23:48Z</time></trkpt><trkpt lat="43.83365010500816" lon="10.933165886988668"><ele>451.0</ele><time>2026-03-22T10:23:51Z</time></trkpt><trkpt lat="43.83359729697576" lon="10.933254881244961"><ele>451.0</ele><time>2026-03-22T10:23:55Z</time></trkpt><trkpt lat="43.833561847807914" lon="10.933336845795866"><ele>451.0</ele><time>2026-03-22T10:23:58Z</time></trkpt><trkpt lat="43.833543304163" lon="10.93343729253089"><ele>451.0</ele><time>2026-03-22T10:24:02Z</time></trkpt><trkpt lat="43.83354373223156" lon="10.933528593925553"><ele>451.0</ele><time>2026-03-22T10:24:07Z</time></trkpt><trkpt lat="43.833547449378706" lon="10.933624768217408"><ele>451.0</ele><time>2026-03-22T10:24:13Z</time></trkpt><trkpt lat="43.83355790340265" lon="10.933728300211506"><ele>450.85714285714283</ele><time>2026-03-22T10:24:18.999Z</time></trkpt><trkpt lat="43.83357484151968" lon="10.933815141544372"><ele>450.7142857142858</ele><time>2026-03-22T10:24:24.999Z</time></trkpt><trkpt lat="43.83356061250292" lon="10.933905828234657"><ele>450.5714285714286</ele><time>2026-03-22T10:24:29.999Z</time></trkpt><trkpt lat="43.83352418060473" lon="10.933981463884093"><ele>450.42857142857144</ele><time>2026-03-22T10:24:35.999Z</time></trkpt><trkpt lat="43.833518465969306" lon="10.934075576404599"><ele>450.28571428571433</ele><time>2026-03-22T10:24:40.999Z</time></trkpt><trkpt lat="43.833484116756274" lon="10.93416576942394"><ele>450.1428571428572</ele><time>2026-03-22T10:24:45.999Z</time></trkpt><trkpt lat="43.83345303386206" lon="10.934244852648748"><ele>450.00000000000006</ele><time>2026-03-22T10:24:49.999Z</time></trkpt><trkpt lat="43.83343468235823" lon="10.934329871478859"><ele>450.00000000000006</ele><time>2026-03-22T10:24:52.999Z</time></trkpt><trkpt lat="43.83342122163642" lon="10.934427357138079"><ele>450.0</ele><time>2026-03-22T10:24:56.999Z</time></trkpt><trkpt lat="43.833402595010206" lon="10.934528054531363"><ele>450.00000000000006</ele><time>2026-03-22T10:25:00.999Z</time></trkpt><trkpt lat="43.83338574092598" lon="10.934630993162884"><ele>450.00000000000006</ele><time>2026-03-22T10:25:04.999Z</time></trkpt><trkpt lat="43.8333529367196" lon="10.934716709258627"><ele>450.0</ele><time>2026-03-22T10:25:08.999Z</time></trkpt><trkpt lat="43.83329987499316" lon="10.934786172157272"><ele>450.00000000000006</ele><time>2026-03-22T10:25:12.999Z</time></trkpt><trkpt lat="43.83325762158347" lon="10.934851237025313"><ele>450.00000000000006</ele><time>2026-03-22T10:25:17Z</time></trkpt><trkpt lat="43.833199196997526" lon="10.934891472634781"><ele>450.00000000000006</ele><time>2026-03-22T10:25:20Z</time></trkpt><trkpt lat="43.83313742041679" lon="10.934922407393293"><ele>450.0</ele><time>2026-03-22T10:25:24Z</time></trkpt><trkpt lat="43.833078562456095" lon="10.934953757964735"><ele>450.00000000000006</ele><time>2026-03-22T10:25:28Z</time></trkpt><trkpt lat="43.83301586162085" lon="10.934989617256761"><ele>450.00000000000006</ele><time>2026-03-22T10:25:31Z</time></trkpt><trkpt lat="43.832953896688515" lon="10.935022420780356"><ele>450.0</ele><time>2026-03-22T10:25:34Z</time></trkpt><trkpt lat="43.83293994027259" lon="10.935117750042695"><ele>450.00000000000006</ele><time>2026-03-22T10:25:37Z</time></trkpt><trkpt lat="43.83292644347676" lon="10.935206033598012"><ele>450.00000000000006</ele><time>2026-03-22T10:25:40Z</time></trkpt><trkpt lat="43.832877033082255" lon="10.93528484454194"><ele>449.8571428571429</ele><time>2026-03-22T10:25:44Z</time></trkpt><trkpt lat="43.832849421368756" lon="10.93537401406398"><ele>449.7142857142857</ele><time>2026-03-22T10:25:48Z</time></trkpt><trkpt lat="43.83285815365963" lon="10.935474322148941"><ele>449.57142857142856</ele><time>2026-03-22T10:25:52Z</time></trkpt><trkpt lat="43.83284902419405" lon="10.935583722370597"><ele>449.42857142857144</ele><time>2026-03-22T10:25:56Z</time></trkpt><trkpt lat="43.83281270230514" lon="10.935673994722682"><ele>449.2857142857142</ele><time>2026-03-22T10:26:00Z</time></trkpt><trkpt lat="43.83281595083019" lon="10.935785278814802"><ele>449.1428571428571</ele><time>2026-03-22T10:26:07Z</time></trkpt><trkpt lat="43.832852116424206" lon="10.93587189527307"><ele>449.0</ele><time>2026-03-22T10:26:10Z</time></trkpt><trkpt lat="43.83289700378271" lon="10.935943292965243"><ele>449.0</ele><time>2026-03-22T10:26:11Z</time></trkpt><trkpt lat="43.83292230022398" lon="10.936049796856912"><ele>448.99999999999994</ele><time>2026-03-22T10:26:16Z</time></trkpt><trkpt lat="43.83296550132059" lon="10.93613290083856"><ele>449.0</ele><time>2026-03-22T10:26:19.999Z</time></trkpt><trkpt lat="43.833008103579544" lon="10.936207131972118"><ele>449.0</ele><time>2026-03-22T10:26:23.999Z</time></trkpt><trkpt lat="43.83303398839138" lon="10.936292417395503"><ele>448.99999999999994</ele><time>2026-03-22T10:26:27.999Z</time></trkpt><trkpt lat="43.83306157874806" lon="10.936378621111635"><ele>449.0</ele><time>2026-03-22T10:26:31.999Z</time></trkpt><trkpt lat="43.83309332357939" lon="10.936465669552144"><ele>449.0</ele><time>2026-03-22T10:26:35.999Z</time></trkpt><trkpt lat="43.83312450230339" lon="10.936552218093341"><ele>449.0</ele><time>2026-03-22T10:26:39.999Z</time></trkpt><trkpt lat="43.83316240947147" lon="10.936638108787534"><ele>448.99999999999994</ele><time>2026-03-22T10:26:43.999Z</time></trkpt><trkpt lat="43.833166155322075" lon="10.936727189873487"><ele>449.0</ele><time>2026-03-22T10:26:47.999Z</time></trkpt><trkpt lat="43.833123209308255" lon="10.936794258259953"><ele>449.0</ele><time>2026-03-22T10:26:50.999Z</time></trkpt><trkpt lat="43.83305989142668" lon="10.936848447256676"><ele>448.99999999999994</ele><time>2026-03-22T10:26:56.999Z</time></trkpt><trkpt lat="43.8330148097935" lon="10.936916103797131"><ele>449.0</ele><time>2026-03-22T10:27:00.999Z</time></trkpt><trkpt lat="43.832932774557825" lon="10.936964525213876"><ele>449.0</ele><time>2026-03-22T10:27:09.999Z</time></trkpt><trkpt lat="43.83287010811763" lon="10.936982851174045"><ele>448.57142857142856</ele><time>2026-03-22T10:27:15.999Z</time></trkpt><trkpt lat="43.83280583380886" lon="10.937024437067171"><ele>448.1428571428571</ele><time>2026-03-22T10:27:22Z</time></trkpt><trkpt lat="43.832750044161" lon="10.937067259796594"><ele>447.71428571428567</ele><time>2026-03-22T10:27:29Z</time></trkpt><trkpt lat="43.83268801172055" lon="10.937106099370974"><ele>447.2857142857143</ele><time>2026-03-22T10:27:36Z</time></trkpt><trkpt lat="43.832613602214536" lon="10.937125025311786"><ele>446.85714285714283</ele><time>2026-03-22T10:27:46Z</time></trkpt><trkpt lat="43.83254598715189" lon="10.937131688209568"><ele>446.42857142857144</ele><time>2026-03-22T10:27:53Z</time></trkpt><trkpt lat="43.83247814678191" lon="10.937151470264302"><ele>446.0</ele><time>2026-03-22T10:28:00Z</time></trkpt><trkpt lat="43.832412778452564" lon="10.93717143172804"><ele>448.0</ele><time>2026-03-22T10:28:07Z</time></trkpt><trkpt lat="43.832345902639595" lon="10.937173625541567"><ele>450.0</ele><time>2026-03-22T10:28:16Z</time></trkpt><trkpt lat="43.83228082562072" lon="10.937186633858778"><ele>452.0</ele><time>2026-03-22T10:28:22.999Z</time></trkpt><trkpt lat="43.83220898903253" lon="10.937152998352277"><ele>454.0</ele><time>2026-03-22T10:28:31.999Z</time></trkpt><trkpt lat="43.83215427281969" lon="10.937106320012512"><ele>456.0</ele><time>2026-03-22T10:28:38.999Z</time></trkpt><trkpt lat="43.832091838714945" lon="10.937078091459304"><ele>457.99999999999994</ele><time>2026-03-22T10:28:47.999Z</time></trkpt><trkpt lat="43.832031260287636" lon="10.937038871597014"><ele>459.99999999999994</ele><time>2026-03-22T10:28:54.999Z</time></trkpt><trkpt lat="43.831962474070195" lon="10.937036317839524"><ele>459.99999999999994</ele><time>2026-03-22T10:29:02.999Z</time></trkpt><trkpt lat="43.83189427957202" lon="10.93700374029605"><ele>460.0</ele><time>2026-03-22T10:29:09.999Z</time></trkpt><trkpt lat="43.83180971928334" lon="10.93698009867872"><ele>459.99999999999994</ele><time>2026-03-22T10:29:16.999Z</time></trkpt><trkpt lat="43.83173728260512" lon="10.936973122599376"><ele>459.99999999999994</ele><time>2026-03-22T10:29:24.999Z</time></trkpt><trkpt lat="43.831673576722615" lon="10.936971455338911"><ele>460.0</ele><time>2026-03-22T10:29:31Z</time></trkpt><trkpt lat="43.831605297249176" lon="10.936943608505102"><ele>459.99999999999994</ele><time>2026-03-22T10:29:39Z</time></trkpt><trkpt lat="43.83154040634919" lon="10.936930201113537"><ele>459.99999999999994</ele><time>2026-03-22T10:29:46Z</time></trkpt><trkpt lat="43.83147315116761" lon="10.936914137237139"><ele>462.5714285714285</ele><time>2026-03-22T10:29:53Z</time></trkpt><trkpt lat="43.831403376212954" lon="10.936942606604802"><ele>465.1428571428571</ele><time>2026-03-22T10:29:59Z</time></trkpt><trkpt lat="43.831346810316845" lon="10.936998400093632"><ele>467.7142857142857</ele><time>2026-03-22T10:30:05Z</time></trkpt><trkpt lat="43.83129431145353" lon="10.937059195582355"><ele>470.2857142857143</ele><time>2026-03-22T10:30:11Z</time></trkpt><trkpt lat="43.8312500822891" lon="10.937136091043623"><ele>472.8571428571429</ele><time>2026-03-22T10:30:17Z</time></trkpt><trkpt lat="43.83118660656379" lon="10.93718324709136"><ele>475.4285714285715</ele><time>2026-03-22T10:30:22.999Z</time></trkpt><trkpt lat="43.831124577291206" lon="10.937221688501172"><ele>478.00000000000006</ele><time>2026-03-22T10:30:28.999Z</time></trkpt><trkpt lat="43.83105366039775" lon="10.937251451910184"><ele>479.00000000000006</ele><time>2026-03-22T10:30:34.999Z</time></trkpt><trkpt lat="43.830973132856144" lon="10.937260764428068"><ele>480.0</ele><time>2026-03-22T10:30:40.999Z</time></trkpt><trkpt lat="43.8309061841191" lon="10.937275933708014"><ele>481.00000000000006</ele><time>2026-03-22T10:30:46.999Z</time></trkpt><trkpt lat="43.830843991545066" lon="10.937291071796716"><ele>482.00000000000006</ele><time>2026-03-22T10:30:51.999Z</time></trkpt><trkpt lat="43.83077242729806" lon="10.937330284712985"><ele>483.0</ele><time>2026-03-22T10:30:56.999Z</time></trkpt><trkpt lat="43.83069336290695" lon="10.937343370990217"><ele>484.00000000000006</ele><time>2026-03-22T10:31:03.999Z</time></trkpt><trkpt lat="43.830620689236675" lon="10.937346545263805"><ele>485.00000000000006</ele><time>2026-03-22T10:31:09.999Z</time></trkpt><trkpt lat="43.8305634049151" lon="10.937399227409678"><ele>485.00000000000006</ele><time>2026-03-22T10:31:14.999Z</time></trkpt><trkpt lat="43.83051517648171" lon="10.93746312356483"><ele>485.0</ele><time>2026-03-22T10:31:18.999Z</time></trkpt><trkpt lat="43.83047947859492" lon="10.937548764105705"><ele>485.00000000000006</ele><time>2026-03-22T10:31:22.999Z</time></trkpt><trkpt lat="43.830431380745644" lon="10.93764029697987"><ele>485.00000000000006</ele><time>2026-03-22T10:31:27.999Z</time></trkpt><trkpt lat="43.83039896372248" lon="10.937730162454512"><ele>485.0</ele><time>2026-03-22T10:31:31.999Z</time></trkpt><trkpt lat="43.83036444205327" lon="10.937817361384662"><ele>485.00000000000006</ele><time>2026-03-22T10:31:36Z</time></trkpt><trkpt lat="43.830325675720104" lon="10.937899334596725"><ele>485.00000000000006</ele><time>2026-03-22T10:31:40Z</time></trkpt><trkpt lat="43.83026679360229" lon="10.937937737475393"><ele>484.28571428571433</ele><time>2026-03-22T10:31:43Z</time></trkpt><trkpt lat="43.83020885654636" lon="10.938000866438406"><ele>483.57142857142856</ele><time>2026-03-22T10:31:47Z</time></trkpt><trkpt lat="43.83015635535017" lon="10.93805729365465"><ele>482.8571428571429</ele><time>2026-03-22T10:31:51Z</time></trkpt><trkpt lat="43.83009979793101" lon="10.938129576885583"><ele>482.14285714285717</ele><time>2026-03-22T10:31:55Z</time></trkpt><trkpt lat="43.83004003619487" lon="10.938205883342977"><ele>481.42857142857144</ele><time>2026-03-22T10:31:59Z</time></trkpt><trkpt lat="43.83000250465383" lon="10.938281452274198"><ele>480.7142857142857</ele><time>2026-03-22T10:32:03Z</time></trkpt><trkpt lat="43.8299465124822" lon="10.938337565626554"><ele>480.0</ele><time>2026-03-22T10:32:07Z</time></trkpt><trkpt lat="43.82990040300035" lon="10.938423596926365"><ele>480.0</ele><time>2026-03-22T10:32:11Z</time></trkpt><trkpt lat="43.82984437734261" lon="10.93846366979967"><ele>480.0</ele><time>2026-03-22T10:32:14Z</time></trkpt><trkpt lat="43.82978677260619" lon="10.938533052260075"><ele>480.0</ele><time>2026-03-22T10:32:18Z</time></trkpt><trkpt lat="43.8297290518658" lon="10.938590425983879"><ele>480.0</ele><time>2026-03-22T10:32:22Z</time></trkpt><trkpt lat="43.82965902247659" lon="10.938642126650175"><ele>480.0</ele><time>2026-03-22T10:32:26Z</time></trkpt><trkpt lat="43.829595932921904" lon="10.938678253089874"><ele>480.0</ele><time>2026-03-22T10:32:30Z</time></trkpt><trkpt lat="43.82952880710536" lon="10.938680707984446"><ele>480.0</ele><time>2026-03-22T10:32:34Z</time></trkpt><trkpt lat="43.829473834822004" lon="10.938611248867605"><ele>480.0</ele><time>2026-03-22T10:32:37.999Z</time></trkpt><trkpt lat="43.82941788107541" lon="10.938543391444567"><ele>480.0</ele><time>2026-03-22T10:32:42.999Z</time></trkpt><trkpt lat="43.82936718518297" lon="10.938463405342898"><ele>480.0</ele><time>2026-03-22T10:32:47.999Z</time></trkpt><trkpt lat="43.82931109935968" lon="10.938422383200445"><ele>480.0</ele><time>2026-03-22T10:32:50.999Z</time></trkpt><trkpt lat="43.8292563816212" lon="10.938347013490837"><ele>480.0</ele><time>2026-03-22T10:32:54.999Z</time></trkpt><trkpt lat="43.82919976919005" lon="10.938298969108708"><ele>480.0</ele><time>2026-03-22T10:32:58.999Z</time></trkpt><trkpt lat="43.829130633829756" lon="10.938236791793463"><ele>480.0</ele><time>2026-03-22T10:33:03.999Z</time></trkpt><trkpt lat="43.82908173312897" lon="10.938164770850564"><ele>479.0</ele><time>2026-03-22T10:33:08.999Z</time></trkpt><trkpt lat="43.82902141051234" lon="10.938116778035354"><ele>478.0</ele><time>2026-03-22T10:33:12.999Z</time></trkpt><trkpt lat="43.82896144766605" lon="10.938089256164915"><ele>477.0</ele><time>2026-03-22T10:33:16.999Z</time></trkpt><trkpt lat="43.82887893742368" lon="10.938076456145541"><ele>476.0</ele><time>2026-03-22T10:33:21.999Z</time></trkpt><trkpt lat="43.82880654305454" lon="10.938054410243671"><ele>475.0</ele><time>2026-03-22T10:33:25.999Z</time></trkpt><trkpt lat="43.82872327038815" lon="10.938021000460198"><ele>474.0</ele><time>2026-03-22T10:33:30.999Z</time></trkpt><trkpt lat="43.82865379817468" lon="10.937991275876152"><ele>473.0</ele><time>2026-03-22T10:33:34.999Z</time></trkpt><trkpt lat="43.828577398833" lon="10.937968804619947"><ele>473.0</ele><time>2026-03-22T10:33:38.999Z</time></trkpt><trkpt lat="43.82849535504793" lon="10.937972702608164"><ele>473.0</ele><time>2026-03-22T10:33:43Z</time></trkpt><trkpt lat="43.82842097145825" lon="10.937989262630335"><ele>473.0</ele><time>2026-03-22T10:33:47Z</time></trkpt><trkpt lat="43.82835726350904" lon="10.937979226962137"><ele>473.0</ele><time>2026-03-22T10:33:50Z</time></trkpt><trkpt lat="43.82829220684579" lon="10.937982026864166"><ele>473.0</ele><time>2026-03-22T10:33:53Z</time></trkpt><trkpt lat="43.82821742969509" lon="10.93800394549273"><ele>473.0</ele><time>2026-03-22T10:33:57Z</time></trkpt><trkpt lat="43.828150273835135" lon="10.938070979481848"><ele>473.0</ele><time>2026-03-22T10:34:01Z</time></trkpt><trkpt lat="43.828086479499255" lon="10.938134798600915"><ele>474.42857142857144</ele><time>2026-03-22T10:34:05Z</time></trkpt><trkpt lat="43.82804007968041" lon="10.93819561945846"><ele>475.85714285714283</ele><time>2026-03-22T10:34:08Z</time></trkpt><trkpt lat="43.827983534436115" lon="10.938255234523199"><ele>477.2857142857143</ele><time>2026-03-22T10:34:12Z</time></trkpt><trkpt lat="43.8279318318368" lon="10.938328153276663"><ele>478.7142857142857</ele><time>2026-03-22T10:34:16Z</time></trkpt><trkpt lat="43.82787016244389" lon="10.938379963553583"><ele>480.1428571428571</ele><time>2026-03-22T10:34:20Z</time></trkpt><trkpt lat="43.82781408521373" lon="10.938463150386518"><ele>481.57142857142856</ele><time>2026-03-22T10:34:24Z</time></trkpt><trkpt lat="43.82778492490469" lon="10.938550569246326"><ele>483.0</ele><time>2026-03-22T10:34:28Z</time></trkpt><trkpt lat="43.827761849982394" lon="10.938650201092639"><ele>483.42857142857144</ele><time>2026-03-22T10:34:32Z</time></trkpt><trkpt lat="43.82774225119773" lon="10.938758881135403"><ele>483.8571428571429</ele><time>2026-03-22T10:34:37Z</time></trkpt><trkpt lat="43.827722025255" lon="10.938847045856239"><ele>484.2857142857143</ele><time>2026-03-22T10:34:41Z</time></trkpt><trkpt lat="43.827700737247255" lon="10.938937334189188"><ele>484.7142857142857</ele><time>2026-03-22T10:34:45.999Z</time></trkpt><trkpt lat="43.827651693823356" lon="10.939001342390156"><ele>485.14285714285717</ele><time>2026-03-22T10:34:51.999Z</time></trkpt><trkpt lat="43.82758385588913" lon="10.939020644321001"><ele>485.57142857142856</ele><time>2026-03-22T10:34:58.999Z</time></trkpt><trkpt lat="43.82751459687454" lon="10.939034243883997"><ele>486.0</ele><time>2026-03-22T10:35:08.999Z</time></trkpt><trkpt lat="43.82745859810173" lon="10.9390884909282"><ele>486.0</ele><time>2026-03-22T10:35:14.999Z</time></trkpt><trkpt lat="43.82739571319248" lon="10.939104381047246"><ele>486.0</ele><time>2026-03-22T10:35:21.999Z</time></trkpt><trkpt lat="43.82732946901043" lon="10.939084600866275"><ele>486.0</ele><time>2026-03-22T10:35:28.999Z</time></trkpt><trkpt lat="43.827271549747756" lon="10.939021580113035"><ele>486.0</ele><time>2026-03-22T10:35:35.999Z</time></trkpt><trkpt lat="43.82720578892956" lon="10.93901336117011"><ele>486.0</ele><time>2026-03-22T10:35:42.999Z</time></trkpt><trkpt lat="43.82713925081478" lon="10.93901174952087"><ele>486.0</ele><time>2026-03-22T10:35:49Z</time></trkpt><trkpt lat="43.82706841966046" lon="10.93902423135416"><ele>486.0</ele><time>2026-03-22T10:35:54Z</time></trkpt><trkpt lat="43.82701068093676" lon="10.939066295769031"><ele>486.0</ele><time>2026-03-22T10:35:59Z</time></trkpt><trkpt lat="43.826935837356764" lon="10.939087606322087"><ele>486.0</ele><time>2026-03-22T10:36:05Z</time></trkpt><trkpt lat="43.826865416311804" lon="10.939138303697181"><ele>486.0</ele><time>2026-03-22T10:36:10Z</time></trkpt><trkpt lat="43.826795689789705" lon="10.939173800182996"><ele>486.0</ele><time>2026-03-22T10:36:15Z</time></trkpt><trkpt lat="43.82672649698939" lon="10.939220415758482"><ele>486.0</ele><time>2026-03-22T10:36:20Z</time></trkpt><trkpt lat="43.82666965255397" lon="10.939268096657738"><ele>486.0</ele><time>2026-03-22T10:36:25Z</time></trkpt><trkpt lat="43.82661711392544" lon="10.93933670145891"><ele>486.0</ele><time>2026-03-22T10:36:30Z</time></trkpt><trkpt lat="43.826564420500304" lon="10.93939822470248"><ele>487.42857142857144</ele><time>2026-03-22T10:36:35Z</time></trkpt><trkpt lat="43.82650307062759" lon="10.939449918842982"><ele>488.8571428571429</ele><time>2026-03-22T10:36:40Z</time></trkpt><trkpt lat="43.82644676136225" lon="10.939495795832926"><ele>490.28571428571433</ele><time>2026-03-22T10:36:44.999Z</time></trkpt><trkpt lat="43.82638003974934" lon="10.939560441904645"><ele>491.7142857142857</ele><time>2026-03-22T10:36:50.999Z</time></trkpt><trkpt lat="43.82631327850472" lon="10.939580686464836"><ele>493.1428571428572</ele><time>2026-03-22T10:36:55.999Z</time></trkpt><trkpt lat="43.82624798588818" lon="10.939606210028842"><ele>494.5714285714286</ele><time>2026-03-22T10:37:01.999Z</time></trkpt><trkpt lat="43.826187364228396" lon="10.939642935308504"><ele>496.0</ele><time>2026-03-22T10:37:07.999Z</time></trkpt><trkpt lat="43.82611907335594" lon="10.939655819730566"><ele>496.0</ele><time>2026-03-22T10:37:13.999Z</time></trkpt><trkpt lat="43.82604988359673" lon="10.939667047531389"><ele>496.00000000000006</ele><time>2026-03-22T10:37:22.999Z</time></trkpt><trkpt lat="43.825984207302184" lon="10.939643225190247"><ele>496.0</ele><time>2026-03-22T10:37:28.999Z</time></trkpt><trkpt lat="43.82591178041792" lon="10.939643381129478"><ele>496.0</ele><time>2026-03-22T10:37:34.999Z</time></trkpt><trkpt lat="43.825834089202736" lon="10.93963686082776"><ele>496.00000000000006</ele><time>2026-03-22T10:37:41.999Z</time></trkpt><trkpt lat="43.82576493548977" lon="10.939669266926082"><ele>496.0</ele><time>2026-03-22T10:37:47.999Z</time></trkpt><trkpt lat="43.82570740438671" lon="10.939722554859067"><ele>496.0</ele><time>2026-03-22T10:37:52Z</time></trkpt><trkpt lat="43.825660163306175" lon="10.939784558838758"><ele>498.14285714285717</ele><time>2026-03-22T10:37:57Z</time></trkpt><trkpt lat="43.825601445178336" lon="10.93985259002454"><ele>500.28571428571433</ele><time>2026-03-22T10:38:02Z</time></trkpt><trkpt lat="43.82554772366203" lon="10.939909205460246"><ele>502.42857142857144</ele><time>2026-03-22T10:38:07Z</time></trkpt><trkpt lat="43.82549817409925" lon="10.93996554514364"><ele>504.57142857142856</ele><time>2026-03-22T10:38:12Z</time></trkpt><trkpt lat="43.825441592981015" lon="10.940010295885799"><ele>506.7142857142857</ele><time>2026-03-22T10:38:17Z</time></trkpt><trkpt lat="43.8253884649769" lon="10.940063373224348"><ele>508.8571428571429</ele><time>2026-03-22T10:38:21Z</time></trkpt><trkpt lat="43.825328167388896" lon="10.940118195444896"><ele>511.0</ele><time>2026-03-22T10:38:26Z</time></trkpt><trkpt lat="43.82526951099886" lon="10.940186938172875"><ele>511.7142857142857</ele><time>2026-03-22T10:38:31Z</time></trkpt><trkpt lat="43.82520901777644" lon="10.9402212857983"><ele>512.4285714285714</ele><time>2026-03-22T10:38:35Z</time></trkpt><trkpt lat="43.82516451202322" lon="10.940287191054054"><ele>513.1428571428571</ele><time>2026-03-22T10:38:39Z</time></trkpt><trkpt lat="43.82511573179906" lon="10.940363079343227"><ele>513.8571428571429</ele><time>2026-03-22T10:38:45Z</time></trkpt><trkpt lat="43.82507703421925" lon="10.940437955189324"><ele>514.5714285714286</ele><time>2026-03-22T10:38:49.999Z</time></trkpt><trkpt lat="43.82504043162789" lon="10.940513095073673"><ele>515.2857142857142</ele><time>2026-03-22T10:38:53.999Z</time></trkpt><trkpt lat="43.82499611960898" lon="10.940587821612775"><ele>516.0</ele><time>2026-03-22T10:38:57.999Z</time></trkpt><trkpt lat="43.824958249551884" lon="10.940660690665629"><ele>516.1428571428571</ele><time>2026-03-22T10:39:01.999Z</time></trkpt><trkpt lat="43.82490783351543" lon="10.940734956334637"><ele>516.2857142857142</ele><time>2026-03-22T10:39:08.999Z</time></trkpt><trkpt lat="43.82485939319752" lon="10.940799390386177"><ele>516.4285714285714</ele><time>2026-03-22T10:39:14.999Z</time></trkpt><trkpt lat="43.82479985634403" lon="10.940862352309468"><ele>516.5714285714286</ele><time>2026-03-22T10:39:20.999Z</time></trkpt><trkpt lat="43.82473227293053" lon="10.940913210289576"><ele>516.7142857142858</ele><time>2026-03-22T10:39:27.999Z</time></trkpt><trkpt lat="43.824662823693785" lon="10.940943164635055"><ele>516.8571428571429</ele><time>2026-03-22T10:39:33.999Z</time></trkpt><trkpt lat="43.824589892514815" lon="10.94095735700426"><ele>517.0</ele><time>2026-03-22T10:39:39.999Z</time></trkpt><trkpt lat="43.82452719458417" lon="10.940985141598768"><ele>516.5714285714286</ele><time>2026-03-22T10:39:44.999Z</time></trkpt><trkpt lat="43.824465618006094" lon="10.941018532898523"><ele>516.1428571428572</ele><time>2026-03-22T10:39:49.999Z</time></trkpt><trkpt lat="43.824404037222564" lon="10.941037815330892"><ele>515.7142857142858</ele><time>2026-03-22T10:39:53.999Z</time></trkpt><trkpt lat="43.8243464095036" lon="10.941075549575523"><ele>515.2857142857143</ele><time>2026-03-22T10:39:58Z</time></trkpt><trkpt lat="43.8242736166331" lon="10.941113993481121"><ele>514.8571428571429</ele><time>2026-03-22T10:40:03Z</time></trkpt><trkpt lat="43.82421869924128" lon="10.941160905063434"><ele>514.4285714285714</ele><time>2026-03-22T10:40:07Z</time></trkpt><trkpt lat="43.82415158535288" lon="10.941216329954676"><ele>514.0</ele><time>2026-03-22T10:40:11Z</time></trkpt><trkpt lat="43.824077463898526" lon="10.941259413496226"><ele>513.2857142857142</ele><time>2026-03-22T10:40:15Z</time></trkpt><trkpt lat="43.8240112000567" lon="10.941315899942603"><ele>512.5714285714286</ele><time>2026-03-22T10:40:19Z</time></trkpt><trkpt lat="43.823946815161285" lon="10.941350530596381"><ele>511.85714285714283</ele><time>2026-03-22T10:40:23Z</time></trkpt><trkpt lat="43.82387418611892" lon="10.941382929941822"><ele>511.1428571428571</ele><time>2026-03-22T10:40:27Z</time></trkpt><trkpt lat="43.82381056226061" lon="10.941422000708329"><ele>510.42857142857144</ele><time>2026-03-22T10:40:31Z</time></trkpt><trkpt lat="43.82373854848033" lon="10.941483683458353"><ele>509.71428571428567</ele><time>2026-03-22T10:40:35Z</time></trkpt><trkpt lat="43.82368124836128" lon="10.941521499760297"><ele>508.99999999999994</ele><time>2026-03-22T10:40:38Z</time></trkpt><trkpt lat="43.823636836376814" lon="10.941595394581734"><ele>508.99999999999994</ele><time>2026-03-22T10:40:41Z</time></trkpt><trkpt lat="43.82359624641682" lon="10.941669120957176"><ele>509.0</ele><time>2026-03-22T10:40:44Z</time></trkpt><trkpt lat="43.823551935215534" lon="10.941745604044632"><ele>508.99999999999994</ele><time>2026-03-22T10:40:47Z</time></trkpt><trkpt lat="43.82352163181682" lon="10.941825000281986"><ele>508.99999999999994</ele><time>2026-03-22T10:40:50Z</time></trkpt><trkpt lat="43.82348994121735" lon="10.941907813003963"><ele>509.0</ele><time>2026-03-22T10:40:53Z</time></trkpt><trkpt lat="43.82345592095646" lon="10.941990369809387"><ele>508.99999999999994</ele><time>2026-03-22T10:40:55.999Z</time></trkpt><trkpt lat="43.823428830074135" lon="10.942094449018214"><ele>508.99999999999994</ele><time>2026-03-22T10:40:59.999Z</time></trkpt><trkpt lat="43.8233971592743" lon="10.942190833083796"><ele>509.2857142857142</ele><time>2026-03-22T10:41:03.999Z</time></trkpt><trkpt lat="43.82336560850724" lon="10.942270791165852"><ele>509.57142857142856</ele><time>2026-03-22T10:41:06.999Z</time></trkpt><trkpt lat="43.82332846269827" lon="10.942354729137234"><ele>509.85714285714283</ele><time>2026-03-22T10:41:09.999Z</time></trkpt><trkpt lat="43.8232898433989" lon="10.94244521280869"><ele>510.1428571428571</ele><time>2026-03-22T10:41:13.999Z</time></trkpt><trkpt lat="43.82324532663742" lon="10.94251061689727"><ele>510.42857142857144</ele><time>2026-03-22T10:41:16.999Z</time></trkpt><trkpt lat="43.82320486402667" lon="10.942584864058157"><ele>510.7142857142857</ele><time>2026-03-22T10:41:19.999Z</time></trkpt><trkpt lat="43.82313244665601" lon="10.94262959653442"><ele>511.0</ele><time>2026-03-22T10:41:24.999Z</time></trkpt><trkpt lat="43.82306311213099" lon="10.94267480610783"><ele>509.57142857142856</ele><time>2026-03-22T10:41:28.999Z</time></trkpt><trkpt lat="43.82300530015115" lon="10.94273183397487"><ele>508.1428571428571</ele><time>2026-03-22T10:41:32.999Z</time></trkpt><trkpt lat="43.82295190828929" lon="10.942779554399584"><ele>506.7142857142857</ele><time>2026-03-22T10:41:35.999Z</time></trkpt><trkpt lat="43.82289432144509" lon="10.942842530997675"><ele>505.2857142857143</ele><time>2026-03-22T10:41:39.999Z</time></trkpt><trkpt lat="43.82284768899602" lon="10.942907848735144"><ele>503.85714285714283</ele><time>2026-03-22T10:41:42.999Z</time></trkpt><trkpt lat="43.82280489874623" lon="10.942973274929091"><ele>502.42857142857144</ele><time>2026-03-22T10:41:45.999Z</time></trkpt><trkpt lat="43.82274176829542" lon="10.943058904090627"><ele>501.0</ele><time>2026-03-22T10:41:49.999Z</time></trkpt><trkpt lat="43.82268718632334" lon="10.943142909470845"><ele>501.0</ele><time>2026-03-22T10:41:53.999Z</time></trkpt><trkpt lat="43.82265825000746" lon="10.943238920347504"><ele>501.0</ele><time>2026-03-22T10:41:57.999Z</time></trkpt><trkpt lat="43.82263284861144" lon="10.943332098898322"><ele>501.0</ele><time>2026-03-22T10:42:01.999Z</time></trkpt><trkpt lat="43.82259015901215" lon="10.943449620891677"><ele>501.0</ele><time>2026-03-22T10:42:07Z</time></trkpt><trkpt lat="43.82255509497101" lon="10.94354515650378"><ele>501.0</ele><time>2026-03-22T10:42:11Z</time></trkpt><trkpt lat="43.82251132139169" lon="10.943616983045667"><ele>501.0</ele><time>2026-03-22T10:42:14Z</time></trkpt><trkpt lat="43.82246375404679" lon="10.94370609378632"><ele>502.5</ele><time>2026-03-22T10:42:18Z</time></trkpt><trkpt lat="43.8224156958188" lon="10.943804073513142"><ele>504.0</ele><time>2026-03-22T10:42:22Z</time></trkpt><trkpt lat="43.82237814583768" lon="10.943893299784207"><ele>505.5</ele><time>2026-03-22T10:42:26Z</time></trkpt><trkpt lat="43.822343717284724" lon="10.9439879437407"><ele>507.0</ele><time>2026-03-22T10:42:30Z</time></trkpt><trkpt lat="43.82230765044347" lon="10.944060213628129"><ele>508.5</ele><time>2026-03-22T10:42:33Z</time></trkpt><trkpt lat="43.82226709895518" lon="10.944160088071952"><ele>510.0</ele><time>2026-03-22T10:42:37Z</time></trkpt><trkpt lat="43.82220988607406" lon="10.944237810044198"><ele>510.5714285714286</ele><time>2026-03-22T10:42:41Z</time></trkpt><trkpt lat="43.82216432550925" lon="10.944314857554382"><ele>511.1428571428572</ele><time>2026-03-22T10:42:45Z</time></trkpt><trkpt lat="43.822113672963894" lon="10.944376669633684"><ele>511.7142857142857</ele><time>2026-03-22T10:42:50Z</time></trkpt><trkpt lat="43.82206505689659" lon="10.944434327703553"><ele>512.2857142857143</ele><time>2026-03-22T10:42:55Z</time></trkpt><trkpt lat="43.82200674331316" lon="10.944505630840267"><ele>512.8571428571429</ele><time>2026-03-22T10:43:00.999Z</time></trkpt><trkpt lat="43.82195675582698" lon="10.944572231133257"><ele>513.4285714285714</ele><time>2026-03-22T10:43:07.999Z</time></trkpt><trkpt lat="43.82191846229952" lon="10.944657055055607"><ele>514.0</ele><time>2026-03-22T10:43:13.999Z</time></trkpt><trkpt lat="43.82187448612065" lon="10.944724779413738"><ele>514.0</ele><time>2026-03-22T10:43:18.999Z</time></trkpt><trkpt lat="43.82184240438224" lon="10.944801193289916"><ele>514.0</ele><time>2026-03-22T10:43:23.999Z</time></trkpt><trkpt lat="43.82178771449121" lon="10.944876585100442"><ele>514.0</ele><time>2026-03-22T10:43:28.999Z</time></trkpt><trkpt lat="43.82174942185953" lon="10.94494861631477"><ele>514.0</ele><time>2026-03-22T10:43:32.999Z</time></trkpt><trkpt lat="43.82171338727764" lon="10.945044399868765"><ele>514.0</ele><time>2026-03-22T10:43:37.999Z</time></trkpt><trkpt lat="43.82168376469206" lon="10.945123484489375"><ele>514.0</ele><time>2026-03-22T10:43:41.999Z</time></trkpt><trkpt lat="43.821650270594176" lon="10.945197737914928"><ele>514.0</ele><time>2026-03-22T10:43:46.999Z</time></trkpt><trkpt lat="43.82161113784897" lon="10.945284332683217"><ele>514.0</ele><time>2026-03-22T10:43:52.999Z</time></trkpt><trkpt lat="43.821571429946566" lon="10.945352831948558"><ele>514.0</ele><time>2026-03-22T10:43:57.999Z</time></trkpt><trkpt lat="43.82151398895395" lon="10.945430167293328"><ele>514.0</ele><time>2026-03-22T10:44:03.999Z</time></trkpt><trkpt lat="43.82148223198715" lon="10.945507119431529"><ele>514.0</ele><time>2026-03-22T10:44:08.999Z</time></trkpt><trkpt lat="43.821469152818956" lon="10.945612509525898"><ele>514.0</ele><time>2026-03-22T10:44:14Z</time></trkpt><trkpt lat="43.821465867743434" lon="10.945716447445824"><ele>514.0</ele><time>2026-03-22T10:44:19Z</time></trkpt><trkpt lat="43.82146018479099" lon="10.945811540125364"><ele>514.0</ele><time>2026-03-22T10:44:23Z</time></trkpt><trkpt lat="43.82145250435826" lon="10.945911087323717"><ele>514.0</ele><time>2026-03-22T10:44:28Z</time></trkpt><trkpt lat="43.821436995081" lon="10.946005570730659"><ele>514.0</ele><time>2026-03-22T10:44:33Z</time></trkpt><trkpt lat="43.82142190373754" lon="10.946096234535576"><ele>514.0</ele><time>2026-03-22T10:44:37Z</time></trkpt><trkpt lat="43.82142395740505" lon="10.946190887017579"><ele>514.0</ele><time>2026-03-22T10:44:41Z</time></trkpt><trkpt lat="43.821421480343645" lon="10.946312229422189"><ele>514.0</ele><time>2026-03-22T10:44:46Z</time></trkpt><trkpt lat="43.821436865730234" lon="10.946425160720587"><ele>514.0</ele><time>2026-03-22T10:44:50Z</time></trkpt><trkpt lat="43.82145039184539" lon="10.946534916627392"><ele>514.0</ele><time>2026-03-22T10:44:54Z</time></trkpt><trkpt lat="43.82144491070354" lon="10.94663405131294"><ele>514.0</ele><time>2026-03-22T10:44:58Z</time></trkpt><trkpt lat="43.821428962606625" lon="10.946738448656971"><ele>514.0</ele><time>2026-03-22T10:45:02Z</time></trkpt><trkpt lat="43.82141076996815" lon="10.946829195146641"><ele>514.0</ele><time>2026-03-22T10:45:06Z</time></trkpt><trkpt lat="43.82137748845642" lon="10.946916021835056"><ele>514.0</ele><time>2026-03-22T10:45:09.999Z</time></trkpt><trkpt lat="43.82132303423342" lon="10.946979940594955"><ele>514.0</ele><time>2026-03-22T10:45:13.999Z</time></trkpt><trkpt lat="43.821261198791525" lon="10.947032776811987"><ele>514.0</ele><time>2026-03-22T10:45:17.999Z</time></trkpt><trkpt lat="43.821202598500776" lon="10.947079655553365"><ele>513.5</ele><time>2026-03-22T10:45:21.999Z</time></trkpt><trkpt lat="43.82116765883577" lon="10.947154549815231"><ele>513.0</ele><time>2026-03-22T10:45:24.999Z</time></trkpt><trkpt lat="43.821129667600495" lon="10.947247517928497"><ele>512.5</ele><time>2026-03-22T10:45:28.999Z</time></trkpt><trkpt lat="43.82110181560947" lon="10.947343444307895"><ele>512.0</ele><time>2026-03-22T10:45:32.999Z</time></trkpt><trkpt lat="43.821044630775745" lon="10.947403367621861"><ele>511.50000000000006</ele><time>2026-03-22T10:45:36.999Z</time></trkpt><trkpt lat="43.82096171081932" lon="10.947420601368234"><ele>511.0</ele><time>2026-03-22T10:45:40.999Z</time></trkpt><trkpt lat="43.82090653618411" lon="10.94750201845955"><ele>509.33333333333337</ele><time>2026-03-22T10:45:44.999Z</time></trkpt><trkpt lat="43.82086404772898" lon="10.947600575217853"><ele>507.6666666666667</ele><time>2026-03-22T10:45:48.999Z</time></trkpt><trkpt lat="43.82081584581343" lon="10.9476882972994"><ele>506.0</ele><time>2026-03-22T10:45:52.999Z</time></trkpt><trkpt lat="43.82078304453763" lon="10.947766553754992"><ele>504.33333333333337</ele><time>2026-03-22T10:45:55.999Z</time></trkpt><trkpt lat="43.820751543915435" lon="10.947859024094983"><ele>502.6666666666667</ele><time>2026-03-22T10:45:59.999Z</time></trkpt><trkpt lat="43.820702860467804" lon="10.947939610885681"><ele>501.0</ele><time>2026-03-22T10:46:03.999Z</time></trkpt><trkpt lat="43.82065961711671" lon="10.9480326635722"><ele>501.0</ele><time>2026-03-22T10:46:07.999Z</time></trkpt><trkpt lat="43.82062652338695" lon="10.948117182268879"><ele>501.0</ele><time>2026-03-22T10:46:10.999Z</time></trkpt><trkpt lat="43.820580469102936" lon="10.948213237293315"><ele>501.0</ele><time>2026-03-22T10:46:14.999Z</time></trkpt><trkpt lat="43.82054016403228" lon="10.948312810012908"><ele>501.0</ele><time>2026-03-22T10:46:19Z</time></trkpt><trkpt lat="43.82051563810043" lon="10.948414139704392"><ele>501.0</ele><time>2026-03-22T10:46:23Z</time></trkpt><trkpt lat="43.82049460370234" lon="10.948501052329314"><ele>501.0</ele><time>2026-03-22T10:46:26Z</time></trkpt><trkpt lat="43.82049465909524" lon="10.948610461309032"><ele>500.42857142857144</ele><time>2026-03-22T10:46:30Z</time></trkpt><trkpt lat="43.82050953937253" lon="10.948702051668407"><ele>499.85714285714283</ele><time>2026-03-22T10:46:33Z</time></trkpt><trkpt lat="43.82050740162803" lon="10.948807664044077"><ele>499.2857142857143</ele><time>2026-03-22T10:46:36Z</time></trkpt><trkpt lat="43.820511340823074" lon="10.94891993252998"><ele>498.7142857142857</ele><time>2026-03-22T10:46:40Z</time></trkpt><trkpt lat="43.820487163894335" lon="10.949004151409962"><ele>498.1428571428571</ele><time>2026-03-22T10:46:43Z</time></trkpt><trkpt lat="43.820440180678105" lon="10.949081608714943"><ele>497.57142857142856</ele><time>2026-03-22T10:46:47Z</time></trkpt><trkpt lat="43.820372040523296" lon="10.949131937193393"><ele>497.0</ele><time>2026-03-22T10:46:51Z</time></trkpt><trkpt lat="43.820302479913856" lon="10.949182987038894"><ele>496.8333333333333</ele><time>2026-03-22T10:46:54Z</time></trkpt><trkpt lat="43.820305050119195" lon="10.949296726981151"><ele>496.66666666666663</ele><time>2026-03-22T10:46:58Z</time></trkpt><trkpt lat="43.820300169538385" lon="10.949410831614504"><ele>496.5</ele><time>2026-03-22T10:47:02Z</time></trkpt><trkpt lat="43.8202903035273" lon="10.949508645271884"><ele>496.33333333333337</ele><time>2026-03-22T10:47:05Z</time></trkpt><trkpt lat="43.82028707693439" lon="10.949602192629353"><ele>496.1666666666667</ele><time>2026-03-22T10:47:08Z</time></trkpt><trkpt lat="43.820275270886775" lon="10.949712975247124"><ele>496.0</ele><time>2026-03-22T10:47:11.999Z</time></trkpt><trkpt lat="43.82027097473655" lon="10.949823113481528"><ele>496.0</ele><time>2026-03-22T10:47:15.999Z</time></trkpt><trkpt lat="43.82025587284723" lon="10.949909552570722"><ele>496.00000000000006</ele><time>2026-03-22T10:47:18.999Z</time></trkpt><trkpt lat="43.82020829928766" lon="10.949970260214572"><ele>496.0</ele><time>2026-03-22T10:47:22.999Z</time></trkpt><trkpt lat="43.82013863067041" lon="10.949936025515036"><ele>496.0</ele><time>2026-03-22T10:47:26.999Z</time></trkpt><trkpt lat="43.820095766556946" lon="10.949850791393466"><ele>496.00000000000006</ele><time>2026-03-22T10:47:31.999Z</time></trkpt><trkpt lat="43.820036359524" lon="10.949776098557633"><ele>496.0</ele><time>2026-03-22T10:47:36.999Z</time></trkpt><trkpt lat="43.81996812767434" lon="10.949727239097978"><ele>496.0</ele><time>2026-03-22T10:47:40.999Z</time></trkpt><trkpt lat="43.819890344407554" lon="10.949688368818391"><ele>494.50000000000006</ele><time>2026-03-22T10:47:44.999Z</time></trkpt><trkpt lat="43.819815256836335" lon="10.949628028063941"><ele>493.0</ele><time>2026-03-22T10:47:48.999Z</time></trkpt><trkpt lat="43.819743844131374" lon="10.949619862363082"><ele>491.5</ele><time>2026-03-22T10:47:52.999Z</time></trkpt><trkpt lat="43.81966861792723" lon="10.94957533503747"><ele>490.0</ele><time>2026-03-22T10:47:56.999Z</time></trkpt><trkpt lat="43.81960158363865" lon="10.949530175497165"><ele>488.50000000000006</ele><time>2026-03-22T10:48:00.999Z</time></trkpt><trkpt lat="43.81953322938969" lon="10.949475394630987"><ele>487.0</ele><time>2026-03-22T10:48:04.999Z</time></trkpt><trkpt lat="43.81947160675531" lon="10.9494268684682"><ele>487.0</ele><time>2026-03-22T10:48:12.999Z</time></trkpt><trkpt lat="43.81943546436884" lon="10.949352755531274"><ele>487.0</ele><time>2026-03-22T10:48:16.999Z</time></trkpt><trkpt lat="43.81942578605265" lon="10.949257553712135"><ele>487.0</ele><time>2026-03-22T10:48:20.999Z</time></trkpt><trkpt lat="43.819403426532816" lon="10.949168601923983"><ele>487.0</ele><time>2026-03-22T10:48:24Z</time></trkpt><trkpt lat="43.819368751970764" lon="10.949095630685544"><ele>487.0</ele><time>2026-03-22T10:48:28Z</time></trkpt><trkpt lat="43.81932956040331" lon="10.949020838669378"><ele>487.0</ele><time>2026-03-22T10:48:32Z</time></trkpt><trkpt lat="43.81929071118074" lon="10.94893016969744"><ele>487.0</ele><time>2026-03-22T10:48:37Z</time></trkpt><trkpt lat="43.819251482101535" lon="10.948853267845813"><ele>486.57142857142856</ele><time>2026-03-22T10:48:42Z</time></trkpt><trkpt lat="43.81922420773307" lon="10.948773902279807"><ele>486.1428571428571</ele><time>2026-03-22T10:48:47Z</time></trkpt><trkpt lat="43.8191999393128" lon="10.948693360904834"><ele>485.71428571428567</ele><time>2026-03-22T10:48:52Z</time></trkpt><trkpt lat="43.819168975525976" lon="10.948595658106772"><ele>485.2857142857143</ele><time>2026-03-22T10:48:58Z</time></trkpt><trkpt lat="43.81912528282694" lon="10.948515849733873"><ele>484.8571428571428</ele><time>2026-03-22T10:49:03Z</time></trkpt><trkpt lat="43.81908365513477" lon="10.948443929422872"><ele>484.4285714285714</ele><time>2026-03-22T10:49:08Z</time></trkpt><trkpt lat="43.81904735528736" lon="10.948363977753058"><ele>484.0</ele><time>2026-03-22T10:49:13Z</time></trkpt><trkpt lat="43.81901102024582" lon="10.94827983328739"><ele>484.0</ele><time>2026-03-22T10:49:17.999Z</time></trkpt><trkpt lat="43.81896846219421" lon="10.948191840482215"><ele>483.99999999999994</ele><time>2026-03-22T10:49:23.999Z</time></trkpt><trkpt lat="43.8189305485951" lon="10.948118724514133"><ele>484.0</ele><time>2026-03-22T10:49:29.999Z</time></trkpt><trkpt lat="43.81890165105708" lon="10.948023530586669"><ele>484.0</ele><time>2026-03-22T10:49:35.999Z</time></trkpt><trkpt lat="43.81888867917405" lon="10.947929703607029"><ele>483.99999999999994</ele><time>2026-03-22T10:49:41.999Z</time></trkpt><trkpt lat="43.818868867011524" lon="10.947828104935843"><ele>484.0</ele><time>2026-03-22T10:49:47.999Z</time></trkpt><trkpt lat="43.81885434034111" lon="10.947737803977613"><ele>484.0</ele><time>2026-03-22T10:49:53.999Z</time></trkpt><trkpt lat="43.81881982357265" lon="10.947662216259348"><ele>484.0</ele><time>2026-03-22T10:49:58.999Z</time></trkpt><trkpt lat="43.81878871660204" lon="10.947580876276167"><ele>483.99999999999994</ele><time>2026-03-22T10:50:04.999Z</time></trkpt><trkpt lat="43.81875026533709" lon="10.94749376716411"><ele>484.0</ele><time>2026-03-22T10:50:09.999Z</time></trkpt><trkpt lat="43.818703244032" lon="10.9474301041855"><ele>484.0</ele><time>2026-03-22T10:50:15.999Z</time></trkpt><trkpt lat="43.81864464343512" lon="10.947389105545334"><ele>483.99999999999994</ele><time>2026-03-22T10:50:22.999Z</time></trkpt><trkpt lat="43.818582756624274" lon="10.947354366925035"><ele>484.0</ele><time>2026-03-22T10:50:28Z</time></trkpt><trkpt lat="43.81852499121778" lon="10.9473073512233"><ele>484.0</ele><time>2026-03-22T10:50:35Z</time></trkpt><trkpt lat="43.81845773031841" lon="10.94727287466648"><ele>483.71428571428567</ele><time>2026-03-22T10:50:40Z</time></trkpt><trkpt lat="43.81840265433331" lon="10.947208458373662"><ele>483.4285714285714</ele><time>2026-03-22T10:50:46Z</time></trkpt><trkpt lat="43.818332887975075" lon="10.947156705038894"><ele>483.1428571428571</ele><time>2026-03-22T10:50:51Z</time></trkpt><trkpt lat="43.81826767272294" lon="10.947113693303855"><ele>482.8571428571429</ele><time>2026-03-22T10:50:57Z</time></trkpt><trkpt lat="43.81820483541963" lon="10.947098192773312"><ele>482.5714285714286</ele><time>2026-03-22T10:51:02Z</time></trkpt><trkpt lat="43.81814242517151" lon="10.947075158157235"><ele>482.28571428571433</ele><time>2026-03-22T10:51:07Z</time></trkpt><trkpt lat="43.8180678479697" lon="10.94704269682066"><ele>482.0</ele><time>2026-03-22T10:51:12Z</time></trkpt><trkpt lat="43.81800555322879" lon="10.947056510882264"><ele>482.0</ele><time>2026-03-22T10:51:16Z</time></trkpt><trkpt lat="43.81794299467351" lon="10.94703104317252"><ele>482.00000000000006</ele><time>2026-03-22T10:51:20Z</time></trkpt><trkpt lat="43.817866720217616" lon="10.947002202238618"><ele>482.0</ele><time>2026-03-22T10:51:25Z</time></trkpt><trkpt lat="43.81780152655119" lon="10.946965291476825"><ele>482.0</ele><time>2026-03-22T10:51:30Z</time></trkpt><trkpt lat="43.81773952539618" lon="10.946914536204833"><ele>482.00000000000006</ele><time>2026-03-22T10:51:34.999Z</time></trkpt><trkpt lat="43.817671999308146" lon="10.946871205355611"><ele>482.0</ele><time>2026-03-22T10:51:39.999Z</time></trkpt><trkpt lat="43.81759864126033" lon="10.946862959574037"><ele>482.0</ele><time>2026-03-22T10:51:44.999Z</time></trkpt><trkpt lat="43.81752584368785" lon="10.946880136142914"><ele>481.14285714285717</ele><time>2026-03-22T10:51:49.999Z</time></trkpt><trkpt lat="43.81745810962455" lon="10.946845652567237"><ele>480.28571428571433</ele><time>2026-03-22T10:51:54.999Z</time></trkpt><trkpt lat="43.81738682098394" lon="10.946814645084286"><ele>479.42857142857144</ele><time>2026-03-22T10:51:59.999Z</time></trkpt><trkpt lat="43.817314035140896" lon="10.946777091059834"><ele>478.57142857142856</ele><time>2026-03-22T10:52:05.999Z</time></trkpt><trkpt lat="43.81725329625449" lon="10.946715526086686"><ele>477.7142857142857</ele><time>2026-03-22T10:52:11.999Z</time></trkpt><trkpt lat="43.817199644355" lon="10.9466484284181"><ele>476.8571428571429</ele><time>2026-03-22T10:52:16.999Z</time></trkpt><trkpt lat="43.817146118567976" lon="10.94658543242343"><ele>476.0</ele><time>2026-03-22T10:52:21.999Z</time></trkpt><trkpt lat="43.81708588795985" lon="10.946521248582204"><ele>475.57142857142856</ele><time>2026-03-22T10:52:26.999Z</time></trkpt><trkpt lat="43.817052473812176" lon="10.946431971293107"><ele>475.1428571428571</ele><time>2026-03-22T10:52:31.999Z</time></trkpt><trkpt lat="43.816992604757104" lon="10.946385551897997"><ele>474.7142857142857</ele><time>2026-03-22T10:52:37Z</time></trkpt><trkpt lat="43.81692768660223" lon="10.946343204596829"><ele>474.2857142857143</ele><time>2026-03-22T10:52:42Z</time></trkpt><trkpt lat="43.81686158667855" lon="10.946323669049415"><ele>473.85714285714283</ele><time>2026-03-22T10:52:47Z</time></trkpt><trkpt lat="43.81680760727718" lon="10.946272736279663"><ele>473.42857142857144</ele><time>2026-03-22T10:52:51Z</time></trkpt><trkpt lat="43.81674888692057" lon="10.946224557321013"><ele>473.0</ele><time>2026-03-22T10:52:55Z</time></trkpt><trkpt lat="43.816686319635515" lon="10.946190365041938"><ele>473.0</ele><time>2026-03-22T10:52:59Z</time></trkpt><trkpt lat="43.816625659485716" lon="10.946152227492629"><ele>473.0</ele><time>2026-03-22T10:53:03Z</time></trkpt><trkpt lat="43.816556354435335" lon="10.946160561834146"><ele>473.0</ele><time>2026-03-22T10:53:07Z</time></trkpt><trkpt lat="43.81649641131131" lon="10.946189366045639"><ele>473.0</ele><time>2026-03-22T10:53:13Z</time></trkpt><trkpt lat="43.816415989056374" lon="10.946178046168988"><ele>473.0</ele><time>2026-03-22T10:53:17Z</time></trkpt><trkpt lat="43.816340563511964" lon="10.946188780594964"><ele>473.0</ele><time>2026-03-22T10:53:21Z</time></trkpt><trkpt lat="43.81627171692037" lon="10.946190517592994"><ele>473.0</ele><time>2026-03-22T10:53:25Z</time></trkpt><trkpt lat="43.81618713126379" lon="10.946187103212111"><ele>473.0</ele><time>2026-03-22T10:53:30Z</time></trkpt><trkpt lat="43.81612725542582" lon="10.946221154951266"><ele>473.0</ele><time>2026-03-22T10:53:33.999Z</time></trkpt><trkpt lat="43.8160618891516" lon="10.946229939098838"><ele>473.0</ele><time>2026-03-22T10:53:37.999Z</time></trkpt><trkpt lat="43.81598968518645" lon="10.946228081727165"><ele>473.0</ele><time>2026-03-22T10:53:41.999Z</time></trkpt><trkpt lat="43.815932146029255" lon="10.946172794676793"><ele>473.0</ele><time>2026-03-22T10:53:45.999Z</time></trkpt><trkpt lat="43.81589673769974" lon="10.946072803527722"><ele>473.0</ele><time>2026-03-22T10:53:50.999Z</time></trkpt><trkpt lat="43.81587123098353" lon="10.945967108234903"><ele>473.0</ele><time>2026-03-22T10:53:55.999Z</time></trkpt><trkpt lat="43.81583278416454" lon="10.945866694991098"><ele>470.7142857142857</ele><time>2026-03-22T10:53:59.999Z</time></trkpt><trkpt lat="43.815792364820844" lon="10.945780309376154"><ele>468.42857142857144</ele><time>2026-03-22T10:54:03.999Z</time></trkpt><trkpt lat="43.815737726255776" lon="10.945733307525451"><ele>466.14285714285717</ele><time>2026-03-22T10:54:06.999Z</time></trkpt><trkpt lat="43.815689026906995" lon="10.945678011948166"><ele>463.8571428571429</ele><time>2026-03-22T10:54:09.999Z</time></trkpt><trkpt lat="43.81563762118448" lon="10.945598931516955"><ele>461.57142857142856</ele><time>2026-03-22T10:54:12.999Z</time></trkpt><trkpt lat="43.815572333303976" lon="10.945527067657839"><ele>459.28571428571433</ele><time>2026-03-22T10:54:16.999Z</time></trkpt><trkpt lat="43.81550118023921" lon="10.94548485576816"><ele>457.00000000000006</ele><time>2026-03-22T10:54:20.999Z</time></trkpt><trkpt lat="43.81544917889558" lon="10.945406730461674"><ele>457.00000000000006</ele><time>2026-03-22T10:54:24.999Z</time></trkpt><trkpt lat="43.81538880783445" lon="10.945333749902789"><ele>457.0</ele><time>2026-03-22T10:54:29.999Z</time></trkpt><trkpt lat="43.815317777637595" lon="10.945338204131822"><ele>457.00000000000006</ele><time>2026-03-22T10:54:33.999Z</time></trkpt><trkpt lat="43.815242164913286" lon="10.945324399598094"><ele>457.00000000000006</ele><time>2026-03-22T10:54:37.999Z</time></trkpt><trkpt lat="43.81517071366173" lon="10.945328382940911"><ele>457.0</ele><time>2026-03-22T10:54:42Z</time></trkpt><trkpt lat="43.81509476894042" lon="10.945320267319618"><ele>457.00000000000006</ele><time>2026-03-22T10:54:47Z</time></trkpt><trkpt lat="43.81502356941162" lon="10.945340966003261"><ele>457.00000000000006</ele><time>2026-03-22T10:54:51Z</time></trkpt><trkpt lat="43.81495225898841" lon="10.945313707409493"><ele>454.33333333333337</ele><time>2026-03-22T10:54:54Z</time></trkpt><trkpt lat="43.81486958558354" lon="10.94528811330475"><ele>451.6666666666667</ele><time>2026-03-22T10:54:58Z</time></trkpt><trkpt lat="43.81480693880394" lon="10.945278903614101"><ele>449.0</ele><time>2026-03-22T10:55:01Z</time></trkpt><trkpt lat="43.81473484508455" lon="10.945286313536391"><ele>446.33333333333337</ele><time>2026-03-22T10:55:04Z</time></trkpt><trkpt lat="43.81466132562606" lon="10.945323053772027"><ele>443.6666666666667</ele><time>2026-03-22T10:55:08Z</time></trkpt><trkpt lat="43.81458540698183" lon="10.9453167826353"><ele>441.0</ele><time>2026-03-22T10:55:12Z</time></trkpt><trkpt lat="43.81452126820399" lon="10.945249976411183"><ele>441.0</ele><time>2026-03-22T10:55:16Z</time></trkpt><trkpt lat="43.814461408234024" lon="10.945175173493974"><ele>441.0</ele><time>2026-03-22T10:55:20Z</time></trkpt><trkpt lat="43.81440650199974" lon="10.945107694904301"><ele>441.0</ele><time>2026-03-22T10:55:24Z</time></trkpt><trkpt lat="43.814342641494264" lon="10.94503461755425"><ele>441.0</ele><time>2026-03-22T10:55:28Z</time></trkpt><trkpt lat="43.81429562997944" lon="10.94497609834063"><ele>441.0</ele><time>2026-03-22T10:55:31Z</time></trkpt><trkpt lat="43.81424115300321" lon="10.944904358515346"><ele>441.0</ele><time>2026-03-22T10:55:34Z</time></trkpt><trkpt lat="43.81417827494619" lon="10.944828991911713"><ele>439.0</ele><time>2026-03-22T10:55:38Z</time></trkpt><trkpt lat="43.81412721305866" lon="10.944771728044497"><ele>437.0</ele><time>2026-03-22T10:55:40.999Z</time></trkpt><trkpt lat="43.814069416977034" lon="10.944694997211919"><ele>435.0</ele><time>2026-03-22T10:55:44.999Z</time></trkpt><trkpt lat="43.814014092267435" lon="10.944638397760908"><ele>433.0</ele><time>2026-03-22T10:55:47.999Z</time></trkpt><trkpt lat="43.81395609276375" lon="10.944560492689732"><ele>431.0</ele><time>2026-03-22T10:55:51.999Z</time></trkpt><trkpt lat="43.813905997818495" lon="10.944507205079201"><ele>429.0</ele><time>2026-03-22T10:55:54.999Z</time></trkpt><trkpt lat="43.81385761099379" lon="10.944447449430612"><ele>427.0</ele><time>2026-03-22T10:55:57.999Z</time></trkpt><trkpt lat="43.81379598101551" lon="10.944388630834148"><ele>427.0</ele><time>2026-03-22T10:56:00.999Z</time></trkpt><trkpt lat="43.813724113370576" lon="10.94433020767306"><ele>427.0</ele><time>2026-03-22T10:56:04.999Z</time></trkpt><trkpt lat="43.81366945892953" lon="10.94426828798899"><ele>427.0</ele><time>2026-03-22T10:56:07.999Z</time></trkpt><trkpt lat="43.81361356031758" lon="10.944215303847178"><ele>427.0</ele><time>2026-03-22T10:56:10.999Z</time></trkpt><trkpt lat="43.81355765963968" lon="10.944162317615302"><ele>427.0</ele><time>2026-03-22T10:56:13.999Z</time></trkpt><trkpt lat="43.813493965274205" lon="10.944102399890852"><ele>427.0</ele><time>2026-03-22T10:56:16.999Z</time></trkpt><trkpt lat="43.813429725191064" lon="10.944042410061138"><ele>427.0</ele><time>2026-03-22T10:56:19.999Z</time></trkpt><trkpt lat="43.813362761267356" lon="10.943979876592826"><ele>425.0</ele><time>2026-03-22T10:56:23.999Z</time></trkpt><trkpt lat="43.8132904763779" lon="10.94392264387791"><ele>423.0</ele><time>2026-03-22T10:56:27.999Z</time></trkpt><trkpt lat="43.813237871245974" lon="10.943864886797634"><ele>421.0</ele><time>2026-03-22T10:56:30.999Z</time></trkpt><trkpt lat="43.813185160053216" lon="10.943816369430225"><ele>419.0</ele><time>2026-03-22T10:56:33.999Z</time></trkpt><trkpt lat="43.813109986597084" lon="10.943770180609048"><ele>417.0</ele><time>2026-03-22T10:56:36.999Z</time></trkpt><trkpt lat="43.81305233633213" lon="10.943719855502929"><ele>415.0</ele><time>2026-03-22T10:56:39.999Z</time></trkpt><trkpt lat="43.81299452385989" lon="10.943680138693185"><ele>413.0</ele><time>2026-03-22T10:56:42.999Z</time></trkpt><trkpt lat="43.81291847142827" lon="10.943629907973758"><ele>413.0</ele><time>2026-03-22T10:56:47Z</time></trkpt><trkpt lat="43.81285485891957" lon="10.943580366141324"><ele>413.0</ele><time>2026-03-22T10:56:50Z</time></trkpt><trkpt lat="43.812783253138704" lon="10.94353987829162"><ele>413.0</ele><time>2026-03-22T10:56:53Z</time></trkpt><trkpt lat="43.81272316236063" lon="10.94349798432034"><ele>413.0</ele><time>2026-03-22T10:56:56Z</time></trkpt><trkpt lat="43.81265606068812" lon="10.94346077507677"><ele>413.0</ele><time>2026-03-22T10:56:59Z</time></trkpt><trkpt lat="43.8125977752813" lon="10.943419549400359"><ele>413.0</ele><time>2026-03-22T10:57:02Z</time></trkpt><trkpt lat="43.812527724789774" lon="10.943392762716659"><ele>413.0</ele><time>2026-03-22T10:57:05Z</time></trkpt><trkpt lat="43.812440817251144" lon="10.943344764490117"><ele>410.7142857142857</ele><time>2026-03-22T10:57:09Z</time></trkpt><trkpt lat="43.812378060883255" lon="10.94332875126708"><ele>408.42857142857144</ele><time>2026-03-22T10:57:12Z</time></trkpt><trkpt lat="43.81230787531025" lon="10.943307203925572"><ele>406.1428571428571</ele><time>2026-03-22T10:57:15Z</time></trkpt><trkpt lat="43.81223523782657" lon="10.94328989067187"><ele>403.8571428571429</ele><time>2026-03-22T10:57:18Z</time></trkpt><trkpt lat="43.81215423418613" lon="10.943275158046426"><ele>401.57142857142856</ele><time>2026-03-22T10:57:22Z</time></trkpt><trkpt lat="43.81208708841814" lon="10.943264133328288"><ele>399.2857142857143</ele><time>2026-03-22T10:57:25Z</time></trkpt><trkpt lat="43.81200742379657" lon="10.943267921543804"><ele>397.0</ele><time>2026-03-22T10:57:28Z</time></trkpt><trkpt lat="43.811942108532335" lon="10.943265203310698"><ele>397.0</ele><time>2026-03-22T10:57:31Z</time></trkpt><trkpt lat="43.81187515370763" lon="10.943252023532839"><ele>397.0</ele><time>2026-03-22T10:57:34Z</time></trkpt><trkpt lat="43.81180692104228" lon="10.943218099264337"><ele>397.0</ele><time>2026-03-22T10:57:37Z</time></trkpt><trkpt lat="43.81173447709926" lon="10.943192411020181"><ele>397.0</ele><time>2026-03-22T10:57:40Z</time></trkpt><trkpt lat="43.81166090404587" lon="10.943159998415554"><ele>397.0</ele><time>2026-03-22T10:57:43Z</time></trkpt><trkpt lat="43.81159335110971" lon="10.943120556804427"><ele>397.0</ele><time>2026-03-22T10:57:46Z</time></trkpt><trkpt lat="43.81152921080475" lon="10.943110209443246"><ele>397.0</ele><time>2026-03-22T10:57:48.999Z</time></trkpt><trkpt lat="43.811460640384816" lon="10.943085041312466"><ele>395.7142857142857</ele><time>2026-03-22T10:57:51.999Z</time></trkpt><trkpt lat="43.81138172570079" lon="10.943054764702083"><ele>394.42857142857144</ele><time>2026-03-22T10:57:55.999Z</time></trkpt><trkpt lat="43.811314475139994" lon="10.943051245375832"><ele>393.1428571428571</ele><time>2026-03-22T10:57:58.999Z</time></trkpt><trkpt lat="43.81124653084687" lon="10.943050770868396"><ele>391.8571428571429</ele><time>2026-03-22T10:58:01.999Z</time></trkpt><trkpt lat="43.81118162206734" lon="10.943074294483985"><ele>390.5714285714286</ele><time>2026-03-22T10:58:04.999Z</time></trkpt><trkpt lat="43.81112524669646" lon="10.94312867243337"><ele>389.2857142857143</ele><time>2026-03-22T10:58:07.999Z</time></trkpt><trkpt lat="43.81108145012862" lon="10.943210960917725"><ele>388.0</ele><time>2026-03-22T10:58:10.999Z</time></trkpt><trkpt lat="43.81105950407069" lon="10.943314634815897"><ele>389.83333333333337</ele><time>2026-03-22T10:58:13.999Z</time></trkpt><trkpt lat="43.8110406115852" lon="10.943416598479361"><ele>391.6666666666667</ele><time>2026-03-22T10:58:16.999Z</time></trkpt><trkpt lat="43.811025323348744" lon="10.943508729807723"><ele>393.5</ele><time>2026-03-22T10:58:19.999Z</time></trkpt><trkpt lat="43.81101202985752" lon="10.943634701595538"><ele>395.33333333333337</ele><time>2026-03-22T10:58:23.999Z</time></trkpt><trkpt lat="43.811006038964166" lon="10.943760630837897"><ele>397.1666666666667</ele><time>2026-03-22T10:58:27.999Z</time></trkpt><trkpt lat="43.811013962834096" lon="10.943850991759614"><ele>399.0</ele><time>2026-03-22T10:58:30.999Z</time></trkpt><trkpt lat="43.81102964107745" lon="10.943962163861105"><ele>399.0</ele><time>2026-03-22T10:58:33.999Z</time></trkpt><trkpt lat="43.81104499729622" lon="10.944077571505176"><ele>399.0</ele><time>2026-03-22T10:58:37.999Z</time></trkpt><trkpt lat="43.81106579197855" lon="10.94417844791695"><ele>399.0</ele><time>2026-03-22T10:58:40.999Z</time></trkpt><trkpt lat="43.811079688847556" lon="10.944280962921786"><ele>399.0</ele><time>2026-03-22T10:58:43.999Z</time></trkpt><trkpt lat="43.811080017373214" lon="10.944371978190103"><ele>399.0</ele><time>2026-03-22T10:58:46.999Z</time></trkpt><trkpt lat="43.81108746302464" lon="10.94449042265367"><ele>399.0</ele><time>2026-03-22T10:58:50.999Z</time></trkpt><trkpt lat="43.811077424311044" lon="10.944585515490854"><ele>398.2857142857143</ele><time>2026-03-22T10:58:54Z</time></trkpt><trkpt lat="43.81107403752458" lon="10.944696435825671"><ele>397.57142857142856</ele><time>2026-03-22T10:58:57Z</time></trkpt><trkpt lat="43.81107096214362" lon="10.944787171819407"><ele>396.8571428571429</ele><time>2026-03-22T10:59:00Z</time></trkpt><trkpt lat="43.81105821451812" lon="10.944894587970671"><ele>396.1428571428571</ele><time>2026-03-22T10:59:03Z</time></trkpt><trkpt lat="43.81105104189751" lon="10.944988980793152"><ele>395.42857142857144</ele><time>2026-03-22T10:59:06Z</time></trkpt><trkpt lat="43.81103960210202" lon="10.945084203286392"><ele>394.7142857142857</ele><time>2026-03-22T10:59:09Z</time></trkpt><trkpt lat="43.811034472443424" lon="10.94518259723215"><ele>394.0</ele><time>2026-03-22T10:59:12Z</time></trkpt><trkpt lat="43.811021380825636" lon="10.945278777157904"><ele>393.0</ele><time>2026-03-22T10:59:15Z</time></trkpt><trkpt lat="43.811009595660714" lon="10.945377074801696"><ele>392.0</ele><time>2026-03-22T10:59:18Z</time></trkpt><trkpt lat="43.811023983380025" lon="10.945477249977046"><ele>391.0</ele><time>2026-03-22T10:59:21Z</time></trkpt><trkpt lat="43.81103696549905" lon="10.945569342727245"><ele>390.0</ele><time>2026-03-22T10:59:24Z</time></trkpt><trkpt lat="43.81104768481315" lon="10.945664739405657"><ele>389.0</ele><time>2026-03-22T10:59:28Z</time></trkpt><trkpt lat="43.81104636642319" lon="10.94575460688596"><ele>388.0</ele><time>2026-03-22T10:59:32Z</time></trkpt><trkpt lat="43.81108090229398" lon="10.945848773886372"><ele>387.0</ele><time>2026-03-22T10:59:35Z</time></trkpt><trkpt lat="43.81113795040327" lon="10.945945832011612"><ele>386.0</ele><time>2026-03-22T10:59:39Z</time></trkpt><trkpt lat="43.8111334781718" lon="10.946060203495733"><ele>385.0</ele><time>2026-03-22T10:59:42Z</time></trkpt><trkpt lat="43.81111654204886" lon="10.946153139223327"><ele>384.0</ele><time>2026-03-22T10:59:45Z</time></trkpt><trkpt lat="43.81109649024948" lon="10.94625680427293"><ele>383.0</ele><time>2026-03-22T10:59:49Z</time></trkpt><trkpt lat="43.81108151119053" lon="10.946341987650458"><ele>382.0</ele><time>2026-03-22T10:59:51.999Z</time></trkpt><trkpt lat="43.811080578143546" lon="10.946439493684109"><ele>381.0</ele><time>2026-03-22T10:59:55.999Z</time></trkpt><trkpt lat="43.81109299517672" lon="10.946527246727364"><ele>380.0</ele><time>2026-03-22T10:59:58.999Z</time></trkpt><trkpt lat="43.81111522856115" lon="10.94661890035306"><ele>377.14285714285717</ele><time>2026-03-22T11:00:02.999Z</time></trkpt><trkpt lat="43.8111435210575" lon="10.946711763179204"><ele>374.28571428571433</ele><time>2026-03-22T11:00:06.999Z</time></trkpt><trkpt lat="43.811178002725086" lon="10.946809168946402"><ele>371.42857142857144</ele><time>2026-03-22T11:00:10.999Z</time></trkpt><trkpt lat="43.81122762887019" lon="10.946875771495467"><ele>368.57142857142856</ele><time>2026-03-22T11:00:14.999Z</time></trkpt><trkpt lat="43.81129750711852" lon="10.946931046626121"><ele>365.7142857142857</ele><time>2026-03-22T11:00:18.999Z</time></trkpt><trkpt lat="43.811341454523834" lon="10.946994450360592"><ele>362.85714285714283</ele><time>2026-03-22T11:00:21.999Z</time></trkpt><trkpt lat="43.811397069496586" lon="10.947054029431676"><ele>360.0</ele><time>2026-03-22T11:00:25.999Z</time></trkpt><trkpt lat="43.811449752488514" lon="10.947125164225492"><ele>360.0</ele><time>2026-03-22T11:00:29.999Z</time></trkpt><trkpt lat="43.8115114629737" lon="10.947191717864106"><ele>360.0</ele><time>2026-03-22T11:00:33.999Z</time></trkpt><trkpt lat="43.81155294358716" lon="10.947258625383347"><ele>360.0</ele><time>2026-03-22T11:00:36.999Z</time></trkpt><trkpt lat="43.81160087976566" lon="10.94732281534088"><ele>360.0</ele><time>2026-03-22T11:00:39.999Z</time></trkpt><trkpt lat="43.81164605688179" lon="10.947384393610339"><ele>360.0</ele><time>2026-03-22T11:00:42.999Z</time></trkpt><trkpt lat="43.81168303269772" lon="10.947468675534758"><ele>360.0</ele><time>2026-03-22T11:00:45.999Z</time></trkpt><trkpt lat="43.811733452965065" lon="10.947530412859084"><ele>360.0</ele><time>2026-03-22T11:00:48.999Z</time></trkpt><trkpt lat="43.811788655275826" lon="10.947585925963383"><ele>357.7142857142857</ele><time>2026-03-22T11:00:51.999Z</time></trkpt><trkpt lat="43.811843174859256" lon="10.947643742316465"><ele>355.42857142857144</ele><time>2026-03-22T11:00:54.999Z</time></trkpt><trkpt lat="43.81190871558568" lon="10.947699922709612"><ele>353.14285714285717</ele><time>2026-03-22T11:00:59Z</time></trkpt><trkpt lat="43.81196597151871" lon="10.94778133203777"><ele>350.8571428571429</ele><time>2026-03-22T11:01:03Z</time></trkpt><trkpt lat="43.8120311841756" lon="10.947831640617151"><ele>348.57142857142856</ele><time>2026-03-22T11:01:07Z</time></trkpt><trkpt lat="43.812090742091215" lon="10.947867754472226"><ele>346.28571428571433</ele><time>2026-03-22T11:01:10Z</time></trkpt><trkpt lat="43.81216752287203" lon="10.947900063401889"><ele>344.0</ele><time>2026-03-22T11:01:14Z</time></trkpt><trkpt lat="43.812242182375115" lon="10.947919913968255"><ele>344.0</ele><time>2026-03-22T11:01:18Z</time></trkpt><trkpt lat="43.8123175268849" lon="10.947921827050624"><ele>344.0</ele><time>2026-03-22T11:01:22Z</time></trkpt><trkpt lat="43.81239417774976" lon="10.947920576694557"><ele>344.0</ele><time>2026-03-22T11:01:26Z</time></trkpt><trkpt lat="43.81248366529208" lon="10.947893833997853"><ele>344.0</ele><time>2026-03-22T11:01:31Z</time></trkpt><trkpt lat="43.812554570376555" lon="10.947893610580762"><ele>344.0</ele><time>2026-03-22T11:01:34Z</time></trkpt><trkpt lat="43.812629182386914" lon="10.947915914570162"><ele>344.0</ele><time>2026-03-22T11:01:38Z</time></trkpt><trkpt lat="43.812710162930955" lon="10.947940259321749"><ele>347.42857142857144</ele><time>2026-03-22T11:01:42Z</time></trkpt><trkpt lat="43.81278720923968" lon="10.947908107122048"><ele>350.8571428571429</ele><time>2026-03-22T11:01:46Z</time></trkpt><trkpt lat="43.81286046535519" lon="10.94789194025589"><ele>354.28571428571433</ele><time>2026-03-22T11:01:50Z</time></trkpt><trkpt lat="43.812919317313344" lon="10.947947268931413"><ele>357.7142857142857</ele><time>2026-03-22T11:01:54Z</time></trkpt><trkpt lat="43.81294559254191" lon="10.9480457014677"><ele>361.1428571428571</ele><time>2026-03-22T11:01:58Z</time></trkpt><trkpt lat="43.81297422221199" lon="10.948124824506747"><ele>364.5714285714286</ele><time>2026-03-22T11:02:02Z</time></trkpt><trkpt lat="43.81298656014316" lon="10.948224546062916"><ele>368.0</ele><time>2026-03-22T11:02:06Z</time></trkpt><trkpt lat="43.812999194995676" lon="10.948332563689794"><ele>365.5714285714286</ele><time>2026-03-22T11:02:10.999Z</time></trkpt><trkpt lat="43.81297886725243" lon="10.94842599671649"><ele>363.1428571428571</ele><time>2026-03-22T11:02:14.999Z</time></trkpt><trkpt lat="43.8129892190638" lon="10.948518743742268"><ele>360.7142857142857</ele><time>2026-03-22T11:02:18.999Z</time></trkpt><trkpt lat="43.81303277484456" lon="10.94859418666568"><ele>358.28571428571433</ele><time>2026-03-22T11:02:22.999Z</time></trkpt><trkpt lat="43.813082055558866" lon="10.948666157450276"><ele>355.8571428571429</ele><time>2026-03-22T11:02:26.999Z</time></trkpt><trkpt lat="43.813128621992036" lon="10.948731897286208"><ele>353.42857142857144</ele><time>2026-03-22T11:02:30.999Z</time></trkpt><trkpt lat="43.813173353713005" lon="10.948801054163702"><ele>351.0</ele><time>2026-03-22T11:02:36.999Z</time></trkpt><trkpt lat="43.813186086123636" lon="10.948894764972032"><ele>351.00000000000006</ele><time>2026-03-22T11:02:42.999Z</time></trkpt><trkpt lat="43.813213360676265" lon="10.948982038516728"><ele>351.0</ele><time>2026-03-22T11:02:48.999Z</time></trkpt><trkpt lat="43.813206917405296" lon="10.949077548119176"><ele>351.0</ele><time>2026-03-22T11:02:54.999Z</time></trkpt><trkpt lat="43.81318325552888" lon="10.949176550584639"><ele>351.0</ele><time>2026-03-22T11:03:00.999Z</time></trkpt><trkpt lat="43.81317756467788" lon="10.94926574026454"><ele>351.0</ele><time>2026-03-22T11:03:08Z</time></trkpt><trkpt lat="43.81311347854044" lon="10.9493075366319"><ele>351.00000000000006</ele><time>2026-03-22T11:03:17Z</time></trkpt><trkpt lat="43.81304587945312" lon="10.949320666179874"><ele>351.0</ele><time>2026-03-22T11:03:22Z</time></trkpt><trkpt lat="43.812979130991344" lon="10.949355765097721"><ele>348.28571428571433</ele><time>2026-03-22T11:03:29Z</time></trkpt><trkpt lat="43.81292050259872" lon="10.949396404912402"><ele>345.57142857142856</ele><time>2026-03-22T11:03:36Z</time></trkpt><trkpt lat="43.81285103345436" lon="10.949419877044242"><ele>342.8571428571429</ele><time>2026-03-22T11:03:44Z</time></trkpt><trkpt lat="43.812780573872466" lon="10.949431421655687"><ele>340.14285714285717</ele><time>2026-03-22T11:03:50Z</time></trkpt><trkpt lat="43.812717628783766" lon="10.949435819155422"><ele>337.42857142857144</ele><time>2026-03-22T11:03:55Z</time></trkpt><trkpt lat="43.81267006298434" lon="10.949496286342976"><ele>334.7142857142857</ele><time>2026-03-22T11:04:01Z</time></trkpt><trkpt lat="43.81261205342621" lon="10.949554135138461"><ele>332.0</ele><time>2026-03-22T11:04:06.999Z</time></trkpt><trkpt lat="43.81254081542657" lon="10.949572462193103"><ele>332.57142857142856</ele><time>2026-03-22T11:04:14.999Z</time></trkpt><trkpt lat="43.81250009740311" lon="10.949643245618184"><ele>333.14285714285717</ele><time>2026-03-22T11:04:34.999Z</time></trkpt><trkpt lat="43.81250567166407" lon="10.949737598299285"><ele>333.7142857142857</ele><time>2026-03-22T11:04:42.999Z</time></trkpt><trkpt lat="43.81249946636901" lon="10.949830484628007"><ele>334.2857142857143</ele><time>2026-03-22T11:04:48.999Z</time></trkpt><trkpt lat="43.81253466003479" lon="10.949919526317018"><ele>334.8571428571429</ele><time>2026-03-22T11:04:52.999Z</time></trkpt><trkpt lat="43.812588324729155" lon="10.94998084054038"><ele>335.42857142857144</ele><time>2026-03-22T11:04:58.999Z</time></trkpt><trkpt lat="43.81265460409232" lon="10.949990513078513"><ele>336.0</ele><time>2026-03-22T11:05:03.999Z</time></trkpt><trkpt lat="43.812708217117425" lon="10.950054624448791"><ele>336.0</ele><time>2026-03-22T11:05:10Z</time></trkpt><trkpt lat="43.812746552279386" lon="10.950150195946264"><ele>336.0</ele><time>2026-03-22T11:05:24Z</time></trkpt><trkpt lat="43.812793212991494" lon="10.950218591338297"><ele>336.0</ele><time>2026-03-22T11:05:34Z</time></trkpt><trkpt lat="43.81273905558089" lon="10.950172999050668"><ele>336.0</ele><time>2026-03-22T11:05:44Z</time></trkpt><trkpt lat="43.81267659479355" lon="10.950144910419622"><ele>336.0</ele><time>2026-03-22T11:05:54Z</time></trkpt><trkpt lat="43.812606830892356" lon="10.95013865933993"><ele>336.0</ele><time>2026-03-22T11:06:02Z</time></trkpt><trkpt lat="43.81254430308459" lon="10.950159431280174"><ele>336.0</ele><time>2026-03-22T11:06:10Z</time></trkpt><trkpt lat="43.81247923442891" lon="10.95015316047545"><ele>336.14285714285717</ele><time>2026-03-22T11:06:14.999Z</time></trkpt><trkpt lat="43.81242150831303" lon="10.950111611021919"><ele>336.2857142857143</ele><time>2026-03-22T11:06:21.999Z</time></trkpt><trkpt lat="43.812363618103475" lon="10.950052770072336"><ele>336.42857142857144</ele><time>2026-03-22T11:06:27.999Z</time></trkpt><trkpt lat="43.812295273448754" lon="10.950040400042527"><ele>336.57142857142856</ele><time>2026-03-22T11:06:33.999Z</time></trkpt><trkpt lat="43.81223089949317" lon="10.950045885249905"><ele>336.7142857142857</ele><time>2026-03-22T11:06:38.999Z</time></trkpt><trkpt lat="43.812170969503626" lon="10.95001110854198"><ele>336.8571428571429</ele><time>2026-03-22T11:06:46.999Z</time></trkpt><trkpt lat="43.812108952632485" lon="10.949976534201195"><ele>337.0</ele><time>2026-03-22T11:06:51.999Z</time></trkpt><trkpt lat="43.81204386851313" lon="10.949933662834798"><ele>334.5714285714286</ele><time>2026-03-22T11:06:56.999Z</time></trkpt><trkpt lat="43.81198340111705" lon="10.949887637539097"><ele>332.14285714285717</ele><time>2026-03-22T11:07:01.999Z</time></trkpt><trkpt lat="43.81191414641744" lon="10.949862709388087"><ele>329.7142857142857</ele><time>2026-03-22T11:07:06.999Z</time></trkpt><trkpt lat="43.81184956753882" lon="10.949826247145161"><ele>327.28571428571433</ele><time>2026-03-22T11:07:10.999Z</time></trkpt><trkpt lat="43.8117861858137" lon="10.949809099744575"><ele>324.8571428571429</ele><time>2026-03-22T11:07:14.999Z</time></trkpt><trkpt lat="43.81171636256146" lon="10.949781889003745"><ele>322.42857142857144</ele><time>2026-03-22T11:07:19Z</time></trkpt><trkpt lat="43.81164460769623" lon="10.949776824515112"><ele>320.0</ele><time>2026-03-22T11:07:23Z</time></trkpt><trkpt lat="43.81156581252643" lon="10.949749855463109"><ele>319.2857142857143</ele><time>2026-03-22T11:07:29Z</time></trkpt><trkpt lat="43.81149257181823" lon="10.949747526853871"><ele>318.57142857142856</ele><time>2026-03-22T11:07:34Z</time></trkpt><trkpt lat="43.811429753111845" lon="10.949735422941806"><ele>317.8571428571429</ele><time>2026-03-22T11:07:39Z</time></trkpt><trkpt lat="43.81135780281144" lon="10.949743022365476"><ele>317.1428571428571</ele><time>2026-03-22T11:07:43Z</time></trkpt><trkpt lat="43.811290703636395" lon="10.949749186863848"><ele>316.42857142857144</ele><time>2026-03-22T11:07:47Z</time></trkpt><trkpt lat="43.81121799716894" lon="10.949768201678173"><ele>315.7142857142857</ele><time>2026-03-22T11:07:52Z</time></trkpt><trkpt lat="43.811150270776906" lon="10.949742395607181"><ele>315.0</ele><time>2026-03-22T11:07:57Z</time></trkpt><trkpt lat="43.81107911781121" lon="10.94971655268779"><ele>315.0</ele><time>2026-03-22T11:08:09Z</time></trkpt><trkpt lat="43.81103735534199" lon="10.949624899254431"><ele>315.0</ele><time>2026-03-22T11:08:18.999Z</time></trkpt><trkpt lat="43.810974008262804" lon="10.949562328718459"><ele>315.0</ele><time>2026-03-22T11:08:21.999Z</time></trkpt><trkpt lat="43.81090954411949" lon="10.949541650226896"><ele>315.0</ele><time>2026-03-22T11:08:25.999Z</time></trkpt><trkpt lat="43.810837273964665" lon="10.949511354044633"><ele>315.0</ele><time>2026-03-22T11:08:30.999Z</time></trkpt><trkpt lat="43.81079046134733" lon="10.949452660242217"><ele>315.0</ele><time>2026-03-22T11:08:35.999Z</time></trkpt><trkpt lat="43.810722000617325" lon="10.949450442447759"><ele>315.0</ele><time>2026-03-22T11:08:41.999Z</time></trkpt><trkpt lat="43.81065816352191" lon="10.949480310126186"><ele>315.2857142857143</ele><time>2026-03-22T11:08:49.999Z</time></trkpt><trkpt lat="43.810629975144025" lon="10.949400460133218"><ele>315.57142857142856</ele><time>2026-03-22T11:08:54.999Z</time></trkpt><trkpt lat="43.81057400401767" lon="10.94934882011615"><ele>315.8571428571429</ele><time>2026-03-22T11:09:02.999Z</time></trkpt><trkpt lat="43.81051198172554" lon="10.949364863490068"><ele>316.1428571428571</ele><time>2026-03-22T11:09:10.999Z</time></trkpt><trkpt lat="43.810464805942004" lon="10.949306375235537"><ele>316.42857142857144</ele><time>2026-03-22T11:09:17.999Z</time></trkpt><trkpt lat="43.81040359657026" lon="10.949265301184264"><ele>316.7142857142857</ele><time>2026-03-22T11:09:28Z</time></trkpt><trkpt lat="43.810337129336745" lon="10.949263274702218"><ele>317.0</ele><time>2026-03-22T11:09:35Z</time></trkpt><trkpt lat="43.81026961505882" lon="10.949242046715657"><ele>314.0</ele><time>2026-03-22T11:09:44Z</time></trkpt><trkpt lat="43.810221033355" lon="10.949179320063253"><ele>311.0</ele><time>2026-03-22T11:09:53Z</time></trkpt><trkpt lat="43.8101497218342" lon="10.949150483011387"><ele>308.0</ele><time>2026-03-22T11:09:58Z</time></trkpt><trkpt lat="43.81008491014431" lon="10.949092234730793"><ele>305.0</ele><time>2026-03-22T11:10:03Z</time></trkpt><trkpt lat="43.81001659654511" lon="10.949044457028876"><ele>302.0</ele><time>2026-03-22T11:10:07Z</time></trkpt><trkpt lat="43.809950629216864" lon="10.949013762858026"><ele>299.0</ele><time>2026-03-22T11:10:11Z</time></trkpt><trkpt lat="43.80988725306432" lon="10.948961230138924"><ele>296.0</ele><time>2026-03-22T11:10:18Z</time></trkpt><trkpt lat="43.8098399021522" lon="10.948871738063517"><ele>294.8571428571429</ele><time>2026-03-22T11:10:27.999Z</time></trkpt><trkpt lat="43.809803279498794" lon="10.948788923113149"><ele>293.7142857142857</ele><time>2026-03-22T11:10:32.999Z</time></trkpt><trkpt lat="43.80974213922324" lon="10.948751434700831"><ele>292.57142857142856</ele><time>2026-03-22T11:10:39.999Z</time></trkpt><trkpt lat="43.809680601265995" lon="10.94870716167298"><ele>291.42857142857144</ele><time>2026-03-22T11:10:46.999Z</time></trkpt><trkpt lat="43.80961919497847" lon="10.948649123865799"><ele>290.2857142857143</ele><time>2026-03-22T11:10:53.999Z</time></trkpt><trkpt lat="43.809561520750876" lon="10.9485977363183"><ele>289.14285714285717</ele><time>2026-03-22T11:11:02.999Z</time></trkpt><trkpt lat="43.809524713433056" lon="10.94852043702199"><ele>288.0</ele><time>2026-03-22T11:11:09.999Z</time></trkpt><trkpt lat="43.8094607090019" lon="10.9484749986883"><ele>288.00000000000006</ele><time>2026-03-22T11:11:18.999Z</time></trkpt><trkpt lat="43.80939046217517" lon="10.94844660067269"><ele>288.0</ele><time>2026-03-22T11:11:23.999Z</time></trkpt><trkpt lat="43.8093240915879" lon="10.94842898828925"><ele>288.0</ele><time>2026-03-22T11:11:28Z</time></trkpt><trkpt lat="43.809265660766656" lon="10.948381649611946"><ele>288.0</ele><time>2026-03-22T11:11:36Z</time></trkpt><trkpt lat="43.80921714699654" lon="10.9483133143163"><ele>288.0</ele><time>2026-03-22T11:11:42Z</time></trkpt><trkpt lat="43.809157089271714" lon="10.94826760101761"><ele>288.00000000000006</ele><time>2026-03-22T11:11:49Z</time></trkpt><trkpt lat="43.809081089303994" lon="10.948302538743155"><ele>288.0</ele><time>2026-03-22T11:11:54Z</time></trkpt><trkpt lat="43.809023158491854" lon="10.948338174911818"><ele>284.8571428571429</ele><time>2026-03-22T11:11:59Z</time></trkpt><trkpt lat="43.80895502456091" lon="10.948350574535871"><ele>281.7142857142857</ele><time>2026-03-22T11:12:04Z</time></trkpt><trkpt lat="43.808907445458665" lon="10.948289915208766"><ele>278.57142857142856</ele><time>2026-03-22T11:12:17Z</time></trkpt><trkpt lat="43.808867349976566" lon="10.94821236905191"><ele>275.42857142857144</ele><time>2026-03-22T11:12:23Z</time></trkpt><trkpt lat="43.80882596717297" lon="10.948134694469942"><ele>272.2857142857143</ele><time>2026-03-22T11:12:28Z</time></trkpt><trkpt lat="43.80878024221579" lon="10.948059321120239"><ele>269.14285714285717</ele><time>2026-03-22T11:12:33Z</time></trkpt><trkpt lat="43.808725207663876" lon="10.947984395689451"><ele>266.0</ele><time>2026-03-22T11:12:37.999Z</time></trkpt><trkpt lat="43.80866810588644" lon="10.947914015090134"><ele>266.0</ele><time>2026-03-22T11:12:42.999Z</time></trkpt><trkpt lat="43.80861370167686" lon="10.947848757226389"><ele>266.0</ele><time>2026-03-22T11:12:45.999Z</time></trkpt><trkpt lat="43.80854818877024" lon="10.94782433688075"><ele>266.0</ele><time>2026-03-22T11:12:49.999Z</time></trkpt><trkpt lat="43.80849649095706" lon="10.94775970222982"><ele>266.0</ele><time>2026-03-22T11:12:53.999Z</time></trkpt><trkpt lat="43.808442512594475" lon="10.947706863808412"><ele>266.0</ele><time>2026-03-22T11:12:57.999Z</time></trkpt><trkpt lat="43.80838441368202" lon="10.947671863689555"><ele>266.0</ele><time>2026-03-22T11:13:01.999Z</time></trkpt><trkpt lat="43.808325138832394" lon="10.947601501544137"><ele>266.0</ele><time>2026-03-22T11:13:08.999Z</time></trkpt><trkpt lat="43.808277888738345" lon="10.947536148099369"><ele>264.6666666666667</ele><time>2026-03-22T11:13:15.999Z</time></trkpt><trkpt lat="43.808220079095484" lon="10.947459268352658"><ele>263.33333333333337</ele><time>2026-03-22T11:13:21.999Z</time></trkpt><trkpt lat="43.808173340786055" lon="10.947378984608209"><ele>262.0</ele><time>2026-03-22T11:13:25.999Z</time></trkpt><trkpt lat="43.80815784872792" lon="10.947273459304116"><ele>260.6666666666667</ele><time>2026-03-22T11:13:30.999Z</time></trkpt><trkpt lat="43.80812488039384" lon="10.947181668747575"><ele>259.3333333333333</ele><time>2026-03-22T11:13:37Z</time></trkpt><trkpt lat="43.80807860898729" lon="10.947103891583145"><ele>258.0</ele><time>2026-03-22T11:13:42Z</time></trkpt><trkpt lat="43.80801649933883" lon="10.947048764155475"><ele>257.99999999999994</ele><time>2026-03-22T11:13:45Z</time></trkpt><trkpt lat="43.80795293420955" lon="10.946997083469025"><ele>258.0</ele><time>2026-03-22T11:13:48Z</time></trkpt><trkpt lat="43.807879965860984" lon="10.94695302993021"><ele>258.0</ele><time>2026-03-22T11:13:52Z</time></trkpt><trkpt lat="43.80781845017147" lon="10.94693238065545"><ele>258.0</ele><time>2026-03-22T11:13:56Z</time></trkpt><trkpt lat="43.80775761327685" lon="10.946894964550701"><ele>258.0</ele><time>2026-03-22T11:13:59Z</time></trkpt><trkpt lat="43.80769052578645" lon="10.946858971052189"><ele>257.99999999999994</ele><time>2026-03-22T11:14:04Z</time></trkpt><trkpt lat="43.80763915572599" lon="10.946806368720964"><ele>258.0</ele><time>2026-03-22T11:14:09Z</time></trkpt><trkpt lat="43.80759055942853" lon="10.94674376179543"><ele>256.2857142857143</ele><time>2026-03-22T11:14:17Z</time></trkpt><trkpt lat="43.80756557010538" lon="10.946658132894488"><ele>254.57142857142856</ele><time>2026-03-22T11:14:21Z</time></trkpt><trkpt lat="43.80753428670764" lon="10.946559400478066"><ele>252.85714285714286</ele><time>2026-03-22T11:14:26Z</time></trkpt><trkpt lat="43.807474475068126" lon="10.94652183111265"><ele>251.14285714285714</ele><time>2026-03-22T11:14:31Z</time></trkpt><trkpt lat="43.807427224930905" lon="10.946462681146048"><ele>249.42857142857144</ele><time>2026-03-22T11:14:38.999Z</time></trkpt><trkpt lat="43.80737093157781" lon="10.946383568860357"><ele>247.71428571428575</ele><time>2026-03-22T11:14:51.999Z</time></trkpt><trkpt lat="43.80732871297188" lon="10.946311461629573"><ele>246.00000000000003</ele><time>2026-03-22T11:14:57.999Z</time></trkpt><trkpt lat="43.807265139431586" lon="10.946241307953853"><ele>246.00000000000003</ele><time>2026-03-22T11:15:02.999Z</time></trkpt><trkpt lat="43.80723033556575" lon="10.946155102493197"><ele>246.0</ele><time>2026-03-22T11:15:07.999Z</time></trkpt><trkpt lat="43.80720399565676" lon="10.946075863612723"><ele>246.00000000000003</ele><time>2026-03-22T11:15:11.999Z</time></trkpt><trkpt lat="43.807170808716215" lon="10.945985403721258"><ele>246.00000000000003</ele><time>2026-03-22T11:15:15.999Z</time></trkpt><trkpt lat="43.80714906787919" lon="10.945887621307623"><ele>246.0</ele><time>2026-03-22T11:15:20.999Z</time></trkpt><trkpt lat="43.80712897572406" lon="10.945800862400608"><ele>246.00000000000003</ele><time>2026-03-22T11:15:29.999Z</time></trkpt><trkpt lat="43.807115029691644" lon="10.94569945060412"><ele>246.00000000000003</ele><time>2026-03-22T11:15:34.999Z</time></trkpt><trkpt lat="43.8070928201392" lon="10.945613533350233"><ele>245.8571428571429</ele><time>2026-03-22T11:15:38.999Z</time></trkpt><trkpt lat="43.80707467181371" lon="10.945523417467452"><ele>245.71428571428572</ele><time>2026-03-22T11:15:43Z</time></trkpt><trkpt lat="43.80705150030279" lon="10.945435293050664"><ele>245.57142857142858</ele><time>2026-03-22T11:15:47Z</time></trkpt><trkpt lat="43.80701386576235" lon="10.945349175731494"><ele>245.42857142857144</ele><time>2026-03-22T11:15:51Z</time></trkpt><trkpt lat="43.80694838563052" lon="10.945312680229016"><ele>245.28571428571428</ele><time>2026-03-22T11:15:54Z</time></trkpt><trkpt lat="43.80687684084352" lon="10.945284203842853"><ele>245.14285714285714</ele><time>2026-03-22T11:15:57Z</time></trkpt><trkpt lat="43.806817385880066" lon="10.945238152421743"><ele>245.0</ele><time>2026-03-22T11:16:00Z</time></trkpt><trkpt lat="43.80676136068851" lon="10.945187865924972"><ele>245.0</ele><time>2026-03-22T11:16:03Z</time></trkpt><trkpt lat="43.80670827395917" lon="10.945122317968973"><ele>245.0</ele><time>2026-03-22T11:16:06Z</time></trkpt><trkpt lat="43.80665523806601" lon="10.945045841728096"><ele>245.0</ele><time>2026-03-22T11:16:10Z</time></trkpt><trkpt lat="43.80659946350955" lon="10.944979108302162"><ele>245.0</ele><time>2026-03-22T11:16:13Z</time></trkpt><trkpt lat="43.80655743975179" lon="10.944897215487543"><ele>245.0</ele><time>2026-03-22T11:16:17Z</time></trkpt><trkpt lat="43.80650938707857" lon="10.944824394428633"><ele>245.0</ele><time>2026-03-22T11:16:22Z</time></trkpt><trkpt lat="43.80646739906381" lon="10.944758443607345"><ele>245.0</ele><time>2026-03-22T11:16:27Z</time></trkpt><trkpt lat="43.80641283575726" lon="10.94471228264163"><ele>244.85714285714286</ele><time>2026-03-22T11:16:31Z</time></trkpt><trkpt lat="43.80634997199353" lon="10.944664265316625"><ele>244.71428571428572</ele><time>2026-03-22T11:16:35Z</time></trkpt><trkpt lat="43.806281101016886" lon="10.944625575237186"><ele>244.57142857142856</ele><time>2026-03-22T11:16:40Z</time></trkpt><trkpt lat="43.80621104755411" lon="10.944599662758339"><ele>244.42857142857142</ele><time>2026-03-22T11:16:44Z</time></trkpt><trkpt lat="43.806144003417586" lon="10.944556283121216"><ele>244.28571428571428</ele><time>2026-03-22T11:16:48Z</time></trkpt><trkpt lat="43.80607042326319" lon="10.94452746251131"><ele>244.1428571428571</ele><time>2026-03-22T11:16:52.999Z</time></trkpt><trkpt lat="43.80600589749447" lon="10.9445013703926"><ele>243.99999999999997</ele><time>2026-03-22T11:16:56.999Z</time></trkpt><trkpt lat="43.80594491276336" lon="10.94444197734303"><ele>243.99999999999997</ele><time>2026-03-22T11:17:00.999Z</time></trkpt><trkpt lat="43.805893708937155" lon="10.944387161327274"><ele>244.0</ele><time>2026-03-22T11:17:04.999Z</time></trkpt><trkpt lat="43.80585293774873" lon="10.944312603836755"><ele>243.99999999999997</ele><time>2026-03-22T11:17:08.999Z</time></trkpt><trkpt lat="43.80578816831671" lon="10.944274218998602"><ele>243.99999999999997</ele><time>2026-03-22T11:17:12.999Z</time></trkpt><trkpt lat="43.80574414176797" lon="10.944191329177748"><ele>244.0</ele><time>2026-03-22T11:17:17.999Z</time></trkpt><trkpt lat="43.80568029556665" lon="10.944167730731321"><ele>243.99999999999997</ele><time>2026-03-22T11:17:21.999Z</time></trkpt><trkpt lat="43.80561403551385" lon="10.944153230258769"><ele>243.99999999999997</ele><time>2026-03-22T11:17:25.999Z</time></trkpt><trkpt lat="43.805546914264916" lon="10.944137283276504"><ele>242.4285714285714</ele><time>2026-03-22T11:17:29.999Z</time></trkpt><trkpt lat="43.80548404111821" lon="10.94414641794892"><ele>240.85714285714283</ele><time>2026-03-22T11:17:33.999Z</time></trkpt><trkpt lat="43.805424181936715" lon="10.944088089002312"><ele>239.28571428571428</ele><time>2026-03-22T11:17:39.999Z</time></trkpt><trkpt lat="43.80538247111802" lon="10.943998900345653"><ele>237.7142857142857</ele><time>2026-03-22T11:17:44.999Z</time></trkpt><trkpt lat="43.80532212988678" lon="10.943968345849042"><ele>236.1428571428571</ele><time>2026-03-22T11:17:49Z</time></trkpt><trkpt lat="43.80525727486948" lon="10.94391174543052"><ele>234.57142857142858</ele><time>2026-03-22T11:17:54Z</time></trkpt><trkpt lat="43.805190653367234" lon="10.943863439798646"><ele>233.0</ele><time>2026-03-22T11:17:58Z</time></trkpt><trkpt lat="43.8051389852189" lon="10.943809276446805"><ele>232.28571428571428</ele><time>2026-03-22T11:18:02Z</time></trkpt><trkpt lat="43.80507457573953" lon="10.943760840182424"><ele>231.57142857142856</ele><time>2026-03-22T11:18:07Z</time></trkpt><trkpt lat="43.80500114382273" lon="10.943757405140017"><ele>230.85714285714283</ele><time>2026-03-22T11:18:12Z</time></trkpt><trkpt lat="43.80492604077349" lon="10.943784210986168"><ele>230.14285714285714</ele><time>2026-03-22T11:18:17Z</time></trkpt><trkpt lat="43.804864810725284" lon="10.943810293901441"><ele>229.4285714285714</ele><time>2026-03-22T11:18:22Z</time></trkpt><trkpt lat="43.8048048535601" lon="10.943838358174148"><ele>228.7142857142857</ele><time>2026-03-22T11:18:27Z</time></trkpt><trkpt lat="43.80473791231224" lon="10.943813322375549"><ele>228.0</ele><time>2026-03-22T11:18:33Z</time></trkpt><trkpt lat="43.80468123290582" lon="10.943770053245611"><ele>228.0</ele><time>2026-03-22T11:18:39Z</time></trkpt><trkpt lat="43.804625895722374" lon="10.943699533776883"><ele>227.99999999999997</ele><time>2026-03-22T11:18:44Z</time></trkpt><trkpt lat="43.80457534423085" lon="10.943619903767257"><ele>228.0</ele><time>2026-03-22T11:18:49Z</time></trkpt><trkpt lat="43.804537175634415" lon="10.943540449903063"><ele>228.0</ele><time>2026-03-22T11:18:51.999Z</time></trkpt><trkpt lat="43.804476966837285" lon="10.943467984236811"><ele>227.99999999999997</ele><time>2026-03-22T11:18:55.999Z</time></trkpt><trkpt lat="43.80442079850139" lon="10.94338865086293"><ele>228.0</ele><time>2026-03-22T11:18:59.999Z</time></trkpt><trkpt lat="43.80438540537157" lon="10.943311631388312"><ele>228.0</ele><time>2026-03-22T11:19:02.999Z</time></trkpt><trkpt lat="43.804340698953986" lon="10.943226780098414"><ele>226.57142857142856</ele><time>2026-03-22T11:19:06.999Z</time></trkpt><trkpt lat="43.80428294107171" lon="10.943142251636946"><ele>225.1428571428571</ele><time>2026-03-22T11:19:10.999Z</time></trkpt><trkpt lat="43.80423382747227" lon="10.943087126638012"><ele>223.71428571428572</ele><time>2026-03-22T11:19:13.999Z</time></trkpt><trkpt lat="43.804185234165935" lon="10.943021255394507"><ele>222.28571428571428</ele><time>2026-03-22T11:19:16.999Z</time></trkpt><trkpt lat="43.80412012953616" lon="10.942975371970594"><ele>220.85714285714286</ele><time>2026-03-22T11:19:19.999Z</time></trkpt><trkpt lat="43.80406291243928" lon="10.942923438000214"><ele>219.42857142857144</ele><time>2026-03-22T11:19:22.999Z</time></trkpt><trkpt lat="43.80400671250529" lon="10.942868463835936"><ele>218.0</ele><time>2026-03-22T11:19:25.999Z</time></trkpt><trkpt lat="43.80394281015191" lon="10.94279670184795"><ele>218.00000000000003</ele><time>2026-03-22T11:19:29.999Z</time></trkpt><trkpt lat="43.80387644063033" lon="10.942718485036833"><ele>218.0</ele><time>2026-03-22T11:19:33.999Z</time></trkpt><trkpt lat="43.80382433879491" lon="10.942656806736226"><ele>218.0</ele><time>2026-03-22T11:19:36.999Z</time></trkpt><trkpt lat="43.80376177601711" lon="10.942604216173349"><ele>218.0</ele><time>2026-03-22T11:19:39.999Z</time></trkpt><trkpt lat="43.8036907540639" lon="10.942576015000538"><ele>218.00000000000003</ele><time>2026-03-22T11:19:42.999Z</time></trkpt><trkpt lat="43.803615758747235" lon="10.942602244713296"><ele>218.0</ele><time>2026-03-22T11:19:45.999Z</time></trkpt><trkpt lat="43.803551802512644" lon="10.942650870953049"><ele>217.28571428571428</ele><time>2026-03-22T11:19:48.999Z</time></trkpt><trkpt lat="43.80348591648638" lon="10.942694788382452"><ele>216.57142857142858</ele><time>2026-03-22T11:19:52Z</time></trkpt><trkpt lat="43.80341599882299" lon="10.942721747135755"><ele>215.85714285714283</ele><time>2026-03-22T11:19:55Z</time></trkpt><trkpt lat="43.803339773951144" lon="10.942748984096529"><ele>215.14285714285714</ele><time>2026-03-22T11:19:59Z</time></trkpt><trkpt lat="43.80328770285145" lon="10.9426936474032"><ele>214.42857142857142</ele><time>2026-03-22T11:20:02Z</time></trkpt><trkpt lat="43.80325759137938" lon="10.942615375366504"><ele>213.7142857142857</ele><time>2026-03-22T11:20:05Z</time></trkpt><trkpt lat="43.803226748389655" lon="10.942530364218856"><ele>213.0</ele><time>2026-03-22T11:20:08Z</time></trkpt><trkpt lat="43.803189220646765" lon="10.94244943029422"><ele>212.99999999999997</ele><time>2026-03-22T11:20:12Z</time></trkpt><trkpt lat="43.803147042208444" lon="10.942382161094708"><ele>213.0</ele><time>2026-03-22T11:20:15Z</time></trkpt><trkpt lat="43.80311112290773" lon="10.942296407373114"><ele>213.0</ele><time>2026-03-22T11:20:19Z</time></trkpt><trkpt lat="43.80306412096078" lon="10.942214231698648"><ele>213.0</ele><time>2026-03-22T11:20:23Z</time></trkpt><trkpt lat="43.80304716016799" lon="10.942114804937033"><ele>213.0</ele><time>2026-03-22T11:20:27Z</time></trkpt><trkpt lat="43.803011196855465" lon="10.942041342351073"><ele>212.99999999999997</ele><time>2026-03-22T11:20:30Z</time></trkpt><trkpt lat="43.802979478724744" lon="10.941962827221527"><ele>213.0</ele><time>2026-03-22T11:20:33Z</time></trkpt><trkpt lat="43.80295073872959" lon="10.941881866876225"><ele>212.99999999999997</ele><time>2026-03-22T11:20:36Z</time></trkpt><trkpt lat="43.80289457090752" lon="10.941810411930827"><ele>213.0</ele><time>2026-03-22T11:20:39Z</time></trkpt><trkpt lat="43.80283897539269" lon="10.941758095857619"><ele>213.0</ele><time>2026-03-22T11:20:42Z</time></trkpt><trkpt lat="43.80279043151455" lon="10.941688146346609"><ele>213.0</ele><time>2026-03-22T11:20:45Z</time></trkpt><trkpt lat="43.80272523000015" lon="10.941644188683133"><ele>213.0</ele><time>2026-03-22T11:20:48Z</time></trkpt><trkpt lat="43.80269466785762" lon="10.941552333881893"><ele>212.99999999999997</ele><time>2026-03-22T11:20:51Z</time></trkpt><trkpt lat="43.8026592690942" lon="10.941477003125337"><ele>213.0</ele><time>2026-03-22T11:20:54Z</time></trkpt><trkpt lat="43.802601073757955" lon="10.941389794707408"><ele>214.42857142857142</ele><time>2026-03-22T11:20:57.999Z</time></trkpt><trkpt lat="43.80255813249639" lon="10.941316437954908"><ele>215.85714285714286</ele><time>2026-03-22T11:21:00.999Z</time></trkpt><trkpt lat="43.80251061394018" lon="10.941259076158014"><ele>217.28571428571428</ele><time>2026-03-22T11:21:03.999Z</time></trkpt><trkpt lat="43.802472607938675" lon="10.941171157516047"><ele>218.71428571428572</ele><time>2026-03-22T11:21:07.999Z</time></trkpt><trkpt lat="43.80245817621579" lon="10.94107996658222"><ele>220.14285714285714</ele><time>2026-03-22T11:21:11.999Z</time></trkpt><trkpt lat="43.80243535338298" lon="10.940976653332028"><ele>221.57142857142856</ele><time>2026-03-22T11:21:15.999Z</time></trkpt><trkpt lat="43.80241559924698" lon="10.940880018445306"><ele>223.0</ele><time>2026-03-22T11:21:19.999Z</time></trkpt><trkpt lat="43.8023813374001" lon="10.940794494960487"><ele>219.71428571428572</ele><time>2026-03-22T11:21:23.999Z</time></trkpt><trkpt lat="43.80232075292188" lon="10.94072123058622"><ele>216.42857142857142</ele><time>2026-03-22T11:21:27.999Z</time></trkpt><trkpt lat="43.80224979594121" lon="10.94069351766513"><ele>213.14285714285717</ele><time>2026-03-22T11:21:31.999Z</time></trkpt><trkpt lat="43.802179643373876" lon="10.940652574581874"><ele>209.85714285714286</ele><time>2026-03-22T11:21:35.999Z</time></trkpt><trkpt lat="43.80211086161251" lon="10.940614472289981"><ele>206.57142857142858</ele><time>2026-03-22T11:21:39.999Z</time></trkpt><trkpt lat="43.80206165605355" lon="10.94055570283181"><ele>203.2857142857143</ele><time>2026-03-22T11:21:42.999Z</time></trkpt><trkpt lat="43.802003521861614" lon="10.94050518143354"><ele>200.0</ele><time>2026-03-22T11:21:46.999Z</time></trkpt><trkpt lat="43.80193522685982" lon="10.940458007678881"><ele>200.00000000000003</ele><time>2026-03-22T11:21:51.999Z</time></trkpt><trkpt lat="43.80188693079258" lon="10.940399158300735"><ele>200.0</ele><time>2026-03-22T11:21:55.999Z</time></trkpt><trkpt lat="43.80186241450475" lon="10.940313807947831"><ele>200.0</ele><time>2026-03-22T11:22:01Z</time></trkpt><trkpt lat="43.80182096540427" lon="10.94023165552478"><ele>200.0</ele><time>2026-03-22T11:22:08Z</time></trkpt><trkpt lat="43.801792752785666" lon="10.94013698402663"><ele>200.0</ele><time>2026-03-22T11:22:15Z</time></trkpt><trkpt lat="43.80176342538131" lon="10.940046532355382"><ele>200.00000000000003</ele><time>2026-03-22T11:22:21Z</time></trkpt><trkpt lat="43.801722943593035" lon="10.939973296484732"><ele>200.0</ele><time>2026-03-22T11:22:26Z</time></trkpt><trkpt lat="43.801681027360544" lon="10.939906715356905"><ele>201.2857142857143</ele><time>2026-03-22T11:22:31Z</time></trkpt><trkpt lat="43.80164085016053" lon="10.939830457335875"><ele>202.57142857142858</ele><time>2026-03-22T11:22:36Z</time></trkpt><trkpt lat="43.80159724613721" lon="10.939766848320174"><ele>203.85714285714286</ele><time>2026-03-22T11:22:40Z</time></trkpt><trkpt lat="43.80154549103745" lon="10.939695181846325"><ele>205.14285714285717</ele><time>2026-03-22T11:22:46Z</time></trkpt><trkpt lat="43.80149444981747" lon="10.93962597529021"><ele>206.42857142857142</ele><time>2026-03-22T11:22:51Z</time></trkpt><trkpt lat="43.801447429782996" lon="10.939557463520647"><ele>207.71428571428572</ele><time>2026-03-22T11:22:56Z</time></trkpt><trkpt lat="43.801399706840165" lon="10.93949353051134"><ele>209.0</ele><time>2026-03-22T11:23:00.999Z</time></trkpt><trkpt lat="43.80134607192424" lon="10.939427017857584"><ele>209.0</ele><time>2026-03-22T11:23:05.999Z</time></trkpt><trkpt lat="43.80129073541767" lon="10.93937606367634"><ele>209.0</ele><time>2026-03-22T11:23:10.999Z</time></trkpt><trkpt lat="43.801226037282106" lon="10.939330946376481"><ele>209.0</ele><time>2026-03-22T11:23:15.999Z</time></trkpt><trkpt lat="43.80116168386891" lon="10.939303219980092"><ele>209.0</ele><time>2026-03-22T11:23:20.999Z</time></trkpt><trkpt lat="43.80109610611734" lon="10.939300061290744"><ele>209.0</ele><time>2026-03-22T11:23:25.999Z</time></trkpt><trkpt lat="43.80103217916466" lon="10.939295305314314"><ele>209.0</ele><time>2026-03-22T11:23:30.999Z</time></trkpt><trkpt lat="43.800948334727295" lon="10.939262498140195"><ele>209.0</ele><time>2026-03-22T11:23:35.999Z</time></trkpt><trkpt lat="43.80089252376618" lon="10.939214581051356"><ele>209.16666666666669</ele><time>2026-03-22T11:23:39.999Z</time></trkpt><trkpt lat="43.80082886163042" lon="10.939137712639814"><ele>209.33333333333334</ele><time>2026-03-22T11:23:43.999Z</time></trkpt><trkpt lat="43.8007628083331" lon="10.939069384925517"><ele>209.5</ele><time>2026-03-22T11:23:47.999Z</time></trkpt><trkpt lat="43.800711208062154" lon="10.938985425307651"><ele>209.66666666666669</ele><time>2026-03-22T11:23:51.999Z</time></trkpt><trkpt lat="43.80067325513568" lon="10.938903567037997"><ele>209.83333333333334</ele><time>2026-03-22T11:23:55.999Z</time></trkpt><trkpt lat="43.800635503617144" lon="10.93882187327227"><ele>210.0</ele><time>2026-03-22T11:23:59.999Z</time></trkpt><trkpt lat="43.80059132394215" lon="10.9387468914562"><ele>210.0</ele><time>2026-03-22T11:24:04Z</time></trkpt><trkpt lat="43.80053061506889" lon="10.93870667297344"><ele>210.0</ele><time>2026-03-22T11:24:07Z</time></trkpt><trkpt lat="43.800454410552206" lon="10.938692172486748"><ele>210.0</ele><time>2026-03-22T11:24:11Z</time></trkpt><trkpt lat="43.80039364775397" lon="10.938721190097576"><ele>210.0</ele><time>2026-03-22T11:24:15Z</time></trkpt><trkpt lat="43.800329053770405" lon="10.938769174083575"><ele>210.0</ele><time>2026-03-22T11:24:19Z</time></trkpt><trkpt lat="43.80025280141808" lon="10.938759682656686"><ele>210.0</ele><time>2026-03-22T11:24:23Z</time></trkpt><trkpt lat="43.80019791971846" lon="10.938830108972937"><ele>210.0</ele><time>2026-03-22T11:24:27Z</time></trkpt><trkpt lat="43.80013292112287" lon="10.938891155736643"><ele>210.14285714285714</ele><time>2026-03-22T11:24:32Z</time></trkpt><trkpt lat="43.80006886797662" lon="10.938954338681718"><ele>210.28571428571428</ele><time>2026-03-22T11:24:36Z</time></trkpt><trkpt lat="43.80002368411335" lon="10.939034864676197"><ele>210.42857142857144</ele><time>2026-03-22T11:24:41Z</time></trkpt><trkpt lat="43.79995571207204" lon="10.939061021068019"><ele>210.57142857142856</ele><time>2026-03-22T11:24:47Z</time></trkpt><trkpt lat="43.79988635231678" lon="10.939031227747993"><ele>210.71428571428572</ele><time>2026-03-22T11:24:51Z</time></trkpt><trkpt lat="43.79982082599888" lon="10.93903815843371"><ele>210.85714285714286</ele><time>2026-03-22T11:24:56Z</time></trkpt><trkpt lat="43.7997596015581" lon="10.939004498838134"><ele>211.0</ele><time>2026-03-22T11:25:33.999Z</time></trkpt><trkpt lat="43.799715765748054" lon="10.938931590790942"><ele>211.0</ele><time>2026-03-22T11:28:03.999Z</time></trkpt><trkpt lat="43.799671422361904" lon="10.93886817952672"><ele>211.0</ele><time>2026-03-22T11:28:10.999Z</time></trkpt><trkpt lat="43.79962912796644" lon="10.93878782471262"><ele>211.0</ele><time>2026-03-22T11:28:18Z</time></trkpt><trkpt lat="43.799602146088034" lon="10.938698425134817"><ele>211.0</ele><time>2026-03-22T11:28:23Z</time></trkpt><trkpt lat="43.799567827584326" lon="10.938615579205628"><ele>211.0</ele><time>2026-03-22T11:28:27Z</time></trkpt><trkpt lat="43.7995321945793" lon="10.938516197372158"><ele>211.0</ele><time>2026-03-22T11:28:31Z</time></trkpt><trkpt lat="43.799497691575105" lon="10.93842128423135"><ele>211.0</ele><time>2026-03-22T11:28:35Z</time></trkpt><trkpt lat="43.79947755783374" lon="10.938329915429607"><ele>209.99999999999997</ele><time>2026-03-22T11:28:39Z</time></trkpt><trkpt lat="43.79946208574803" lon="10.938228101524547"><ele>209.0</ele><time>2026-03-22T11:28:43Z</time></trkpt><trkpt lat="43.79944014752688" lon="10.9381239746522"><ele>208.0</ele><time>2026-03-22T11:28:47Z</time></trkpt><trkpt lat="43.799434235906986" lon="10.9380118919346"><ele>207.0</ele><time>2026-03-22T11:28:51Z</time></trkpt><trkpt lat="43.799417794146926" lon="10.937896951137393"><ele>205.99999999999997</ele><time>2026-03-22T11:28:55Z</time></trkpt><trkpt lat="43.79940570100028" lon="10.937788437443505"><ele>205.0</ele><time>2026-03-22T11:28:59Z</time></trkpt><trkpt lat="43.79938377241676" lon="10.937683624981984"><ele>205.0</ele><time>2026-03-22T11:29:03Z</time></trkpt><trkpt lat="43.79936352845799" lon="10.937579088510262"><ele>205.0</ele><time>2026-03-22T11:29:07Z</time></trkpt><trkpt lat="43.79935608352178" lon="10.937492369657106"><ele>205.0</ele><time>2026-03-22T11:29:10Z</time></trkpt><trkpt lat="43.79933479112726" lon="10.937400130014849"><ele>205.0</ele><time>2026-03-22T11:29:13Z</time></trkpt><trkpt lat="43.79930559453083" lon="10.937297893818956"><ele>205.0</ele><time>2026-03-22T11:29:17Z</time></trkpt><trkpt lat="43.7992773801366" lon="10.937219387295825"><ele>205.0</ele><time>2026-03-22T11:29:20Z</time></trkpt><trkpt lat="43.79925180998256" lon="10.93713590207353"><ele>205.0</ele><time>2026-03-22T11:29:23Z</time></trkpt><trkpt lat="43.799214288165096" lon="10.937028104858218"><ele>205.14285714285714</ele><time>2026-03-22T11:29:26.999Z</time></trkpt><trkpt lat="43.79917736579611" lon="10.936956564220019"><ele>205.28571428571428</ele><time>2026-03-22T11:29:29.999Z</time></trkpt><trkpt lat="43.79912165085988" lon="10.936864900555546"><ele>205.42857142857142</ele><time>2026-03-22T11:29:33.999Z</time></trkpt><trkpt lat="43.79907957785568" lon="10.936793510778498"><ele>205.57142857142856</ele><time>2026-03-22T11:29:36.999Z</time></trkpt><trkpt lat="43.79903600625386" lon="10.936698555278479"><ele>205.71428571428572</ele><time>2026-03-22T11:29:40.999Z</time></trkpt><trkpt lat="43.7989942642382" lon="10.936624279342976"><ele>205.85714285714283</ele><time>2026-03-22T11:29:43.999Z</time></trkpt><trkpt lat="43.79896661065318" lon="10.936541766785954"><ele>206.0</ele><time>2026-03-22T11:29:46.999Z</time></trkpt><trkpt lat="43.79890967722017" lon="10.936489584367811"><ele>205.99999999999997</ele><time>2026-03-22T11:29:49.999Z</time></trkpt><trkpt lat="43.79887874061065" lon="10.936406890728595"><ele>206.0</ele><time>2026-03-22T11:29:52.999Z</time></trkpt><trkpt lat="43.79885449246791" lon="10.936323543828378"><ele>206.0</ele><time>2026-03-22T11:29:55.999Z</time></trkpt><trkpt lat="43.7988318306889" lon="10.936238350328274"><ele>206.0</ele><time>2026-03-22T11:29:58.999Z</time></trkpt><trkpt lat="43.79880470075032" lon="10.936127935230337"><ele>206.0</ele><time>2026-03-22T11:30:02.999Z</time></trkpt><trkpt lat="43.79877759842505" lon="10.936017177111166"><ele>205.99999999999997</ele><time>2026-03-22T11:30:06.999Z</time></trkpt><trkpt lat="43.798759108793654" lon="10.935929738022109"><ele>206.0</ele><time>2026-03-22T11:30:09.999Z</time></trkpt><trkpt lat="43.79873037767018" lon="10.935816568326308"><ele>205.50000000000003</ele><time>2026-03-22T11:30:13.999Z</time></trkpt><trkpt lat="43.79870233727276" lon="10.935709244724148"><ele>205.0</ele><time>2026-03-22T11:30:17.999Z</time></trkpt><trkpt lat="43.79863467613041" lon="10.935672236210761"><ele>204.5</ele><time>2026-03-22T11:30:21Z</time></trkpt><trkpt lat="43.79855968801058" lon="10.935714856021873"><ele>204.0</ele><time>2026-03-22T11:30:25Z</time></trkpt><trkpt lat="43.79849568377482" lon="10.935738627503579"><ele>203.50000000000003</ele><time>2026-03-22T11:30:28Z</time></trkpt><trkpt lat="43.798418751899575" lon="10.935770749657397"><ele>203.0</ele><time>2026-03-22T11:30:32Z</time></trkpt><trkpt lat="43.79834180604164" lon="10.935799642712675"><ele>202.83333333333334</ele><time>2026-03-22T11:30:36Z</time></trkpt><trkpt lat="43.798268603425186" lon="10.935833479413974"><ele>202.66666666666669</ele><time>2026-03-22T11:30:40Z</time></trkpt><trkpt lat="43.79819863204963" lon="10.93587709464344"><ele>202.5</ele><time>2026-03-22T11:30:44Z</time></trkpt><trkpt lat="43.79812663980705" lon="10.935923989214874"><ele>202.33333333333331</ele><time>2026-03-22T11:30:48Z</time></trkpt><trkpt lat="43.79804828980767" lon="10.935957657577944"><ele>202.16666666666666</ele><time>2026-03-22T11:30:52Z</time></trkpt><trkpt lat="43.79797833584677" lon="10.935981773271935"><ele>202.0</ele><time>2026-03-22T11:30:56Z</time></trkpt><trkpt lat="43.79790082377247" lon="10.935964938846077"><ele>202.28571428571428</ele><time>2026-03-22T11:31:00Z</time></trkpt><trkpt lat="43.79782340072511" lon="10.935954057504121"><ele>202.57142857142856</ele><time>2026-03-22T11:31:04Z</time></trkpt><trkpt lat="43.79775994907917" lon="10.935954970191194"><ele>202.85714285714286</ele><time>2026-03-22T11:31:07Z</time></trkpt><trkpt lat="43.79768076397894" lon="10.935948492263996"><ele>203.14285714285714</ele><time>2026-03-22T11:31:11Z</time></trkpt><trkpt lat="43.79762778983885" lon="10.93590064138358"><ele>203.42857142857144</ele><time>2026-03-22T11:31:15Z</time></trkpt><trkpt lat="43.7975987446283" lon="10.93581566760151"><ele>203.71428571428572</ele><time>2026-03-22T11:31:19Z</time></trkpt><trkpt lat="43.79756678838218" lon="10.935733444029127"><ele>204.0</ele><time>2026-03-22T11:31:22.999Z</time></trkpt><trkpt lat="43.797544242969266" lon="10.93564055396995"><ele>202.14285714285714</ele><time>2026-03-22T11:31:26.999Z</time></trkpt><trkpt lat="43.79749757711824" lon="10.9355554283685"><ele>200.28571428571428</ele><time>2026-03-22T11:31:31.999Z</time></trkpt><trkpt lat="43.79745824223754" lon="10.935484982586939"><ele>198.42857142857144</ele><time>2026-03-22T11:31:35.999Z</time></trkpt><trkpt lat="43.79740651229403" lon="10.935412952245931"><ele>196.57142857142856</ele><time>2026-03-22T11:31:40.999Z</time></trkpt><trkpt lat="43.79734542004523" lon="10.935355744725682"><ele>194.7142857142857</ele><time>2026-03-22T11:31:44.999Z</time></trkpt><trkpt lat="43.79728140785827" lon="10.935306049287354"><ele>192.85714285714286</ele><time>2026-03-22T11:31:48.999Z</time></trkpt><trkpt lat="43.797211819171714" lon="10.935265327660275"><ele>191.0</ele><time>2026-03-22T11:31:52.999Z</time></trkpt><trkpt lat="43.79715974144737" lon="10.935205218021862"><ele>191.0</ele><time>2026-03-22T11:31:56.999Z</time></trkpt><trkpt lat="43.79711518018313" lon="10.935131925213023"><ele>191.0</ele><time>2026-03-22T11:32:00.999Z</time></trkpt><trkpt lat="43.797077808509094" lon="10.935041417263601"><ele>191.0</ele><time>2026-03-22T11:32:04.999Z</time></trkpt><trkpt lat="43.797032143660296" lon="10.934976611196104"><ele>191.0</ele><time>2026-03-22T11:32:08.999Z</time></trkpt><trkpt lat="43.79698675559456" lon="10.934884197485548"><ele>191.0</ele><time>2026-03-22T11:32:13.999Z</time></trkpt><trkpt lat="43.796935029900965" lon="10.934829435236175"><ele>191.0</ele><time>2026-03-22T11:32:16.999Z</time></trkpt><trkpt lat="43.796873465552345" lon="10.93476520347133"><ele>191.0</ele><time>2026-03-22T11:32:20.999Z</time></trkpt><trkpt lat="43.79681739043384" lon="10.934700658588705"><ele>187.5</ele><time>2026-03-22T11:32:24.999Z</time></trkpt><trkpt lat="43.79675350825982" lon="10.934651402129251"><ele>184.0</ele><time>2026-03-22T11:32:29Z</time></trkpt><trkpt lat="43.79670609134858" lon="10.93456033421074"><ele>180.5</ele><time>2026-03-22T11:32:33Z</time></trkpt><trkpt lat="43.79665056554268" lon="10.934490268262525"><ele>177.0</ele><time>2026-03-22T11:32:37Z</time></trkpt><trkpt lat="43.79659175979312" lon="10.93442390227543"><ele>173.5</ele><time>2026-03-22T11:32:41Z</time></trkpt><trkpt lat="43.796539847086365" lon="10.93433872165934"><ele>170.0</ele><time>2026-03-22T11:32:45Z</time></trkpt><trkpt lat="43.796477693636824" lon="10.934294863362618"><ele>169.71428571428572</ele><time>2026-03-22T11:32:49Z</time></trkpt><trkpt lat="43.796435294852685" lon="10.934211369317795"><ele>169.42857142857142</ele><time>2026-03-22T11:32:53Z</time></trkpt><trkpt lat="43.79639433015432" lon="10.93414493847095"><ele>169.14285714285714</ele><time>2026-03-22T11:32:56Z</time></trkpt><trkpt lat="43.796348924056765" lon="10.934056157230568"><ele>168.85714285714286</ele><time>2026-03-22T11:33:00Z</time></trkpt><trkpt lat="43.79630355274117" lon="10.93396516720053"><ele>168.57142857142856</ele><time>2026-03-22T11:33:04Z</time></trkpt><trkpt lat="43.79627644206131" lon="10.933879070021337"><ele>168.28571428571428</ele><time>2026-03-22T11:33:07Z</time></trkpt><trkpt lat="43.796222719429394" lon="10.933816357316582"><ele>168.0</ele><time>2026-03-22T11:33:10Z</time></trkpt><trkpt lat="43.796195729855626" lon="10.93372697048404"><ele>168.0</ele><time>2026-03-22T11:33:14Z</time></trkpt><trkpt lat="43.796155216375624" lon="10.933658849679645"><ele>168.0</ele><time>2026-03-22T11:33:17Z</time></trkpt><trkpt lat="43.796099426584945" lon="10.933607705195032"><ele>168.0</ele><time>2026-03-22T11:33:20Z</time></trkpt><trkpt lat="43.79604257144893" lon="10.933550601054108"><ele>168.0</ele><time>2026-03-22T11:33:23Z</time></trkpt><trkpt lat="43.79599240927986" lon="10.933491586897846"><ele>168.0</ele><time>2026-03-22T11:33:26Z</time></trkpt><trkpt lat="43.795929476680854" lon="10.933444733654639"><ele>168.0</ele><time>2026-03-22T11:33:29Z</time></trkpt><trkpt lat="43.79587631594824" lon="10.933389664770866"><ele>168.0</ele><time>2026-03-22T11:33:32Z</time></trkpt><trkpt lat="43.795816563572565" lon="10.933342199731236"><ele>166.66666666666666</ele><time>2026-03-22T11:33:35Z</time></trkpt><trkpt lat="43.79575899722114" lon="10.93329657573374"><ele>165.33333333333334</ele><time>2026-03-22T11:33:37.999Z</time></trkpt><trkpt lat="43.79570517723134" lon="10.933246258918883"><ele>164.0</ele><time>2026-03-22T11:33:40.999Z</time></trkpt><trkpt lat="43.7956388796012" lon="10.93316919456925"><ele>162.66666666666669</ele><time>2026-03-22T11:33:44.999Z</time></trkpt><trkpt lat="43.79556859428736" lon="10.933103648092915"><ele>161.33333333333334</ele><time>2026-03-22T11:33:48.999Z</time></trkpt><trkpt lat="43.795502409738454" lon="10.933031861859774"><ele>160.0</ele><time>2026-03-22T11:33:52.999Z</time></trkpt><trkpt lat="43.79545297769455" lon="10.93297758478672"><ele>160.0</ele><time>2026-03-22T11:33:55.999Z</time></trkpt><trkpt lat="43.795392890203125" lon="10.932937032285055"><ele>160.0</ele><time>2026-03-22T11:33:58.999Z</time></trkpt><trkpt lat="43.79532643399492" lon="10.932874969103255"><ele>160.0</ele><time>2026-03-22T11:34:02.999Z</time></trkpt><trkpt lat="43.79526636095305" lon="10.932838841093345"><ele>160.0</ele><time>2026-03-22T11:34:05.999Z</time></trkpt><trkpt lat="43.79519415723104" lon="10.932776529698891"><ele>160.0</ele><time>2026-03-22T11:34:09.999Z</time></trkpt><trkpt lat="43.79513909419068" lon="10.932728399043906"><ele>160.0</ele><time>2026-03-22T11:34:12.999Z</time></trkpt><trkpt lat="43.79508688522914" lon="10.93267106693341"><ele>160.0</ele><time>2026-03-22T11:34:15.999Z</time></trkpt><trkpt lat="43.79503047616009" lon="10.93262092180173"><ele>159.71428571428572</ele><time>2026-03-22T11:34:18.999Z</time></trkpt><trkpt lat="43.794979732217655" lon="10.932561618596983"><ele>159.42857142857144</ele><time>2026-03-22T11:34:21.999Z</time></trkpt><trkpt lat="43.79491669895012" lon="10.932494779183036"><ele>159.14285714285717</ele><time>2026-03-22T11:34:25.999Z</time></trkpt><trkpt lat="43.79485565366699" lon="10.932444172893767"><ele>158.85714285714286</ele><time>2026-03-22T11:34:28.999Z</time></trkpt><trkpt lat="43.79480800984065" lon="10.932383734359998"><ele>158.57142857142858</ele><time>2026-03-22T11:34:31.999Z</time></trkpt><trkpt lat="43.79473666878823" lon="10.932337040347914"><ele>158.2857142857143</ele><time>2026-03-22T11:34:36Z</time></trkpt><trkpt lat="43.79466605247658" lon="10.932290392035556"><ele>158.0</ele><time>2026-03-22T11:34:40Z</time></trkpt><trkpt lat="43.79461789629051" lon="10.932224374593384"><ele>158.0</ele><time>2026-03-22T11:34:43Z</time></trkpt><trkpt lat="43.794547059129926" lon="10.932154627723794"><ele>158.0</ele><time>2026-03-22T11:34:47Z</time></trkpt><trkpt lat="43.794472160302874" lon="10.932102198020132"><ele>158.0</ele><time>2026-03-22T11:34:51Z</time></trkpt><trkpt lat="43.79439899534713" lon="10.932042077884446"><ele>158.0</ele><time>2026-03-22T11:34:55Z</time></trkpt><trkpt lat="43.79434562182099" lon="10.931991037951287"><ele>158.0</ele><time>2026-03-22T11:34:58Z</time></trkpt><trkpt lat="43.79426617648033" lon="10.931956017225732"><ele>158.0</ele><time>2026-03-22T11:35:02Z</time></trkpt><trkpt lat="43.79418380010823" lon="10.931957562901855"><ele>156.2857142857143</ele><time>2026-03-22T11:35:06Z</time></trkpt><trkpt lat="43.7941074661302" lon="10.931972036305355"><ele>154.57142857142858</ele><time>2026-03-22T11:35:10Z</time></trkpt><trkpt lat="43.79404276787616" lon="10.931965480931487"><ele>152.85714285714286</ele><time>2026-03-22T11:35:13Z</time></trkpt><trkpt lat="43.79397123815605" lon="10.931955590278973"><ele>151.14285714285717</ele><time>2026-03-22T11:35:17Z</time></trkpt><trkpt lat="43.79389567176722" lon="10.931975360798232"><ele>149.42857142857144</ele><time>2026-03-22T11:35:21Z</time></trkpt><trkpt lat="43.79381481673798" lon="10.931973865376246"><ele>147.71428571428572</ele><time>2026-03-22T11:35:25Z</time></trkpt><trkpt lat="43.79374200559082" lon="10.93195023576899"><ele>146.0</ele><time>2026-03-22T11:35:29Z</time></trkpt><trkpt lat="43.79369736650953" lon="10.931887491622879"><ele>146.0</ele><time>2026-03-22T11:35:32Z</time></trkpt><trkpt lat="43.793691085761566" lon="10.931795905360103"><ele>146.0</ele><time>2026-03-22T11:35:35Z</time></trkpt><trkpt lat="43.79367078146032" lon="10.931706687750776"><ele>146.0</ele><time>2026-03-22T11:35:37.999Z</time></trkpt><trkpt lat="43.793638032680185" lon="10.931629545460122"><ele>146.0</ele><time>2026-03-22T11:35:40.999Z</time></trkpt><trkpt lat="43.79360427145996" lon="10.931528140275848"><ele>146.0</ele><time>2026-03-22T11:35:44.999Z</time></trkpt><trkpt lat="43.79355096472658" lon="10.93145068067971"><ele>146.0</ele><time>2026-03-22T11:35:48.999Z</time></trkpt><trkpt lat="43.79348190390821" lon="10.931481136011616"><ele>146.0</ele><time>2026-03-22T11:35:51.999Z</time></trkpt><trkpt lat="43.793400127788715" lon="10.931507011770783"><ele>144.28571428571428</ele><time>2026-03-22T11:35:55.999Z</time></trkpt><trkpt lat="43.79333844930813" lon="10.931488704970718"><ele>142.57142857142858</ele><time>2026-03-22T11:35:58.999Z</time></trkpt><trkpt lat="43.793277491582394" lon="10.931431679207682"><ele>140.85714285714286</ele><time>2026-03-22T11:36:02.999Z</time></trkpt><trkpt lat="43.79323946633209" lon="10.931347232453238"><ele>139.14285714285714</ele><time>2026-03-22T11:36:05.999Z</time></trkpt><trkpt lat="43.79319275534954" lon="10.9312792716148"><ele>137.42857142857142</ele><time>2026-03-22T11:36:08.999Z</time></trkpt><trkpt lat="43.793125891290984" lon="10.931213628555977"><ele>135.71428571428572</ele><time>2026-03-22T11:36:12.999Z</time></trkpt><trkpt lat="43.793071585172534" lon="10.931167209355584"><ele>134.0</ele><time>2026-03-22T11:36:15.999Z</time></trkpt><trkpt lat="43.793008084726196" lon="10.931139251089117"><ele>134.0</ele><time>2026-03-22T11:36:18.999Z</time></trkpt><trkpt lat="43.792943021460175" lon="10.931102960581763"><ele>134.0</ele><time>2026-03-22T11:36:21.999Z</time></trkpt><trkpt lat="43.792885295604904" lon="10.931051375889593"><ele>134.0</ele><time>2026-03-22T11:36:24.999Z</time></trkpt><trkpt lat="43.79282508105056" lon="10.930999886030492"><ele>134.0</ele><time>2026-03-22T11:36:27.999Z</time></trkpt><trkpt lat="43.79276583385778" lon="10.930957646421078"><ele>134.0</ele><time>2026-03-22T11:36:30.999Z</time></trkpt><trkpt lat="43.79271044898334" lon="10.930909490136925"><ele>134.0</ele><time>2026-03-22T11:36:33.999Z</time></trkpt><trkpt lat="43.79264570605563" lon="10.930875210443668"><ele>134.0</ele><time>2026-03-22T11:36:36.999Z</time></trkpt><trkpt lat="43.792578870756344" lon="10.930838003420057"><ele>132.85714285714286</ele><time>2026-03-22T11:36:40Z</time></trkpt><trkpt lat="43.79251604617042" lon="10.930799395164367"><ele>131.71428571428572</ele><time>2026-03-22T11:36:43Z</time></trkpt><trkpt lat="43.7924566699338" lon="10.930753751259127"><ele>130.57142857142856</ele><time>2026-03-22T11:36:46Z</time></trkpt><trkpt lat="43.792387291990764" lon="10.930721121242955"><ele>129.42857142857144</ele><time>2026-03-22T11:36:49Z</time></trkpt><trkpt lat="43.792329337912385" lon="10.930683524927831"><ele>128.28571428571428</ele><time>2026-03-22T11:36:52Z</time></trkpt><trkpt lat="43.79226775819526" lon="10.930637713795809"><ele>127.14285714285714</ele><time>2026-03-22T11:36:55Z</time></trkpt><trkpt lat="43.792207887619995" lon="10.930586870332327"><ele>126.0</ele><time>2026-03-22T11:36:58Z</time></trkpt><trkpt lat="43.792150813724625" lon="10.93054031191276"><ele>126.0</ele><time>2026-03-22T11:37:01Z</time></trkpt><trkpt lat="43.792087453858095" lon="10.930496347708173"><ele>126.0</ele><time>2026-03-22T11:37:04Z</time></trkpt><trkpt lat="43.79203205589804" lon="10.93044738064699"><ele>126.0</ele><time>2026-03-22T11:37:07Z</time></trkpt><trkpt lat="43.79196812659998" lon="10.930420495204336"><ele>126.0</ele><time>2026-03-22T11:37:10Z</time></trkpt><trkpt lat="43.79190713789417" lon="10.930372815789582"><ele>126.0</ele><time>2026-03-22T11:37:13Z</time></trkpt><trkpt lat="43.79184946614104" lon="10.930323968996055"><ele>126.0</ele><time>2026-03-22T11:37:16Z</time></trkpt><trkpt lat="43.79178511841693" lon="10.93029075250191"><ele>126.0</ele><time>2026-03-22T11:37:19Z</time></trkpt><trkpt lat="43.79173112753799" lon="10.930236259517347"><ele>124.71428571428572</ele><time>2026-03-22T11:37:22Z</time></trkpt><trkpt lat="43.79166671300266" lon="10.930165080094563"><ele>123.42857142857143</ele><time>2026-03-22T11:37:26Z</time></trkpt><trkpt lat="43.79163946111627" lon="10.930081623309587"><ele>122.14285714285714</ele><time>2026-03-22T11:37:30Z</time></trkpt><trkpt lat="43.79169731398388" lon="10.930032282261841"><ele>120.85714285714286</ele><time>2026-03-22T11:37:34Z</time></trkpt><trkpt lat="43.79174591231249" lon="10.929963573196536"><ele>119.57142857142858</ele><time>2026-03-22T11:37:37.999Z</time></trkpt><trkpt lat="43.791784292181156" lon="10.929891932146493"><ele>118.28571428571429</ele><time>2026-03-22T11:37:41.999Z</time></trkpt><trkpt lat="43.79183692572119" lon="10.92983682555724"><ele>117.0</ele><time>2026-03-22T11:37:45.999Z</time></trkpt><trkpt lat="43.791869867700214" lon="10.929742883063563"><ele>116.66666666666667</ele><time>2026-03-22T11:37:49.999Z</time></trkpt><trkpt lat="43.79181666306111" lon="10.929681145301505"><ele>116.33333333333334</ele><time>2026-03-22T11:37:52.999Z</time></trkpt><trkpt lat="43.79174878905664" lon="10.929640701214703"><ele>116.0</ele><time>2026-03-22T11:37:55.999Z</time></trkpt><trkpt lat="43.79167465335249" lon="10.929606895156354"><ele>115.66666666666667</ele><time>2026-03-22T11:37:59.999Z</time></trkpt><trkpt lat="43.79160053947694" lon="10.92958596855189"><ele>115.33333333333334</ele><time>2026-03-22T11:38:03.999Z</time></trkpt><trkpt lat="43.791522962272744" lon="10.929572417598413"><ele>115.0</ele><time>2026-03-22T11:38:07.999Z</time></trkpt><trkpt lat="43.79144243817401" lon="10.929571902721928"><ele>115.00000000000001</ele><time>2026-03-22T11:38:11.999Z</time></trkpt><trkpt lat="43.7913588156991" lon="10.929574398949342"><ele>115.0</ele><time>2026-03-22T11:38:15.999Z</time></trkpt><trkpt lat="43.791284056345816" lon="10.929524232766273"><ele>115.0</ele><time>2026-03-22T11:38:19.999Z</time></trkpt><trkpt lat="43.7912251393721" lon="10.92949329675406"><ele>115.0</ele><time>2026-03-22T11:38:22.999Z</time></trkpt><trkpt lat="43.79114983452097" lon="10.929470146735072"><ele>115.00000000000001</ele><time>2026-03-22T11:38:26.999Z</time></trkpt><trkpt lat="43.791073305872494" lon="10.929428182701207"><ele>115.0</ele><time>2026-03-22T11:38:30.999Z</time></trkpt><trkpt lat="43.7910124794835" lon="10.929389463840678"><ele>113.7142857142857</ele><time>2026-03-22T11:38:33.999Z</time></trkpt><trkpt lat="43.790948056067265" lon="10.929365066884529"><ele>112.42857142857142</ele><time>2026-03-22T11:38:36.999Z</time></trkpt><trkpt lat="43.7908627213249" lon="10.929360126788888"><ele>111.14285714285714</ele><time>2026-03-22T11:38:39.999Z</time></trkpt><trkpt lat="43.790792182372016" lon="10.929343633824026"><ele>109.85714285714285</ele><time>2026-03-22T11:38:42.999Z</time></trkpt><trkpt lat="43.79071933238954" lon="10.929323879417417"><ele>108.57142857142856</ele><time>2026-03-22T11:38:46Z</time></trkpt><trkpt lat="43.790651354850866" lon="10.92931008479157"><ele>107.28571428571429</ele><time>2026-03-22T11:38:49Z</time></trkpt><trkpt lat="43.790573225344026" lon="10.929273168277268"><ele>106.0</ele><time>2026-03-22T11:38:52Z</time></trkpt><trkpt lat="43.79050847927643" lon="10.929251266892162"><ele>106.0</ele><time>2026-03-22T11:38:55Z</time></trkpt><trkpt lat="43.790437612331544" lon="10.929232132391851"><ele>106.0</ele><time>2026-03-22T11:38:58Z</time></trkpt><trkpt lat="43.79037713535458" lon="10.929178436875851"><ele>106.0</ele><time>2026-03-22T11:39:01Z</time></trkpt><trkpt lat="43.79031551877701" lon="10.929157713192401"><ele>106.0</ele><time>2026-03-22T11:39:04Z</time></trkpt><trkpt lat="43.79025012301114" lon="10.929148315895963"><ele>106.0</ele><time>2026-03-22T11:39:07Z</time></trkpt><trkpt lat="43.790188717633626" lon="10.92912429694427"><ele>106.0</ele><time>2026-03-22T11:39:10Z</time></trkpt><trkpt lat="43.790119959653" lon="10.929094693746814"><ele>106.0</ele><time>2026-03-22T11:39:13Z</time></trkpt><trkpt lat="43.79003866766592" lon="10.929087302765986"><ele>103.66666666666667</ele><time>2026-03-22T11:39:17Z</time></trkpt><trkpt lat="43.78996371914345" lon="10.92908727771615"><ele>101.33333333333334</ele><time>2026-03-22T11:39:20Z</time></trkpt><trkpt lat="43.78988631359572" lon="10.92903611420256"><ele>99.0</ele><time>2026-03-22T11:39:24Z</time></trkpt><trkpt lat="43.78980643027146" lon="10.929026025157267"><ele>96.66666666666667</ele><time>2026-03-22T11:39:28Z</time></trkpt><trkpt lat="43.78974236713845" lon="10.929039236692091"><ele>94.33333333333334</ele><time>2026-03-22T11:39:31Z</time></trkpt><trkpt lat="43.78966297769174" lon="10.92900371656081"><ele>92.0</ele><time>2026-03-22T11:39:35Z</time></trkpt><trkpt lat="43.7895859822059" lon="10.928958181902386"><ele>92.0</ele><time>2026-03-22T11:39:39Z</time></trkpt><trkpt lat="43.78950890987937" lon="10.928918448387932"><ele>92.0</ele><time>2026-03-22T11:39:43Z</time></trkpt><trkpt lat="43.78944447094704" lon="10.92887366403579"><ele>92.0</ele><time>2026-03-22T11:39:47Z</time></trkpt><trkpt lat="43.7893984944157" lon="10.928780136321437"><ele>92.0</ele><time>2026-03-22T11:39:50.999Z</time></trkpt><trkpt lat="43.78933660972989" lon="10.928708416812919"><ele>92.0</ele><time>2026-03-22T11:39:54.999Z</time></trkpt><trkpt lat="43.789275696743495" lon="10.928618056720568"><ele>92.0</ele><time>2026-03-22T11:39:58.999Z</time></trkpt><trkpt lat="43.78921083432923" lon="10.928559701924101"><ele>91.14285714285715</ele><time>2026-03-22T11:40:01.999Z</time></trkpt><trkpt lat="43.78914316840838" lon="10.928518921106722"><ele>90.28571428571428</ele><time>2026-03-22T11:40:04.999Z</time></trkpt><trkpt lat="43.78907421463252" lon="10.928483945539316"><ele>89.42857142857143</ele><time>2026-03-22T11:40:07.999Z</time></trkpt><trkpt lat="43.789018182105686" lon="10.928425593918089"><ele>88.57142857142858</ele><time>2026-03-22T11:40:10.999Z</time></trkpt><trkpt lat="43.78895954637003" lon="10.928367502581384"><ele>87.71428571428572</ele><time>2026-03-22T11:40:13.999Z</time></trkpt><trkpt lat="43.78889612093492" lon="10.928332748422337"><ele>86.85714285714286</ele><time>2026-03-22T11:40:16.999Z</time></trkpt><trkpt lat="43.78882226565861" lon="10.928338417479011"><ele>86.0</ele><time>2026-03-22T11:40:19.999Z</time></trkpt><trkpt lat="43.78873583649652" lon="10.928335300164708"><ele>86.00000000000001</ele><time>2026-03-22T11:40:23.999Z</time></trkpt><trkpt lat="43.78866636704987" lon="10.92831011942935"><ele>86.0</ele><time>2026-03-22T11:40:26.999Z</time></trkpt><trkpt lat="43.788596066096034" lon="10.928292305143547"><ele>86.0</ele><time>2026-03-22T11:40:29.999Z</time></trkpt><trkpt lat="43.78852384980925" lon="10.928283233527177"><ele>86.0</ele><time>2026-03-22T11:40:32.999Z</time></trkpt><trkpt lat="43.788449772783046" lon="10.928276866454393"><ele>86.0</ele><time>2026-03-22T11:40:35.999Z</time></trkpt><trkpt lat="43.788375260445676" lon="10.928238333801632"><ele>86.00000000000001</ele><time>2026-03-22T11:40:38.999Z</time></trkpt><trkpt lat="43.78830959572135" lon="10.928209383625246"><ele>86.0</ele><time>2026-03-22T11:40:41.999Z</time></trkpt><trkpt lat="43.788247006305575" lon="10.928173795723447"><ele>85.42857142857143</ele><time>2026-03-22T11:40:44.999Z</time></trkpt><trkpt lat="43.7881752139723" lon="10.928142482830571"><ele>84.85714285714286</ele><time>2026-03-22T11:40:47.999Z</time></trkpt><trkpt lat="43.788112727479344" lon="10.928098897153866"><ele>84.28571428571428</ele><time>2026-03-22T11:40:51Z</time></trkpt><trkpt lat="43.78805193746977" lon="10.928056541957114"><ele>83.71428571428572</ele><time>2026-03-22T11:40:54Z</time></trkpt><trkpt lat="43.78798166120144" lon="10.928027174580878"><ele>83.14285714285714</ele><time>2026-03-22T11:40:57Z</time></trkpt><trkpt lat="43.78790673946234" lon="10.927983693085961"><ele>82.57142857142857</ele><time>2026-03-22T11:41:01Z</time></trkpt><trkpt lat="43.787839083149954" lon="10.927940363736312"><ele>82.0</ele><time>2026-03-22T11:41:04Z</time></trkpt><trkpt lat="43.7877897769819" lon="10.927872216731176"><ele>81.99999999999999</ele><time>2026-03-22T11:41:07Z</time></trkpt><trkpt lat="43.78772407514952" lon="10.92783056529107"><ele>82.0</ele><time>2026-03-22T11:41:10Z</time></trkpt><trkpt lat="43.787672543415724" lon="10.927777598240024"><ele>82.0</ele><time>2026-03-22T11:41:13Z</time></trkpt><trkpt lat="43.78761408570984" lon="10.927726398460814"><ele>82.0</ele><time>2026-03-22T11:41:16Z</time></trkpt><trkpt lat="43.78755933966434" lon="10.927674180067946"><ele>82.0</ele><time>2026-03-22T11:41:19Z</time></trkpt><trkpt lat="43.78750336813912" lon="10.927626249741383"><ele>81.99999999999999</ele><time>2026-03-22T11:41:22Z</time></trkpt><trkpt lat="43.78743882490514" lon="10.92759107141388"><ele>82.0</ele><time>2026-03-22T11:41:25Z</time></trkpt><trkpt lat="43.78736024383747" lon="10.92755898185641"><ele>83.16666666666666</ele><time>2026-03-22T11:41:29Z</time></trkpt><trkpt lat="43.787282936091486" lon="10.927518060939553"><ele>84.33333333333333</ele><time>2026-03-22T11:41:33Z</time></trkpt><trkpt lat="43.787219657407306" lon="10.927456284011154"><ele>85.5</ele><time>2026-03-22T11:41:37Z</time></trkpt><trkpt lat="43.78715039964621" lon="10.927402428977956"><ele>86.66666666666667</ele><time>2026-03-22T11:41:41Z</time></trkpt><trkpt lat="43.78708853067334" lon="10.927360018040005"><ele>87.83333333333334</ele><time>2026-03-22T11:41:44Z</time></trkpt><trkpt lat="43.787009857285774" lon="10.927321912388045"><ele>89.0</ele><time>2026-03-22T11:41:48Z</time></trkpt><trkpt lat="43.786943075979266" lon="10.927304576705692"><ele>88.99999999999999</ele><time>2026-03-22T11:41:51Z</time></trkpt><trkpt lat="43.786880274498785" lon="10.92729510284502"><ele>89.0</ele><time>2026-03-22T11:41:53.999Z</time></trkpt><trkpt lat="43.78681821590957" lon="10.927275026396059"><ele>89.0</ele><time>2026-03-22T11:41:56.999Z</time></trkpt><trkpt lat="43.786750519300035" lon="10.92723234298411"><ele>89.0</ele><time>2026-03-22T11:42:00.999Z</time></trkpt><trkpt lat="43.78669439345963" lon="10.927165982753152"><ele>89.0</ele><time>2026-03-22T11:42:04.999Z</time></trkpt><trkpt lat="43.786633743381245" lon="10.927108657516259"><ele>88.99999999999999</ele><time>2026-03-22T11:42:08.999Z</time></trkpt><trkpt lat="43.78658094660222" lon="10.927060399645253"><ele>89.0</ele><time>2026-03-22T11:42:11.999Z</time></trkpt><trkpt lat="43.78651944257247" lon="10.927004487751713"><ele>88.85714285714285</ele><time>2026-03-22T11:42:15.999Z</time></trkpt><trkpt lat="43.786468666006" lon="10.926950092031083"><ele>88.71428571428571</ele><time>2026-03-22T11:42:18.999Z</time></trkpt><trkpt lat="43.78643857432064" lon="10.926856712898049"><ele>88.57142857142857</ele><time>2026-03-22T11:42:22.999Z</time></trkpt><trkpt lat="43.7863750798805" lon="10.926782803960567"><ele>88.42857142857142</ele><time>2026-03-22T11:42:26.999Z</time></trkpt><trkpt lat="43.786299020844034" lon="10.926755578762917"><ele>88.28571428571428</ele><time>2026-03-22T11:42:29.999Z</time></trkpt><trkpt lat="43.786240006574076" lon="10.926711127161667"><ele>88.14285714285714</ele><time>2026-03-22T11:42:32.999Z</time></trkpt><trkpt lat="43.786183747787796" lon="10.926666610161075"><ele>88.0</ele><time>2026-03-22T11:42:35.999Z</time></trkpt><trkpt lat="43.786128199123944" lon="10.926609219573617"><ele>88.0</ele><time>2026-03-22T11:42:38.999Z</time></trkpt><trkpt lat="43.78606452991425" lon="10.926555308624597"><ele>88.0</ele><time>2026-03-22T11:42:41.999Z</time></trkpt><trkpt lat="43.78600361879934" lon="10.9264928198228"><ele>88.0</ele><time>2026-03-22T11:42:44.999Z</time></trkpt><trkpt lat="43.78594665488796" lon="10.926417793191948"><ele>88.0</ele><time>2026-03-22T11:42:48.999Z</time></trkpt><trkpt lat="43.785880284165906" lon="10.92636885573153"><ele>88.0</ele><time>2026-03-22T11:42:54.999Z</time></trkpt><trkpt lat="43.785834754568846" lon="10.926271771373017"><ele>88.0</ele><time>2026-03-22T11:42:59Z</time></trkpt><trkpt lat="43.785791044979014" lon="10.926178756167118"><ele>86.71428571428572</ele><time>2026-03-22T11:43:03Z</time></trkpt><trkpt lat="43.785760678796784" lon="10.926092967603056"><ele>85.42857142857143</ele><time>2026-03-22T11:43:06Z</time></trkpt><trkpt lat="43.78571943266529" lon="10.926022896680264"><ele>84.14285714285714</ele><time>2026-03-22T11:43:09Z</time></trkpt><trkpt lat="43.78569049565225" lon="10.925943417650272"><ele>82.85714285714286</ele><time>2026-03-22T11:43:12Z</time></trkpt><trkpt lat="43.785665592551496" lon="10.925855541258004"><ele>81.57142857142857</ele><time>2026-03-22T11:43:16Z</time></trkpt><trkpt lat="43.7856322311173" lon="10.92577435525936"><ele>80.28571428571429</ele><time>2026-03-22T11:43:19Z</time></trkpt><trkpt lat="43.785602702219435" lon="10.925694367316627"><ele>79.0</ele><time>2026-03-22T11:43:22Z</time></trkpt><trkpt lat="43.78556294555165" lon="10.925624405267058"><ele>79.00000000000001</ele><time>2026-03-22T11:43:25Z</time></trkpt><trkpt lat="43.78550704207577" lon="10.92556165162645"><ele>79.0</ele><time>2026-03-22T11:43:28Z</time></trkpt><trkpt lat="43.78545591466396" lon="10.925487550445695"><ele>79.0</ele><time>2026-03-22T11:43:31Z</time></trkpt><trkpt lat="43.78540700626237" lon="10.925409032944806"><ele>79.0</ele><time>2026-03-22T11:43:34Z</time></trkpt><trkpt lat="43.785364074657586" lon="10.925331708884373"><ele>79.0</ele><time>2026-03-22T11:43:37Z</time></trkpt><trkpt lat="43.78531390094109" lon="10.925275451995114"><ele>79.00000000000001</ele><time>2026-03-22T11:43:40Z</time></trkpt><trkpt lat="43.785271040699776" lon="10.925201934925484"><ele>79.0</ele><time>2026-03-22T11:43:43Z</time></trkpt><trkpt lat="43.78520940150896" lon="10.925155495877084"><ele>78.00000000000001</ele><time>2026-03-22T11:43:46Z</time></trkpt><trkpt lat="43.78515477441335" lon="10.92507025327337"><ele>77.0</ele><time>2026-03-22T11:43:50Z</time></trkpt><trkpt lat="43.78510205437267" lon="10.925009995563746"><ele>76.0</ele><time>2026-03-22T11:43:53Z</time></trkpt><trkpt lat="43.78504001716629" lon="10.924938813317029"><ele>75.0</ele><time>2026-03-22T11:43:57Z</time></trkpt><trkpt lat="43.78498083721193" lon="10.92490197782236"><ele>74.0</ele><time>2026-03-22T11:44:00Z</time></trkpt><trkpt lat="43.78492674453334" lon="10.92485029151301"><ele>73.00000000000001</ele><time>2026-03-22T11:44:02.999Z</time></trkpt><trkpt lat="43.78486227952091" lon="10.92478082861948"><ele>72.0</ele><time>2026-03-22T11:44:06.999Z</time></trkpt><trkpt lat="43.78480311187546" lon="10.924736041790043"><ele>72.0</ele><time>2026-03-22T11:44:09.999Z</time></trkpt><trkpt lat="43.78474240831257" lon="10.924690153191507"><ele>72.0</ele><time>2026-03-22T11:44:12.999Z</time></trkpt><trkpt lat="43.78467139195005" lon="10.924631481757133"><ele>72.0</ele><time>2026-03-22T11:44:16.999Z</time></trkpt><trkpt lat="43.78461661178213" lon="10.9245499213398"><ele>72.0</ele><time>2026-03-22T11:44:20.999Z</time></trkpt><trkpt lat="43.784524877427934" lon="10.924527496558689"><ele>72.0</ele><time>2026-03-22T11:44:24.999Z</time></trkpt><trkpt lat="43.78445896367434" lon="10.924486343851065"><ele>72.0</ele><time>2026-03-22T11:44:27.999Z</time></trkpt><trkpt lat="43.784411605941" lon="10.92438787250852"><ele>72.0</ele><time>2026-03-22T11:44:31.999Z</time></trkpt><trkpt lat="43.7843808453864" lon="10.924293591299397"><ele>72.0</ele><time>2026-03-22T11:44:35.999Z</time></trkpt><trkpt lat="43.784315029423745" lon="10.924236664677789"><ele>72.0</ele><time>2026-03-22T11:44:38.999Z</time></trkpt><trkpt lat="43.7842473597027" lon="10.924197693267056"><ele>72.0</ele><time>2026-03-22T11:44:41.999Z</time></trkpt><trkpt lat="43.78419343041403" lon="10.924112154092818"><ele>72.0</ele><time>2026-03-22T11:44:45.999Z</time></trkpt><trkpt lat="43.78418438223045" lon="10.92401391622055"><ele>72.0</ele><time>2026-03-22T11:44:49.999Z</time></trkpt><trkpt lat="43.784189702286874" lon="10.923908402637025"><ele>71.5</ele><time>2026-03-22T11:44:52.999Z</time></trkpt><trkpt lat="43.784185055954644" lon="10.923797730025226"><ele>71.0</ele><time>2026-03-22T11:44:55.999Z</time></trkpt><trkpt lat="43.78413639835345" lon="10.923682454320984"><ele>70.5</ele><time>2026-03-22T11:44:58.999Z</time></trkpt><trkpt lat="43.784101447876026" lon="10.92360664723354"><ele>70.0</ele><time>2026-03-22T11:45:00.999Z</time></trkpt><trkpt lat="43.78405234216759" lon="10.923508463399543"><ele>69.5</ele><time>2026-03-22T11:45:04Z</time></trkpt><trkpt lat="43.784019323486746" lon="10.923431159140161"><ele>69.0</ele><time>2026-03-22T11:45:06Z</time></trkpt><trkpt lat="43.78397214669551" lon="10.92332575371227"><ele>67.83333333333333</ele><time>2026-03-22T11:45:09Z</time></trkpt><trkpt lat="43.78393115946071" lon="10.92321697565271"><ele>66.66666666666667</ele><time>2026-03-22T11:45:12Z</time></trkpt><trkpt lat="43.78389950348781" lon="10.923112187544934"><ele>65.5</ele><time>2026-03-22T11:45:15Z</time></trkpt><trkpt lat="43.78386795760926" lon="10.923031936376603"><ele>64.33333333333334</ele><time>2026-03-22T11:45:17Z</time></trkpt><trkpt lat="43.78382268922987" lon="10.92293105959009"><ele>63.16666666666667</ele><time>2026-03-22T11:45:20Z</time></trkpt><trkpt lat="43.7837802676575" lon="10.922830622402047"><ele>62.0</ele><time>2026-03-22T11:45:23Z</time></trkpt><trkpt lat="43.7837471382815" lon="10.922729415226147"><ele>62.00000000000001</ele><time>2026-03-22T11:45:26Z</time></trkpt><trkpt lat="43.78370355239115" lon="10.92262993099153"><ele>62.0</ele><time>2026-03-22T11:45:29Z</time></trkpt><trkpt lat="43.783645267954405" lon="10.922535630123603"><ele>62.0</ele><time>2026-03-22T11:45:32Z</time></trkpt><trkpt lat="43.78360267539431" lon="10.922425566541609"><ele>62.0</ele><time>2026-03-22T11:45:35Z</time></trkpt><trkpt lat="43.783551570300936" lon="10.922351229016716"><ele>62.00000000000001</ele><time>2026-03-22T11:45:38Z</time></trkpt><trkpt lat="43.783503331914886" lon="10.922253460066466"><ele>62.0</ele><time>2026-03-22T11:45:41Z</time></trkpt><trkpt lat="43.783457917613774" lon="10.922174426777579"><ele>62.00000000000001</ele><time>2026-03-22T11:45:44Z</time></trkpt><trkpt lat="43.78339919317812" lon="10.922100265847028"><ele>62.0</ele><time>2026-03-22T11:45:47Z</time></trkpt><trkpt lat="43.783346937318065" lon="10.922020413483025"><ele>62.0</ele><time>2026-03-22T11:45:50Z</time></trkpt><trkpt lat="43.7833214434407" lon="10.921929360096984"><ele>62.0</ele><time>2026-03-22T11:45:53Z</time></trkpt><trkpt lat="43.783291878355705" lon="10.921830543833883"><ele>62.00000000000001</ele><time>2026-03-22T11:45:56Z</time></trkpt><trkpt lat="43.78324834292832" lon="10.921724109842838"><ele>62.0</ele><time>2026-03-22T11:45:59Z</time></trkpt><trkpt lat="43.78320930791655" lon="10.92163128417466"><ele>61.42857142857143</ele><time>2026-03-22T11:46:02Z</time></trkpt><trkpt lat="43.783168324804635" lon="10.921563918459887"><ele>60.85714285714286</ele><time>2026-03-22T11:46:05.999Z</time></trkpt><trkpt lat="43.78312791047547" lon="10.921475739190358"><ele>60.28571428571429</ele><time>2026-03-22T11:46:10.999Z</time></trkpt><trkpt lat="43.78307402889702" lon="10.921416563874764"><ele>59.71428571428572</ele><time>2026-03-22T11:46:16.999Z</time></trkpt><trkpt lat="43.78299868744857" lon="10.921407495488399"><ele>59.142857142857146</ele><time>2026-03-22T11:46:21.999Z</time></trkpt><trkpt lat="43.78292950006332" lon="10.921436059921072"><ele>58.571428571428584</ele><time>2026-03-22T11:46:25.999Z</time></trkpt><trkpt lat="43.782868367269714" lon="10.92147157409367"><ele>58.00000000000001</ele><time>2026-03-22T11:46:31.999Z</time></trkpt><trkpt lat="43.78281015941372" lon="10.921507407243425"><ele>58.00000000000001</ele><time>2026-03-22T11:46:38.999Z</time></trkpt><trkpt lat="43.782744298708444" lon="10.921536125583355"><ele>58.0</ele><time>2026-03-22T11:46:45.999Z</time></trkpt><trkpt lat="43.78268264450254" lon="10.92158929116406"><ele>58.00000000000001</ele><time>2026-03-22T11:46:52.999Z</time></trkpt><trkpt lat="43.78261702942221" lon="10.921641533399658"><ele>58.00000000000001</ele><time>2026-03-22T11:46:59.999Z</time></trkpt><trkpt lat="43.78256991431103" lon="10.921705313326925"><ele>58.0</ele><time>2026-03-22T11:47:06.999Z</time></trkpt><trkpt lat="43.782556016060774" lon="10.921794518830437"><ele>58.00000000000001</ele><time>2026-03-22T11:47:12Z</time></trkpt><trkpt lat="43.78259181733783" lon="10.921870882154451"><ele>58.00000000000001</ele><time>2026-03-22T11:47:15Z</time></trkpt><trkpt lat="43.78262387623259" lon="10.92196376266631"><ele>66.0</ele><time>2026-03-22T11:47:20Z</time></trkpt><trkpt lat="43.78267752849261" lon="10.922019657150265"><ele>66.0</ele><time>2026-03-22T11:47:28Z</time></trkpt><trkpt lat="43.78273237973026" lon="10.92207423821767"><ele>62.0</ele><time>2026-03-22T11:47:33Z</time></trkpt><trkpt lat="43.78278492359238" lon="10.922194082032977"><ele>62.0</ele><time>2026-03-22T11:47:47Z</time></trkpt></trkseg></trk></gpx>